<?xml version="1.0" encoding="UTF-8" standalone="no" ?>
<gpx xmlns="http://www.topografix.com/GPX/1/1" xmlns:xsi="http://www.w3.org/2001/XMLSchema-instance" xsi:schemaLocation="http://www.topografix.com/GPX/1/1 http://www.topografix.com/GPX/1/1/gpx.xsd" version="1.1" creator="VisuGPX - https://www.visugpx.com">
  <metadata>
    <name>Gorges du blavet</name>
  </metadata>
  <trk>
    <name><![CDATA[Gorges du blavet]]></name>
    <trkseg>
      <trkpt lat="43.51653" lon="6.65328">
        <ele>215.2</ele>
        <time>2022-04-22T08:13:11Z</time>
      </trkpt>
      <trkpt lat="43.51653" lon="6.65326">
        <ele>215.2</ele>
        <time>2022-04-22T08:13:12Z</time>
      </trkpt>
      <trkpt lat="43.51654" lon="6.65323">
        <ele>215.3</ele>
        <time>2022-04-22T08:13:13Z</time>
      </trkpt>
      <trkpt lat="43.51654" lon="6.65319">
        <ele>215.5</ele>
        <time>2022-04-22T08:13:14Z</time>
      </trkpt>
      <trkpt lat="43.51655" lon="6.65317">
        <ele>215.6</ele>
        <time>2022-04-22T08:13:15Z</time>
      </trkpt>
      <trkpt lat="43.51655" lon="6.65315">
        <ele>215.6</ele>
        <time>2022-04-22T08:13:16Z</time>
      </trkpt>
      <trkpt lat="43.51655" lon="6.65311">
        <ele>215.8</ele>
        <time>2022-04-22T08:13:17Z</time>
      </trkpt>
      <trkpt lat="43.51655" lon="6.6531">
        <ele>215.8</ele>
        <time>2022-04-22T08:13:18Z</time>
      </trkpt>
      <trkpt lat="43.51656" lon="6.65305">
        <ele>216</ele>
        <time>2022-04-22T08:13:20Z</time>
      </trkpt>
      <trkpt lat="43.51657" lon="6.65303">
        <ele>216.1</ele>
        <time>2022-04-22T08:13:21Z</time>
      </trkpt>
      <trkpt lat="43.51657" lon="6.65301">
        <ele>216.2</ele>
        <time>2022-04-22T08:13:22Z</time>
      </trkpt>
      <trkpt lat="43.51658" lon="6.65298">
        <ele>216.3</ele>
        <time>2022-04-22T08:13:23Z</time>
      </trkpt>
      <trkpt lat="43.51658" lon="6.65297">
        <ele>216.3</ele>
        <time>2022-04-22T08:13:24Z</time>
      </trkpt>
      <trkpt lat="43.51659" lon="6.65296">
        <ele>216.4</ele>
        <time>2022-04-22T08:13:25Z</time>
      </trkpt>
      <trkpt lat="43.5166" lon="6.65294">
        <ele>216.5</ele>
        <time>2022-04-22T08:13:26Z</time>
      </trkpt>
      <trkpt lat="43.51661" lon="6.65292">
        <ele>216.6</ele>
        <time>2022-04-22T08:13:27Z</time>
      </trkpt>
      <trkpt lat="43.51664" lon="6.6529">
        <ele>216.7</ele>
        <time>2022-04-22T08:13:28Z</time>
      </trkpt>
      <trkpt lat="43.51665" lon="6.65289">
        <ele>216.8</ele>
        <time>2022-04-22T08:13:29Z</time>
      </trkpt>
      <trkpt lat="43.51666" lon="6.65288">
        <ele>216.9</ele>
        <time>2022-04-22T08:13:30Z</time>
      </trkpt>
      <trkpt lat="43.51668" lon="6.65287">
        <ele>216.9</ele>
        <time>2022-04-22T08:13:31Z</time>
      </trkpt>
      <trkpt lat="43.5167" lon="6.65285">
        <ele>217.1</ele>
        <time>2022-04-22T08:13:32Z</time>
      </trkpt>
      <trkpt lat="43.51671" lon="6.65285">
        <ele>217.1</ele>
        <time>2022-04-22T08:13:33Z</time>
      </trkpt>
      <trkpt lat="43.51672" lon="6.65284">
        <ele>217.1</ele>
        <time>2022-04-22T08:13:34Z</time>
      </trkpt>
      <trkpt lat="43.51673" lon="6.65284">
        <ele>217</ele>
        <time>2022-04-22T08:13:36Z</time>
      </trkpt>
      <trkpt lat="43.51674" lon="6.65285">
        <ele>217</ele>
        <time>2022-04-22T08:13:37Z</time>
      </trkpt>
      <trkpt lat="43.51675" lon="6.65285">
        <ele>216.9</ele>
        <time>2022-04-22T08:13:38Z</time>
      </trkpt>
      <trkpt lat="43.51676" lon="6.65287">
        <ele>216.9</ele>
        <time>2022-04-22T08:13:39Z</time>
      </trkpt>
      <trkpt lat="43.51677" lon="6.65288">
        <ele>216.8</ele>
        <time>2022-04-22T08:13:40Z</time>
      </trkpt>
      <trkpt lat="43.51677" lon="6.65289">
        <ele>216.8</ele>
        <time>2022-04-22T08:13:41Z</time>
      </trkpt>
      <trkpt lat="43.51677" lon="6.6529">
        <ele>216.8</ele>
        <time>2022-04-22T08:13:42Z</time>
      </trkpt>
      <trkpt lat="43.51677" lon="6.65291">
        <ele>216.7</ele>
        <time>2022-04-22T08:13:43Z</time>
      </trkpt>
      <trkpt lat="43.51677" lon="6.65293">
        <ele>216.7</ele>
        <time>2022-04-22T08:13:45Z</time>
      </trkpt>
      <trkpt lat="43.51677" lon="6.65297">
        <ele>216.5</ele>
        <time>2022-04-22T08:13:46Z</time>
      </trkpt>
      <trkpt lat="43.51677" lon="6.65298">
        <ele>216.5</ele>
        <time>2022-04-22T08:13:47Z</time>
      </trkpt>
      <trkpt lat="43.51676" lon="6.65303">
        <ele>216.4</ele>
        <time>2022-04-22T08:13:48Z</time>
      </trkpt>
      <trkpt lat="43.51676" lon="6.65304">
        <ele>216.3</ele>
        <time>2022-04-22T08:13:49Z</time>
      </trkpt>
      <trkpt lat="43.51674" lon="6.65307">
        <ele>216.2</ele>
        <time>2022-04-22T08:13:51Z</time>
      </trkpt>
      <trkpt lat="43.51673" lon="6.65309">
        <ele>216.1</ele>
        <time>2022-04-22T08:13:52Z</time>
      </trkpt>
      <trkpt lat="43.51672" lon="6.65311">
        <ele>216</ele>
        <time>2022-04-22T08:13:54Z</time>
      </trkpt>
      <trkpt lat="43.51672" lon="6.65313">
        <ele>216</ele>
        <time>2022-04-22T08:13:55Z</time>
      </trkpt>
      <trkpt lat="43.51672" lon="6.65315">
        <ele>215.9</ele>
        <time>2022-04-22T08:13:56Z</time>
      </trkpt>
      <trkpt lat="43.51672" lon="6.6532">
        <ele>215.8</ele>
        <time>2022-04-22T08:13:57Z</time>
      </trkpt>
      <trkpt lat="43.51672" lon="6.65321">
        <ele>215.7</ele>
        <time>2022-04-22T08:13:58Z</time>
      </trkpt>
      <trkpt lat="43.51671" lon="6.65325">
        <ele>215.6</ele>
        <time>2022-04-22T08:14:00Z</time>
      </trkpt>
      <trkpt lat="43.51669" lon="6.65327">
        <ele>215.5</ele>
        <time>2022-04-22T08:14:01Z</time>
      </trkpt>
      <trkpt lat="43.51669" lon="6.65327">
        <ele>215.5</ele>
        <time>2022-04-22T08:14:02Z</time>
      </trkpt>
      <trkpt lat="43.51669" lon="6.65329">
        <ele>215.5</ele>
        <time>2022-04-22T08:14:03Z</time>
      </trkpt>
      <trkpt lat="43.51669" lon="6.65331">
        <ele>215.4</ele>
        <time>2022-04-22T08:14:04Z</time>
      </trkpt>
      <trkpt lat="43.51667" lon="6.65332">
        <ele>215.3</ele>
        <time>2022-04-22T08:14:06Z</time>
      </trkpt>
      <trkpt lat="43.51666" lon="6.65334">
        <ele>215.3</ele>
        <time>2022-04-22T08:14:07Z</time>
      </trkpt>
      <trkpt lat="43.51665" lon="6.65335">
        <ele>215.2</ele>
        <time>2022-04-22T08:14:08Z</time>
      </trkpt>
      <trkpt lat="43.51664" lon="6.65338">
        <ele>215.1</ele>
        <time>2022-04-22T08:14:09Z</time>
      </trkpt>
      <trkpt lat="43.51663" lon="6.65341">
        <ele>215</ele>
        <time>2022-04-22T08:14:11Z</time>
      </trkpt>
      <trkpt lat="43.51663" lon="6.65344">
        <ele>214.9</ele>
        <time>2022-04-22T08:14:12Z</time>
      </trkpt>
      <trkpt lat="43.51664" lon="6.65346">
        <ele>214.9</ele>
        <time>2022-04-22T08:14:14Z</time>
      </trkpt>
      <trkpt lat="43.51664" lon="6.65348">
        <ele>214.8</ele>
        <time>2022-04-22T08:14:15Z</time>
      </trkpt>
      <trkpt lat="43.51664" lon="6.6535">
        <ele>214.7</ele>
        <time>2022-04-22T08:14:16Z</time>
      </trkpt>
      <trkpt lat="43.51665" lon="6.65352">
        <ele>214.6</ele>
        <time>2022-04-22T08:14:17Z</time>
      </trkpt>
      <trkpt lat="43.51665" lon="6.65355">
        <ele>214.6</ele>
        <time>2022-04-22T08:14:19Z</time>
      </trkpt>
      <trkpt lat="43.51665" lon="6.65357">
        <ele>214.5</ele>
        <time>2022-04-22T08:14:20Z</time>
      </trkpt>
      <trkpt lat="43.51665" lon="6.65361">
        <ele>214.4</ele>
        <time>2022-04-22T08:14:21Z</time>
      </trkpt>
      <trkpt lat="43.51665" lon="6.65363">
        <ele>214.3</ele>
        <time>2022-04-22T08:14:22Z</time>
      </trkpt>
      <trkpt lat="43.51665" lon="6.65365">
        <ele>214.2</ele>
        <time>2022-04-22T08:14:23Z</time>
      </trkpt>
      <trkpt lat="43.51665" lon="6.65368">
        <ele>214.2</ele>
        <time>2022-04-22T08:14:25Z</time>
      </trkpt>
      <trkpt lat="43.51664" lon="6.6537">
        <ele>214.1</ele>
        <time>2022-04-22T08:14:26Z</time>
      </trkpt>
      <trkpt lat="43.51664" lon="6.65371">
        <ele>214</ele>
        <time>2022-04-22T08:14:27Z</time>
      </trkpt>
      <trkpt lat="43.51664" lon="6.65372">
        <ele>214</ele>
        <time>2022-04-22T08:14:28Z</time>
      </trkpt>
      <trkpt lat="43.51663" lon="6.65374">
        <ele>213.9</ele>
        <time>2022-04-22T08:14:29Z</time>
      </trkpt>
      <trkpt lat="43.51662" lon="6.65375">
        <ele>213.9</ele>
        <time>2022-04-22T08:14:30Z</time>
      </trkpt>
      <trkpt lat="43.51661" lon="6.65379">
        <ele>213.7</ele>
        <time>2022-04-22T08:14:32Z</time>
      </trkpt>
      <trkpt lat="43.5166" lon="6.6538">
        <ele>213.7</ele>
        <time>2022-04-22T08:14:33Z</time>
      </trkpt>
      <trkpt lat="43.51658" lon="6.65384">
        <ele>213.5</ele>
        <time>2022-04-22T08:14:34Z</time>
      </trkpt>
      <trkpt lat="43.51657" lon="6.65385">
        <ele>213.5</ele>
        <time>2022-04-22T08:14:35Z</time>
      </trkpt>
      <trkpt lat="43.51654" lon="6.65387">
        <ele>213.3</ele>
        <time>2022-04-22T08:14:37Z</time>
      </trkpt>
      <trkpt lat="43.51653" lon="6.65389">
        <ele>213.2</ele>
        <time>2022-04-22T08:14:38Z</time>
      </trkpt>
      <trkpt lat="43.51651" lon="6.6539">
        <ele>213.2</ele>
        <time>2022-04-22T08:14:39Z</time>
      </trkpt>
      <trkpt lat="43.5165" lon="6.65391">
        <ele>211.9</ele>
        <time>2022-04-22T08:14:40Z</time>
      </trkpt>
      <trkpt lat="43.51649" lon="6.65392">
        <ele>211.7</ele>
        <time>2022-04-22T08:14:41Z</time>
      </trkpt>
      <trkpt lat="43.51648" lon="6.65393">
        <ele>211.5</ele>
        <time>2022-04-22T08:14:42Z</time>
      </trkpt>
      <trkpt lat="43.51646" lon="6.65394">
        <ele>211.3</ele>
        <time>2022-04-22T08:14:43Z</time>
      </trkpt>
      <trkpt lat="43.51645" lon="6.65394">
        <ele>211.2</ele>
        <time>2022-04-22T08:14:44Z</time>
      </trkpt>
      <trkpt lat="43.51644" lon="6.65395">
        <ele>211</ele>
        <time>2022-04-22T08:14:45Z</time>
      </trkpt>
      <trkpt lat="43.51644" lon="6.65396">
        <ele>210.8</ele>
        <time>2022-04-22T08:14:46Z</time>
      </trkpt>
      <trkpt lat="43.51643" lon="6.65397">
        <ele>210.6</ele>
        <time>2022-04-22T08:14:47Z</time>
      </trkpt>
      <trkpt lat="43.51642" lon="6.65399">
        <ele>210.4</ele>
        <time>2022-04-22T08:14:48Z</time>
      </trkpt>
      <trkpt lat="43.51641" lon="6.65401">
        <ele>210.2</ele>
        <time>2022-04-22T08:14:50Z</time>
      </trkpt>
      <trkpt lat="43.5164" lon="6.65402">
        <ele>210</ele>
        <time>2022-04-22T08:14:51Z</time>
      </trkpt>
      <trkpt lat="43.5164" lon="6.65404">
        <ele>209.9</ele>
        <time>2022-04-22T08:14:52Z</time>
      </trkpt>
      <trkpt lat="43.5164" lon="6.65405">
        <ele>209.8</ele>
        <time>2022-04-22T08:14:54Z</time>
      </trkpt>
      <trkpt lat="43.51639" lon="6.65406">
        <ele>209.6</ele>
        <time>2022-04-22T08:14:55Z</time>
      </trkpt>
      <trkpt lat="43.51639" lon="6.65407">
        <ele>209.5</ele>
        <time>2022-04-22T08:14:56Z</time>
      </trkpt>
      <trkpt lat="43.51638" lon="6.65408">
        <ele>209.4</ele>
        <time>2022-04-22T08:14:57Z</time>
      </trkpt>
      <trkpt lat="43.51636" lon="6.65408">
        <ele>209.1</ele>
        <time>2022-04-22T08:14:58Z</time>
      </trkpt>
      <trkpt lat="43.51635" lon="6.65408">
        <ele>209</ele>
        <time>2022-04-22T08:15:00Z</time>
      </trkpt>
      <trkpt lat="43.51634" lon="6.65407">
        <ele>208.9</ele>
        <time>2022-04-22T08:15:01Z</time>
      </trkpt>
      <trkpt lat="43.51633" lon="6.65406">
        <ele>208.8</ele>
        <time>2022-04-22T08:15:02Z</time>
      </trkpt>
      <trkpt lat="43.51632" lon="6.65406">
        <ele>208.7</ele>
        <time>2022-04-22T08:15:03Z</time>
      </trkpt>
      <trkpt lat="43.51631" lon="6.65405">
        <ele>208.6</ele>
        <time>2022-04-22T08:15:04Z</time>
      </trkpt>
      <trkpt lat="43.5163" lon="6.65404">
        <ele>208.6</ele>
        <time>2022-04-22T08:15:05Z</time>
      </trkpt>
      <trkpt lat="43.51629" lon="6.65404">
        <ele>208.5</ele>
        <time>2022-04-22T08:15:06Z</time>
      </trkpt>
      <trkpt lat="43.51628" lon="6.65404">
        <ele>208.5</ele>
        <time>2022-04-22T08:15:07Z</time>
      </trkpt>
      <trkpt lat="43.51627" lon="6.65404">
        <ele>208.4</ele>
        <time>2022-04-22T08:15:08Z</time>
      </trkpt>
      <trkpt lat="43.51626" lon="6.65404">
        <ele>208.4</ele>
        <time>2022-04-22T08:15:09Z</time>
      </trkpt>
      <trkpt lat="43.51626" lon="6.65404">
        <ele>208.4</ele>
        <time>2022-04-22T08:15:10Z</time>
      </trkpt>
      <trkpt lat="43.51625" lon="6.65404">
        <ele>208.4</ele>
        <time>2022-04-22T08:15:11Z</time>
      </trkpt>
      <trkpt lat="43.51624" lon="6.65404">
        <ele>208.3</ele>
        <time>2022-04-22T08:15:12Z</time>
      </trkpt>
      <trkpt lat="43.51623" lon="6.65405">
        <ele>208.3</ele>
        <time>2022-04-22T08:15:13Z</time>
      </trkpt>
      <trkpt lat="43.51622" lon="6.65406">
        <ele>208.3</ele>
        <time>2022-04-22T08:15:14Z</time>
      </trkpt>
      <trkpt lat="43.51622" lon="6.65407">
        <ele>208.3</ele>
        <time>2022-04-22T08:15:15Z</time>
      </trkpt>
      <trkpt lat="43.51621" lon="6.65408">
        <ele>208.3</ele>
        <time>2022-04-22T08:15:16Z</time>
      </trkpt>
      <trkpt lat="43.51621" lon="6.6541">
        <ele>208.3</ele>
        <time>2022-04-22T08:15:17Z</time>
      </trkpt>
      <trkpt lat="43.51621" lon="6.65412">
        <ele>208.3</ele>
        <time>2022-04-22T08:15:18Z</time>
      </trkpt>
      <trkpt lat="43.5162" lon="6.65414">
        <ele>208.3</ele>
        <time>2022-04-22T08:15:19Z</time>
      </trkpt>
      <trkpt lat="43.5162" lon="6.65416">
        <ele>208.4</ele>
        <time>2022-04-22T08:15:20Z</time>
      </trkpt>
      <trkpt lat="43.5162" lon="6.65418">
        <ele>208.4</ele>
        <time>2022-04-22T08:15:21Z</time>
      </trkpt>
      <trkpt lat="43.51619" lon="6.6542">
        <ele>208.4</ele>
        <time>2022-04-22T08:15:22Z</time>
      </trkpt>
      <trkpt lat="43.51619" lon="6.65425">
        <ele>208.5</ele>
        <time>2022-04-22T08:15:24Z</time>
      </trkpt>
      <trkpt lat="43.51619" lon="6.65429">
        <ele>208.5</ele>
        <time>2022-04-22T08:15:25Z</time>
      </trkpt>
      <trkpt lat="43.51619" lon="6.65431">
        <ele>208.5</ele>
        <time>2022-04-22T08:15:26Z</time>
      </trkpt>
      <trkpt lat="43.51619" lon="6.65434">
        <ele>208.5</ele>
        <time>2022-04-22T08:15:27Z</time>
      </trkpt>
      <trkpt lat="43.51618" lon="6.65436">
        <ele>208.5</ele>
        <time>2022-04-22T08:15:28Z</time>
      </trkpt>
      <trkpt lat="43.51618" lon="6.65438">
        <ele>208.4</ele>
        <time>2022-04-22T08:15:29Z</time>
      </trkpt>
      <trkpt lat="43.51617" lon="6.65439">
        <ele>208.4</ele>
        <time>2022-04-22T08:15:30Z</time>
      </trkpt>
      <trkpt lat="43.51615" lon="6.65442">
        <ele>208.4</ele>
        <time>2022-04-22T08:15:31Z</time>
      </trkpt>
      <trkpt lat="43.51615" lon="6.65444">
        <ele>208.4</ele>
        <time>2022-04-22T08:15:32Z</time>
      </trkpt>
      <trkpt lat="43.51614" lon="6.65446">
        <ele>208.3</ele>
        <time>2022-04-22T08:15:33Z</time>
      </trkpt>
      <trkpt lat="43.51614" lon="6.65447">
        <ele>208.3</ele>
        <time>2022-04-22T08:15:34Z</time>
      </trkpt>
      <trkpt lat="43.51613" lon="6.65449">
        <ele>208.3</ele>
        <time>2022-04-22T08:15:35Z</time>
      </trkpt>
      <trkpt lat="43.51611" lon="6.65452">
        <ele>208.2</ele>
        <time>2022-04-22T08:15:37Z</time>
      </trkpt>
      <trkpt lat="43.51611" lon="6.65453">
        <ele>208.1</ele>
        <time>2022-04-22T08:15:38Z</time>
      </trkpt>
      <trkpt lat="43.5161" lon="6.65454">
        <ele>208.1</ele>
        <time>2022-04-22T08:15:39Z</time>
      </trkpt>
      <trkpt lat="43.51609" lon="6.65455">
        <ele>208.1</ele>
        <time>2022-04-22T08:15:40Z</time>
      </trkpt>
      <trkpt lat="43.51609" lon="6.65456">
        <ele>208.1</ele>
        <time>2022-04-22T08:15:41Z</time>
      </trkpt>
      <trkpt lat="43.51609" lon="6.65456">
        <ele>208</ele>
        <time>2022-04-22T08:15:42Z</time>
      </trkpt>
      <trkpt lat="43.51609" lon="6.65456">
        <ele>208</ele>
        <time>2022-04-22T08:15:43Z</time>
      </trkpt>
      <trkpt lat="43.51609" lon="6.65457">
        <ele>208</ele>
        <time>2022-04-22T08:15:44Z</time>
      </trkpt>
      <trkpt lat="43.51609" lon="6.65459">
        <ele>208</ele>
        <time>2022-04-22T08:15:45Z</time>
      </trkpt>
      <trkpt lat="43.51608" lon="6.65461">
        <ele>207.9</ele>
        <time>2022-04-22T08:15:46Z</time>
      </trkpt>
      <trkpt lat="43.51608" lon="6.65462">
        <ele>207.9</ele>
        <time>2022-04-22T08:15:47Z</time>
      </trkpt>
      <trkpt lat="43.51608" lon="6.65463">
        <ele>207.9</ele>
        <time>2022-04-22T08:15:48Z</time>
      </trkpt>
      <trkpt lat="43.51608" lon="6.65465">
        <ele>207.9</ele>
        <time>2022-04-22T08:15:49Z</time>
      </trkpt>
      <trkpt lat="43.51607" lon="6.65466">
        <ele>207.8</ele>
        <time>2022-04-22T08:15:50Z</time>
      </trkpt>
      <trkpt lat="43.51607" lon="6.65468">
        <ele>207.8</ele>
        <time>2022-04-22T08:15:51Z</time>
      </trkpt>
      <trkpt lat="43.51607" lon="6.65469">
        <ele>207.8</ele>
        <time>2022-04-22T08:15:52Z</time>
      </trkpt>
      <trkpt lat="43.51606" lon="6.65472">
        <ele>207.7</ele>
        <time>2022-04-22T08:15:53Z</time>
      </trkpt>
      <trkpt lat="43.51606" lon="6.65473">
        <ele>207.7</ele>
        <time>2022-04-22T08:15:54Z</time>
      </trkpt>
      <trkpt lat="43.51605" lon="6.65474">
        <ele>207.6</ele>
        <time>2022-04-22T08:15:55Z</time>
      </trkpt>
      <trkpt lat="43.51605" lon="6.65477">
        <ele>207.6</ele>
        <time>2022-04-22T08:15:56Z</time>
      </trkpt>
      <trkpt lat="43.51604" lon="6.65479">
        <ele>207.6</ele>
        <time>2022-04-22T08:15:57Z</time>
      </trkpt>
      <trkpt lat="43.51604" lon="6.65481">
        <ele>207.5</ele>
        <time>2022-04-22T08:15:58Z</time>
      </trkpt>
      <trkpt lat="43.51604" lon="6.65483">
        <ele>207.4</ele>
        <time>2022-04-22T08:15:59Z</time>
      </trkpt>
      <trkpt lat="43.51603" lon="6.65486">
        <ele>207.4</ele>
        <time>2022-04-22T08:16:00Z</time>
      </trkpt>
      <trkpt lat="43.51603" lon="6.65488">
        <ele>207.3</ele>
        <time>2022-04-22T08:16:01Z</time>
      </trkpt>
      <trkpt lat="43.51602" lon="6.65489">
        <ele>207.3</ele>
        <time>2022-04-22T08:16:02Z</time>
      </trkpt>
      <trkpt lat="43.51601" lon="6.65493">
        <ele>207.2</ele>
        <time>2022-04-22T08:16:04Z</time>
      </trkpt>
      <trkpt lat="43.516" lon="6.65496">
        <ele>207.1</ele>
        <time>2022-04-22T08:16:06Z</time>
      </trkpt>
      <trkpt lat="43.516" lon="6.65498">
        <ele>207.1</ele>
        <time>2022-04-22T08:16:07Z</time>
      </trkpt>
      <trkpt lat="43.51599" lon="6.655">
        <ele>207</ele>
        <time>2022-04-22T08:16:08Z</time>
      </trkpt>
      <trkpt lat="43.51599" lon="6.65501">
        <ele>207</ele>
        <time>2022-04-22T08:16:09Z</time>
      </trkpt>
      <trkpt lat="43.51599" lon="6.65503">
        <ele>206.9</ele>
        <time>2022-04-22T08:16:10Z</time>
      </trkpt>
      <trkpt lat="43.51599" lon="6.65505">
        <ele>206.9</ele>
        <time>2022-04-22T08:16:12Z</time>
      </trkpt>
      <trkpt lat="43.51598" lon="6.65506">
        <ele>206.8</ele>
        <time>2022-04-22T08:16:13Z</time>
      </trkpt>
      <trkpt lat="43.51598" lon="6.65507">
        <ele>206.8</ele>
        <time>2022-04-22T08:16:14Z</time>
      </trkpt>
      <trkpt lat="43.51598" lon="6.65508">
        <ele>206.8</ele>
        <time>2022-04-22T08:16:15Z</time>
      </trkpt>
      <trkpt lat="43.51597" lon="6.65508">
        <ele>205.9</ele>
        <time>2022-04-22T08:16:17Z</time>
      </trkpt>
      <trkpt lat="43.51596" lon="6.65508">
        <ele>205.7</ele>
        <time>2022-04-22T08:16:18Z</time>
      </trkpt>
      <trkpt lat="43.51595" lon="6.65508">
        <ele>205.5</ele>
        <time>2022-04-22T08:16:19Z</time>
      </trkpt>
      <trkpt lat="43.51595" lon="6.65509">
        <ele>205.4</ele>
        <time>2022-04-22T08:16:20Z</time>
      </trkpt>
      <trkpt lat="43.51594" lon="6.6551">
        <ele>205.1</ele>
        <time>2022-04-22T08:16:21Z</time>
      </trkpt>
      <trkpt lat="43.51594" lon="6.65511">
        <ele>205</ele>
        <time>2022-04-22T08:16:22Z</time>
      </trkpt>
      <trkpt lat="43.51595" lon="6.65512">
        <ele>204.7</ele>
        <time>2022-04-22T08:16:23Z</time>
      </trkpt>
      <trkpt lat="43.51595" lon="6.65513">
        <ele>204.5</ele>
        <time>2022-04-22T08:16:24Z</time>
      </trkpt>
      <trkpt lat="43.51595" lon="6.65514">
        <ele>204.4</ele>
        <time>2022-04-22T08:16:25Z</time>
      </trkpt>
      <trkpt lat="43.51595" lon="6.65515">
        <ele>204.2</ele>
        <time>2022-04-22T08:16:26Z</time>
      </trkpt>
      <trkpt lat="43.51595" lon="6.65515">
        <ele>204</ele>
        <time>2022-04-22T08:16:27Z</time>
      </trkpt>
      <trkpt lat="43.51594" lon="6.65515">
        <ele>203.7</ele>
        <time>2022-04-22T08:16:28Z</time>
      </trkpt>
      <trkpt lat="43.51591" lon="6.65514">
        <ele>202.9</ele>
        <time>2022-04-22T08:16:30Z</time>
      </trkpt>
      <trkpt lat="43.51589" lon="6.65512">
        <ele>202.1</ele>
        <time>2022-04-22T08:16:31Z</time>
      </trkpt>
      <trkpt lat="43.51587" lon="6.6551">
        <ele>201.4</ele>
        <time>2022-04-22T08:16:32Z</time>
      </trkpt>
      <trkpt lat="43.51586" lon="6.6551">
        <ele>201.1</ele>
        <time>2022-04-22T08:16:33Z</time>
      </trkpt>
      <trkpt lat="43.51585" lon="6.65509">
        <ele>200.8</ele>
        <time>2022-04-22T08:16:34Z</time>
      </trkpt>
      <trkpt lat="43.51583" lon="6.65509">
        <ele>200.1</ele>
        <time>2022-04-22T08:16:36Z</time>
      </trkpt>
      <trkpt lat="43.51582" lon="6.6551">
        <ele>199.7</ele>
        <time>2022-04-22T08:16:37Z</time>
      </trkpt>
      <trkpt lat="43.51582" lon="6.65512">
        <ele>199.4</ele>
        <time>2022-04-22T08:16:38Z</time>
      </trkpt>
      <trkpt lat="43.51581" lon="6.65513">
        <ele>199.1</ele>
        <time>2022-04-22T08:16:39Z</time>
      </trkpt>
      <trkpt lat="43.51581" lon="6.65513">
        <ele>198.8</ele>
        <time>2022-04-22T08:16:40Z</time>
      </trkpt>
      <trkpt lat="43.5158" lon="6.65512">
        <ele>198.4</ele>
        <time>2022-04-22T08:16:41Z</time>
      </trkpt>
      <trkpt lat="43.51579" lon="6.65511">
        <ele>198.1</ele>
        <time>2022-04-22T08:16:43Z</time>
      </trkpt>
      <trkpt lat="43.51578" lon="6.65511">
        <ele>197.7</ele>
        <time>2022-04-22T08:16:44Z</time>
      </trkpt>
      <trkpt lat="43.51577" lon="6.65511">
        <ele>197.4</ele>
        <time>2022-04-22T08:16:45Z</time>
      </trkpt>
      <trkpt lat="43.51576" lon="6.6551">
        <ele>197.2</ele>
        <time>2022-04-22T08:16:46Z</time>
      </trkpt>
      <trkpt lat="43.51576" lon="6.6551">
        <ele>197</ele>
        <time>2022-04-22T08:16:47Z</time>
      </trkpt>
      <trkpt lat="43.51575" lon="6.6551">
        <ele>196.8</ele>
        <time>2022-04-22T08:16:48Z</time>
      </trkpt>
      <trkpt lat="43.51574" lon="6.65509">
        <ele>196.5</ele>
        <time>2022-04-22T08:16:49Z</time>
      </trkpt>
      <trkpt lat="43.51572" lon="6.65507">
        <ele>195.7</ele>
        <time>2022-04-22T08:16:51Z</time>
      </trkpt>
      <trkpt lat="43.51572" lon="6.65506">
        <ele>195.4</ele>
        <time>2022-04-22T08:16:52Z</time>
      </trkpt>
      <trkpt lat="43.51571" lon="6.65505">
        <ele>195.1</ele>
        <time>2022-04-22T08:16:53Z</time>
      </trkpt>
      <trkpt lat="43.5157" lon="6.65505">
        <ele>194.9</ele>
        <time>2022-04-22T08:16:54Z</time>
      </trkpt>
      <trkpt lat="43.51569" lon="6.65505">
        <ele>194.5</ele>
        <time>2022-04-22T08:16:55Z</time>
      </trkpt>
      <trkpt lat="43.51569" lon="6.65505">
        <ele>194.3</ele>
        <time>2022-04-22T08:16:56Z</time>
      </trkpt>
      <trkpt lat="43.51568" lon="6.65506">
        <ele>194</ele>
        <time>2022-04-22T08:16:57Z</time>
      </trkpt>
      <trkpt lat="43.51567" lon="6.65507">
        <ele>193.7</ele>
        <time>2022-04-22T08:16:58Z</time>
      </trkpt>
      <trkpt lat="43.51569" lon="6.65508">
        <ele>193</ele>
        <time>2022-04-22T08:16:59Z</time>
      </trkpt>
      <trkpt lat="43.51569" lon="6.65509">
        <ele>192.7</ele>
        <time>2022-04-22T08:17:00Z</time>
      </trkpt>
      <trkpt lat="43.51568" lon="6.65509">
        <ele>192.4</ele>
        <time>2022-04-22T08:17:02Z</time>
      </trkpt>
      <trkpt lat="43.51568" lon="6.65509">
        <ele>192.2</ele>
        <time>2022-04-22T08:17:03Z</time>
      </trkpt>
      <trkpt lat="43.51567" lon="6.65509">
        <ele>191.9</ele>
        <time>2022-04-22T08:17:04Z</time>
      </trkpt>
      <trkpt lat="43.51566" lon="6.65509">
        <ele>191.7</ele>
        <time>2022-04-22T08:17:05Z</time>
      </trkpt>
      <trkpt lat="43.51567" lon="6.65509">
        <ele>191.5</ele>
        <time>2022-04-22T08:17:06Z</time>
      </trkpt>
      <trkpt lat="43.51566" lon="6.65509">
        <ele>191.4</ele>
        <time>2022-04-22T08:17:07Z</time>
      </trkpt>
      <trkpt lat="43.51566" lon="6.65509">
        <ele>191.2</ele>
        <time>2022-04-22T08:17:09Z</time>
      </trkpt>
      <trkpt lat="43.51566" lon="6.6551">
        <ele>191</ele>
        <time>2022-04-22T08:17:10Z</time>
      </trkpt>
      <trkpt lat="43.51565" lon="6.65511">
        <ele>190.7</ele>
        <time>2022-04-22T08:17:11Z</time>
      </trkpt>
      <trkpt lat="43.51565" lon="6.65512">
        <ele>190.6</ele>
        <time>2022-04-22T08:17:12Z</time>
      </trkpt>
      <trkpt lat="43.51565" lon="6.65512">
        <ele>190.6</ele>
        <time>2022-04-22T08:17:13Z</time>
      </trkpt>
      <trkpt lat="43.51564" lon="6.65512">
        <ele>190.4</ele>
        <time>2022-04-22T08:17:14Z</time>
      </trkpt>
      <trkpt lat="43.51564" lon="6.65512">
        <ele>190.4</ele>
        <time>2022-04-22T08:17:15Z</time>
      </trkpt>
      <trkpt lat="43.51564" lon="6.65511">
        <ele>190.3</ele>
        <time>2022-04-22T08:17:16Z</time>
      </trkpt>
      <trkpt lat="43.51563" lon="6.65511">
        <ele>190.1</ele>
        <time>2022-04-22T08:17:17Z</time>
      </trkpt>
      <trkpt lat="43.51563" lon="6.65511">
        <ele>190</ele>
        <time>2022-04-22T08:17:18Z</time>
      </trkpt>
      <trkpt lat="43.51563" lon="6.65512">
        <ele>189.8</ele>
        <time>2022-04-22T08:17:19Z</time>
      </trkpt>
      <trkpt lat="43.51562" lon="6.65512">
        <ele>189.6</ele>
        <time>2022-04-22T08:17:21Z</time>
      </trkpt>
      <trkpt lat="43.51562" lon="6.65512">
        <ele>189.5</ele>
        <time>2022-04-22T08:17:22Z</time>
      </trkpt>
      <trkpt lat="43.51561" lon="6.65511">
        <ele>189.3</ele>
        <time>2022-04-22T08:17:23Z</time>
      </trkpt>
      <trkpt lat="43.5156" lon="6.6551">
        <ele>189</ele>
        <time>2022-04-22T08:17:24Z</time>
      </trkpt>
      <trkpt lat="43.5156" lon="6.65509">
        <ele>188.7</ele>
        <time>2022-04-22T08:17:25Z</time>
      </trkpt>
      <trkpt lat="43.51559" lon="6.65508">
        <ele>188.5</ele>
        <time>2022-04-22T08:17:26Z</time>
      </trkpt>
      <trkpt lat="43.51558" lon="6.65507">
        <ele>188.2</ele>
        <time>2022-04-22T08:17:27Z</time>
      </trkpt>
      <trkpt lat="43.51558" lon="6.65507">
        <ele>188</ele>
        <time>2022-04-22T08:17:28Z</time>
      </trkpt>
      <trkpt lat="43.51557" lon="6.65506">
        <ele>187.8</ele>
        <time>2022-04-22T08:17:29Z</time>
      </trkpt>
      <trkpt lat="43.51556" lon="6.65506">
        <ele>187.6</ele>
        <time>2022-04-22T08:17:30Z</time>
      </trkpt>
      <trkpt lat="43.51556" lon="6.65505">
        <ele>187.6</ele>
        <time>2022-04-22T08:17:31Z</time>
      </trkpt>
      <trkpt lat="43.51556" lon="6.65505">
        <ele>187.5</ele>
        <time>2022-04-22T08:17:32Z</time>
      </trkpt>
      <trkpt lat="43.51556" lon="6.65505">
        <ele>187.5</ele>
        <time>2022-04-22T08:17:33Z</time>
      </trkpt>
      <trkpt lat="43.51556" lon="6.65505">
        <ele>187.4</ele>
        <time>2022-04-22T08:17:34Z</time>
      </trkpt>
      <trkpt lat="43.51556" lon="6.65504">
        <ele>187.4</ele>
        <time>2022-04-22T08:17:35Z</time>
      </trkpt>
      <trkpt lat="43.51556" lon="6.65505">
        <ele>187.3</ele>
        <time>2022-04-22T08:17:36Z</time>
      </trkpt>
      <trkpt lat="43.51556" lon="6.65505">
        <ele>187.3</ele>
        <time>2022-04-22T08:17:37Z</time>
      </trkpt>
      <trkpt lat="43.51557" lon="6.65505">
        <ele>187.2</ele>
        <time>2022-04-22T08:17:38Z</time>
      </trkpt>
      <trkpt lat="43.51557" lon="6.65505">
        <ele>187.2</ele>
        <time>2022-04-22T08:17:39Z</time>
      </trkpt>
      <trkpt lat="43.51557" lon="6.65505">
        <ele>187.2</ele>
        <time>2022-04-22T08:17:40Z</time>
      </trkpt>
      <trkpt lat="43.51557" lon="6.65505">
        <ele>187.2</ele>
        <time>2022-04-22T08:17:41Z</time>
      </trkpt>
      <trkpt lat="43.51557" lon="6.65505">
        <ele>187.2</ele>
        <time>2022-04-22T08:17:42Z</time>
      </trkpt>
      <trkpt lat="43.51557" lon="6.65504">
        <ele>187.2</ele>
        <time>2022-04-22T08:17:43Z</time>
      </trkpt>
      <trkpt lat="43.51557" lon="6.65504">
        <ele>187.2</ele>
        <time>2022-04-22T08:17:44Z</time>
      </trkpt>
      <trkpt lat="43.51557" lon="6.65505">
        <ele>187.1</ele>
        <time>2022-04-22T08:17:45Z</time>
      </trkpt>
      <trkpt lat="43.51557" lon="6.65505">
        <ele>187</ele>
        <time>2022-04-22T08:17:46Z</time>
      </trkpt>
      <trkpt lat="43.51557" lon="6.65505">
        <ele>187</ele>
        <time>2022-04-22T08:17:47Z</time>
      </trkpt>
      <trkpt lat="43.51557" lon="6.65505">
        <ele>187</ele>
        <time>2022-04-22T08:17:48Z</time>
      </trkpt>
      <trkpt lat="43.51557" lon="6.65505">
        <ele>187</ele>
        <time>2022-04-22T08:17:50Z</time>
      </trkpt>
      <trkpt lat="43.51557" lon="6.65505">
        <ele>187</ele>
        <time>2022-04-22T08:17:51Z</time>
      </trkpt>
      <trkpt lat="43.51557" lon="6.65504">
        <ele>186.9</ele>
        <time>2022-04-22T08:17:52Z</time>
      </trkpt>
      <trkpt lat="43.51556" lon="6.65504">
        <ele>186.7</ele>
        <time>2022-04-22T08:17:54Z</time>
      </trkpt>
      <trkpt lat="43.51555" lon="6.65504">
        <ele>186.5</ele>
        <time>2022-04-22T08:17:55Z</time>
      </trkpt>
      <trkpt lat="43.51555" lon="6.65504">
        <ele>186.4</ele>
        <time>2022-04-22T08:17:56Z</time>
      </trkpt>
      <trkpt lat="43.51555" lon="6.65504">
        <ele>186.3</ele>
        <time>2022-04-22T08:17:57Z</time>
      </trkpt>
      <trkpt lat="43.51553" lon="6.65503">
        <ele>185.9</ele>
        <time>2022-04-22T08:17:59Z</time>
      </trkpt>
      <trkpt lat="43.51552" lon="6.65503">
        <ele>185.6</ele>
        <time>2022-04-22T08:18:00Z</time>
      </trkpt>
      <trkpt lat="43.51552" lon="6.65503">
        <ele>185.5</ele>
        <time>2022-04-22T08:18:01Z</time>
      </trkpt>
      <trkpt lat="43.51552" lon="6.65502">
        <ele>185.3</ele>
        <time>2022-04-22T08:18:02Z</time>
      </trkpt>
      <trkpt lat="43.51551" lon="6.65501">
        <ele>185.1</ele>
        <time>2022-04-22T08:18:03Z</time>
      </trkpt>
      <trkpt lat="43.5155" lon="6.655">
        <ele>184.9</ele>
        <time>2022-04-22T08:18:04Z</time>
      </trkpt>
      <trkpt lat="43.5155" lon="6.655">
        <ele>184.7</ele>
        <time>2022-04-22T08:18:05Z</time>
      </trkpt>
      <trkpt lat="43.51549" lon="6.65499">
        <ele>184.5</ele>
        <time>2022-04-22T08:18:06Z</time>
      </trkpt>
      <trkpt lat="43.51549" lon="6.65498">
        <ele>184.3</ele>
        <time>2022-04-22T08:18:07Z</time>
      </trkpt>
      <trkpt lat="43.51547" lon="6.65499">
        <ele>183.9</ele>
        <time>2022-04-22T08:18:08Z</time>
      </trkpt>
      <trkpt lat="43.51546" lon="6.65499">
        <ele>183.7</ele>
        <time>2022-04-22T08:18:09Z</time>
      </trkpt>
      <trkpt lat="43.51545" lon="6.655">
        <ele>183.5</ele>
        <time>2022-04-22T08:18:11Z</time>
      </trkpt>
      <trkpt lat="43.51545" lon="6.655">
        <ele>183.3</ele>
        <time>2022-04-22T08:18:12Z</time>
      </trkpt>
      <trkpt lat="43.51544" lon="6.65501">
        <ele>183</ele>
        <time>2022-04-22T08:18:13Z</time>
      </trkpt>
      <trkpt lat="43.51544" lon="6.65504">
        <ele>182.7</ele>
        <time>2022-04-22T08:18:15Z</time>
      </trkpt>
      <trkpt lat="43.51544" lon="6.65505">
        <ele>182.4</ele>
        <time>2022-04-22T08:18:16Z</time>
      </trkpt>
      <trkpt lat="43.51544" lon="6.65506">
        <ele>182.2</ele>
        <time>2022-04-22T08:18:17Z</time>
      </trkpt>
      <trkpt lat="43.51543" lon="6.65507">
        <ele>182.1</ele>
        <time>2022-04-22T08:18:18Z</time>
      </trkpt>
      <trkpt lat="43.51543" lon="6.65507">
        <ele>182</ele>
        <time>2022-04-22T08:18:19Z</time>
      </trkpt>
      <trkpt lat="43.51543" lon="6.65507">
        <ele>182</ele>
        <time>2022-04-22T08:18:20Z</time>
      </trkpt>
      <trkpt lat="43.51543" lon="6.65506">
        <ele>181.8</ele>
        <time>2022-04-22T08:18:21Z</time>
      </trkpt>
      <trkpt lat="43.51544" lon="6.65505">
        <ele>181.5</ele>
        <time>2022-04-22T08:18:22Z</time>
      </trkpt>
      <trkpt lat="43.51544" lon="6.65503">
        <ele>181.1</ele>
        <time>2022-04-22T08:18:23Z</time>
      </trkpt>
      <trkpt lat="43.51545" lon="6.65501">
        <ele>180.7</ele>
        <time>2022-04-22T08:18:24Z</time>
      </trkpt>
      <trkpt lat="43.51545" lon="6.65499">
        <ele>180.5</ele>
        <time>2022-04-22T08:18:26Z</time>
      </trkpt>
      <trkpt lat="43.51545" lon="6.65498">
        <ele>180.1</ele>
        <time>2022-04-22T08:18:27Z</time>
      </trkpt>
      <trkpt lat="43.51545" lon="6.65497">
        <ele>180</ele>
        <time>2022-04-22T08:18:28Z</time>
      </trkpt>
      <trkpt lat="43.51545" lon="6.65496">
        <ele>179.8</ele>
        <time>2022-04-22T08:18:29Z</time>
      </trkpt>
      <trkpt lat="43.51545" lon="6.65495">
        <ele>179.6</ele>
        <time>2022-04-22T08:18:30Z</time>
      </trkpt>
      <trkpt lat="43.51545" lon="6.65493">
        <ele>179.2</ele>
        <time>2022-04-22T08:18:32Z</time>
      </trkpt>
      <trkpt lat="43.51545" lon="6.65492">
        <ele>179.1</ele>
        <time>2022-04-22T08:18:33Z</time>
      </trkpt>
      <trkpt lat="43.51545" lon="6.65491">
        <ele>179</ele>
        <time>2022-04-22T08:18:34Z</time>
      </trkpt>
      <trkpt lat="43.51544" lon="6.6549">
        <ele>178.8</ele>
        <time>2022-04-22T08:18:35Z</time>
      </trkpt>
      <trkpt lat="43.51544" lon="6.65488">
        <ele>178.4</ele>
        <time>2022-04-22T08:18:36Z</time>
      </trkpt>
      <trkpt lat="43.51544" lon="6.65486">
        <ele>178</ele>
        <time>2022-04-22T08:18:37Z</time>
      </trkpt>
      <trkpt lat="43.51543" lon="6.65485">
        <ele>177.8</ele>
        <time>2022-04-22T08:18:38Z</time>
      </trkpt>
      <trkpt lat="43.51543" lon="6.65481">
        <ele>177.2</ele>
        <time>2022-04-22T08:18:40Z</time>
      </trkpt>
      <trkpt lat="43.51543" lon="6.65481">
        <ele>177</ele>
        <time>2022-04-22T08:18:41Z</time>
      </trkpt>
      <trkpt lat="43.51543" lon="6.6548">
        <ele>176.9</ele>
        <time>2022-04-22T08:18:42Z</time>
      </trkpt>
      <trkpt lat="43.51543" lon="6.65478">
        <ele>176.6</ele>
        <time>2022-04-22T08:18:43Z</time>
      </trkpt>
      <trkpt lat="43.51543" lon="6.65476">
        <ele>176.3</ele>
        <time>2022-04-22T08:18:45Z</time>
      </trkpt>
      <trkpt lat="43.51543" lon="6.65476">
        <ele>176.1</ele>
        <time>2022-04-22T08:18:46Z</time>
      </trkpt>
      <trkpt lat="43.51542" lon="6.65475">
        <ele>175.9</ele>
        <time>2022-04-22T08:18:47Z</time>
      </trkpt>
      <trkpt lat="43.51541" lon="6.65474">
        <ele>175.7</ele>
        <time>2022-04-22T08:18:48Z</time>
      </trkpt>
      <trkpt lat="43.5154" lon="6.65473">
        <ele>175.4</ele>
        <time>2022-04-22T08:18:49Z</time>
      </trkpt>
      <trkpt lat="43.51539" lon="6.65473">
        <ele>175.2</ele>
        <time>2022-04-22T08:18:50Z</time>
      </trkpt>
      <trkpt lat="43.51539" lon="6.65472">
        <ele>175.1</ele>
        <time>2022-04-22T08:18:51Z</time>
      </trkpt>
      <trkpt lat="43.51539" lon="6.65472">
        <ele>174.9</ele>
        <time>2022-04-22T08:18:52Z</time>
      </trkpt>
      <trkpt lat="43.51539" lon="6.6547">
        <ele>174.7</ele>
        <time>2022-04-22T08:18:53Z</time>
      </trkpt>
      <trkpt lat="43.5154" lon="6.65469">
        <ele>174.5</ele>
        <time>2022-04-22T08:18:54Z</time>
      </trkpt>
      <trkpt lat="43.5154" lon="6.65468">
        <ele>174.2</ele>
        <time>2022-04-22T08:18:56Z</time>
      </trkpt>
      <trkpt lat="43.5154" lon="6.65467">
        <ele>174.1</ele>
        <time>2022-04-22T08:18:57Z</time>
      </trkpt>
      <trkpt lat="43.51539" lon="6.65467">
        <ele>174.1</ele>
        <time>2022-04-22T08:18:58Z</time>
      </trkpt>
      <trkpt lat="43.5154" lon="6.65466">
        <ele>173.9</ele>
        <time>2022-04-22T08:18:59Z</time>
      </trkpt>
      <trkpt lat="43.5154" lon="6.65465">
        <ele>173.8</ele>
        <time>2022-04-22T08:19:00Z</time>
      </trkpt>
      <trkpt lat="43.5154" lon="6.65464">
        <ele>173.6</ele>
        <time>2022-04-22T08:19:01Z</time>
      </trkpt>
      <trkpt lat="43.5154" lon="6.65463">
        <ele>173.5</ele>
        <time>2022-04-22T08:19:02Z</time>
      </trkpt>
      <trkpt lat="43.51539" lon="6.65463">
        <ele>173.3</ele>
        <time>2022-04-22T08:19:03Z</time>
      </trkpt>
      <trkpt lat="43.51539" lon="6.65462">
        <ele>173.2</ele>
        <time>2022-04-22T08:19:04Z</time>
      </trkpt>
      <trkpt lat="43.51539" lon="6.65461">
        <ele>173</ele>
        <time>2022-04-22T08:19:05Z</time>
      </trkpt>
      <trkpt lat="43.51538" lon="6.6546">
        <ele>172.8</ele>
        <time>2022-04-22T08:19:06Z</time>
      </trkpt>
      <trkpt lat="43.51538" lon="6.6546">
        <ele>172.7</ele>
        <time>2022-04-22T08:19:07Z</time>
      </trkpt>
      <trkpt lat="43.51539" lon="6.65459">
        <ele>172.6</ele>
        <time>2022-04-22T08:19:08Z</time>
      </trkpt>
      <trkpt lat="43.51539" lon="6.65457">
        <ele>172.3</ele>
        <time>2022-04-22T08:19:10Z</time>
      </trkpt>
      <trkpt lat="43.51539" lon="6.65456">
        <ele>172.1</ele>
        <time>2022-04-22T08:19:11Z</time>
      </trkpt>
      <trkpt lat="43.51539" lon="6.65455">
        <ele>171.9</ele>
        <time>2022-04-22T08:19:12Z</time>
      </trkpt>
      <trkpt lat="43.51538" lon="6.65454">
        <ele>171.7</ele>
        <time>2022-04-22T08:19:13Z</time>
      </trkpt>
      <trkpt lat="43.51538" lon="6.65453">
        <ele>171.5</ele>
        <time>2022-04-22T08:19:14Z</time>
      </trkpt>
      <trkpt lat="43.51537" lon="6.65451">
        <ele>171.1</ele>
        <time>2022-04-22T08:19:16Z</time>
      </trkpt>
      <trkpt lat="43.51536" lon="6.65449">
        <ele>170.7</ele>
        <time>2022-04-22T08:19:17Z</time>
      </trkpt>
      <trkpt lat="43.51536" lon="6.65448">
        <ele>170.4</ele>
        <time>2022-04-22T08:19:18Z</time>
      </trkpt>
      <trkpt lat="43.51535" lon="6.65447">
        <ele>170.2</ele>
        <time>2022-04-22T08:19:19Z</time>
      </trkpt>
      <trkpt lat="43.51535" lon="6.65445">
        <ele>169.8</ele>
        <time>2022-04-22T08:19:20Z</time>
      </trkpt>
      <trkpt lat="43.51535" lon="6.65448">
        <ele>169.3</ele>
        <time>2022-04-22T08:19:21Z</time>
      </trkpt>
      <trkpt lat="43.51535" lon="6.65448">
        <ele>169.3</ele>
        <time>2022-04-22T08:19:22Z</time>
      </trkpt>
      <trkpt lat="43.51534" lon="6.65448">
        <ele>169.2</ele>
        <time>2022-04-22T08:19:23Z</time>
      </trkpt>
      <trkpt lat="43.51534" lon="6.65448">
        <ele>169.2</ele>
        <time>2022-04-22T08:19:24Z</time>
      </trkpt>
      <trkpt lat="43.51534" lon="6.65448">
        <ele>169.2</ele>
        <time>2022-04-22T08:19:25Z</time>
      </trkpt>
      <trkpt lat="43.51534" lon="6.65448">
        <ele>169.2</ele>
        <time>2022-04-22T08:19:26Z</time>
      </trkpt>
      <trkpt lat="43.51535" lon="6.65448">
        <ele>169.1</ele>
        <time>2022-04-22T08:19:27Z</time>
      </trkpt>
      <trkpt lat="43.51535" lon="6.65448">
        <ele>169.1</ele>
        <time>2022-04-22T08:19:28Z</time>
      </trkpt>
      <trkpt lat="43.51535" lon="6.65448">
        <ele>169</ele>
        <time>2022-04-22T08:19:29Z</time>
      </trkpt>
      <trkpt lat="43.51535" lon="6.65448">
        <ele>169</ele>
        <time>2022-04-22T08:19:30Z</time>
      </trkpt>
      <trkpt lat="43.51535" lon="6.65448">
        <ele>169</ele>
        <time>2022-04-22T08:19:31Z</time>
      </trkpt>
      <trkpt lat="43.51535" lon="6.65448">
        <ele>169</ele>
        <time>2022-04-22T08:19:32Z</time>
      </trkpt>
      <trkpt lat="43.51534" lon="6.65448">
        <ele>168.9</ele>
        <time>2022-04-22T08:19:33Z</time>
      </trkpt>
      <trkpt lat="43.51534" lon="6.65448">
        <ele>168.8</ele>
        <time>2022-04-22T08:19:34Z</time>
      </trkpt>
      <trkpt lat="43.51534" lon="6.65448">
        <ele>168.8</ele>
        <time>2022-04-22T08:19:35Z</time>
      </trkpt>
      <trkpt lat="43.51534" lon="6.65448">
        <ele>168.7</ele>
        <time>2022-04-22T08:19:36Z</time>
      </trkpt>
      <trkpt lat="43.51534" lon="6.65449">
        <ele>168.3</ele>
        <time>2022-04-22T08:19:37Z</time>
      </trkpt>
      <trkpt lat="43.51535" lon="6.6545">
        <ele>168.2</ele>
        <time>2022-04-22T08:19:38Z</time>
      </trkpt>
      <trkpt lat="43.51535" lon="6.6545">
        <ele>168.2</ele>
        <time>2022-04-22T08:19:39Z</time>
      </trkpt>
      <trkpt lat="43.51535" lon="6.6545">
        <ele>168.2</ele>
        <time>2022-04-22T08:19:40Z</time>
      </trkpt>
      <trkpt lat="43.51535" lon="6.65451">
        <ele>168</ele>
        <time>2022-04-22T08:19:41Z</time>
      </trkpt>
      <trkpt lat="43.51534" lon="6.6545">
        <ele>167.5</ele>
        <time>2022-04-22T08:19:43Z</time>
      </trkpt>
      <trkpt lat="43.51533" lon="6.65451">
        <ele>167.4</ele>
        <time>2022-04-22T08:19:44Z</time>
      </trkpt>
      <trkpt lat="43.51533" lon="6.65452">
        <ele>167.2</ele>
        <time>2022-04-22T08:19:45Z</time>
      </trkpt>
      <trkpt lat="43.51533" lon="6.65453">
        <ele>166.9</ele>
        <time>2022-04-22T08:19:46Z</time>
      </trkpt>
      <trkpt lat="43.51532" lon="6.65455">
        <ele>166.3</ele>
        <time>2022-04-22T08:19:48Z</time>
      </trkpt>
      <trkpt lat="43.51531" lon="6.65456">
        <ele>166</ele>
        <time>2022-04-22T08:19:49Z</time>
      </trkpt>
      <trkpt lat="43.51531" lon="6.65457">
        <ele>165.7</ele>
        <time>2022-04-22T08:19:50Z</time>
      </trkpt>
      <trkpt lat="43.5153" lon="6.65459">
        <ele>165.4</ele>
        <time>2022-04-22T08:19:51Z</time>
      </trkpt>
      <trkpt lat="43.51531" lon="6.65458">
        <ele>165.1</ele>
        <time>2022-04-22T08:19:52Z</time>
      </trkpt>
      <trkpt lat="43.51531" lon="6.65459">
        <ele>164.8</ele>
        <time>2022-04-22T08:19:53Z</time>
      </trkpt>
      <trkpt lat="43.5153" lon="6.6546">
        <ele>164.5</ele>
        <time>2022-04-22T08:19:54Z</time>
      </trkpt>
      <trkpt lat="43.5153" lon="6.65461">
        <ele>164.3</ele>
        <time>2022-04-22T08:19:55Z</time>
      </trkpt>
      <trkpt lat="43.51529" lon="6.65463">
        <ele>163.9</ele>
        <time>2022-04-22T08:19:56Z</time>
      </trkpt>
      <trkpt lat="43.51529" lon="6.65463">
        <ele>163.8</ele>
        <time>2022-04-22T08:19:57Z</time>
      </trkpt>
      <trkpt lat="43.51529" lon="6.65464">
        <ele>163.6</ele>
        <time>2022-04-22T08:19:58Z</time>
      </trkpt>
      <trkpt lat="43.51528" lon="6.65464">
        <ele>163.4</ele>
        <time>2022-04-22T08:19:59Z</time>
      </trkpt>
      <trkpt lat="43.51528" lon="6.65465">
        <ele>163.3</ele>
        <time>2022-04-22T08:20:00Z</time>
      </trkpt>
      <trkpt lat="43.51528" lon="6.65466">
        <ele>163.1</ele>
        <time>2022-04-22T08:20:01Z</time>
      </trkpt>
      <trkpt lat="43.51527" lon="6.65466">
        <ele>163</ele>
        <time>2022-04-22T08:20:02Z</time>
      </trkpt>
      <trkpt lat="43.51527" lon="6.65467">
        <ele>162.8</ele>
        <time>2022-04-22T08:20:03Z</time>
      </trkpt>
      <trkpt lat="43.51527" lon="6.65468">
        <ele>162.6</ele>
        <time>2022-04-22T08:20:04Z</time>
      </trkpt>
      <trkpt lat="43.51527" lon="6.65469">
        <ele>162.5</ele>
        <time>2022-04-22T08:20:05Z</time>
      </trkpt>
      <trkpt lat="43.51527" lon="6.65469">
        <ele>162.4</ele>
        <time>2022-04-22T08:20:06Z</time>
      </trkpt>
      <trkpt lat="43.51527" lon="6.65469">
        <ele>162.3</ele>
        <time>2022-04-22T08:20:07Z</time>
      </trkpt>
      <trkpt lat="43.51527" lon="6.65469">
        <ele>162.3</ele>
        <time>2022-04-22T08:20:08Z</time>
      </trkpt>
      <trkpt lat="43.51526" lon="6.65469">
        <ele>162.2</ele>
        <time>2022-04-22T08:20:09Z</time>
      </trkpt>
      <trkpt lat="43.51526" lon="6.65469">
        <ele>162.2</ele>
        <time>2022-04-22T08:20:10Z</time>
      </trkpt>
      <trkpt lat="43.51526" lon="6.65469">
        <ele>162.1</ele>
        <time>2022-04-22T08:20:11Z</time>
      </trkpt>
      <trkpt lat="43.51526" lon="6.65468">
        <ele>162</ele>
        <time>2022-04-22T08:20:12Z</time>
      </trkpt>
      <trkpt lat="43.51525" lon="6.65468">
        <ele>161.9</ele>
        <time>2022-04-22T08:20:13Z</time>
      </trkpt>
      <trkpt lat="43.51525" lon="6.65468">
        <ele>161.8</ele>
        <time>2022-04-22T08:20:14Z</time>
      </trkpt>
      <trkpt lat="43.51525" lon="6.65467">
        <ele>161.6</ele>
        <time>2022-04-22T08:20:15Z</time>
      </trkpt>
      <trkpt lat="43.51524" lon="6.65466">
        <ele>161.4</ele>
        <time>2022-04-22T08:20:16Z</time>
      </trkpt>
      <trkpt lat="43.51524" lon="6.65465">
        <ele>161.3</ele>
        <time>2022-04-22T08:20:17Z</time>
      </trkpt>
      <trkpt lat="43.51524" lon="6.65465">
        <ele>161.2</ele>
        <time>2022-04-22T08:20:18Z</time>
      </trkpt>
      <trkpt lat="43.51524" lon="6.65464">
        <ele>161.1</ele>
        <time>2022-04-22T08:20:19Z</time>
      </trkpt>
      <trkpt lat="43.51525" lon="6.65463">
        <ele>161</ele>
        <time>2022-04-22T08:20:20Z</time>
      </trkpt>
      <trkpt lat="43.51525" lon="6.65463">
        <ele>160.9</ele>
        <time>2022-04-22T08:20:21Z</time>
      </trkpt>
      <trkpt lat="43.51525" lon="6.65463">
        <ele>160.8</ele>
        <time>2022-04-22T08:20:22Z</time>
      </trkpt>
      <trkpt lat="43.51525" lon="6.65463">
        <ele>160.8</ele>
        <time>2022-04-22T08:20:23Z</time>
      </trkpt>
      <trkpt lat="43.51525" lon="6.65463">
        <ele>160.8</ele>
        <time>2022-04-22T08:20:24Z</time>
      </trkpt>
      <trkpt lat="43.51525" lon="6.65462">
        <ele>160.7</ele>
        <time>2022-04-22T08:20:25Z</time>
      </trkpt>
      <trkpt lat="43.51524" lon="6.65465">
        <ele>160.2</ele>
        <time>2022-04-22T08:20:27Z</time>
      </trkpt>
      <trkpt lat="43.51524" lon="6.65466">
        <ele>160.1</ele>
        <time>2022-04-22T08:20:28Z</time>
      </trkpt>
      <trkpt lat="43.51525" lon="6.65466">
        <ele>160</ele>
        <time>2022-04-22T08:20:29Z</time>
      </trkpt>
      <trkpt lat="43.51525" lon="6.65466">
        <ele>159.9</ele>
        <time>2022-04-22T08:20:30Z</time>
      </trkpt>
      <trkpt lat="43.51525" lon="6.65467">
        <ele>159.7</ele>
        <time>2022-04-22T08:20:31Z</time>
      </trkpt>
      <trkpt lat="43.51525" lon="6.65468">
        <ele>159.6</ele>
        <time>2022-04-22T08:20:32Z</time>
      </trkpt>
      <trkpt lat="43.51525" lon="6.6547">
        <ele>159.4</ele>
        <time>2022-04-22T08:20:33Z</time>
      </trkpt>
      <trkpt lat="43.51525" lon="6.65472">
        <ele>159</ele>
        <time>2022-04-22T08:20:35Z</time>
      </trkpt>
      <trkpt lat="43.51526" lon="6.65472">
        <ele>158.9</ele>
        <time>2022-04-22T08:20:36Z</time>
      </trkpt>
      <trkpt lat="43.51526" lon="6.65471">
        <ele>158.8</ele>
        <time>2022-04-22T08:20:37Z</time>
      </trkpt>
      <trkpt lat="43.51527" lon="6.65471">
        <ele>158.7</ele>
        <time>2022-04-22T08:20:38Z</time>
      </trkpt>
      <trkpt lat="43.51526" lon="6.6547">
        <ele>158.5</ele>
        <time>2022-04-22T08:20:39Z</time>
      </trkpt>
      <trkpt lat="43.51526" lon="6.65471">
        <ele>158.4</ele>
        <time>2022-04-22T08:20:40Z</time>
      </trkpt>
      <trkpt lat="43.51527" lon="6.65472">
        <ele>158.2</ele>
        <time>2022-04-22T08:20:41Z</time>
      </trkpt>
      <trkpt lat="43.51527" lon="6.65473">
        <ele>158</ele>
        <time>2022-04-22T08:20:42Z</time>
      </trkpt>
      <trkpt lat="43.51527" lon="6.65474">
        <ele>157.9</ele>
        <time>2022-04-22T08:20:43Z</time>
      </trkpt>
      <trkpt lat="43.51528" lon="6.65475">
        <ele>157.8</ele>
        <time>2022-04-22T08:20:44Z</time>
      </trkpt>
      <trkpt lat="43.51528" lon="6.65477">
        <ele>157.5</ele>
        <time>2022-04-22T08:20:45Z</time>
      </trkpt>
      <trkpt lat="43.51528" lon="6.65479">
        <ele>157.4</ele>
        <time>2022-04-22T08:20:46Z</time>
      </trkpt>
      <trkpt lat="43.51527" lon="6.6548">
        <ele>157.3</ele>
        <time>2022-04-22T08:20:47Z</time>
      </trkpt>
      <trkpt lat="43.51525" lon="6.65482">
        <ele>156.9</ele>
        <time>2022-04-22T08:20:48Z</time>
      </trkpt>
      <trkpt lat="43.51523" lon="6.65486">
        <ele>156.5</ele>
        <time>2022-04-22T08:20:50Z</time>
      </trkpt>
      <trkpt lat="43.51522" lon="6.65488">
        <ele>156.2</ele>
        <time>2022-04-22T08:20:51Z</time>
      </trkpt>
      <trkpt lat="43.51521" lon="6.65489">
        <ele>156.1</ele>
        <time>2022-04-22T08:20:52Z</time>
      </trkpt>
      <trkpt lat="43.5152" lon="6.65491">
        <ele>155.9</ele>
        <time>2022-04-22T08:20:53Z</time>
      </trkpt>
      <trkpt lat="43.5152" lon="6.65492">
        <ele>155.8</ele>
        <time>2022-04-22T08:20:54Z</time>
      </trkpt>
      <trkpt lat="43.51519" lon="6.65493">
        <ele>155.7</ele>
        <time>2022-04-22T08:20:55Z</time>
      </trkpt>
      <trkpt lat="43.51519" lon="6.65494">
        <ele>155.6</ele>
        <time>2022-04-22T08:20:56Z</time>
      </trkpt>
      <trkpt lat="43.51519" lon="6.65495">
        <ele>155.5</ele>
        <time>2022-04-22T08:20:57Z</time>
      </trkpt>
      <trkpt lat="43.51519" lon="6.65497">
        <ele>155.3</ele>
        <time>2022-04-22T08:20:58Z</time>
      </trkpt>
      <trkpt lat="43.5152" lon="6.65499">
        <ele>155.1</ele>
        <time>2022-04-22T08:20:59Z</time>
      </trkpt>
      <trkpt lat="43.51521" lon="6.655">
        <ele>154.9</ele>
        <time>2022-04-22T08:21:00Z</time>
      </trkpt>
      <trkpt lat="43.51523" lon="6.65501">
        <ele>154.7</ele>
        <time>2022-04-22T08:21:01Z</time>
      </trkpt>
      <trkpt lat="43.51524" lon="6.65503">
        <ele>154.5</ele>
        <time>2022-04-22T08:21:02Z</time>
      </trkpt>
      <trkpt lat="43.51524" lon="6.65504">
        <ele>154.4</ele>
        <time>2022-04-22T08:21:03Z</time>
      </trkpt>
      <trkpt lat="43.51525" lon="6.65505">
        <ele>154.2</ele>
        <time>2022-04-22T08:21:04Z</time>
      </trkpt>
      <trkpt lat="43.51525" lon="6.65507">
        <ele>154.1</ele>
        <time>2022-04-22T08:21:05Z</time>
      </trkpt>
      <trkpt lat="43.51525" lon="6.65508">
        <ele>153.9</ele>
        <time>2022-04-22T08:21:06Z</time>
      </trkpt>
      <trkpt lat="43.51525" lon="6.65509">
        <ele>153.8</ele>
        <time>2022-04-22T08:21:07Z</time>
      </trkpt>
      <trkpt lat="43.51525" lon="6.65512">
        <ele>153.5</ele>
        <time>2022-04-22T08:21:08Z</time>
      </trkpt>
      <trkpt lat="43.51526" lon="6.65513">
        <ele>153.3</ele>
        <time>2022-04-22T08:21:10Z</time>
      </trkpt>
      <trkpt lat="43.51526" lon="6.65515">
        <ele>153.1</ele>
        <time>2022-04-22T08:21:11Z</time>
      </trkpt>
      <trkpt lat="43.51527" lon="6.65517">
        <ele>152.9</ele>
        <time>2022-04-22T08:21:12Z</time>
      </trkpt>
      <trkpt lat="43.51528" lon="6.65519">
        <ele>152.6</ele>
        <time>2022-04-22T08:21:13Z</time>
      </trkpt>
      <trkpt lat="43.51529" lon="6.65521">
        <ele>152.3</ele>
        <time>2022-04-22T08:21:14Z</time>
      </trkpt>
      <trkpt lat="43.51529" lon="6.65523">
        <ele>151.9</ele>
        <time>2022-04-22T08:21:15Z</time>
      </trkpt>
      <trkpt lat="43.5153" lon="6.65525">
        <ele>151.6</ele>
        <time>2022-04-22T08:21:16Z</time>
      </trkpt>
      <trkpt lat="43.51529" lon="6.65526">
        <ele>151.5</ele>
        <time>2022-04-22T08:21:17Z</time>
      </trkpt>
      <trkpt lat="43.51529" lon="6.65527">
        <ele>151.3</ele>
        <time>2022-04-22T08:21:18Z</time>
      </trkpt>
      <trkpt lat="43.51529" lon="6.65528">
        <ele>151.1</ele>
        <time>2022-04-22T08:21:19Z</time>
      </trkpt>
      <trkpt lat="43.51529" lon="6.65529">
        <ele>150.9</ele>
        <time>2022-04-22T08:21:20Z</time>
      </trkpt>
      <trkpt lat="43.51528" lon="6.65531">
        <ele>150.6</ele>
        <time>2022-04-22T08:21:21Z</time>
      </trkpt>
      <trkpt lat="43.51528" lon="6.65532">
        <ele>150.4</ele>
        <time>2022-04-22T08:21:22Z</time>
      </trkpt>
      <trkpt lat="43.51528" lon="6.65534">
        <ele>150.1</ele>
        <time>2022-04-22T08:21:23Z</time>
      </trkpt>
      <trkpt lat="43.51529" lon="6.65537">
        <ele>149.5</ele>
        <time>2022-04-22T08:21:25Z</time>
      </trkpt>
      <trkpt lat="43.51529" lon="6.6554">
        <ele>149.1</ele>
        <time>2022-04-22T08:21:26Z</time>
      </trkpt>
      <trkpt lat="43.51529" lon="6.65541">
        <ele>148.8</ele>
        <time>2022-04-22T08:21:27Z</time>
      </trkpt>
      <trkpt lat="43.51529" lon="6.65542">
        <ele>148.5</ele>
        <time>2022-04-22T08:21:28Z</time>
      </trkpt>
      <trkpt lat="43.51529" lon="6.65544">
        <ele>148.3</ele>
        <time>2022-04-22T08:21:29Z</time>
      </trkpt>
      <trkpt lat="43.51529" lon="6.65546">
        <ele>148</ele>
        <time>2022-04-22T08:21:31Z</time>
      </trkpt>
      <trkpt lat="43.51528" lon="6.65547">
        <ele>147.8</ele>
        <time>2022-04-22T08:21:32Z</time>
      </trkpt>
      <trkpt lat="43.51528" lon="6.65548">
        <ele>147.5</ele>
        <time>2022-04-22T08:21:33Z</time>
      </trkpt>
      <trkpt lat="43.51528" lon="6.6555">
        <ele>147.3</ele>
        <time>2022-04-22T08:21:34Z</time>
      </trkpt>
      <trkpt lat="43.51528" lon="6.65551">
        <ele>147</ele>
        <time>2022-04-22T08:21:35Z</time>
      </trkpt>
      <trkpt lat="43.51527" lon="6.65554">
        <ele>146.4</ele>
        <time>2022-04-22T08:21:37Z</time>
      </trkpt>
      <trkpt lat="43.51527" lon="6.65555">
        <ele>146.3</ele>
        <time>2022-04-22T08:21:38Z</time>
      </trkpt>
      <trkpt lat="43.51527" lon="6.65556">
        <ele>146.1</ele>
        <time>2022-04-22T08:21:39Z</time>
      </trkpt>
      <trkpt lat="43.51526" lon="6.65557">
        <ele>145.9</ele>
        <time>2022-04-22T08:21:40Z</time>
      </trkpt>
      <trkpt lat="43.51526" lon="6.65557">
        <ele>145.9</ele>
        <time>2022-04-22T08:21:41Z</time>
      </trkpt>
      <trkpt lat="43.51526" lon="6.65558">
        <ele>145.7</ele>
        <time>2022-04-22T08:21:42Z</time>
      </trkpt>
      <trkpt lat="43.51524" lon="6.65559">
        <ele>145.3</ele>
        <time>2022-04-22T08:21:43Z</time>
      </trkpt>
      <trkpt lat="43.51523" lon="6.65559">
        <ele>145.2</ele>
        <time>2022-04-22T08:21:44Z</time>
      </trkpt>
      <trkpt lat="43.51523" lon="6.65559">
        <ele>144.9</ele>
        <time>2022-04-22T08:21:46Z</time>
      </trkpt>
      <trkpt lat="43.51522" lon="6.65559">
        <ele>144.8</ele>
        <time>2022-04-22T08:21:47Z</time>
      </trkpt>
      <trkpt lat="43.51521" lon="6.6556">
        <ele>144.6</ele>
        <time>2022-04-22T08:21:48Z</time>
      </trkpt>
      <trkpt lat="43.5152" lon="6.6556">
        <ele>144.4</ele>
        <time>2022-04-22T08:21:49Z</time>
      </trkpt>
      <trkpt lat="43.5152" lon="6.65561">
        <ele>144.2</ele>
        <time>2022-04-22T08:21:50Z</time>
      </trkpt>
      <trkpt lat="43.51519" lon="6.65562">
        <ele>144</ele>
        <time>2022-04-22T08:21:51Z</time>
      </trkpt>
      <trkpt lat="43.5152" lon="6.65564">
        <ele>143.6</ele>
        <time>2022-04-22T08:21:52Z</time>
      </trkpt>
      <trkpt lat="43.51521" lon="6.65565">
        <ele>143.4</ele>
        <time>2022-04-22T08:21:53Z</time>
      </trkpt>
      <trkpt lat="43.51521" lon="6.65565">
        <ele>143.2</ele>
        <time>2022-04-22T08:21:54Z</time>
      </trkpt>
      <trkpt lat="43.51522" lon="6.65566">
        <ele>143</ele>
        <time>2022-04-22T08:21:55Z</time>
      </trkpt>
      <trkpt lat="43.51523" lon="6.65567">
        <ele>142.8</ele>
        <time>2022-04-22T08:21:56Z</time>
      </trkpt>
      <trkpt lat="43.51523" lon="6.65567">
        <ele>142.6</ele>
        <time>2022-04-22T08:21:57Z</time>
      </trkpt>
      <trkpt lat="43.51524" lon="6.65569">
        <ele>142.4</ele>
        <time>2022-04-22T08:21:58Z</time>
      </trkpt>
      <trkpt lat="43.51524" lon="6.65571">
        <ele>142</ele>
        <time>2022-04-22T08:22:00Z</time>
      </trkpt>
      <trkpt lat="43.51524" lon="6.65573">
        <ele>141.7</ele>
        <time>2022-04-22T08:22:01Z</time>
      </trkpt>
      <trkpt lat="43.51524" lon="6.65574">
        <ele>141.5</ele>
        <time>2022-04-22T08:22:02Z</time>
      </trkpt>
      <trkpt lat="43.51523" lon="6.65575">
        <ele>141.2</ele>
        <time>2022-04-22T08:22:03Z</time>
      </trkpt>
      <trkpt lat="43.51522" lon="6.65578">
        <ele>140.8</ele>
        <time>2022-04-22T08:22:05Z</time>
      </trkpt>
      <trkpt lat="43.51521" lon="6.65579">
        <ele>140.5</ele>
        <time>2022-04-22T08:22:06Z</time>
      </trkpt>
      <trkpt lat="43.51521" lon="6.6558">
        <ele>140.3</ele>
        <time>2022-04-22T08:22:07Z</time>
      </trkpt>
      <trkpt lat="43.51521" lon="6.65581">
        <ele>140.1</ele>
        <time>2022-04-22T08:22:08Z</time>
      </trkpt>
      <trkpt lat="43.5152" lon="6.65582">
        <ele>139.9</ele>
        <time>2022-04-22T08:22:09Z</time>
      </trkpt>
      <trkpt lat="43.5152" lon="6.65583">
        <ele>139.8</ele>
        <time>2022-04-22T08:22:10Z</time>
      </trkpt>
      <trkpt lat="43.51521" lon="6.65584">
        <ele>139.7</ele>
        <time>2022-04-22T08:22:11Z</time>
      </trkpt>
      <trkpt lat="43.51521" lon="6.65585">
        <ele>139.5</ele>
        <time>2022-04-22T08:22:12Z</time>
      </trkpt>
      <trkpt lat="43.51521" lon="6.65586">
        <ele>139.4</ele>
        <time>2022-04-22T08:22:13Z</time>
      </trkpt>
      <trkpt lat="43.51522" lon="6.65585">
        <ele>139.1</ele>
        <time>2022-04-22T08:22:14Z</time>
      </trkpt>
      <trkpt lat="43.51522" lon="6.65586">
        <ele>138.9</ele>
        <time>2022-04-22T08:22:15Z</time>
      </trkpt>
      <trkpt lat="43.51523" lon="6.65588">
        <ele>138.6</ele>
        <time>2022-04-22T08:22:16Z</time>
      </trkpt>
      <trkpt lat="43.51523" lon="6.6559">
        <ele>138.2</ele>
        <time>2022-04-22T08:22:18Z</time>
      </trkpt>
      <trkpt lat="43.51524" lon="6.65593">
        <ele>137.8</ele>
        <time>2022-04-22T08:22:19Z</time>
      </trkpt>
      <trkpt lat="43.51524" lon="6.65594">
        <ele>137.6</ele>
        <time>2022-04-22T08:22:20Z</time>
      </trkpt>
      <trkpt lat="43.51525" lon="6.65595">
        <ele>137.4</ele>
        <time>2022-04-22T08:22:21Z</time>
      </trkpt>
      <trkpt lat="43.51526" lon="6.65597">
        <ele>137</ele>
        <time>2022-04-22T08:22:22Z</time>
      </trkpt>
      <trkpt lat="43.51527" lon="6.65598">
        <ele>136.8</ele>
        <time>2022-04-22T08:22:23Z</time>
      </trkpt>
      <trkpt lat="43.51527" lon="6.65599">
        <ele>136.6</ele>
        <time>2022-04-22T08:22:24Z</time>
      </trkpt>
      <trkpt lat="43.51528" lon="6.65601">
        <ele>136.3</ele>
        <time>2022-04-22T08:22:26Z</time>
      </trkpt>
      <trkpt lat="43.51528" lon="6.65602">
        <ele>136</ele>
        <time>2022-04-22T08:22:27Z</time>
      </trkpt>
      <trkpt lat="43.51529" lon="6.65603">
        <ele>135.9</ele>
        <time>2022-04-22T08:22:28Z</time>
      </trkpt>
      <trkpt lat="43.5153" lon="6.65604">
        <ele>135.7</ele>
        <time>2022-04-22T08:22:29Z</time>
      </trkpt>
      <trkpt lat="43.5153" lon="6.65605">
        <ele>135.4</ele>
        <time>2022-04-22T08:22:30Z</time>
      </trkpt>
      <trkpt lat="43.5153" lon="6.65607">
        <ele>135.2</ele>
        <time>2022-04-22T08:22:31Z</time>
      </trkpt>
      <trkpt lat="43.5153" lon="6.65608">
        <ele>134.9</ele>
        <time>2022-04-22T08:22:32Z</time>
      </trkpt>
      <trkpt lat="43.51531" lon="6.6561">
        <ele>134.7</ele>
        <time>2022-04-22T08:22:33Z</time>
      </trkpt>
      <trkpt lat="43.5153" lon="6.65609">
        <ele>134.6</ele>
        <time>2022-04-22T08:22:34Z</time>
      </trkpt>
      <trkpt lat="43.51531" lon="6.65609">
        <ele>134.6</ele>
        <time>2022-04-22T08:22:35Z</time>
      </trkpt>
      <trkpt lat="43.51531" lon="6.65609">
        <ele>134.5</ele>
        <time>2022-04-22T08:22:36Z</time>
      </trkpt>
      <trkpt lat="43.51531" lon="6.6561">
        <ele>134.3</ele>
        <time>2022-04-22T08:22:37Z</time>
      </trkpt>
      <trkpt lat="43.51531" lon="6.65611">
        <ele>134.2</ele>
        <time>2022-04-22T08:22:38Z</time>
      </trkpt>
      <trkpt lat="43.51531" lon="6.65612">
        <ele>134</ele>
        <time>2022-04-22T08:22:39Z</time>
      </trkpt>
      <trkpt lat="43.5153" lon="6.65614">
        <ele>133.7</ele>
        <time>2022-04-22T08:22:40Z</time>
      </trkpt>
      <trkpt lat="43.5153" lon="6.65615">
        <ele>133.5</ele>
        <time>2022-04-22T08:22:41Z</time>
      </trkpt>
      <trkpt lat="43.5153" lon="6.65616">
        <ele>133.4</ele>
        <time>2022-04-22T08:22:42Z</time>
      </trkpt>
      <trkpt lat="43.5153" lon="6.65618">
        <ele>133.1</ele>
        <time>2022-04-22T08:22:43Z</time>
      </trkpt>
      <trkpt lat="43.5153" lon="6.6562">
        <ele>132.8</ele>
        <time>2022-04-22T08:22:45Z</time>
      </trkpt>
      <trkpt lat="43.5153" lon="6.65621">
        <ele>132.6</ele>
        <time>2022-04-22T08:22:46Z</time>
      </trkpt>
      <trkpt lat="43.51529" lon="6.65623">
        <ele>132.4</ele>
        <time>2022-04-22T08:22:47Z</time>
      </trkpt>
      <trkpt lat="43.5153" lon="6.65624">
        <ele>132.3</ele>
        <time>2022-04-22T08:22:48Z</time>
      </trkpt>
      <trkpt lat="43.5153" lon="6.65624">
        <ele>132.2</ele>
        <time>2022-04-22T08:22:49Z</time>
      </trkpt>
      <trkpt lat="43.5153" lon="6.65623">
        <ele>132</ele>
        <time>2022-04-22T08:22:50Z</time>
      </trkpt>
      <trkpt lat="43.5153" lon="6.65624">
        <ele>131.9</ele>
        <time>2022-04-22T08:22:51Z</time>
      </trkpt>
      <trkpt lat="43.5153" lon="6.65625">
        <ele>131.8</ele>
        <time>2022-04-22T08:22:52Z</time>
      </trkpt>
      <trkpt lat="43.5153" lon="6.65626">
        <ele>131.6</ele>
        <time>2022-04-22T08:22:53Z</time>
      </trkpt>
      <trkpt lat="43.51531" lon="6.65628">
        <ele>131.3</ele>
        <time>2022-04-22T08:22:54Z</time>
      </trkpt>
      <trkpt lat="43.51531" lon="6.65629">
        <ele>131.1</ele>
        <time>2022-04-22T08:22:55Z</time>
      </trkpt>
      <trkpt lat="43.51531" lon="6.65631">
        <ele>130.9</ele>
        <time>2022-04-22T08:22:56Z</time>
      </trkpt>
      <trkpt lat="43.51531" lon="6.65632">
        <ele>130.7</ele>
        <time>2022-04-22T08:22:57Z</time>
      </trkpt>
      <trkpt lat="43.51532" lon="6.65634">
        <ele>130.4</ele>
        <time>2022-04-22T08:22:58Z</time>
      </trkpt>
      <trkpt lat="43.51532" lon="6.65635">
        <ele>130.3</ele>
        <time>2022-04-22T08:22:59Z</time>
      </trkpt>
      <trkpt lat="43.51533" lon="6.65636">
        <ele>130.1</ele>
        <time>2022-04-22T08:23:00Z</time>
      </trkpt>
      <trkpt lat="43.51533" lon="6.65636">
        <ele>130</ele>
        <time>2022-04-22T08:23:01Z</time>
      </trkpt>
      <trkpt lat="43.51535" lon="6.65636">
        <ele>129.6</ele>
        <time>2022-04-22T08:23:02Z</time>
      </trkpt>
      <trkpt lat="43.51536" lon="6.65636">
        <ele>129.5</ele>
        <time>2022-04-22T08:23:03Z</time>
      </trkpt>
      <trkpt lat="43.51537" lon="6.65635">
        <ele>129.4</ele>
        <time>2022-04-22T08:23:04Z</time>
      </trkpt>
      <trkpt lat="43.51539" lon="6.65636">
        <ele>127.9</ele>
        <time>2022-04-22T08:23:05Z</time>
      </trkpt>
      <trkpt lat="43.5154" lon="6.65637">
        <ele>127.8</ele>
        <time>2022-04-22T08:23:07Z</time>
      </trkpt>
      <trkpt lat="43.51541" lon="6.65637">
        <ele>127.8</ele>
        <time>2022-04-22T08:23:08Z</time>
      </trkpt>
      <trkpt lat="43.51541" lon="6.65638">
        <ele>127.7</ele>
        <time>2022-04-22T08:23:09Z</time>
      </trkpt>
      <trkpt lat="43.51542" lon="6.65639">
        <ele>127.7</ele>
        <time>2022-04-22T08:23:11Z</time>
      </trkpt>
      <trkpt lat="43.51543" lon="6.65639">
        <ele>127.7</ele>
        <time>2022-04-22T08:23:12Z</time>
      </trkpt>
      <trkpt lat="43.51544" lon="6.6564">
        <ele>127.6</ele>
        <time>2022-04-22T08:23:13Z</time>
      </trkpt>
      <trkpt lat="43.51545" lon="6.65641">
        <ele>127.6</ele>
        <time>2022-04-22T08:23:14Z</time>
      </trkpt>
      <trkpt lat="43.51546" lon="6.65641">
        <ele>127.6</ele>
        <time>2022-04-22T08:23:15Z</time>
      </trkpt>
      <trkpt lat="43.51547" lon="6.65642">
        <ele>127.6</ele>
        <time>2022-04-22T08:23:16Z</time>
      </trkpt>
      <trkpt lat="43.51547" lon="6.65643">
        <ele>127.6</ele>
        <time>2022-04-22T08:23:17Z</time>
      </trkpt>
      <trkpt lat="43.51548" lon="6.65644">
        <ele>127.6</ele>
        <time>2022-04-22T08:23:18Z</time>
      </trkpt>
      <trkpt lat="43.51549" lon="6.65645">
        <ele>127.6</ele>
        <time>2022-04-22T08:23:19Z</time>
      </trkpt>
      <trkpt lat="43.51549" lon="6.65646">
        <ele>127.6</ele>
        <time>2022-04-22T08:23:20Z</time>
      </trkpt>
      <trkpt lat="43.5155" lon="6.65647">
        <ele>127.7</ele>
        <time>2022-04-22T08:23:21Z</time>
      </trkpt>
      <trkpt lat="43.51551" lon="6.65648">
        <ele>127.7</ele>
        <time>2022-04-22T08:23:22Z</time>
      </trkpt>
      <trkpt lat="43.51552" lon="6.65648">
        <ele>127.8</ele>
        <time>2022-04-22T08:23:23Z</time>
      </trkpt>
      <trkpt lat="43.51553" lon="6.65649">
        <ele>127.8</ele>
        <time>2022-04-22T08:23:24Z</time>
      </trkpt>
      <trkpt lat="43.51556" lon="6.65649">
        <ele>128</ele>
        <time>2022-04-22T08:23:25Z</time>
      </trkpt>
      <trkpt lat="43.51557" lon="6.65649">
        <ele>128.1</ele>
        <time>2022-04-22T08:23:26Z</time>
      </trkpt>
      <trkpt lat="43.51558" lon="6.6565">
        <ele>128.2</ele>
        <time>2022-04-22T08:23:27Z</time>
      </trkpt>
      <trkpt lat="43.51559" lon="6.6565">
        <ele>128.3</ele>
        <time>2022-04-22T08:23:28Z</time>
      </trkpt>
      <trkpt lat="43.51561" lon="6.65651">
        <ele>128.5</ele>
        <time>2022-04-22T08:23:30Z</time>
      </trkpt>
      <trkpt lat="43.51562" lon="6.65651">
        <ele>128.7</ele>
        <time>2022-04-22T08:23:31Z</time>
      </trkpt>
      <trkpt lat="43.51564" lon="6.65651">
        <ele>128.9</ele>
        <time>2022-04-22T08:23:32Z</time>
      </trkpt>
      <trkpt lat="43.51565" lon="6.65651">
        <ele>129</ele>
        <time>2022-04-22T08:23:33Z</time>
      </trkpt>
      <trkpt lat="43.51566" lon="6.65652">
        <ele>129.1</ele>
        <time>2022-04-22T08:23:34Z</time>
      </trkpt>
      <trkpt lat="43.51567" lon="6.65652">
        <ele>129.2</ele>
        <time>2022-04-22T08:23:35Z</time>
      </trkpt>
      <trkpt lat="43.51568" lon="6.65651">
        <ele>129.4</ele>
        <time>2022-04-22T08:23:36Z</time>
      </trkpt>
      <trkpt lat="43.51569" lon="6.65651">
        <ele>129.5</ele>
        <time>2022-04-22T08:23:37Z</time>
      </trkpt>
      <trkpt lat="43.51569" lon="6.6565">
        <ele>129.6</ele>
        <time>2022-04-22T08:23:38Z</time>
      </trkpt>
      <trkpt lat="43.51569" lon="6.65649">
        <ele>129.7</ele>
        <time>2022-04-22T08:23:40Z</time>
      </trkpt>
      <trkpt lat="43.5157" lon="6.65648">
        <ele>129.8</ele>
        <time>2022-04-22T08:23:41Z</time>
      </trkpt>
      <trkpt lat="43.51571" lon="6.65648">
        <ele>129.9</ele>
        <time>2022-04-22T08:23:42Z</time>
      </trkpt>
      <trkpt lat="43.51572" lon="6.65647">
        <ele>130</ele>
        <time>2022-04-22T08:23:43Z</time>
      </trkpt>
      <trkpt lat="43.51573" lon="6.65646">
        <ele>130.2</ele>
        <time>2022-04-22T08:23:44Z</time>
      </trkpt>
      <trkpt lat="43.51575" lon="6.65647">
        <ele>130.4</ele>
        <time>2022-04-22T08:23:45Z</time>
      </trkpt>
      <trkpt lat="43.51576" lon="6.65647">
        <ele>130.6</ele>
        <time>2022-04-22T08:23:47Z</time>
      </trkpt>
      <trkpt lat="43.51577" lon="6.65648">
        <ele>130.7</ele>
        <time>2022-04-22T08:23:48Z</time>
      </trkpt>
      <trkpt lat="43.51578" lon="6.65649">
        <ele>130.8</ele>
        <time>2022-04-22T08:23:49Z</time>
      </trkpt>
      <trkpt lat="43.51579" lon="6.65649">
        <ele>130.9</ele>
        <time>2022-04-22T08:23:50Z</time>
      </trkpt>
      <trkpt lat="43.51581" lon="6.6565">
        <ele>131</ele>
        <time>2022-04-22T08:23:52Z</time>
      </trkpt>
      <trkpt lat="43.51582" lon="6.6565">
        <ele>131.1</ele>
        <time>2022-04-22T08:23:53Z</time>
      </trkpt>
      <trkpt lat="43.51583" lon="6.65649">
        <ele>131.1</ele>
        <time>2022-04-22T08:23:54Z</time>
      </trkpt>
      <trkpt lat="43.51584" lon="6.65649">
        <ele>131.2</ele>
        <time>2022-04-22T08:23:55Z</time>
      </trkpt>
      <trkpt lat="43.51585" lon="6.65649">
        <ele>131.2</ele>
        <time>2022-04-22T08:23:56Z</time>
      </trkpt>
      <trkpt lat="43.51587" lon="6.6565">
        <ele>131.3</ele>
        <time>2022-04-22T08:23:57Z</time>
      </trkpt>
      <trkpt lat="43.51589" lon="6.65649">
        <ele>131.3</ele>
        <time>2022-04-22T08:23:59Z</time>
      </trkpt>
      <trkpt lat="43.5159" lon="6.65649">
        <ele>131.4</ele>
        <time>2022-04-22T08:24:00Z</time>
      </trkpt>
      <trkpt lat="43.51592" lon="6.65649">
        <ele>131.4</ele>
        <time>2022-04-22T08:24:01Z</time>
      </trkpt>
      <trkpt lat="43.51593" lon="6.65649">
        <ele>131.4</ele>
        <time>2022-04-22T08:24:02Z</time>
      </trkpt>
      <trkpt lat="43.51594" lon="6.65649">
        <ele>131.4</ele>
        <time>2022-04-22T08:24:03Z</time>
      </trkpt>
      <trkpt lat="43.51596" lon="6.6565">
        <ele>131.4</ele>
        <time>2022-04-22T08:24:04Z</time>
      </trkpt>
      <trkpt lat="43.51597" lon="6.65649">
        <ele>131.4</ele>
        <time>2022-04-22T08:24:05Z</time>
      </trkpt>
      <trkpt lat="43.51597" lon="6.65649">
        <ele>131.5</ele>
        <time>2022-04-22T08:24:06Z</time>
      </trkpt>
      <trkpt lat="43.51599" lon="6.65649">
        <ele>131.5</ele>
        <time>2022-04-22T08:24:07Z</time>
      </trkpt>
      <trkpt lat="43.516" lon="6.65649">
        <ele>131.5</ele>
        <time>2022-04-22T08:24:08Z</time>
      </trkpt>
      <trkpt lat="43.51602" lon="6.65649">
        <ele>131.6</ele>
        <time>2022-04-22T08:24:10Z</time>
      </trkpt>
      <trkpt lat="43.51604" lon="6.65648">
        <ele>131.7</ele>
        <time>2022-04-22T08:24:11Z</time>
      </trkpt>
      <trkpt lat="43.51605" lon="6.65648">
        <ele>131.7</ele>
        <time>2022-04-22T08:24:12Z</time>
      </trkpt>
      <trkpt lat="43.51607" lon="6.65647">
        <ele>131.9</ele>
        <time>2022-04-22T08:24:13Z</time>
      </trkpt>
      <trkpt lat="43.51608" lon="6.65647">
        <ele>131.9</ele>
        <time>2022-04-22T08:24:14Z</time>
      </trkpt>
      <trkpt lat="43.51609" lon="6.65647">
        <ele>132</ele>
        <time>2022-04-22T08:24:15Z</time>
      </trkpt>
      <trkpt lat="43.5161" lon="6.65647">
        <ele>132.1</ele>
        <time>2022-04-22T08:24:16Z</time>
      </trkpt>
      <trkpt lat="43.51612" lon="6.65646">
        <ele>132.4</ele>
        <time>2022-04-22T08:24:18Z</time>
      </trkpt>
      <trkpt lat="43.51614" lon="6.65645">
        <ele>132.6</ele>
        <time>2022-04-22T08:24:19Z</time>
      </trkpt>
      <trkpt lat="43.51615" lon="6.65643">
        <ele>132.8</ele>
        <time>2022-04-22T08:24:21Z</time>
      </trkpt>
      <trkpt lat="43.51615" lon="6.65643">
        <ele>132.8</ele>
        <time>2022-04-22T08:24:22Z</time>
      </trkpt>
      <trkpt lat="43.51615" lon="6.65642">
        <ele>132.9</ele>
        <time>2022-04-22T08:24:23Z</time>
      </trkpt>
      <trkpt lat="43.51615" lon="6.65641">
        <ele>133</ele>
        <time>2022-04-22T08:24:24Z</time>
      </trkpt>
      <trkpt lat="43.51616" lon="6.65641">
        <ele>133.1</ele>
        <time>2022-04-22T08:24:25Z</time>
      </trkpt>
      <trkpt lat="43.51617" lon="6.6564">
        <ele>133.3</ele>
        <time>2022-04-22T08:24:26Z</time>
      </trkpt>
      <trkpt lat="43.51617" lon="6.6564">
        <ele>133.4</ele>
        <time>2022-04-22T08:24:27Z</time>
      </trkpt>
      <trkpt lat="43.51618" lon="6.65639">
        <ele>133.5</ele>
        <time>2022-04-22T08:24:28Z</time>
      </trkpt>
      <trkpt lat="43.51618" lon="6.65639">
        <ele>133.6</ele>
        <time>2022-04-22T08:24:29Z</time>
      </trkpt>
      <trkpt lat="43.51619" lon="6.65638">
        <ele>133.7</ele>
        <time>2022-04-22T08:24:31Z</time>
      </trkpt>
      <trkpt lat="43.51619" lon="6.65637">
        <ele>133.9</ele>
        <time>2022-04-22T08:24:32Z</time>
      </trkpt>
      <trkpt lat="43.5162" lon="6.65636">
        <ele>134.1</ele>
        <time>2022-04-22T08:24:33Z</time>
      </trkpt>
      <trkpt lat="43.51621" lon="6.65635">
        <ele>134.2</ele>
        <time>2022-04-22T08:24:34Z</time>
      </trkpt>
      <trkpt lat="43.51621" lon="6.65634">
        <ele>134.3</ele>
        <time>2022-04-22T08:24:35Z</time>
      </trkpt>
      <trkpt lat="43.51621" lon="6.65634">
        <ele>134.4</ele>
        <time>2022-04-22T08:24:36Z</time>
      </trkpt>
      <trkpt lat="43.51621" lon="6.65633">
        <ele>134.5</ele>
        <time>2022-04-22T08:24:37Z</time>
      </trkpt>
      <trkpt lat="43.51621" lon="6.65631">
        <ele>134.7</ele>
        <time>2022-04-22T08:24:38Z</time>
      </trkpt>
      <trkpt lat="43.5162" lon="6.6563">
        <ele>134.9</ele>
        <time>2022-04-22T08:24:39Z</time>
      </trkpt>
      <trkpt lat="43.5162" lon="6.65629">
        <ele>135</ele>
        <time>2022-04-22T08:24:41Z</time>
      </trkpt>
      <trkpt lat="43.51621" lon="6.65628">
        <ele>135.2</ele>
        <time>2022-04-22T08:24:42Z</time>
      </trkpt>
      <trkpt lat="43.51622" lon="6.65628">
        <ele>135.4</ele>
        <time>2022-04-22T08:24:44Z</time>
      </trkpt>
      <trkpt lat="43.51623" lon="6.65628">
        <ele>135.5</ele>
        <time>2022-04-22T08:24:45Z</time>
      </trkpt>
      <trkpt lat="43.51625" lon="6.65628">
        <ele>135.8</ele>
        <time>2022-04-22T08:24:46Z</time>
      </trkpt>
      <trkpt lat="43.51626" lon="6.65628">
        <ele>136</ele>
        <time>2022-04-22T08:24:47Z</time>
      </trkpt>
      <trkpt lat="43.51627" lon="6.65627">
        <ele>136.1</ele>
        <time>2022-04-22T08:24:48Z</time>
      </trkpt>
      <trkpt lat="43.51628" lon="6.65627">
        <ele>136.3</ele>
        <time>2022-04-22T08:24:50Z</time>
      </trkpt>
      <trkpt lat="43.51629" lon="6.65627">
        <ele>136.4</ele>
        <time>2022-04-22T08:24:51Z</time>
      </trkpt>
      <trkpt lat="43.51629" lon="6.65628">
        <ele>136.5</ele>
        <time>2022-04-22T08:24:52Z</time>
      </trkpt>
      <trkpt lat="43.5163" lon="6.65628">
        <ele>136.6</ele>
        <time>2022-04-22T08:24:53Z</time>
      </trkpt>
      <trkpt lat="43.5163" lon="6.65629">
        <ele>136.7</ele>
        <time>2022-04-22T08:24:54Z</time>
      </trkpt>
      <trkpt lat="43.5163" lon="6.65629">
        <ele>136.8</ele>
        <time>2022-04-22T08:24:55Z</time>
      </trkpt>
      <trkpt lat="43.51631" lon="6.65629">
        <ele>136.9</ele>
        <time>2022-04-22T08:24:56Z</time>
      </trkpt>
      <trkpt lat="43.51632" lon="6.6563">
        <ele>137</ele>
        <time>2022-04-22T08:24:57Z</time>
      </trkpt>
      <trkpt lat="43.51633" lon="6.6563">
        <ele>137.1</ele>
        <time>2022-04-22T08:24:58Z</time>
      </trkpt>
      <trkpt lat="43.51634" lon="6.6563">
        <ele>137.2</ele>
        <time>2022-04-22T08:24:59Z</time>
      </trkpt>
      <trkpt lat="43.51634" lon="6.6563">
        <ele>137.3</ele>
        <time>2022-04-22T08:25:00Z</time>
      </trkpt>
      <trkpt lat="43.51635" lon="6.6563">
        <ele>137.4</ele>
        <time>2022-04-22T08:25:01Z</time>
      </trkpt>
      <trkpt lat="43.51635" lon="6.6563">
        <ele>137.4</ele>
        <time>2022-04-22T08:25:03Z</time>
      </trkpt>
      <trkpt lat="43.51636" lon="6.65629">
        <ele>137.5</ele>
        <time>2022-04-22T08:25:04Z</time>
      </trkpt>
      <trkpt lat="43.51636" lon="6.65629">
        <ele>137.5</ele>
        <time>2022-04-22T08:25:05Z</time>
      </trkpt>
      <trkpt lat="43.51636" lon="6.65629">
        <ele>137.5</ele>
        <time>2022-04-22T08:25:06Z</time>
      </trkpt>
      <trkpt lat="43.51637" lon="6.65629">
        <ele>137.6</ele>
        <time>2022-04-22T08:25:07Z</time>
      </trkpt>
      <trkpt lat="43.51638" lon="6.65628">
        <ele>137.7</ele>
        <time>2022-04-22T08:25:09Z</time>
      </trkpt>
      <trkpt lat="43.51639" lon="6.65629">
        <ele>137.8</ele>
        <time>2022-04-22T08:25:10Z</time>
      </trkpt>
      <trkpt lat="43.51641" lon="6.65629">
        <ele>137.9</ele>
        <time>2022-04-22T08:25:11Z</time>
      </trkpt>
      <trkpt lat="43.51642" lon="6.6563">
        <ele>138</ele>
        <time>2022-04-22T08:25:12Z</time>
      </trkpt>
      <trkpt lat="43.51642" lon="6.6563">
        <ele>138.1</ele>
        <time>2022-04-22T08:25:13Z</time>
      </trkpt>
      <trkpt lat="43.51643" lon="6.6563">
        <ele>138.1</ele>
        <time>2022-04-22T08:25:14Z</time>
      </trkpt>
      <trkpt lat="43.51644" lon="6.6563">
        <ele>138.2</ele>
        <time>2022-04-22T08:25:16Z</time>
      </trkpt>
      <trkpt lat="43.51645" lon="6.65629">
        <ele>138.3</ele>
        <time>2022-04-22T08:25:17Z</time>
      </trkpt>
      <trkpt lat="43.51647" lon="6.65628">
        <ele>138.4</ele>
        <time>2022-04-22T08:25:18Z</time>
      </trkpt>
      <trkpt lat="43.51647" lon="6.65627">
        <ele>138.4</ele>
        <time>2022-04-22T08:25:19Z</time>
      </trkpt>
      <trkpt lat="43.51647" lon="6.65625">
        <ele>138.5</ele>
        <time>2022-04-22T08:25:20Z</time>
      </trkpt>
      <trkpt lat="43.51648" lon="6.65625">
        <ele>138.5</ele>
        <time>2022-04-22T08:25:21Z</time>
      </trkpt>
      <trkpt lat="43.51648" lon="6.65624">
        <ele>138.6</ele>
        <time>2022-04-22T08:25:22Z</time>
      </trkpt>
      <trkpt lat="43.51649" lon="6.65624">
        <ele>138.6</ele>
        <time>2022-04-22T08:25:23Z</time>
      </trkpt>
      <trkpt lat="43.51649" lon="6.65625">
        <ele>138.6</ele>
        <time>2022-04-22T08:25:24Z</time>
      </trkpt>
      <trkpt lat="43.5165" lon="6.65625">
        <ele>138.7</ele>
        <time>2022-04-22T08:25:25Z</time>
      </trkpt>
      <trkpt lat="43.5165" lon="6.65625">
        <ele>138.7</ele>
        <time>2022-04-22T08:25:26Z</time>
      </trkpt>
      <trkpt lat="43.51651" lon="6.65625">
        <ele>138.7</ele>
        <time>2022-04-22T08:25:27Z</time>
      </trkpt>
      <trkpt lat="43.51651" lon="6.65625">
        <ele>138.8</ele>
        <time>2022-04-22T08:25:28Z</time>
      </trkpt>
      <trkpt lat="43.51652" lon="6.65625">
        <ele>138.8</ele>
        <time>2022-04-22T08:25:29Z</time>
      </trkpt>
      <trkpt lat="43.51652" lon="6.65625">
        <ele>138.8</ele>
        <time>2022-04-22T08:25:31Z</time>
      </trkpt>
      <trkpt lat="43.51653" lon="6.65625">
        <ele>138.8</ele>
        <time>2022-04-22T08:25:32Z</time>
      </trkpt>
      <trkpt lat="43.51654" lon="6.65625">
        <ele>138.9</ele>
        <time>2022-04-22T08:25:33Z</time>
      </trkpt>
      <trkpt lat="43.51655" lon="6.65625">
        <ele>138.9</ele>
        <time>2022-04-22T08:25:34Z</time>
      </trkpt>
      <trkpt lat="43.51657" lon="6.65625">
        <ele>139</ele>
        <time>2022-04-22T08:25:35Z</time>
      </trkpt>
      <trkpt lat="43.51658" lon="6.65624">
        <ele>139</ele>
        <time>2022-04-22T08:25:37Z</time>
      </trkpt>
      <trkpt lat="43.5166" lon="6.65624">
        <ele>139</ele>
        <time>2022-04-22T08:25:38Z</time>
      </trkpt>
      <trkpt lat="43.51661" lon="6.65623">
        <ele>139</ele>
        <time>2022-04-22T08:25:39Z</time>
      </trkpt>
      <trkpt lat="43.51662" lon="6.65623">
        <ele>139</ele>
        <time>2022-04-22T08:25:40Z</time>
      </trkpt>
      <trkpt lat="43.51664" lon="6.65623">
        <ele>139</ele>
        <time>2022-04-22T08:25:41Z</time>
      </trkpt>
      <trkpt lat="43.51665" lon="6.65623">
        <ele>139</ele>
        <time>2022-04-22T08:25:42Z</time>
      </trkpt>
      <trkpt lat="43.51666" lon="6.65623">
        <ele>139</ele>
        <time>2022-04-22T08:25:43Z</time>
      </trkpt>
      <trkpt lat="43.51666" lon="6.65622">
        <ele>139</ele>
        <time>2022-04-22T08:25:44Z</time>
      </trkpt>
      <trkpt lat="43.51667" lon="6.65623">
        <ele>139</ele>
        <time>2022-04-22T08:25:45Z</time>
      </trkpt>
      <trkpt lat="43.51668" lon="6.65623">
        <ele>138.9</ele>
        <time>2022-04-22T08:25:46Z</time>
      </trkpt>
      <trkpt lat="43.51669" lon="6.65623">
        <ele>138.9</ele>
        <time>2022-04-22T08:25:47Z</time>
      </trkpt>
      <trkpt lat="43.51671" lon="6.65623">
        <ele>138.9</ele>
        <time>2022-04-22T08:25:48Z</time>
      </trkpt>
      <trkpt lat="43.51671" lon="6.65623">
        <ele>138.9</ele>
        <time>2022-04-22T08:25:49Z</time>
      </trkpt>
      <trkpt lat="43.51672" lon="6.65623">
        <ele>138.8</ele>
        <time>2022-04-22T08:25:50Z</time>
      </trkpt>
      <trkpt lat="43.51672" lon="6.65624">
        <ele>138.8</ele>
        <time>2022-04-22T08:25:51Z</time>
      </trkpt>
      <trkpt lat="43.51674" lon="6.65624">
        <ele>138.8</ele>
        <time>2022-04-22T08:25:53Z</time>
      </trkpt>
      <trkpt lat="43.51675" lon="6.65624">
        <ele>138.8</ele>
        <time>2022-04-22T08:25:54Z</time>
      </trkpt>
      <trkpt lat="43.51676" lon="6.65624">
        <ele>138.7</ele>
        <time>2022-04-22T08:25:55Z</time>
      </trkpt>
      <trkpt lat="43.51678" lon="6.65624">
        <ele>138.7</ele>
        <time>2022-04-22T08:25:57Z</time>
      </trkpt>
      <trkpt lat="43.51679" lon="6.65625">
        <ele>138.7</ele>
        <time>2022-04-22T08:25:58Z</time>
      </trkpt>
      <trkpt lat="43.5168" lon="6.65626">
        <ele>138.6</ele>
        <time>2022-04-22T08:25:59Z</time>
      </trkpt>
      <trkpt lat="43.51681" lon="6.65626">
        <ele>138.6</ele>
        <time>2022-04-22T08:26:00Z</time>
      </trkpt>
      <trkpt lat="43.51683" lon="6.65626">
        <ele>138.6</ele>
        <time>2022-04-22T08:26:01Z</time>
      </trkpt>
      <trkpt lat="43.51685" lon="6.65626">
        <ele>138.6</ele>
        <time>2022-04-22T08:26:02Z</time>
      </trkpt>
      <trkpt lat="43.51686" lon="6.65626">
        <ele>138.6</ele>
        <time>2022-04-22T08:26:03Z</time>
      </trkpt>
      <trkpt lat="43.51687" lon="6.65626">
        <ele>138.6</ele>
        <time>2022-04-22T08:26:05Z</time>
      </trkpt>
      <trkpt lat="43.51689" lon="6.65627">
        <ele>138.6</ele>
        <time>2022-04-22T08:26:06Z</time>
      </trkpt>
      <trkpt lat="43.5169" lon="6.65627">
        <ele>138.6</ele>
        <time>2022-04-22T08:26:07Z</time>
      </trkpt>
      <trkpt lat="43.51692" lon="6.65628">
        <ele>138.7</ele>
        <time>2022-04-22T08:26:08Z</time>
      </trkpt>
      <trkpt lat="43.51693" lon="6.65628">
        <ele>138.7</ele>
        <time>2022-04-22T08:26:09Z</time>
      </trkpt>
      <trkpt lat="43.51694" lon="6.65628">
        <ele>138.8</ele>
        <time>2022-04-22T08:26:10Z</time>
      </trkpt>
      <trkpt lat="43.51696" lon="6.65627">
        <ele>138.9</ele>
        <time>2022-04-22T08:26:12Z</time>
      </trkpt>
      <trkpt lat="43.51697" lon="6.65626">
        <ele>138.9</ele>
        <time>2022-04-22T08:26:13Z</time>
      </trkpt>
      <trkpt lat="43.51698" lon="6.65626">
        <ele>139</ele>
        <time>2022-04-22T08:26:14Z</time>
      </trkpt>
      <trkpt lat="43.51699" lon="6.65625">
        <ele>139.1</ele>
        <time>2022-04-22T08:26:15Z</time>
      </trkpt>
      <trkpt lat="43.517" lon="6.65625">
        <ele>139.2</ele>
        <time>2022-04-22T08:26:16Z</time>
      </trkpt>
      <trkpt lat="43.51701" lon="6.65624">
        <ele>139.2</ele>
        <time>2022-04-22T08:26:18Z</time>
      </trkpt>
      <trkpt lat="43.51702" lon="6.65624">
        <ele>139.3</ele>
        <time>2022-04-22T08:26:19Z</time>
      </trkpt>
      <trkpt lat="43.51703" lon="6.65623">
        <ele>139.4</ele>
        <time>2022-04-22T08:26:20Z</time>
      </trkpt>
      <trkpt lat="43.51704" lon="6.65622">
        <ele>139.5</ele>
        <time>2022-04-22T08:26:21Z</time>
      </trkpt>
      <trkpt lat="43.51705" lon="6.65622">
        <ele>139.6</ele>
        <time>2022-04-22T08:26:22Z</time>
      </trkpt>
      <trkpt lat="43.51707" lon="6.65621">
        <ele>139.8</ele>
        <time>2022-04-22T08:26:24Z</time>
      </trkpt>
      <trkpt lat="43.51708" lon="6.65621">
        <ele>139.9</ele>
        <time>2022-04-22T08:26:25Z</time>
      </trkpt>
      <trkpt lat="43.51709" lon="6.65621">
        <ele>140</ele>
        <time>2022-04-22T08:26:27Z</time>
      </trkpt>
      <trkpt lat="43.5171" lon="6.65621">
        <ele>140.1</ele>
        <time>2022-04-22T08:26:28Z</time>
      </trkpt>
      <trkpt lat="43.51712" lon="6.65621">
        <ele>140.3</ele>
        <time>2022-04-22T08:26:30Z</time>
      </trkpt>
      <trkpt lat="43.51712" lon="6.65621">
        <ele>140.4</ele>
        <time>2022-04-22T08:26:31Z</time>
      </trkpt>
      <trkpt lat="43.51713" lon="6.6562">
        <ele>140.4</ele>
        <time>2022-04-22T08:26:32Z</time>
      </trkpt>
      <trkpt lat="43.51714" lon="6.6562">
        <ele>140.5</ele>
        <time>2022-04-22T08:26:33Z</time>
      </trkpt>
      <trkpt lat="43.51715" lon="6.65619">
        <ele>140.6</ele>
        <time>2022-04-22T08:26:34Z</time>
      </trkpt>
      <trkpt lat="43.51715" lon="6.65619">
        <ele>140.7</ele>
        <time>2022-04-22T08:26:35Z</time>
      </trkpt>
      <trkpt lat="43.51716" lon="6.65618">
        <ele>140.8</ele>
        <time>2022-04-22T08:26:37Z</time>
      </trkpt>
      <trkpt lat="43.51717" lon="6.65618">
        <ele>140.9</ele>
        <time>2022-04-22T08:26:38Z</time>
      </trkpt>
      <trkpt lat="43.51717" lon="6.65617">
        <ele>141</ele>
        <time>2022-04-22T08:26:39Z</time>
      </trkpt>
      <trkpt lat="43.51717" lon="6.65616">
        <ele>141</ele>
        <time>2022-04-22T08:26:40Z</time>
      </trkpt>
      <trkpt lat="43.51717" lon="6.65615">
        <ele>141.1</ele>
        <time>2022-04-22T08:26:41Z</time>
      </trkpt>
      <trkpt lat="43.51717" lon="6.65613">
        <ele>142</ele>
        <time>2022-04-22T08:26:43Z</time>
      </trkpt>
      <trkpt lat="43.51717" lon="6.65612">
        <ele>142.3</ele>
        <time>2022-04-22T08:26:44Z</time>
      </trkpt>
      <trkpt lat="43.51716" lon="6.65611">
        <ele>142.4</ele>
        <time>2022-04-22T08:26:45Z</time>
      </trkpt>
      <trkpt lat="43.51716" lon="6.6561">
        <ele>142.5</ele>
        <time>2022-04-22T08:26:46Z</time>
      </trkpt>
      <trkpt lat="43.51716" lon="6.6561">
        <ele>142.6</ele>
        <time>2022-04-22T08:26:47Z</time>
      </trkpt>
      <trkpt lat="43.51715" lon="6.65609">
        <ele>142.7</ele>
        <time>2022-04-22T08:26:48Z</time>
      </trkpt>
      <trkpt lat="43.51715" lon="6.65608">
        <ele>142.9</ele>
        <time>2022-04-22T08:26:50Z</time>
      </trkpt>
      <trkpt lat="43.51715" lon="6.65608">
        <ele>143</ele>
        <time>2022-04-22T08:26:51Z</time>
      </trkpt>
      <trkpt lat="43.51715" lon="6.65607">
        <ele>143.1</ele>
        <time>2022-04-22T08:26:52Z</time>
      </trkpt>
      <trkpt lat="43.51715" lon="6.65606">
        <ele>143.2</ele>
        <time>2022-04-22T08:26:53Z</time>
      </trkpt>
      <trkpt lat="43.51716" lon="6.65605">
        <ele>143.4</ele>
        <time>2022-04-22T08:26:54Z</time>
      </trkpt>
      <trkpt lat="43.51716" lon="6.65605">
        <ele>143.5</ele>
        <time>2022-04-22T08:26:55Z</time>
      </trkpt>
      <trkpt lat="43.51717" lon="6.65605">
        <ele>143.6</ele>
        <time>2022-04-22T08:26:56Z</time>
      </trkpt>
      <trkpt lat="43.51718" lon="6.65605">
        <ele>143.7</ele>
        <time>2022-04-22T08:26:57Z</time>
      </trkpt>
      <trkpt lat="43.51719" lon="6.65605">
        <ele>143.9</ele>
        <time>2022-04-22T08:26:58Z</time>
      </trkpt>
      <trkpt lat="43.5172" lon="6.65604">
        <ele>144.1</ele>
        <time>2022-04-22T08:27:00Z</time>
      </trkpt>
      <trkpt lat="43.5172" lon="6.65603">
        <ele>144.2</ele>
        <time>2022-04-22T08:27:01Z</time>
      </trkpt>
      <trkpt lat="43.51719" lon="6.65601">
        <ele>144.5</ele>
        <time>2022-04-22T08:27:02Z</time>
      </trkpt>
      <trkpt lat="43.51719" lon="6.656">
        <ele>144.6</ele>
        <time>2022-04-22T08:27:03Z</time>
      </trkpt>
      <trkpt lat="43.51719" lon="6.65599">
        <ele>144.8</ele>
        <time>2022-04-22T08:27:05Z</time>
      </trkpt>
      <trkpt lat="43.51719" lon="6.65598">
        <ele>144.9</ele>
        <time>2022-04-22T08:27:06Z</time>
      </trkpt>
      <trkpt lat="43.51719" lon="6.65597">
        <ele>145.1</ele>
        <time>2022-04-22T08:27:07Z</time>
      </trkpt>
      <trkpt lat="43.51719" lon="6.65595">
        <ele>145.2</ele>
        <time>2022-04-22T08:27:08Z</time>
      </trkpt>
      <trkpt lat="43.51719" lon="6.65594">
        <ele>145.4</ele>
        <time>2022-04-22T08:27:09Z</time>
      </trkpt>
      <trkpt lat="43.51719" lon="6.65593">
        <ele>145.5</ele>
        <time>2022-04-22T08:27:11Z</time>
      </trkpt>
      <trkpt lat="43.51719" lon="6.65592">
        <ele>145.6</ele>
        <time>2022-04-22T08:27:12Z</time>
      </trkpt>
      <trkpt lat="43.51719" lon="6.65591">
        <ele>145.8</ele>
        <time>2022-04-22T08:27:13Z</time>
      </trkpt>
      <trkpt lat="43.51719" lon="6.6559">
        <ele>145.9</ele>
        <time>2022-04-22T08:27:14Z</time>
      </trkpt>
      <trkpt lat="43.51719" lon="6.65589">
        <ele>146.1</ele>
        <time>2022-04-22T08:27:15Z</time>
      </trkpt>
      <trkpt lat="43.51719" lon="6.65588">
        <ele>146.2</ele>
        <time>2022-04-22T08:27:16Z</time>
      </trkpt>
      <trkpt lat="43.5172" lon="6.65585">
        <ele>146.5</ele>
        <time>2022-04-22T08:27:18Z</time>
      </trkpt>
      <trkpt lat="43.5172" lon="6.65583">
        <ele>146.8</ele>
        <time>2022-04-22T08:27:19Z</time>
      </trkpt>
      <trkpt lat="43.51721" lon="6.65582">
        <ele>147</ele>
        <time>2022-04-22T08:27:20Z</time>
      </trkpt>
      <trkpt lat="43.51722" lon="6.65581">
        <ele>147.2</ele>
        <time>2022-04-22T08:27:21Z</time>
      </trkpt>
      <trkpt lat="43.51722" lon="6.65581">
        <ele>147.3</ele>
        <time>2022-04-22T08:27:22Z</time>
      </trkpt>
      <trkpt lat="43.51723" lon="6.6558">
        <ele>147.5</ele>
        <time>2022-04-22T08:27:23Z</time>
      </trkpt>
      <trkpt lat="43.51724" lon="6.65578">
        <ele>147.9</ele>
        <time>2022-04-22T08:27:25Z</time>
      </trkpt>
      <trkpt lat="43.51726" lon="6.65577">
        <ele>148.1</ele>
        <time>2022-04-22T08:27:26Z</time>
      </trkpt>
      <trkpt lat="43.51726" lon="6.65576">
        <ele>148.3</ele>
        <time>2022-04-22T08:27:27Z</time>
      </trkpt>
      <trkpt lat="43.51727" lon="6.65575">
        <ele>148.5</ele>
        <time>2022-04-22T08:27:28Z</time>
      </trkpt>
      <trkpt lat="43.51728" lon="6.65574">
        <ele>148.7</ele>
        <time>2022-04-22T08:27:29Z</time>
      </trkpt>
      <trkpt lat="43.51729" lon="6.65573">
        <ele>148.9</ele>
        <time>2022-04-22T08:27:30Z</time>
      </trkpt>
      <trkpt lat="43.5173" lon="6.65572">
        <ele>149.2</ele>
        <time>2022-04-22T08:27:32Z</time>
      </trkpt>
      <trkpt lat="43.5173" lon="6.65571">
        <ele>149.3</ele>
        <time>2022-04-22T08:27:33Z</time>
      </trkpt>
      <trkpt lat="43.5173" lon="6.6557">
        <ele>149.4</ele>
        <time>2022-04-22T08:27:34Z</time>
      </trkpt>
      <trkpt lat="43.5173" lon="6.6557">
        <ele>149.6</ele>
        <time>2022-04-22T08:27:35Z</time>
      </trkpt>
      <trkpt lat="43.5173" lon="6.65569">
        <ele>149.6</ele>
        <time>2022-04-22T08:27:36Z</time>
      </trkpt>
      <trkpt lat="43.51729" lon="6.65568">
        <ele>149.7</ele>
        <time>2022-04-22T08:27:37Z</time>
      </trkpt>
      <trkpt lat="43.51729" lon="6.65568">
        <ele>149.8</ele>
        <time>2022-04-22T08:27:38Z</time>
      </trkpt>
      <trkpt lat="43.5173" lon="6.65568">
        <ele>149.9</ele>
        <time>2022-04-22T08:27:39Z</time>
      </trkpt>
      <trkpt lat="43.5173" lon="6.65567">
        <ele>150</ele>
        <time>2022-04-22T08:27:40Z</time>
      </trkpt>
      <trkpt lat="43.51731" lon="6.65568">
        <ele>150.1</ele>
        <time>2022-04-22T08:27:41Z</time>
      </trkpt>
      <trkpt lat="43.51733" lon="6.65568">
        <ele>150.4</ele>
        <time>2022-04-22T08:27:42Z</time>
      </trkpt>
      <trkpt lat="43.51734" lon="6.65568">
        <ele>150.6</ele>
        <time>2022-04-22T08:27:43Z</time>
      </trkpt>
      <trkpt lat="43.51735" lon="6.65569">
        <ele>150.9</ele>
        <time>2022-04-22T08:27:44Z</time>
      </trkpt>
      <trkpt lat="43.51737" lon="6.65569">
        <ele>151.1</ele>
        <time>2022-04-22T08:27:46Z</time>
      </trkpt>
      <trkpt lat="43.51738" lon="6.65569">
        <ele>151.3</ele>
        <time>2022-04-22T08:27:47Z</time>
      </trkpt>
      <trkpt lat="43.51739" lon="6.65569">
        <ele>151.5</ele>
        <time>2022-04-22T08:27:48Z</time>
      </trkpt>
      <trkpt lat="43.51741" lon="6.65568">
        <ele>151.7</ele>
        <time>2022-04-22T08:27:49Z</time>
      </trkpt>
      <trkpt lat="43.51741" lon="6.65568">
        <ele>151.8</ele>
        <time>2022-04-22T08:27:50Z</time>
      </trkpt>
      <trkpt lat="43.51741" lon="6.65567">
        <ele>151.9</ele>
        <time>2022-04-22T08:27:51Z</time>
      </trkpt>
      <trkpt lat="43.51742" lon="6.65566">
        <ele>152</ele>
        <time>2022-04-22T08:27:52Z</time>
      </trkpt>
      <trkpt lat="43.51742" lon="6.65566">
        <ele>152.1</ele>
        <time>2022-04-22T08:27:53Z</time>
      </trkpt>
      <trkpt lat="43.51742" lon="6.65564">
        <ele>152.2</ele>
        <time>2022-04-22T08:27:54Z</time>
      </trkpt>
      <trkpt lat="43.51741" lon="6.65563">
        <ele>152.4</ele>
        <time>2022-04-22T08:27:55Z</time>
      </trkpt>
      <trkpt lat="43.5174" lon="6.65561">
        <ele>152.6</ele>
        <time>2022-04-22T08:27:57Z</time>
      </trkpt>
      <trkpt lat="43.5174" lon="6.65559">
        <ele>152.8</ele>
        <time>2022-04-22T08:27:58Z</time>
      </trkpt>
      <trkpt lat="43.51739" lon="6.65557">
        <ele>153.1</ele>
        <time>2022-04-22T08:28:00Z</time>
      </trkpt>
      <trkpt lat="43.51738" lon="6.65557">
        <ele>153.2</ele>
        <time>2022-04-22T08:28:01Z</time>
      </trkpt>
      <trkpt lat="43.51738" lon="6.65555">
        <ele>153.4</ele>
        <time>2022-04-22T08:28:03Z</time>
      </trkpt>
      <trkpt lat="43.51739" lon="6.65555">
        <ele>153.5</ele>
        <time>2022-04-22T08:28:04Z</time>
      </trkpt>
      <trkpt lat="43.5174" lon="6.65555">
        <ele>153.6</ele>
        <time>2022-04-22T08:28:05Z</time>
      </trkpt>
      <trkpt lat="43.51741" lon="6.65555">
        <ele>153.8</ele>
        <time>2022-04-22T08:28:06Z</time>
      </trkpt>
      <trkpt lat="43.51742" lon="6.65555">
        <ele>153.9</ele>
        <time>2022-04-22T08:28:07Z</time>
      </trkpt>
      <trkpt lat="43.51742" lon="6.65555">
        <ele>154</ele>
        <time>2022-04-22T08:28:08Z</time>
      </trkpt>
      <trkpt lat="43.51743" lon="6.65554">
        <ele>154.1</ele>
        <time>2022-04-22T08:28:10Z</time>
      </trkpt>
      <trkpt lat="43.51744" lon="6.65554">
        <ele>154.2</ele>
        <time>2022-04-22T08:28:11Z</time>
      </trkpt>
      <trkpt lat="43.51744" lon="6.65553">
        <ele>154.2</ele>
        <time>2022-04-22T08:28:13Z</time>
      </trkpt>
      <trkpt lat="43.51743" lon="6.65552">
        <ele>154.3</ele>
        <time>2022-04-22T08:28:15Z</time>
      </trkpt>
      <trkpt lat="43.51743" lon="6.65552">
        <ele>154.3</ele>
        <time>2022-04-22T08:28:16Z</time>
      </trkpt>
      <trkpt lat="43.51743" lon="6.65551">
        <ele>154.4</ele>
        <time>2022-04-22T08:28:18Z</time>
      </trkpt>
      <trkpt lat="43.51742" lon="6.65551">
        <ele>154.5</ele>
        <time>2022-04-22T08:28:19Z</time>
      </trkpt>
      <trkpt lat="43.51742" lon="6.6555">
        <ele>154.5</ele>
        <time>2022-04-22T08:28:20Z</time>
      </trkpt>
      <trkpt lat="43.51742" lon="6.6555">
        <ele>154.6</ele>
        <time>2022-04-22T08:28:21Z</time>
      </trkpt>
      <trkpt lat="43.51742" lon="6.65549">
        <ele>154.6</ele>
        <time>2022-04-22T08:28:22Z</time>
      </trkpt>
      <trkpt lat="43.51742" lon="6.65549">
        <ele>154.7</ele>
        <time>2022-04-22T08:28:23Z</time>
      </trkpt>
      <trkpt lat="43.51741" lon="6.65547">
        <ele>154.9</ele>
        <time>2022-04-22T08:28:25Z</time>
      </trkpt>
      <trkpt lat="43.51741" lon="6.65546">
        <ele>155</ele>
        <time>2022-04-22T08:28:26Z</time>
      </trkpt>
      <trkpt lat="43.51741" lon="6.65545">
        <ele>155</ele>
        <time>2022-04-22T08:28:27Z</time>
      </trkpt>
      <trkpt lat="43.51741" lon="6.65544">
        <ele>155.1</ele>
        <time>2022-04-22T08:28:28Z</time>
      </trkpt>
      <trkpt lat="43.51741" lon="6.65542">
        <ele>155.2</ele>
        <time>2022-04-22T08:28:30Z</time>
      </trkpt>
      <trkpt lat="43.51741" lon="6.65541">
        <ele>155.3</ele>
        <time>2022-04-22T08:28:31Z</time>
      </trkpt>
      <trkpt lat="43.51741" lon="6.6554">
        <ele>155.4</ele>
        <time>2022-04-22T08:28:32Z</time>
      </trkpt>
      <trkpt lat="43.51741" lon="6.65539">
        <ele>155.5</ele>
        <time>2022-04-22T08:28:33Z</time>
      </trkpt>
      <trkpt lat="43.51741" lon="6.65538">
        <ele>155.5</ele>
        <time>2022-04-22T08:28:34Z</time>
      </trkpt>
      <trkpt lat="43.51739" lon="6.65539">
        <ele>155.7</ele>
        <time>2022-04-22T08:28:35Z</time>
      </trkpt>
      <trkpt lat="43.51738" lon="6.65541">
        <ele>155.8</ele>
        <time>2022-04-22T08:28:37Z</time>
      </trkpt>
      <trkpt lat="43.51738" lon="6.65542">
        <ele>155.9</ele>
        <time>2022-04-22T08:28:38Z</time>
      </trkpt>
      <trkpt lat="43.51737" lon="6.65544">
        <ele>156</ele>
        <time>2022-04-22T08:28:39Z</time>
      </trkpt>
      <trkpt lat="43.51739" lon="6.65546">
        <ele>156.2</ele>
        <time>2022-04-22T08:28:40Z</time>
      </trkpt>
      <trkpt lat="43.51743" lon="6.65548">
        <ele>156.4</ele>
        <time>2022-04-22T08:28:42Z</time>
      </trkpt>
      <trkpt lat="43.51744" lon="6.65549">
        <ele>156.5</ele>
        <time>2022-04-22T08:28:43Z</time>
      </trkpt>
      <trkpt lat="43.51745" lon="6.6555">
        <ele>156.5</ele>
        <time>2022-04-22T08:28:44Z</time>
      </trkpt>
      <trkpt lat="43.51747" lon="6.65551">
        <ele>156.6</ele>
        <time>2022-04-22T08:28:45Z</time>
      </trkpt>
      <trkpt lat="43.51748" lon="6.65551">
        <ele>156.6</ele>
        <time>2022-04-22T08:28:46Z</time>
      </trkpt>
      <trkpt lat="43.5175" lon="6.65551">
        <ele>156.7</ele>
        <time>2022-04-22T08:28:47Z</time>
      </trkpt>
      <trkpt lat="43.51751" lon="6.65551">
        <ele>156.7</ele>
        <time>2022-04-22T08:28:48Z</time>
      </trkpt>
      <trkpt lat="43.51752" lon="6.65551">
        <ele>156.7</ele>
        <time>2022-04-22T08:28:49Z</time>
      </trkpt>
      <trkpt lat="43.51753" lon="6.65549">
        <ele>156.7</ele>
        <time>2022-04-22T08:28:50Z</time>
      </trkpt>
      <trkpt lat="43.51754" lon="6.65548">
        <ele>156.7</ele>
        <time>2022-04-22T08:28:51Z</time>
      </trkpt>
      <trkpt lat="43.51755" lon="6.65546">
        <ele>156.7</ele>
        <time>2022-04-22T08:28:52Z</time>
      </trkpt>
      <trkpt lat="43.51756" lon="6.65545">
        <ele>156.7</ele>
        <time>2022-04-22T08:28:53Z</time>
      </trkpt>
      <trkpt lat="43.51758" lon="6.65544">
        <ele>156.7</ele>
        <time>2022-04-22T08:28:54Z</time>
      </trkpt>
      <trkpt lat="43.51759" lon="6.65543">
        <ele>156.7</ele>
        <time>2022-04-22T08:28:55Z</time>
      </trkpt>
      <trkpt lat="43.51759" lon="6.65539">
        <ele>156.7</ele>
        <time>2022-04-22T08:28:56Z</time>
      </trkpt>
      <trkpt lat="43.51759" lon="6.65536">
        <ele>156.7</ele>
        <time>2022-04-22T08:28:57Z</time>
      </trkpt>
      <trkpt lat="43.51759" lon="6.65532">
        <ele>156.7</ele>
        <time>2022-04-22T08:28:58Z</time>
      </trkpt>
      <trkpt lat="43.51759" lon="6.6553">
        <ele>156.6</ele>
        <time>2022-04-22T08:28:59Z</time>
      </trkpt>
      <trkpt lat="43.5176" lon="6.65527">
        <ele>156.6</ele>
        <time>2022-04-22T08:29:01Z</time>
      </trkpt>
      <trkpt lat="43.51761" lon="6.65525">
        <ele>156.6</ele>
        <time>2022-04-22T08:29:02Z</time>
      </trkpt>
      <trkpt lat="43.51762" lon="6.65524">
        <ele>156.6</ele>
        <time>2022-04-22T08:29:03Z</time>
      </trkpt>
      <trkpt lat="43.51762" lon="6.65524">
        <ele>156.6</ele>
        <time>2022-04-22T08:29:04Z</time>
      </trkpt>
      <trkpt lat="43.51764" lon="6.65522">
        <ele>156.6</ele>
        <time>2022-04-22T08:29:05Z</time>
      </trkpt>
      <trkpt lat="43.51765" lon="6.65522">
        <ele>156.6</ele>
        <time>2022-04-22T08:29:06Z</time>
      </trkpt>
      <trkpt lat="43.51766" lon="6.65521">
        <ele>156.6</ele>
        <time>2022-04-22T08:29:07Z</time>
      </trkpt>
      <trkpt lat="43.51767" lon="6.6552">
        <ele>156.6</ele>
        <time>2022-04-22T08:29:08Z</time>
      </trkpt>
      <trkpt lat="43.51768" lon="6.6552">
        <ele>156.6</ele>
        <time>2022-04-22T08:29:09Z</time>
      </trkpt>
      <trkpt lat="43.51769" lon="6.65519">
        <ele>156.5</ele>
        <time>2022-04-22T08:29:10Z</time>
      </trkpt>
      <trkpt lat="43.5177" lon="6.65519">
        <ele>156.5</ele>
        <time>2022-04-22T08:29:11Z</time>
      </trkpt>
      <trkpt lat="43.51771" lon="6.65519">
        <ele>156.5</ele>
        <time>2022-04-22T08:29:12Z</time>
      </trkpt>
      <trkpt lat="43.51771" lon="6.65519">
        <ele>156.5</ele>
        <time>2022-04-22T08:29:13Z</time>
      </trkpt>
      <trkpt lat="43.51772" lon="6.65519">
        <ele>156.5</ele>
        <time>2022-04-22T08:29:15Z</time>
      </trkpt>
      <trkpt lat="43.51773" lon="6.65519">
        <ele>156.4</ele>
        <time>2022-04-22T08:29:16Z</time>
      </trkpt>
      <trkpt lat="43.51773" lon="6.65519">
        <ele>156.4</ele>
        <time>2022-04-22T08:29:17Z</time>
      </trkpt>
      <trkpt lat="43.51774" lon="6.65519">
        <ele>156.4</ele>
        <time>2022-04-22T08:29:18Z</time>
      </trkpt>
      <trkpt lat="43.51775" lon="6.65519">
        <ele>156.4</ele>
        <time>2022-04-22T08:29:19Z</time>
      </trkpt>
      <trkpt lat="43.51775" lon="6.65518">
        <ele>156.4</ele>
        <time>2022-04-22T08:29:20Z</time>
      </trkpt>
      <trkpt lat="43.51779" lon="6.65518">
        <ele>156.2</ele>
        <time>2022-04-22T08:29:22Z</time>
      </trkpt>
      <trkpt lat="43.51779" lon="6.65517">
        <ele>156.2</ele>
        <time>2022-04-22T08:29:23Z</time>
      </trkpt>
      <trkpt lat="43.51781" lon="6.65517">
        <ele>156.1</ele>
        <time>2022-04-22T08:29:24Z</time>
      </trkpt>
      <trkpt lat="43.51782" lon="6.65517">
        <ele>156</ele>
        <time>2022-04-22T08:29:25Z</time>
      </trkpt>
      <trkpt lat="43.51784" lon="6.65517">
        <ele>155.9</ele>
        <time>2022-04-22T08:29:26Z</time>
      </trkpt>
      <trkpt lat="43.51786" lon="6.65517">
        <ele>155.8</ele>
        <time>2022-04-22T08:29:28Z</time>
      </trkpt>
      <trkpt lat="43.51788" lon="6.65517">
        <ele>155.7</ele>
        <time>2022-04-22T08:29:29Z</time>
      </trkpt>
      <trkpt lat="43.51789" lon="6.65516">
        <ele>155.6</ele>
        <time>2022-04-22T08:29:30Z</time>
      </trkpt>
      <trkpt lat="43.5179" lon="6.65515">
        <ele>155.5</ele>
        <time>2022-04-22T08:29:31Z</time>
      </trkpt>
      <trkpt lat="43.51792" lon="6.65515">
        <ele>155.4</ele>
        <time>2022-04-22T08:29:32Z</time>
      </trkpt>
      <trkpt lat="43.51793" lon="6.65515">
        <ele>155.4</ele>
        <time>2022-04-22T08:29:33Z</time>
      </trkpt>
      <trkpt lat="43.51794" lon="6.65515">
        <ele>155.3</ele>
        <time>2022-04-22T08:29:34Z</time>
      </trkpt>
      <trkpt lat="43.51795" lon="6.65514">
        <ele>155.2</ele>
        <time>2022-04-22T08:29:35Z</time>
      </trkpt>
      <trkpt lat="43.51796" lon="6.65514">
        <ele>155.1</ele>
        <time>2022-04-22T08:29:36Z</time>
      </trkpt>
      <trkpt lat="43.51798" lon="6.65513">
        <ele>155.1</ele>
        <time>2022-04-22T08:29:37Z</time>
      </trkpt>
      <trkpt lat="43.51801" lon="6.65512">
        <ele>154.8</ele>
        <time>2022-04-22T08:29:39Z</time>
      </trkpt>
      <trkpt lat="43.51802" lon="6.65512">
        <ele>154.8</ele>
        <time>2022-04-22T08:29:40Z</time>
      </trkpt>
      <trkpt lat="43.51803" lon="6.65512">
        <ele>154.7</ele>
        <time>2022-04-22T08:29:41Z</time>
      </trkpt>
      <trkpt lat="43.51805" lon="6.65512">
        <ele>154.6</ele>
        <time>2022-04-22T08:29:42Z</time>
      </trkpt>
      <trkpt lat="43.51806" lon="6.65513">
        <ele>154.5</ele>
        <time>2022-04-22T08:29:43Z</time>
      </trkpt>
      <trkpt lat="43.51807" lon="6.65514">
        <ele>154.4</ele>
        <time>2022-04-22T08:29:44Z</time>
      </trkpt>
      <trkpt lat="43.51808" lon="6.65515">
        <ele>154.3</ele>
        <time>2022-04-22T08:29:45Z</time>
      </trkpt>
      <trkpt lat="43.51809" lon="6.65516">
        <ele>154.2</ele>
        <time>2022-04-22T08:29:46Z</time>
      </trkpt>
      <trkpt lat="43.51811" lon="6.65517">
        <ele>154</ele>
        <time>2022-04-22T08:29:48Z</time>
      </trkpt>
      <trkpt lat="43.51812" lon="6.65517">
        <ele>153.9</ele>
        <time>2022-04-22T08:29:49Z</time>
      </trkpt>
      <trkpt lat="43.51813" lon="6.65517">
        <ele>153.9</ele>
        <time>2022-04-22T08:29:50Z</time>
      </trkpt>
      <trkpt lat="43.51814" lon="6.65517">
        <ele>153.8</ele>
        <time>2022-04-22T08:29:51Z</time>
      </trkpt>
      <trkpt lat="43.51815" lon="6.65517">
        <ele>153.7</ele>
        <time>2022-04-22T08:29:52Z</time>
      </trkpt>
      <trkpt lat="43.51816" lon="6.65516">
        <ele>153.6</ele>
        <time>2022-04-22T08:29:53Z</time>
      </trkpt>
      <trkpt lat="43.51816" lon="6.65514">
        <ele>153.6</ele>
        <time>2022-04-22T08:29:54Z</time>
      </trkpt>
      <trkpt lat="43.51817" lon="6.65513">
        <ele>153.5</ele>
        <time>2022-04-22T08:29:55Z</time>
      </trkpt>
      <trkpt lat="43.51817" lon="6.65513">
        <ele>153.5</ele>
        <time>2022-04-22T08:29:56Z</time>
      </trkpt>
      <trkpt lat="43.51818" lon="6.65512">
        <ele>153.4</ele>
        <time>2022-04-22T08:29:58Z</time>
      </trkpt>
      <trkpt lat="43.51819" lon="6.65512">
        <ele>153.3</ele>
        <time>2022-04-22T08:29:59Z</time>
      </trkpt>
      <trkpt lat="43.5182" lon="6.65512">
        <ele>153.3</ele>
        <time>2022-04-22T08:30:00Z</time>
      </trkpt>
      <trkpt lat="43.5182" lon="6.65512">
        <ele>153.3</ele>
        <time>2022-04-22T08:30:01Z</time>
      </trkpt>
      <trkpt lat="43.51821" lon="6.65512">
        <ele>153.2</ele>
        <time>2022-04-22T08:30:02Z</time>
      </trkpt>
      <trkpt lat="43.51822" lon="6.6551">
        <ele>153.1</ele>
        <time>2022-04-22T08:30:03Z</time>
      </trkpt>
      <trkpt lat="43.51823" lon="6.65509">
        <ele>153.1</ele>
        <time>2022-04-22T08:30:04Z</time>
      </trkpt>
      <trkpt lat="43.51824" lon="6.65508">
        <ele>153</ele>
        <time>2022-04-22T08:30:05Z</time>
      </trkpt>
      <trkpt lat="43.51824" lon="6.65508">
        <ele>153</ele>
        <time>2022-04-22T08:30:06Z</time>
      </trkpt>
      <trkpt lat="43.51825" lon="6.65507">
        <ele>152.9</ele>
        <time>2022-04-22T08:30:07Z</time>
      </trkpt>
      <trkpt lat="43.51826" lon="6.65505">
        <ele>152.9</ele>
        <time>2022-04-22T08:30:08Z</time>
      </trkpt>
      <trkpt lat="43.51827" lon="6.65505">
        <ele>152.8</ele>
        <time>2022-04-22T08:30:09Z</time>
      </trkpt>
      <trkpt lat="43.51829" lon="6.65504">
        <ele>152.7</ele>
        <time>2022-04-22T08:30:10Z</time>
      </trkpt>
      <trkpt lat="43.5183" lon="6.65504">
        <ele>152.7</ele>
        <time>2022-04-22T08:30:11Z</time>
      </trkpt>
      <trkpt lat="43.51831" lon="6.65503">
        <ele>152.7</ele>
        <time>2022-04-22T08:30:12Z</time>
      </trkpt>
      <trkpt lat="43.51832" lon="6.65503">
        <ele>152.6</ele>
        <time>2022-04-22T08:30:14Z</time>
      </trkpt>
      <trkpt lat="43.51833" lon="6.65503">
        <ele>152.6</ele>
        <time>2022-04-22T08:30:15Z</time>
      </trkpt>
      <trkpt lat="43.51834" lon="6.65502">
        <ele>152.5</ele>
        <time>2022-04-22T08:30:16Z</time>
      </trkpt>
      <trkpt lat="43.51835" lon="6.65501">
        <ele>152.5</ele>
        <time>2022-04-22T08:30:17Z</time>
      </trkpt>
      <trkpt lat="43.51836" lon="6.655">
        <ele>152.4</ele>
        <time>2022-04-22T08:30:18Z</time>
      </trkpt>
      <trkpt lat="43.51837" lon="6.655">
        <ele>152.4</ele>
        <time>2022-04-22T08:30:19Z</time>
      </trkpt>
      <trkpt lat="43.51839" lon="6.655">
        <ele>152.3</ele>
        <time>2022-04-22T08:30:20Z</time>
      </trkpt>
      <trkpt lat="43.5184" lon="6.65499">
        <ele>152.2</ele>
        <time>2022-04-22T08:30:21Z</time>
      </trkpt>
      <trkpt lat="43.51841" lon="6.65499">
        <ele>152.2</ele>
        <time>2022-04-22T08:30:22Z</time>
      </trkpt>
      <trkpt lat="43.51844" lon="6.655">
        <ele>152.1</ele>
        <time>2022-04-22T08:30:24Z</time>
      </trkpt>
      <trkpt lat="43.51845" lon="6.655">
        <ele>152</ele>
        <time>2022-04-22T08:30:25Z</time>
      </trkpt>
      <trkpt lat="43.51847" lon="6.655">
        <ele>151.9</ele>
        <time>2022-04-22T08:30:26Z</time>
      </trkpt>
      <trkpt lat="43.51848" lon="6.65501">
        <ele>151.8</ele>
        <time>2022-04-22T08:30:27Z</time>
      </trkpt>
      <trkpt lat="43.51849" lon="6.65501">
        <ele>151.8</ele>
        <time>2022-04-22T08:30:28Z</time>
      </trkpt>
      <trkpt lat="43.5185" lon="6.65502">
        <ele>151.7</ele>
        <time>2022-04-22T08:30:29Z</time>
      </trkpt>
      <trkpt lat="43.51851" lon="6.65502">
        <ele>151.6</ele>
        <time>2022-04-22T08:30:30Z</time>
      </trkpt>
      <trkpt lat="43.51853" lon="6.65502">
        <ele>151.4</ele>
        <time>2022-04-22T08:30:31Z</time>
      </trkpt>
      <trkpt lat="43.51855" lon="6.65502">
        <ele>151.3</ele>
        <time>2022-04-22T08:30:32Z</time>
      </trkpt>
      <trkpt lat="43.51856" lon="6.65503">
        <ele>151.2</ele>
        <time>2022-04-22T08:30:33Z</time>
      </trkpt>
      <trkpt lat="43.51858" lon="6.65503">
        <ele>151</ele>
        <time>2022-04-22T08:30:34Z</time>
      </trkpt>
      <trkpt lat="43.51859" lon="6.65504">
        <ele>150.9</ele>
        <time>2022-04-22T08:30:35Z</time>
      </trkpt>
      <trkpt lat="43.5186" lon="6.65505">
        <ele>150.7</ele>
        <time>2022-04-22T08:30:36Z</time>
      </trkpt>
      <trkpt lat="43.51862" lon="6.65506">
        <ele>150.6</ele>
        <time>2022-04-22T08:30:37Z</time>
      </trkpt>
      <trkpt lat="43.51863" lon="6.65506">
        <ele>150.4</ele>
        <time>2022-04-22T08:30:38Z</time>
      </trkpt>
      <trkpt lat="43.51865" lon="6.65506">
        <ele>150.1</ele>
        <time>2022-04-22T08:30:40Z</time>
      </trkpt>
      <trkpt lat="43.51867" lon="6.65506">
        <ele>149.9</ele>
        <time>2022-04-22T08:30:41Z</time>
      </trkpt>
      <trkpt lat="43.51868" lon="6.65506">
        <ele>149.7</ele>
        <time>2022-04-22T08:30:42Z</time>
      </trkpt>
      <trkpt lat="43.51869" lon="6.65505">
        <ele>149.5</ele>
        <time>2022-04-22T08:30:43Z</time>
      </trkpt>
      <trkpt lat="43.51871" lon="6.65503">
        <ele>149.2</ele>
        <time>2022-04-22T08:30:44Z</time>
      </trkpt>
      <trkpt lat="43.51872" lon="6.65502">
        <ele>148.9</ele>
        <time>2022-04-22T08:30:46Z</time>
      </trkpt>
      <trkpt lat="43.51872" lon="6.655">
        <ele>148.6</ele>
        <time>2022-04-22T08:30:47Z</time>
      </trkpt>
      <trkpt lat="43.51873" lon="6.65498">
        <ele>148.3</ele>
        <time>2022-04-22T08:30:48Z</time>
      </trkpt>
      <trkpt lat="43.51874" lon="6.65496">
        <ele>148.1</ele>
        <time>2022-04-22T08:30:49Z</time>
      </trkpt>
      <trkpt lat="43.51875" lon="6.65496">
        <ele>147.9</ele>
        <time>2022-04-22T08:30:50Z</time>
      </trkpt>
      <trkpt lat="43.51876" lon="6.65495">
        <ele>147.7</ele>
        <time>2022-04-22T08:30:51Z</time>
      </trkpt>
      <trkpt lat="43.51877" lon="6.65494">
        <ele>147.5</ele>
        <time>2022-04-22T08:30:53Z</time>
      </trkpt>
      <trkpt lat="43.51877" lon="6.65493">
        <ele>147.4</ele>
        <time>2022-04-22T08:30:54Z</time>
      </trkpt>
      <trkpt lat="43.51877" lon="6.65492">
        <ele>147.3</ele>
        <time>2022-04-22T08:30:55Z</time>
      </trkpt>
      <trkpt lat="43.51878" lon="6.65492">
        <ele>147.1</ele>
        <time>2022-04-22T08:30:56Z</time>
      </trkpt>
      <trkpt lat="43.51879" lon="6.65491">
        <ele>147</ele>
        <time>2022-04-22T08:30:57Z</time>
      </trkpt>
      <trkpt lat="43.5188" lon="6.6549">
        <ele>146.8</ele>
        <time>2022-04-22T08:30:58Z</time>
      </trkpt>
      <trkpt lat="43.51881" lon="6.65489">
        <ele>146.6</ele>
        <time>2022-04-22T08:30:59Z</time>
      </trkpt>
      <trkpt lat="43.51881" lon="6.65488">
        <ele>146.5</ele>
        <time>2022-04-22T08:31:00Z</time>
      </trkpt>
      <trkpt lat="43.51882" lon="6.65488">
        <ele>146.4</ele>
        <time>2022-04-22T08:31:02Z</time>
      </trkpt>
      <trkpt lat="43.51883" lon="6.65488">
        <ele>146.3</ele>
        <time>2022-04-22T08:31:03Z</time>
      </trkpt>
      <trkpt lat="43.51883" lon="6.65489">
        <ele>146.2</ele>
        <time>2022-04-22T08:31:04Z</time>
      </trkpt>
      <trkpt lat="43.51884" lon="6.65489">
        <ele>146</ele>
        <time>2022-04-22T08:31:06Z</time>
      </trkpt>
      <trkpt lat="43.51885" lon="6.65488">
        <ele>145.9</ele>
        <time>2022-04-22T08:31:07Z</time>
      </trkpt>
      <trkpt lat="43.51885" lon="6.65488">
        <ele>145.9</ele>
        <time>2022-04-22T08:31:08Z</time>
      </trkpt>
      <trkpt lat="43.51885" lon="6.65487">
        <ele>145.8</ele>
        <time>2022-04-22T08:31:09Z</time>
      </trkpt>
      <trkpt lat="43.51886" lon="6.65487">
        <ele>145.7</ele>
        <time>2022-04-22T08:31:11Z</time>
      </trkpt>
      <trkpt lat="43.51887" lon="6.65487">
        <ele>145.6</ele>
        <time>2022-04-22T08:31:12Z</time>
      </trkpt>
      <trkpt lat="43.51887" lon="6.65487">
        <ele>145.6</ele>
        <time>2022-04-22T08:31:13Z</time>
      </trkpt>
      <trkpt lat="43.51888" lon="6.65489">
        <ele>145.5</ele>
        <time>2022-04-22T08:31:14Z</time>
      </trkpt>
      <trkpt lat="43.51888" lon="6.65489">
        <ele>145.5</ele>
        <time>2022-04-22T08:31:15Z</time>
      </trkpt>
      <trkpt lat="43.5189" lon="6.6549">
        <ele>145.4</ele>
        <time>2022-04-22T08:31:17Z</time>
      </trkpt>
      <trkpt lat="43.51891" lon="6.6549">
        <ele>145.3</ele>
        <time>2022-04-22T08:31:18Z</time>
      </trkpt>
      <trkpt lat="43.51891" lon="6.6549">
        <ele>145.3</ele>
        <time>2022-04-22T08:31:20Z</time>
      </trkpt>
      <trkpt lat="43.51892" lon="6.65489">
        <ele>145.3</ele>
        <time>2022-04-22T08:31:21Z</time>
      </trkpt>
      <trkpt lat="43.51893" lon="6.65489">
        <ele>145.3</ele>
        <time>2022-04-22T08:31:22Z</time>
      </trkpt>
      <trkpt lat="43.51892" lon="6.65488">
        <ele>145.3</ele>
        <time>2022-04-22T08:31:23Z</time>
      </trkpt>
      <trkpt lat="43.51892" lon="6.65487">
        <ele>145.3</ele>
        <time>2022-04-22T08:31:24Z</time>
      </trkpt>
      <trkpt lat="43.51891" lon="6.65486">
        <ele>145.3</ele>
        <time>2022-04-22T08:31:25Z</time>
      </trkpt>
      <trkpt lat="43.51891" lon="6.65484">
        <ele>145.3</ele>
        <time>2022-04-22T08:31:26Z</time>
      </trkpt>
      <trkpt lat="43.51891" lon="6.65483">
        <ele>145.4</ele>
        <time>2022-04-22T08:31:27Z</time>
      </trkpt>
      <trkpt lat="43.51891" lon="6.65482">
        <ele>145.4</ele>
        <time>2022-04-22T08:31:28Z</time>
      </trkpt>
      <trkpt lat="43.51892" lon="6.65482">
        <ele>145.4</ele>
        <time>2022-04-22T08:31:30Z</time>
      </trkpt>
      <trkpt lat="43.51893" lon="6.65481">
        <ele>145.5</ele>
        <time>2022-04-22T08:31:31Z</time>
      </trkpt>
      <trkpt lat="43.51894" lon="6.65481">
        <ele>145.6</ele>
        <time>2022-04-22T08:31:32Z</time>
      </trkpt>
      <trkpt lat="43.51895" lon="6.65481">
        <ele>145.7</ele>
        <time>2022-04-22T08:31:33Z</time>
      </trkpt>
      <trkpt lat="43.51896" lon="6.65482">
        <ele>145.8</ele>
        <time>2022-04-22T08:31:34Z</time>
      </trkpt>
      <trkpt lat="43.51897" lon="6.65482">
        <ele>146</ele>
        <time>2022-04-22T08:31:35Z</time>
      </trkpt>
      <trkpt lat="43.51899" lon="6.65483">
        <ele>146.2</ele>
        <time>2022-04-22T08:31:37Z</time>
      </trkpt>
      <trkpt lat="43.519" lon="6.65484">
        <ele>146.3</ele>
        <time>2022-04-22T08:31:38Z</time>
      </trkpt>
      <trkpt lat="43.51901" lon="6.65485">
        <ele>146.5</ele>
        <time>2022-04-22T08:31:39Z</time>
      </trkpt>
      <trkpt lat="43.51902" lon="6.65486">
        <ele>146.7</ele>
        <time>2022-04-22T08:31:41Z</time>
      </trkpt>
      <trkpt lat="43.51902" lon="6.65487">
        <ele>146.8</ele>
        <time>2022-04-22T08:31:42Z</time>
      </trkpt>
      <trkpt lat="43.51903" lon="6.65486">
        <ele>147</ele>
        <time>2022-04-22T08:31:44Z</time>
      </trkpt>
      <trkpt lat="43.51905" lon="6.65483">
        <ele>147.4</ele>
        <time>2022-04-22T08:31:45Z</time>
      </trkpt>
      <trkpt lat="43.51905" lon="6.65482">
        <ele>147.6</ele>
        <time>2022-04-22T08:31:46Z</time>
      </trkpt>
      <trkpt lat="43.51907" lon="6.6548">
        <ele>148.1</ele>
        <time>2022-04-22T08:31:48Z</time>
      </trkpt>
      <trkpt lat="43.51911" lon="6.65469">
        <ele>149.9</ele>
        <time>2022-04-22T08:31:50Z</time>
      </trkpt>
      <trkpt lat="43.51915" lon="6.65461">
        <ele>151.7</ele>
        <time>2022-04-22T08:31:52Z</time>
      </trkpt>
      <trkpt lat="43.51916" lon="6.65461">
        <ele>151.9</ele>
        <time>2022-04-22T08:31:53Z</time>
      </trkpt>
      <trkpt lat="43.51917" lon="6.6546">
        <ele>152.3</ele>
        <time>2022-04-22T08:31:55Z</time>
      </trkpt>
      <trkpt lat="43.51919" lon="6.65458">
        <ele>152.8</ele>
        <time>2022-04-22T08:31:57Z</time>
      </trkpt>
      <trkpt lat="43.5192" lon="6.65458">
        <ele>153</ele>
        <time>2022-04-22T08:31:58Z</time>
      </trkpt>
      <trkpt lat="43.51921" lon="6.65457">
        <ele>153.3</ele>
        <time>2022-04-22T08:31:59Z</time>
      </trkpt>
      <trkpt lat="43.51921" lon="6.65456">
        <ele>153.5</ele>
        <time>2022-04-22T08:32:00Z</time>
      </trkpt>
      <trkpt lat="43.51922" lon="6.65455">
        <ele>153.7</ele>
        <time>2022-04-22T08:32:01Z</time>
      </trkpt>
      <trkpt lat="43.51923" lon="6.65454">
        <ele>154</ele>
        <time>2022-04-22T08:32:02Z</time>
      </trkpt>
      <trkpt lat="43.51923" lon="6.65454">
        <ele>154.2</ele>
        <time>2022-04-22T08:32:03Z</time>
      </trkpt>
      <trkpt lat="43.51924" lon="6.65453">
        <ele>154.3</ele>
        <time>2022-04-22T08:32:04Z</time>
      </trkpt>
      <trkpt lat="43.51924" lon="6.65452">
        <ele>154.6</ele>
        <time>2022-04-22T08:32:06Z</time>
      </trkpt>
      <trkpt lat="43.51925" lon="6.65451">
        <ele>155</ele>
        <time>2022-04-22T08:32:08Z</time>
      </trkpt>
      <trkpt lat="43.51926" lon="6.6545">
        <ele>155.1</ele>
        <time>2022-04-22T08:32:09Z</time>
      </trkpt>
      <trkpt lat="43.51926" lon="6.6545">
        <ele>155.2</ele>
        <time>2022-04-22T08:32:10Z</time>
      </trkpt>
      <trkpt lat="43.51926" lon="6.6545">
        <ele>155.2</ele>
        <time>2022-04-22T08:32:11Z</time>
      </trkpt>
      <trkpt lat="43.51927" lon="6.65449">
        <ele>155.4</ele>
        <time>2022-04-22T08:32:12Z</time>
      </trkpt>
      <trkpt lat="43.51926" lon="6.6545">
        <ele>155.4</ele>
        <time>2022-04-22T08:32:13Z</time>
      </trkpt>
      <trkpt lat="43.51926" lon="6.6545">
        <ele>155.5</ele>
        <time>2022-04-22T08:32:14Z</time>
      </trkpt>
      <trkpt lat="43.51926" lon="6.6545">
        <ele>155.6</ele>
        <time>2022-04-22T08:32:15Z</time>
      </trkpt>
      <trkpt lat="43.51926" lon="6.65451">
        <ele>155.7</ele>
        <time>2022-04-22T08:32:16Z</time>
      </trkpt>
      <trkpt lat="43.51926" lon="6.65451">
        <ele>155.7</ele>
        <time>2022-04-22T08:32:17Z</time>
      </trkpt>
      <trkpt lat="43.51926" lon="6.65451">
        <ele>155.8</ele>
        <time>2022-04-22T08:32:18Z</time>
      </trkpt>
      <trkpt lat="43.51926" lon="6.65451">
        <ele>155.8</ele>
        <time>2022-04-22T08:32:19Z</time>
      </trkpt>
      <trkpt lat="43.51925" lon="6.65451">
        <ele>155.8</ele>
        <time>2022-04-22T08:32:20Z</time>
      </trkpt>
      <trkpt lat="43.51925" lon="6.65451">
        <ele>155.9</ele>
        <time>2022-04-22T08:32:21Z</time>
      </trkpt>
      <trkpt lat="43.51926" lon="6.65451">
        <ele>155.9</ele>
        <time>2022-04-22T08:32:22Z</time>
      </trkpt>
      <trkpt lat="43.51926" lon="6.65451">
        <ele>155.9</ele>
        <time>2022-04-22T08:32:23Z</time>
      </trkpt>
      <trkpt lat="43.51926" lon="6.65451">
        <ele>155.9</ele>
        <time>2022-04-22T08:32:24Z</time>
      </trkpt>
      <trkpt lat="43.51926" lon="6.65451">
        <ele>156</ele>
        <time>2022-04-22T08:32:25Z</time>
      </trkpt>
      <trkpt lat="43.51926" lon="6.65451">
        <ele>156.1</ele>
        <time>2022-04-22T08:32:26Z</time>
      </trkpt>
      <trkpt lat="43.51927" lon="6.6545">
        <ele>156.4</ele>
        <time>2022-04-22T08:32:28Z</time>
      </trkpt>
      <trkpt lat="43.51928" lon="6.6545">
        <ele>156.6</ele>
        <time>2022-04-22T08:32:29Z</time>
      </trkpt>
      <trkpt lat="43.51928" lon="6.65449">
        <ele>156.6</ele>
        <time>2022-04-22T08:32:30Z</time>
      </trkpt>
      <trkpt lat="43.51928" lon="6.65449">
        <ele>156.7</ele>
        <time>2022-04-22T08:32:31Z</time>
      </trkpt>
      <trkpt lat="43.51929" lon="6.65449">
        <ele>156.9</ele>
        <time>2022-04-22T08:32:32Z</time>
      </trkpt>
      <trkpt lat="43.5193" lon="6.65449">
        <ele>157</ele>
        <time>2022-04-22T08:32:34Z</time>
      </trkpt>
      <trkpt lat="43.5193" lon="6.65449">
        <ele>157.2</ele>
        <time>2022-04-22T08:32:35Z</time>
      </trkpt>
      <trkpt lat="43.51931" lon="6.65449">
        <ele>157.4</ele>
        <time>2022-04-22T08:32:36Z</time>
      </trkpt>
      <trkpt lat="43.51932" lon="6.65449">
        <ele>157.7</ele>
        <time>2022-04-22T08:32:37Z</time>
      </trkpt>
      <trkpt lat="43.51933" lon="6.65449">
        <ele>157.9</ele>
        <time>2022-04-22T08:32:39Z</time>
      </trkpt>
      <trkpt lat="43.51934" lon="6.65449">
        <ele>158.1</ele>
        <time>2022-04-22T08:32:40Z</time>
      </trkpt>
      <trkpt lat="43.51935" lon="6.65448">
        <ele>158.2</ele>
        <time>2022-04-22T08:32:41Z</time>
      </trkpt>
      <trkpt lat="43.51936" lon="6.65448">
        <ele>158.6</ele>
        <time>2022-04-22T08:32:42Z</time>
      </trkpt>
      <trkpt lat="43.51937" lon="6.65448">
        <ele>158.8</ele>
        <time>2022-04-22T08:32:43Z</time>
      </trkpt>
      <trkpt lat="43.51937" lon="6.65448">
        <ele>158.8</ele>
        <time>2022-04-22T08:32:44Z</time>
      </trkpt>
      <trkpt lat="43.51936" lon="6.65449">
        <ele>159</ele>
        <time>2022-04-22T08:32:45Z</time>
      </trkpt>
      <trkpt lat="43.51935" lon="6.6545">
        <ele>159.3</ele>
        <time>2022-04-22T08:32:46Z</time>
      </trkpt>
      <trkpt lat="43.51933" lon="6.65451">
        <ele>159.8</ele>
        <time>2022-04-22T08:32:48Z</time>
      </trkpt>
      <trkpt lat="43.51932" lon="6.6545">
        <ele>160.1</ele>
        <time>2022-04-22T08:32:49Z</time>
      </trkpt>
      <trkpt lat="43.51932" lon="6.65445">
        <ele>160.9</ele>
        <time>2022-04-22T08:32:50Z</time>
      </trkpt>
      <trkpt lat="43.51933" lon="6.65443">
        <ele>161.3</ele>
        <time>2022-04-22T08:32:51Z</time>
      </trkpt>
      <trkpt lat="43.51934" lon="6.65438">
        <ele>162</ele>
        <time>2022-04-22T08:32:52Z</time>
      </trkpt>
      <trkpt lat="43.51938" lon="6.65433">
        <ele>162.9</ele>
        <time>2022-04-22T08:32:54Z</time>
      </trkpt>
      <trkpt lat="43.51939" lon="6.65432">
        <ele>163.2</ele>
        <time>2022-04-22T08:32:55Z</time>
      </trkpt>
      <trkpt lat="43.5194" lon="6.65431">
        <ele>163.4</ele>
        <time>2022-04-22T08:32:56Z</time>
      </trkpt>
      <trkpt lat="43.51942" lon="6.65429">
        <ele>163.8</ele>
        <time>2022-04-22T08:32:57Z</time>
      </trkpt>
      <trkpt lat="43.51943" lon="6.65428">
        <ele>164</ele>
        <time>2022-04-22T08:32:58Z</time>
      </trkpt>
      <trkpt lat="43.51944" lon="6.65427">
        <ele>164.2</ele>
        <time>2022-04-22T08:32:59Z</time>
      </trkpt>
      <trkpt lat="43.51946" lon="6.65427">
        <ele>164.5</ele>
        <time>2022-04-22T08:33:00Z</time>
      </trkpt>
      <trkpt lat="43.51947" lon="6.65426">
        <ele>164.7</ele>
        <time>2022-04-22T08:33:02Z</time>
      </trkpt>
      <trkpt lat="43.51949" lon="6.65426">
        <ele>164.9</ele>
        <time>2022-04-22T08:33:03Z</time>
      </trkpt>
      <trkpt lat="43.5195" lon="6.65425">
        <ele>165.1</ele>
        <time>2022-04-22T08:33:05Z</time>
      </trkpt>
      <trkpt lat="43.51951" lon="6.65425">
        <ele>165.2</ele>
        <time>2022-04-22T08:33:06Z</time>
      </trkpt>
      <trkpt lat="43.51951" lon="6.65425">
        <ele>165.3</ele>
        <time>2022-04-22T08:33:07Z</time>
      </trkpt>
      <trkpt lat="43.51952" lon="6.65424">
        <ele>165.3</ele>
        <time>2022-04-22T08:33:08Z</time>
      </trkpt>
      <trkpt lat="43.51951" lon="6.65424">
        <ele>165.4</ele>
        <time>2022-04-22T08:33:09Z</time>
      </trkpt>
      <trkpt lat="43.51952" lon="6.65423">
        <ele>165.5</ele>
        <time>2022-04-22T08:33:11Z</time>
      </trkpt>
      <trkpt lat="43.51952" lon="6.65422">
        <ele>165.6</ele>
        <time>2022-04-22T08:33:12Z</time>
      </trkpt>
      <trkpt lat="43.51954" lon="6.65421">
        <ele>165.9</ele>
        <time>2022-04-22T08:33:13Z</time>
      </trkpt>
      <trkpt lat="43.51954" lon="6.6542">
        <ele>166</ele>
        <time>2022-04-22T08:33:14Z</time>
      </trkpt>
      <trkpt lat="43.51955" lon="6.6542">
        <ele>166</ele>
        <time>2022-04-22T08:33:15Z</time>
      </trkpt>
      <trkpt lat="43.51955" lon="6.65419">
        <ele>166.2</ele>
        <time>2022-04-22T08:33:16Z</time>
      </trkpt>
      <trkpt lat="43.51956" lon="6.65418">
        <ele>166.3</ele>
        <time>2022-04-22T08:33:18Z</time>
      </trkpt>
      <trkpt lat="43.51957" lon="6.65417">
        <ele>166.5</ele>
        <time>2022-04-22T08:33:19Z</time>
      </trkpt>
      <trkpt lat="43.51958" lon="6.65416">
        <ele>166.7</ele>
        <time>2022-04-22T08:33:20Z</time>
      </trkpt>
      <trkpt lat="43.51959" lon="6.65416">
        <ele>166.8</ele>
        <time>2022-04-22T08:33:21Z</time>
      </trkpt>
      <trkpt lat="43.5196" lon="6.65415">
        <ele>167</ele>
        <time>2022-04-22T08:33:22Z</time>
      </trkpt>
      <trkpt lat="43.51961" lon="6.65415">
        <ele>167.2</ele>
        <time>2022-04-22T08:33:23Z</time>
      </trkpt>
      <trkpt lat="43.51961" lon="6.65415">
        <ele>167.2</ele>
        <time>2022-04-22T08:33:25Z</time>
      </trkpt>
      <trkpt lat="43.51962" lon="6.65415">
        <ele>167.3</ele>
        <time>2022-04-22T08:33:26Z</time>
      </trkpt>
      <trkpt lat="43.51963" lon="6.65415">
        <ele>167.5</ele>
        <time>2022-04-22T08:33:27Z</time>
      </trkpt>
      <trkpt lat="43.51964" lon="6.65416">
        <ele>167.7</ele>
        <time>2022-04-22T08:33:28Z</time>
      </trkpt>
      <trkpt lat="43.51965" lon="6.65416">
        <ele>167.9</ele>
        <time>2022-04-22T08:33:29Z</time>
      </trkpt>
      <trkpt lat="43.51965" lon="6.65416">
        <ele>168</ele>
        <time>2022-04-22T08:33:30Z</time>
      </trkpt>
      <trkpt lat="43.51966" lon="6.65417">
        <ele>168.1</ele>
        <time>2022-04-22T08:33:32Z</time>
      </trkpt>
      <trkpt lat="43.51966" lon="6.65417">
        <ele>168.2</ele>
        <time>2022-04-22T08:33:33Z</time>
      </trkpt>
      <trkpt lat="43.51967" lon="6.65418">
        <ele>168.4</ele>
        <time>2022-04-22T08:33:34Z</time>
      </trkpt>
      <trkpt lat="43.51968" lon="6.65418">
        <ele>168.5</ele>
        <time>2022-04-22T08:33:35Z</time>
      </trkpt>
      <trkpt lat="43.51969" lon="6.65419">
        <ele>168.7</ele>
        <time>2022-04-22T08:33:36Z</time>
      </trkpt>
      <trkpt lat="43.51971" lon="6.65419">
        <ele>169.2</ele>
        <time>2022-04-22T08:33:38Z</time>
      </trkpt>
      <trkpt lat="43.51971" lon="6.6542">
        <ele>169.3</ele>
        <time>2022-04-22T08:33:39Z</time>
      </trkpt>
      <trkpt lat="43.51972" lon="6.6542">
        <ele>169.5</ele>
        <time>2022-04-22T08:33:40Z</time>
      </trkpt>
      <trkpt lat="43.51973" lon="6.6542">
        <ele>169.7</ele>
        <time>2022-04-22T08:33:41Z</time>
      </trkpt>
      <trkpt lat="43.51974" lon="6.65421">
        <ele>169.9</ele>
        <time>2022-04-22T08:33:42Z</time>
      </trkpt>
      <trkpt lat="43.51976" lon="6.65422">
        <ele>170.4</ele>
        <time>2022-04-22T08:33:44Z</time>
      </trkpt>
      <trkpt lat="43.51976" lon="6.65423">
        <ele>170.6</ele>
        <time>2022-04-22T08:33:45Z</time>
      </trkpt>
      <trkpt lat="43.51977" lon="6.65423">
        <ele>170.7</ele>
        <time>2022-04-22T08:33:46Z</time>
      </trkpt>
      <trkpt lat="43.51977" lon="6.65423">
        <ele>170.8</ele>
        <time>2022-04-22T08:33:47Z</time>
      </trkpt>
      <trkpt lat="43.51978" lon="6.65423">
        <ele>171</ele>
        <time>2022-04-22T08:33:49Z</time>
      </trkpt>
      <trkpt lat="43.51979" lon="6.65423">
        <ele>171.2</ele>
        <time>2022-04-22T08:33:50Z</time>
      </trkpt>
      <trkpt lat="43.5198" lon="6.65424">
        <ele>171.4</ele>
        <time>2022-04-22T08:33:51Z</time>
      </trkpt>
      <trkpt lat="43.5198" lon="6.65424">
        <ele>171.6</ele>
        <time>2022-04-22T08:33:52Z</time>
      </trkpt>
      <trkpt lat="43.51981" lon="6.65424">
        <ele>171.8</ele>
        <time>2022-04-22T08:33:53Z</time>
      </trkpt>
      <trkpt lat="43.51982" lon="6.65424">
        <ele>172</ele>
        <time>2022-04-22T08:33:54Z</time>
      </trkpt>
      <trkpt lat="43.51983" lon="6.65424">
        <ele>172.2</ele>
        <time>2022-04-22T08:33:55Z</time>
      </trkpt>
      <trkpt lat="43.51984" lon="6.65424">
        <ele>172.5</ele>
        <time>2022-04-22T08:33:57Z</time>
      </trkpt>
      <trkpt lat="43.51986" lon="6.65424">
        <ele>173</ele>
        <time>2022-04-22T08:33:59Z</time>
      </trkpt>
      <trkpt lat="43.51987" lon="6.65424">
        <ele>173.3</ele>
        <time>2022-04-22T08:34:00Z</time>
      </trkpt>
      <trkpt lat="43.51989" lon="6.65424">
        <ele>173.7</ele>
        <time>2022-04-22T08:34:01Z</time>
      </trkpt>
      <trkpt lat="43.5199" lon="6.65424">
        <ele>174.1</ele>
        <time>2022-04-22T08:34:02Z</time>
      </trkpt>
      <trkpt lat="43.51992" lon="6.65424">
        <ele>174.6</ele>
        <time>2022-04-22T08:34:04Z</time>
      </trkpt>
      <trkpt lat="43.51993" lon="6.65424">
        <ele>174.9</ele>
        <time>2022-04-22T08:34:05Z</time>
      </trkpt>
      <trkpt lat="43.51994" lon="6.65424">
        <ele>175.1</ele>
        <time>2022-04-22T08:34:06Z</time>
      </trkpt>
      <trkpt lat="43.51995" lon="6.65424">
        <ele>175.3</ele>
        <time>2022-04-22T08:34:07Z</time>
      </trkpt>
      <trkpt lat="43.51997" lon="6.65424">
        <ele>175.7</ele>
        <time>2022-04-22T08:34:08Z</time>
      </trkpt>
      <trkpt lat="43.51997" lon="6.65422">
        <ele>175.9</ele>
        <time>2022-04-22T08:34:09Z</time>
      </trkpt>
      <trkpt lat="43.51998" lon="6.65422">
        <ele>176.1</ele>
        <time>2022-04-22T08:34:10Z</time>
      </trkpt>
      <trkpt lat="43.51999" lon="6.65421">
        <ele>176.3</ele>
        <time>2022-04-22T08:34:11Z</time>
      </trkpt>
      <trkpt lat="43.51999" lon="6.65419">
        <ele>176.5</ele>
        <time>2022-04-22T08:34:12Z</time>
      </trkpt>
      <trkpt lat="43.52001" lon="6.65417">
        <ele>177</ele>
        <time>2022-04-22T08:34:14Z</time>
      </trkpt>
      <trkpt lat="43.52003" lon="6.65415">
        <ele>177.4</ele>
        <time>2022-04-22T08:34:15Z</time>
      </trkpt>
      <trkpt lat="43.52003" lon="6.65415">
        <ele>177.6</ele>
        <time>2022-04-22T08:34:16Z</time>
      </trkpt>
      <trkpt lat="43.52004" lon="6.65414">
        <ele>177.8</ele>
        <time>2022-04-22T08:34:17Z</time>
      </trkpt>
      <trkpt lat="43.52005" lon="6.65413">
        <ele>178</ele>
        <time>2022-04-22T08:34:18Z</time>
      </trkpt>
      <trkpt lat="43.52006" lon="6.65412">
        <ele>178.2</ele>
        <time>2022-04-22T08:34:19Z</time>
      </trkpt>
      <trkpt lat="43.52007" lon="6.65411">
        <ele>179.6</ele>
        <time>2022-04-22T08:34:20Z</time>
      </trkpt>
      <trkpt lat="43.52007" lon="6.65411">
        <ele>179.6</ele>
        <time>2022-04-22T08:34:21Z</time>
      </trkpt>
      <trkpt lat="43.52008" lon="6.65409">
        <ele>179.7</ele>
        <time>2022-04-22T08:34:22Z</time>
      </trkpt>
      <trkpt lat="43.52008" lon="6.65408">
        <ele>179.7</ele>
        <time>2022-04-22T08:34:23Z</time>
      </trkpt>
      <trkpt lat="43.5201" lon="6.65404">
        <ele>179.8</ele>
        <time>2022-04-22T08:34:25Z</time>
      </trkpt>
      <trkpt lat="43.5201" lon="6.65404">
        <ele>179.8</ele>
        <time>2022-04-22T08:34:26Z</time>
      </trkpt>
      <trkpt lat="43.52011" lon="6.65402">
        <ele>179.8</ele>
        <time>2022-04-22T08:34:27Z</time>
      </trkpt>
      <trkpt lat="43.52011" lon="6.654">
        <ele>179.9</ele>
        <time>2022-04-22T08:34:28Z</time>
      </trkpt>
      <trkpt lat="43.52012" lon="6.65397">
        <ele>179.9</ele>
        <time>2022-04-22T08:34:29Z</time>
      </trkpt>
      <trkpt lat="43.52012" lon="6.65396">
        <ele>179.9</ele>
        <time>2022-04-22T08:34:30Z</time>
      </trkpt>
      <trkpt lat="43.52012" lon="6.65395">
        <ele>179.9</ele>
        <time>2022-04-22T08:34:31Z</time>
      </trkpt>
      <trkpt lat="43.52013" lon="6.65392">
        <ele>179.9</ele>
        <time>2022-04-22T08:34:32Z</time>
      </trkpt>
      <trkpt lat="43.52014" lon="6.65391">
        <ele>179.9</ele>
        <time>2022-04-22T08:34:34Z</time>
      </trkpt>
      <trkpt lat="43.52014" lon="6.65389">
        <ele>179.9</ele>
        <time>2022-04-22T08:34:35Z</time>
      </trkpt>
      <trkpt lat="43.52014" lon="6.65387">
        <ele>179.9</ele>
        <time>2022-04-22T08:34:36Z</time>
      </trkpt>
      <trkpt lat="43.52014" lon="6.65385">
        <ele>179.9</ele>
        <time>2022-04-22T08:34:37Z</time>
      </trkpt>
      <trkpt lat="43.52015" lon="6.65383">
        <ele>179.9</ele>
        <time>2022-04-22T08:34:38Z</time>
      </trkpt>
      <trkpt lat="43.52015" lon="6.65381">
        <ele>179.9</ele>
        <time>2022-04-22T08:34:39Z</time>
      </trkpt>
      <trkpt lat="43.52015" lon="6.65378">
        <ele>179.9</ele>
        <time>2022-04-22T08:34:40Z</time>
      </trkpt>
      <trkpt lat="43.52015" lon="6.65376">
        <ele>179.9</ele>
        <time>2022-04-22T08:34:41Z</time>
      </trkpt>
      <trkpt lat="43.52015" lon="6.65375">
        <ele>179.9</ele>
        <time>2022-04-22T08:34:42Z</time>
      </trkpt>
      <trkpt lat="43.52015" lon="6.65373">
        <ele>179.9</ele>
        <time>2022-04-22T08:34:44Z</time>
      </trkpt>
      <trkpt lat="43.52015" lon="6.65372">
        <ele>179.9</ele>
        <time>2022-04-22T08:34:45Z</time>
      </trkpt>
      <trkpt lat="43.52016" lon="6.65371">
        <ele>179.9</ele>
        <time>2022-04-22T08:34:46Z</time>
      </trkpt>
      <trkpt lat="43.52016" lon="6.6537">
        <ele>179.9</ele>
        <time>2022-04-22T08:34:47Z</time>
      </trkpt>
      <trkpt lat="43.52017" lon="6.65368">
        <ele>179.9</ele>
        <time>2022-04-22T08:34:48Z</time>
      </trkpt>
      <trkpt lat="43.52017" lon="6.65366">
        <ele>179.9</ele>
        <time>2022-04-22T08:34:49Z</time>
      </trkpt>
      <trkpt lat="43.52017" lon="6.65364">
        <ele>179.9</ele>
        <time>2022-04-22T08:34:50Z</time>
      </trkpt>
      <trkpt lat="43.52018" lon="6.65361">
        <ele>179.9</ele>
        <time>2022-04-22T08:34:51Z</time>
      </trkpt>
      <trkpt lat="43.52018" lon="6.65359">
        <ele>179.9</ele>
        <time>2022-04-22T08:34:52Z</time>
      </trkpt>
      <trkpt lat="43.52018" lon="6.65358">
        <ele>179.9</ele>
        <time>2022-04-22T08:34:53Z</time>
      </trkpt>
      <trkpt lat="43.52018" lon="6.65356">
        <ele>179.9</ele>
        <time>2022-04-22T08:34:54Z</time>
      </trkpt>
      <trkpt lat="43.52019" lon="6.65354">
        <ele>179.8</ele>
        <time>2022-04-22T08:34:55Z</time>
      </trkpt>
      <trkpt lat="43.5202" lon="6.65349">
        <ele>179.8</ele>
        <time>2022-04-22T08:34:57Z</time>
      </trkpt>
      <trkpt lat="43.5202" lon="6.65348">
        <ele>179.7</ele>
        <time>2022-04-22T08:34:58Z</time>
      </trkpt>
      <trkpt lat="43.52021" lon="6.65346">
        <ele>179.7</ele>
        <time>2022-04-22T08:34:59Z</time>
      </trkpt>
      <trkpt lat="43.52022" lon="6.65343">
        <ele>179.7</ele>
        <time>2022-04-22T08:35:00Z</time>
      </trkpt>
      <trkpt lat="43.52022" lon="6.65341">
        <ele>179.6</ele>
        <time>2022-04-22T08:35:01Z</time>
      </trkpt>
      <trkpt lat="43.52023" lon="6.65339">
        <ele>179.6</ele>
        <time>2022-04-22T08:35:02Z</time>
      </trkpt>
      <trkpt lat="43.52024" lon="6.65336">
        <ele>179.5</ele>
        <time>2022-04-22T08:35:03Z</time>
      </trkpt>
      <trkpt lat="43.52024" lon="6.65334">
        <ele>179.5</ele>
        <time>2022-04-22T08:35:04Z</time>
      </trkpt>
      <trkpt lat="43.52025" lon="6.65332">
        <ele>179.5</ele>
        <time>2022-04-22T08:35:06Z</time>
      </trkpt>
      <trkpt lat="43.52026" lon="6.65331">
        <ele>179.5</ele>
        <time>2022-04-22T08:35:07Z</time>
      </trkpt>
      <trkpt lat="43.52026" lon="6.65329">
        <ele>179.5</ele>
        <time>2022-04-22T08:35:08Z</time>
      </trkpt>
      <trkpt lat="43.52027" lon="6.65327">
        <ele>179.5</ele>
        <time>2022-04-22T08:35:09Z</time>
      </trkpt>
      <trkpt lat="43.52027" lon="6.65324">
        <ele>179.5</ele>
        <time>2022-04-22T08:35:10Z</time>
      </trkpt>
      <trkpt lat="43.52028" lon="6.65323">
        <ele>179.5</ele>
        <time>2022-04-22T08:35:11Z</time>
      </trkpt>
      <trkpt lat="43.52028" lon="6.65322">
        <ele>179.5</ele>
        <time>2022-04-22T08:35:12Z</time>
      </trkpt>
      <trkpt lat="43.52028" lon="6.6532">
        <ele>179.5</ele>
        <time>2022-04-22T08:35:13Z</time>
      </trkpt>
      <trkpt lat="43.52028" lon="6.65319">
        <ele>179.5</ele>
        <time>2022-04-22T08:35:14Z</time>
      </trkpt>
      <trkpt lat="43.52029" lon="6.65318">
        <ele>179.6</ele>
        <time>2022-04-22T08:35:15Z</time>
      </trkpt>
      <trkpt lat="43.52029" lon="6.65317">
        <ele>179.6</ele>
        <time>2022-04-22T08:35:16Z</time>
      </trkpt>
      <trkpt lat="43.52029" lon="6.65316">
        <ele>179.6</ele>
        <time>2022-04-22T08:35:17Z</time>
      </trkpt>
      <trkpt lat="43.52029" lon="6.65314">
        <ele>179.6</ele>
        <time>2022-04-22T08:35:18Z</time>
      </trkpt>
      <trkpt lat="43.5203" lon="6.65312">
        <ele>179.7</ele>
        <time>2022-04-22T08:35:19Z</time>
      </trkpt>
      <trkpt lat="43.5203" lon="6.65308">
        <ele>179.8</ele>
        <time>2022-04-22T08:35:21Z</time>
      </trkpt>
      <trkpt lat="43.5203" lon="6.65306">
        <ele>180</ele>
        <time>2022-04-22T08:35:22Z</time>
      </trkpt>
      <trkpt lat="43.5203" lon="6.65304">
        <ele>180</ele>
        <time>2022-04-22T08:35:23Z</time>
      </trkpt>
      <trkpt lat="43.5203" lon="6.65303">
        <ele>180.1</ele>
        <time>2022-04-22T08:35:24Z</time>
      </trkpt>
      <trkpt lat="43.5203" lon="6.65301">
        <ele>180.2</ele>
        <time>2022-04-22T08:35:25Z</time>
      </trkpt>
      <trkpt lat="43.52029" lon="6.65298">
        <ele>180.4</ele>
        <time>2022-04-22T08:35:27Z</time>
      </trkpt>
      <trkpt lat="43.52029" lon="6.65296">
        <ele>180.6</ele>
        <time>2022-04-22T08:35:28Z</time>
      </trkpt>
      <trkpt lat="43.52028" lon="6.65294">
        <ele>180.7</ele>
        <time>2022-04-22T08:35:29Z</time>
      </trkpt>
      <trkpt lat="43.52029" lon="6.65292">
        <ele>180.8</ele>
        <time>2022-04-22T08:35:31Z</time>
      </trkpt>
      <trkpt lat="43.52029" lon="6.6529">
        <ele>180.9</ele>
        <time>2022-04-22T08:35:32Z</time>
      </trkpt>
      <trkpt lat="43.52029" lon="6.65288">
        <ele>181.1</ele>
        <time>2022-04-22T08:35:33Z</time>
      </trkpt>
      <trkpt lat="43.52029" lon="6.65286">
        <ele>181.2</ele>
        <time>2022-04-22T08:35:34Z</time>
      </trkpt>
      <trkpt lat="43.52029" lon="6.65284">
        <ele>181.3</ele>
        <time>2022-04-22T08:35:35Z</time>
      </trkpt>
      <trkpt lat="43.52029" lon="6.65282">
        <ele>181.3</ele>
        <time>2022-04-22T08:35:36Z</time>
      </trkpt>
      <trkpt lat="43.52029" lon="6.6528">
        <ele>181.4</ele>
        <time>2022-04-22T08:35:37Z</time>
      </trkpt>
      <trkpt lat="43.52029" lon="6.65278">
        <ele>181.5</ele>
        <time>2022-04-22T08:35:38Z</time>
      </trkpt>
      <trkpt lat="43.5203" lon="6.65275">
        <ele>181.5</ele>
        <time>2022-04-22T08:35:39Z</time>
      </trkpt>
      <trkpt lat="43.5203" lon="6.65274">
        <ele>181.5</ele>
        <time>2022-04-22T08:35:40Z</time>
      </trkpt>
      <trkpt lat="43.5203" lon="6.65273">
        <ele>181.5</ele>
        <time>2022-04-22T08:35:41Z</time>
      </trkpt>
      <trkpt lat="43.52031" lon="6.6527">
        <ele>181.5</ele>
        <time>2022-04-22T08:35:42Z</time>
      </trkpt>
      <trkpt lat="43.52031" lon="6.65269">
        <ele>181.5</ele>
        <time>2022-04-22T08:35:43Z</time>
      </trkpt>
      <trkpt lat="43.52032" lon="6.65268">
        <ele>181.4</ele>
        <time>2022-04-22T08:35:44Z</time>
      </trkpt>
      <trkpt lat="43.52033" lon="6.65265">
        <ele>181.4</ele>
        <time>2022-04-22T08:35:45Z</time>
      </trkpt>
      <trkpt lat="43.52033" lon="6.65264">
        <ele>181.3</ele>
        <time>2022-04-22T08:35:46Z</time>
      </trkpt>
      <trkpt lat="43.52034" lon="6.65263">
        <ele>181.3</ele>
        <time>2022-04-22T08:35:47Z</time>
      </trkpt>
      <trkpt lat="43.52035" lon="6.6526">
        <ele>181.1</ele>
        <time>2022-04-22T08:35:48Z</time>
      </trkpt>
      <trkpt lat="43.52035" lon="6.65259">
        <ele>181.1</ele>
        <time>2022-04-22T08:35:49Z</time>
      </trkpt>
      <trkpt lat="43.52035" lon="6.65258">
        <ele>181</ele>
        <time>2022-04-22T08:35:50Z</time>
      </trkpt>
      <trkpt lat="43.52036" lon="6.65257">
        <ele>180.9</ele>
        <time>2022-04-22T08:35:51Z</time>
      </trkpt>
      <trkpt lat="43.52036" lon="6.65255">
        <ele>180.8</ele>
        <time>2022-04-22T08:35:52Z</time>
      </trkpt>
      <trkpt lat="43.52037" lon="6.65253">
        <ele>180.6</ele>
        <time>2022-04-22T08:35:54Z</time>
      </trkpt>
      <trkpt lat="43.52037" lon="6.65251">
        <ele>180.5</ele>
        <time>2022-04-22T08:35:55Z</time>
      </trkpt>
      <trkpt lat="43.52038" lon="6.65249">
        <ele>180.3</ele>
        <time>2022-04-22T08:35:56Z</time>
      </trkpt>
      <trkpt lat="43.52038" lon="6.65246">
        <ele>180</ele>
        <time>2022-04-22T08:35:58Z</time>
      </trkpt>
      <trkpt lat="43.52039" lon="6.65244">
        <ele>179.8</ele>
        <time>2022-04-22T08:35:59Z</time>
      </trkpt>
      <trkpt lat="43.5204" lon="6.65242">
        <ele>179.5</ele>
        <time>2022-04-22T08:36:00Z</time>
      </trkpt>
      <trkpt lat="43.5204" lon="6.65239">
        <ele>179.2</ele>
        <time>2022-04-22T08:36:01Z</time>
      </trkpt>
      <trkpt lat="43.52041" lon="6.65237">
        <ele>178.9</ele>
        <time>2022-04-22T08:36:03Z</time>
      </trkpt>
      <trkpt lat="43.52041" lon="6.65235">
        <ele>178.6</ele>
        <time>2022-04-22T08:36:04Z</time>
      </trkpt>
      <trkpt lat="43.52042" lon="6.65233">
        <ele>178.3</ele>
        <time>2022-04-22T08:36:05Z</time>
      </trkpt>
      <trkpt lat="43.52043" lon="6.65231">
        <ele>178.1</ele>
        <time>2022-04-22T08:36:06Z</time>
      </trkpt>
      <trkpt lat="43.52043" lon="6.65229">
        <ele>177.8</ele>
        <time>2022-04-22T08:36:07Z</time>
      </trkpt>
      <trkpt lat="43.52044" lon="6.65226">
        <ele>177.4</ele>
        <time>2022-04-22T08:36:08Z</time>
      </trkpt>
      <trkpt lat="43.52045" lon="6.65225">
        <ele>177.3</ele>
        <time>2022-04-22T08:36:09Z</time>
      </trkpt>
      <trkpt lat="43.52045" lon="6.65224">
        <ele>177.1</ele>
        <time>2022-04-22T08:36:10Z</time>
      </trkpt>
      <trkpt lat="43.52045" lon="6.65222">
        <ele>176.9</ele>
        <time>2022-04-22T08:36:11Z</time>
      </trkpt>
      <trkpt lat="43.52045" lon="6.65221">
        <ele>176.7</ele>
        <time>2022-04-22T08:36:12Z</time>
      </trkpt>
      <trkpt lat="43.52046" lon="6.6522">
        <ele>176.6</ele>
        <time>2022-04-22T08:36:14Z</time>
      </trkpt>
      <trkpt lat="43.52046" lon="6.6522">
        <ele>176.6</ele>
        <time>2022-04-22T08:36:15Z</time>
      </trkpt>
      <trkpt lat="43.52047" lon="6.6522">
        <ele>176.4</ele>
        <time>2022-04-22T08:36:16Z</time>
      </trkpt>
      <trkpt lat="43.52048" lon="6.65219">
        <ele>176.2</ele>
        <time>2022-04-22T08:36:17Z</time>
      </trkpt>
      <trkpt lat="43.52048" lon="6.65219">
        <ele>176.1</ele>
        <time>2022-04-22T08:36:18Z</time>
      </trkpt>
      <trkpt lat="43.52049" lon="6.65219">
        <ele>175.9</ele>
        <time>2022-04-22T08:36:19Z</time>
      </trkpt>
      <trkpt lat="43.52051" lon="6.65218">
        <ele>175.6</ele>
        <time>2022-04-22T08:36:20Z</time>
      </trkpt>
      <trkpt lat="43.52052" lon="6.65217">
        <ele>175.5</ele>
        <time>2022-04-22T08:36:21Z</time>
      </trkpt>
      <trkpt lat="43.52053" lon="6.65217">
        <ele>175.3</ele>
        <time>2022-04-22T08:36:22Z</time>
      </trkpt>
      <trkpt lat="43.52054" lon="6.65219">
        <ele>175</ele>
        <time>2022-04-22T08:36:23Z</time>
      </trkpt>
      <trkpt lat="43.52055" lon="6.6522">
        <ele>174.8</ele>
        <time>2022-04-22T08:36:24Z</time>
      </trkpt>
      <trkpt lat="43.52056" lon="6.65219">
        <ele>174.7</ele>
        <time>2022-04-22T08:36:25Z</time>
      </trkpt>
      <trkpt lat="43.52057" lon="6.65218">
        <ele>174.4</ele>
        <time>2022-04-22T08:36:27Z</time>
      </trkpt>
      <trkpt lat="43.52058" lon="6.65216">
        <ele>174.3</ele>
        <time>2022-04-22T08:36:28Z</time>
      </trkpt>
      <trkpt lat="43.52059" lon="6.65214">
        <ele>174.1</ele>
        <time>2022-04-22T08:36:29Z</time>
      </trkpt>
      <trkpt lat="43.52059" lon="6.65211">
        <ele>173.8</ele>
        <time>2022-04-22T08:36:30Z</time>
      </trkpt>
      <trkpt lat="43.5206" lon="6.6521">
        <ele>173.7</ele>
        <time>2022-04-22T08:36:31Z</time>
      </trkpt>
      <trkpt lat="43.5206" lon="6.65209">
        <ele>173.6</ele>
        <time>2022-04-22T08:36:32Z</time>
      </trkpt>
      <trkpt lat="43.52061" lon="6.65206">
        <ele>173.4</ele>
        <time>2022-04-22T08:36:33Z</time>
      </trkpt>
      <trkpt lat="43.52062" lon="6.65205">
        <ele>173.3</ele>
        <time>2022-04-22T08:36:34Z</time>
      </trkpt>
      <trkpt lat="43.52062" lon="6.65204">
        <ele>173.2</ele>
        <time>2022-04-22T08:36:35Z</time>
      </trkpt>
      <trkpt lat="43.52063" lon="6.65201">
        <ele>173</ele>
        <time>2022-04-22T08:36:36Z</time>
      </trkpt>
      <trkpt lat="43.52064" lon="6.65198">
        <ele>173.1</ele>
        <time>2022-04-22T08:36:37Z</time>
      </trkpt>
      <trkpt lat="43.52065" lon="6.65195">
        <ele>173.3</ele>
        <time>2022-04-22T08:36:39Z</time>
      </trkpt>
      <trkpt lat="43.52066" lon="6.65193">
        <ele>173.5</ele>
        <time>2022-04-22T08:36:40Z</time>
      </trkpt>
      <trkpt lat="43.52067" lon="6.65192">
        <ele>173.5</ele>
        <time>2022-04-22T08:36:41Z</time>
      </trkpt>
      <trkpt lat="43.52067" lon="6.65191">
        <ele>173.6</ele>
        <time>2022-04-22T08:36:42Z</time>
      </trkpt>
      <trkpt lat="43.52068" lon="6.65189">
        <ele>173.8</ele>
        <time>2022-04-22T08:36:43Z</time>
      </trkpt>
      <trkpt lat="43.52068" lon="6.65187">
        <ele>174</ele>
        <time>2022-04-22T08:36:45Z</time>
      </trkpt>
      <trkpt lat="43.52068" lon="6.65185">
        <ele>174.1</ele>
        <time>2022-04-22T08:36:46Z</time>
      </trkpt>
      <trkpt lat="43.52068" lon="6.65184">
        <ele>174.2</ele>
        <time>2022-04-22T08:36:47Z</time>
      </trkpt>
      <trkpt lat="43.52068" lon="6.65183">
        <ele>174.3</ele>
        <time>2022-04-22T08:36:48Z</time>
      </trkpt>
      <trkpt lat="43.52069" lon="6.65183">
        <ele>174.4</ele>
        <time>2022-04-22T08:36:49Z</time>
      </trkpt>
      <trkpt lat="43.52069" lon="6.65186">
        <ele>174.8</ele>
        <time>2022-04-22T08:36:51Z</time>
      </trkpt>
      <trkpt lat="43.52069" lon="6.65189">
        <ele>175.1</ele>
        <time>2022-04-22T08:36:52Z</time>
      </trkpt>
      <trkpt lat="43.52069" lon="6.65192">
        <ele>175.5</ele>
        <time>2022-04-22T08:36:53Z</time>
      </trkpt>
      <trkpt lat="43.5207" lon="6.65194">
        <ele>175.6</ele>
        <time>2022-04-22T08:36:54Z</time>
      </trkpt>
      <trkpt lat="43.5207" lon="6.65195">
        <ele>175.7</ele>
        <time>2022-04-22T08:36:55Z</time>
      </trkpt>
      <trkpt lat="43.52071" lon="6.65195">
        <ele>175.9</ele>
        <time>2022-04-22T08:36:56Z</time>
      </trkpt>
      <trkpt lat="43.52072" lon="6.65196">
        <ele>176</ele>
        <time>2022-04-22T08:36:58Z</time>
      </trkpt>
      <trkpt lat="43.52073" lon="6.65196">
        <ele>176.1</ele>
        <time>2022-04-22T08:36:59Z</time>
      </trkpt>
      <trkpt lat="43.52074" lon="6.65197">
        <ele>176.2</ele>
        <time>2022-04-22T08:37:00Z</time>
      </trkpt>
      <trkpt lat="43.52074" lon="6.65197">
        <ele>176.3</ele>
        <time>2022-04-22T08:37:01Z</time>
      </trkpt>
      <trkpt lat="43.52075" lon="6.65197">
        <ele>176.5</ele>
        <time>2022-04-22T08:37:03Z</time>
      </trkpt>
      <trkpt lat="43.52076" lon="6.65197">
        <ele>176.5</ele>
        <time>2022-04-22T08:37:04Z</time>
      </trkpt>
      <trkpt lat="43.52076" lon="6.65197">
        <ele>176.6</ele>
        <time>2022-04-22T08:37:05Z</time>
      </trkpt>
      <trkpt lat="43.52077" lon="6.65197">
        <ele>176.7</ele>
        <time>2022-04-22T08:37:06Z</time>
      </trkpt>
      <trkpt lat="43.52078" lon="6.65196">
        <ele>176.8</ele>
        <time>2022-04-22T08:37:08Z</time>
      </trkpt>
      <trkpt lat="43.52078" lon="6.65196">
        <ele>176.9</ele>
        <time>2022-04-22T08:37:09Z</time>
      </trkpt>
      <trkpt lat="43.52078" lon="6.65195">
        <ele>177</ele>
        <time>2022-04-22T08:37:10Z</time>
      </trkpt>
      <trkpt lat="43.52079" lon="6.65194">
        <ele>177.1</ele>
        <time>2022-04-22T08:37:11Z</time>
      </trkpt>
      <trkpt lat="43.52079" lon="6.65193">
        <ele>177.1</ele>
        <time>2022-04-22T08:37:12Z</time>
      </trkpt>
      <trkpt lat="43.5208" lon="6.65193">
        <ele>177.2</ele>
        <time>2022-04-22T08:37:13Z</time>
      </trkpt>
      <trkpt lat="43.5208" lon="6.65193">
        <ele>177.2</ele>
        <time>2022-04-22T08:37:14Z</time>
      </trkpt>
      <trkpt lat="43.5208" lon="6.65193">
        <ele>177.3</ele>
        <time>2022-04-22T08:37:15Z</time>
      </trkpt>
      <trkpt lat="43.52081" lon="6.65192">
        <ele>177.4</ele>
        <time>2022-04-22T08:37:16Z</time>
      </trkpt>
      <trkpt lat="43.52082" lon="6.65192">
        <ele>177.5</ele>
        <time>2022-04-22T08:37:17Z</time>
      </trkpt>
      <trkpt lat="43.52084" lon="6.65191">
        <ele>177.8</ele>
        <time>2022-04-22T08:37:18Z</time>
      </trkpt>
      <trkpt lat="43.52085" lon="6.65191">
        <ele>177.9</ele>
        <time>2022-04-22T08:37:19Z</time>
      </trkpt>
      <trkpt lat="43.52086" lon="6.65191">
        <ele>178.1</ele>
        <time>2022-04-22T08:37:21Z</time>
      </trkpt>
      <trkpt lat="43.52087" lon="6.65191">
        <ele>178.2</ele>
        <time>2022-04-22T08:37:22Z</time>
      </trkpt>
      <trkpt lat="43.52088" lon="6.65191">
        <ele>178.3</ele>
        <time>2022-04-22T08:37:23Z</time>
      </trkpt>
      <trkpt lat="43.52089" lon="6.6519">
        <ele>178.5</ele>
        <time>2022-04-22T08:37:24Z</time>
      </trkpt>
      <trkpt lat="43.5209" lon="6.6519">
        <ele>178.6</ele>
        <time>2022-04-22T08:37:25Z</time>
      </trkpt>
      <trkpt lat="43.52091" lon="6.6519">
        <ele>178.7</ele>
        <time>2022-04-22T08:37:26Z</time>
      </trkpt>
      <trkpt lat="43.52092" lon="6.65189">
        <ele>178.9</ele>
        <time>2022-04-22T08:37:27Z</time>
      </trkpt>
      <trkpt lat="43.52094" lon="6.65189">
        <ele>179.2</ele>
        <time>2022-04-22T08:37:28Z</time>
      </trkpt>
      <trkpt lat="43.52096" lon="6.65188">
        <ele>179.4</ele>
        <time>2022-04-22T08:37:30Z</time>
      </trkpt>
      <trkpt lat="43.52096" lon="6.65188">
        <ele>179.6</ele>
        <time>2022-04-22T08:37:31Z</time>
      </trkpt>
      <trkpt lat="43.52097" lon="6.65187">
        <ele>179.7</ele>
        <time>2022-04-22T08:37:32Z</time>
      </trkpt>
      <trkpt lat="43.52099" lon="6.65186">
        <ele>180.1</ele>
        <time>2022-04-22T08:37:34Z</time>
      </trkpt>
      <trkpt lat="43.521" lon="6.65186">
        <ele>180.2</ele>
        <time>2022-04-22T08:37:35Z</time>
      </trkpt>
      <trkpt lat="43.52101" lon="6.65185">
        <ele>180.4</ele>
        <time>2022-04-22T08:37:36Z</time>
      </trkpt>
      <trkpt lat="43.52102" lon="6.65185">
        <ele>180.5</ele>
        <time>2022-04-22T08:37:37Z</time>
      </trkpt>
      <trkpt lat="43.52104" lon="6.65184">
        <ele>180.9</ele>
        <time>2022-04-22T08:37:38Z</time>
      </trkpt>
      <trkpt lat="43.52105" lon="6.65183">
        <ele>181.1</ele>
        <time>2022-04-22T08:37:40Z</time>
      </trkpt>
      <trkpt lat="43.52106" lon="6.65183">
        <ele>181.3</ele>
        <time>2022-04-22T08:37:41Z</time>
      </trkpt>
      <trkpt lat="43.52107" lon="6.65182">
        <ele>181.5</ele>
        <time>2022-04-22T08:37:42Z</time>
      </trkpt>
      <trkpt lat="43.52108" lon="6.65182">
        <ele>181.7</ele>
        <time>2022-04-22T08:37:43Z</time>
      </trkpt>
      <trkpt lat="43.5211" lon="6.65182">
        <ele>182</ele>
        <time>2022-04-22T08:37:45Z</time>
      </trkpt>
      <trkpt lat="43.52111" lon="6.65182">
        <ele>182.1</ele>
        <time>2022-04-22T08:37:46Z</time>
      </trkpt>
      <trkpt lat="43.52112" lon="6.65182">
        <ele>182.3</ele>
        <time>2022-04-22T08:37:47Z</time>
      </trkpt>
      <trkpt lat="43.52113" lon="6.65182">
        <ele>182.6</ele>
        <time>2022-04-22T08:37:48Z</time>
      </trkpt>
      <trkpt lat="43.52115" lon="6.65182">
        <ele>182.8</ele>
        <time>2022-04-22T08:37:50Z</time>
      </trkpt>
      <trkpt lat="43.52117" lon="6.65183">
        <ele>183.2</ele>
        <time>2022-04-22T08:37:51Z</time>
      </trkpt>
      <trkpt lat="43.52118" lon="6.65183">
        <ele>183.4</ele>
        <time>2022-04-22T08:37:52Z</time>
      </trkpt>
      <trkpt lat="43.52119" lon="6.65183">
        <ele>183.5</ele>
        <time>2022-04-22T08:37:53Z</time>
      </trkpt>
      <trkpt lat="43.5212" lon="6.65183">
        <ele>183.6</ele>
        <time>2022-04-22T08:37:54Z</time>
      </trkpt>
      <trkpt lat="43.52121" lon="6.65183">
        <ele>183.8</ele>
        <time>2022-04-22T08:37:55Z</time>
      </trkpt>
      <trkpt lat="43.52122" lon="6.65183">
        <ele>183.9</ele>
        <time>2022-04-22T08:37:56Z</time>
      </trkpt>
      <trkpt lat="43.52125" lon="6.65182">
        <ele>184.2</ele>
        <time>2022-04-22T08:37:58Z</time>
      </trkpt>
      <trkpt lat="43.52127" lon="6.65181">
        <ele>184.5</ele>
        <time>2022-04-22T08:38:00Z</time>
      </trkpt>
      <trkpt lat="43.52128" lon="6.65181">
        <ele>184.6</ele>
        <time>2022-04-22T08:38:01Z</time>
      </trkpt>
      <trkpt lat="43.52129" lon="6.65181">
        <ele>184.7</ele>
        <time>2022-04-22T08:38:02Z</time>
      </trkpt>
      <trkpt lat="43.5213" lon="6.65181">
        <ele>184.8</ele>
        <time>2022-04-22T08:38:03Z</time>
      </trkpt>
      <trkpt lat="43.52132" lon="6.65181">
        <ele>185</ele>
        <time>2022-04-22T08:38:04Z</time>
      </trkpt>
      <trkpt lat="43.52133" lon="6.65181">
        <ele>185.1</ele>
        <time>2022-04-22T08:38:06Z</time>
      </trkpt>
      <trkpt lat="43.52135" lon="6.65181">
        <ele>185.2</ele>
        <time>2022-04-22T08:38:07Z</time>
      </trkpt>
      <trkpt lat="43.52137" lon="6.65181">
        <ele>185.4</ele>
        <time>2022-04-22T08:38:08Z</time>
      </trkpt>
      <trkpt lat="43.52138" lon="6.65181">
        <ele>185.5</ele>
        <time>2022-04-22T08:38:09Z</time>
      </trkpt>
      <trkpt lat="43.52139" lon="6.6518">
        <ele>185.6</ele>
        <time>2022-04-22T08:38:10Z</time>
      </trkpt>
      <trkpt lat="43.52141" lon="6.65179">
        <ele>185.8</ele>
        <time>2022-04-22T08:38:12Z</time>
      </trkpt>
      <trkpt lat="43.52143" lon="6.65176">
        <ele>186</ele>
        <time>2022-04-22T08:38:13Z</time>
      </trkpt>
      <trkpt lat="43.52143" lon="6.65174">
        <ele>186.1</ele>
        <time>2022-04-22T08:38:14Z</time>
      </trkpt>
      <trkpt lat="43.52144" lon="6.65173">
        <ele>186.2</ele>
        <time>2022-04-22T08:38:15Z</time>
      </trkpt>
      <trkpt lat="43.52145" lon="6.65171">
        <ele>186.3</ele>
        <time>2022-04-22T08:38:16Z</time>
      </trkpt>
      <trkpt lat="43.52147" lon="6.65169">
        <ele>186.5</ele>
        <time>2022-04-22T08:38:18Z</time>
      </trkpt>
      <trkpt lat="43.5215" lon="6.65167">
        <ele>186.7</ele>
        <time>2022-04-22T08:38:20Z</time>
      </trkpt>
      <trkpt lat="43.52151" lon="6.65166">
        <ele>186.8</ele>
        <time>2022-04-22T08:38:21Z</time>
      </trkpt>
      <trkpt lat="43.52152" lon="6.65165">
        <ele>186.9</ele>
        <time>2022-04-22T08:38:22Z</time>
      </trkpt>
      <trkpt lat="43.52153" lon="6.65164">
        <ele>186.9</ele>
        <time>2022-04-22T08:38:23Z</time>
      </trkpt>
      <trkpt lat="43.52154" lon="6.65163">
        <ele>187</ele>
        <time>2022-04-22T08:38:24Z</time>
      </trkpt>
      <trkpt lat="43.52155" lon="6.65162">
        <ele>187</ele>
        <time>2022-04-22T08:38:25Z</time>
      </trkpt>
      <trkpt lat="43.52155" lon="6.65161">
        <ele>187</ele>
        <time>2022-04-22T08:38:26Z</time>
      </trkpt>
      <trkpt lat="43.52155" lon="6.65161">
        <ele>187</ele>
        <time>2022-04-22T08:38:27Z</time>
      </trkpt>
      <trkpt lat="43.52155" lon="6.65161">
        <ele>187</ele>
        <time>2022-04-22T08:38:28Z</time>
      </trkpt>
      <trkpt lat="43.52155" lon="6.65161">
        <ele>187.1</ele>
        <time>2022-04-22T08:38:29Z</time>
      </trkpt>
      <trkpt lat="43.52155" lon="6.65161">
        <ele>187.1</ele>
        <time>2022-04-22T08:38:30Z</time>
      </trkpt>
      <trkpt lat="43.52155" lon="6.65161">
        <ele>187.1</ele>
        <time>2022-04-22T08:38:31Z</time>
      </trkpt>
      <trkpt lat="43.52155" lon="6.65161">
        <ele>187.1</ele>
        <time>2022-04-22T08:38:32Z</time>
      </trkpt>
      <trkpt lat="43.52155" lon="6.65162">
        <ele>187.1</ele>
        <time>2022-04-22T08:38:33Z</time>
      </trkpt>
      <trkpt lat="43.52155" lon="6.65162">
        <ele>187.1</ele>
        <time>2022-04-22T08:38:34Z</time>
      </trkpt>
      <trkpt lat="43.52155" lon="6.65162">
        <ele>187.1</ele>
        <time>2022-04-22T08:38:35Z</time>
      </trkpt>
      <trkpt lat="43.52155" lon="6.65162">
        <ele>187.1</ele>
        <time>2022-04-22T08:38:36Z</time>
      </trkpt>
      <trkpt lat="43.52155" lon="6.65162">
        <ele>187.1</ele>
        <time>2022-04-22T08:38:38Z</time>
      </trkpt>
      <trkpt lat="43.52156" lon="6.65161">
        <ele>187.1</ele>
        <time>2022-04-22T08:38:39Z</time>
      </trkpt>
      <trkpt lat="43.52156" lon="6.65161">
        <ele>187.1</ele>
        <time>2022-04-22T08:38:40Z</time>
      </trkpt>
      <trkpt lat="43.52157" lon="6.6516">
        <ele>187.1</ele>
        <time>2022-04-22T08:38:41Z</time>
      </trkpt>
      <trkpt lat="43.52158" lon="6.65158">
        <ele>187.2</ele>
        <time>2022-04-22T08:38:42Z</time>
      </trkpt>
      <trkpt lat="43.52159" lon="6.65157">
        <ele>187.2</ele>
        <time>2022-04-22T08:38:43Z</time>
      </trkpt>
      <trkpt lat="43.5216" lon="6.65156">
        <ele>187.2</ele>
        <time>2022-04-22T08:38:44Z</time>
      </trkpt>
      <trkpt lat="43.52161" lon="6.65155">
        <ele>187.3</ele>
        <time>2022-04-22T08:38:45Z</time>
      </trkpt>
      <trkpt lat="43.52162" lon="6.65154">
        <ele>187.3</ele>
        <time>2022-04-22T08:38:46Z</time>
      </trkpt>
      <trkpt lat="43.52163" lon="6.65153">
        <ele>187.3</ele>
        <time>2022-04-22T08:38:47Z</time>
      </trkpt>
      <trkpt lat="43.52164" lon="6.65153">
        <ele>187.3</ele>
        <time>2022-04-22T08:38:48Z</time>
      </trkpt>
      <trkpt lat="43.52166" lon="6.65152">
        <ele>187.3</ele>
        <time>2022-04-22T08:38:49Z</time>
      </trkpt>
      <trkpt lat="43.52168" lon="6.65151">
        <ele>187.3</ele>
        <time>2022-04-22T08:38:50Z</time>
      </trkpt>
      <trkpt lat="43.52171" lon="6.6515">
        <ele>187.4</ele>
        <time>2022-04-22T08:38:52Z</time>
      </trkpt>
      <trkpt lat="43.52173" lon="6.65149">
        <ele>187.4</ele>
        <time>2022-04-22T08:38:53Z</time>
      </trkpt>
      <trkpt lat="43.52174" lon="6.65149">
        <ele>187.4</ele>
        <time>2022-04-22T08:38:54Z</time>
      </trkpt>
      <trkpt lat="43.52178" lon="6.65149">
        <ele>187.5</ele>
        <time>2022-04-22T08:38:55Z</time>
      </trkpt>
      <trkpt lat="43.52178" lon="6.65149">
        <ele>187.5</ele>
        <time>2022-04-22T08:38:56Z</time>
      </trkpt>
      <trkpt lat="43.5218" lon="6.65149">
        <ele>187.5</ele>
        <time>2022-04-22T08:38:57Z</time>
      </trkpt>
      <trkpt lat="43.52182" lon="6.65149">
        <ele>187.6</ele>
        <time>2022-04-22T08:38:58Z</time>
      </trkpt>
      <trkpt lat="43.52184" lon="6.65149">
        <ele>187.6</ele>
        <time>2022-04-22T08:38:59Z</time>
      </trkpt>
      <trkpt lat="43.52186" lon="6.6515">
        <ele>187.7</ele>
        <time>2022-04-22T08:39:01Z</time>
      </trkpt>
      <trkpt lat="43.52187" lon="6.6515">
        <ele>187.7</ele>
        <time>2022-04-22T08:39:02Z</time>
      </trkpt>
      <trkpt lat="43.52188" lon="6.6515">
        <ele>187.8</ele>
        <time>2022-04-22T08:39:03Z</time>
      </trkpt>
      <trkpt lat="43.52189" lon="6.6515">
        <ele>187.8</ele>
        <time>2022-04-22T08:39:04Z</time>
      </trkpt>
      <trkpt lat="43.5219" lon="6.6515">
        <ele>187.9</ele>
        <time>2022-04-22T08:39:05Z</time>
      </trkpt>
      <trkpt lat="43.5219" lon="6.65149">
        <ele>187.9</ele>
        <time>2022-04-22T08:39:06Z</time>
      </trkpt>
      <trkpt lat="43.5219" lon="6.65148">
        <ele>187.9</ele>
        <time>2022-04-22T08:39:07Z</time>
      </trkpt>
      <trkpt lat="43.52191" lon="6.65148">
        <ele>187.9</ele>
        <time>2022-04-22T08:39:08Z</time>
      </trkpt>
      <trkpt lat="43.52192" lon="6.65149">
        <ele>188</ele>
        <time>2022-04-22T08:39:09Z</time>
      </trkpt>
      <trkpt lat="43.52193" lon="6.65149">
        <ele>188</ele>
        <time>2022-04-22T08:39:10Z</time>
      </trkpt>
      <trkpt lat="43.52195" lon="6.6515">
        <ele>188.1</ele>
        <time>2022-04-22T08:39:12Z</time>
      </trkpt>
      <trkpt lat="43.52196" lon="6.6515">
        <ele>188.1</ele>
        <time>2022-04-22T08:39:13Z</time>
      </trkpt>
      <trkpt lat="43.52197" lon="6.65151">
        <ele>188.1</ele>
        <time>2022-04-22T08:39:14Z</time>
      </trkpt>
      <trkpt lat="43.52197" lon="6.65151">
        <ele>188.1</ele>
        <time>2022-04-22T08:39:15Z</time>
      </trkpt>
      <trkpt lat="43.52197" lon="6.65148">
        <ele>188.2</ele>
        <time>2022-04-22T08:39:16Z</time>
      </trkpt>
      <trkpt lat="43.52198" lon="6.65147">
        <ele>188.2</ele>
        <time>2022-04-22T08:39:17Z</time>
      </trkpt>
      <trkpt lat="43.52198" lon="6.65147">
        <ele>188.2</ele>
        <time>2022-04-22T08:39:18Z</time>
      </trkpt>
      <trkpt lat="43.52201" lon="6.65149">
        <ele>188.3</ele>
        <time>2022-04-22T08:39:20Z</time>
      </trkpt>
      <trkpt lat="43.52208" lon="6.65154">
        <ele>188.5</ele>
        <time>2022-04-22T08:39:22Z</time>
      </trkpt>
      <trkpt lat="43.52211" lon="6.65156">
        <ele>188.6</ele>
        <time>2022-04-22T08:39:23Z</time>
      </trkpt>
      <trkpt lat="43.52214" lon="6.65158">
        <ele>188.6</ele>
        <time>2022-04-22T08:39:24Z</time>
      </trkpt>
      <trkpt lat="43.52217" lon="6.6516">
        <ele>188.7</ele>
        <time>2022-04-22T08:39:25Z</time>
      </trkpt>
      <trkpt lat="43.52218" lon="6.65161">
        <ele>188.7</ele>
        <time>2022-04-22T08:39:26Z</time>
      </trkpt>
      <trkpt lat="43.5222" lon="6.65163">
        <ele>188.8</ele>
        <time>2022-04-22T08:39:27Z</time>
      </trkpt>
      <trkpt lat="43.52221" lon="6.65165">
        <ele>188.8</ele>
        <time>2022-04-22T08:39:29Z</time>
      </trkpt>
      <trkpt lat="43.52222" lon="6.65166">
        <ele>188.8</ele>
        <time>2022-04-22T08:39:30Z</time>
      </trkpt>
      <trkpt lat="43.52223" lon="6.65167">
        <ele>188.9</ele>
        <time>2022-04-22T08:39:31Z</time>
      </trkpt>
      <trkpt lat="43.52224" lon="6.65168">
        <ele>188.9</ele>
        <time>2022-04-22T08:39:32Z</time>
      </trkpt>
      <trkpt lat="43.52224" lon="6.65169">
        <ele>188.9</ele>
        <time>2022-04-22T08:39:33Z</time>
      </trkpt>
      <trkpt lat="43.52225" lon="6.6517">
        <ele>188.9</ele>
        <time>2022-04-22T08:39:34Z</time>
      </trkpt>
      <trkpt lat="43.52226" lon="6.65172">
        <ele>188.9</ele>
        <time>2022-04-22T08:39:36Z</time>
      </trkpt>
      <trkpt lat="43.52227" lon="6.65174">
        <ele>189</ele>
        <time>2022-04-22T08:39:37Z</time>
      </trkpt>
      <trkpt lat="43.52228" lon="6.65176">
        <ele>189</ele>
        <time>2022-04-22T08:39:38Z</time>
      </trkpt>
      <trkpt lat="43.52229" lon="6.65177">
        <ele>189</ele>
        <time>2022-04-22T08:39:39Z</time>
      </trkpt>
      <trkpt lat="43.52229" lon="6.65178">
        <ele>189.1</ele>
        <time>2022-04-22T08:39:40Z</time>
      </trkpt>
      <trkpt lat="43.5223" lon="6.6518">
        <ele>189.1</ele>
        <time>2022-04-22T08:39:41Z</time>
      </trkpt>
      <trkpt lat="43.52231" lon="6.65182">
        <ele>189.1</ele>
        <time>2022-04-22T08:39:43Z</time>
      </trkpt>
      <trkpt lat="43.52232" lon="6.65183">
        <ele>189.1</ele>
        <time>2022-04-22T08:39:44Z</time>
      </trkpt>
      <trkpt lat="43.52233" lon="6.65185">
        <ele>189.2</ele>
        <time>2022-04-22T08:39:45Z</time>
      </trkpt>
      <trkpt lat="43.52233" lon="6.65186">
        <ele>189.2</ele>
        <time>2022-04-22T08:39:46Z</time>
      </trkpt>
      <trkpt lat="43.52234" lon="6.65187">
        <ele>189.2</ele>
        <time>2022-04-22T08:39:47Z</time>
      </trkpt>
      <trkpt lat="43.52234" lon="6.65188">
        <ele>189.2</ele>
        <time>2022-04-22T08:39:48Z</time>
      </trkpt>
      <trkpt lat="43.52236" lon="6.65192">
        <ele>189.3</ele>
        <time>2022-04-22T08:39:50Z</time>
      </trkpt>
      <trkpt lat="43.52237" lon="6.65193">
        <ele>189.3</ele>
        <time>2022-04-22T08:39:51Z</time>
      </trkpt>
      <trkpt lat="43.52237" lon="6.65194">
        <ele>189.3</ele>
        <time>2022-04-22T08:39:52Z</time>
      </trkpt>
      <trkpt lat="43.52238" lon="6.65196">
        <ele>189.4</ele>
        <time>2022-04-22T08:39:53Z</time>
      </trkpt>
      <trkpt lat="43.52239" lon="6.65199">
        <ele>189.4</ele>
        <time>2022-04-22T08:39:55Z</time>
      </trkpt>
      <trkpt lat="43.52239" lon="6.652">
        <ele>189.5</ele>
        <time>2022-04-22T08:39:56Z</time>
      </trkpt>
      <trkpt lat="43.52239" lon="6.65202">
        <ele>189.5</ele>
        <time>2022-04-22T08:39:57Z</time>
      </trkpt>
      <trkpt lat="43.52239" lon="6.65204">
        <ele>189.5</ele>
        <time>2022-04-22T08:39:58Z</time>
      </trkpt>
      <trkpt lat="43.52238" lon="6.65206">
        <ele>189.5</ele>
        <time>2022-04-22T08:39:59Z</time>
      </trkpt>
      <trkpt lat="43.52238" lon="6.65208">
        <ele>189.6</ele>
        <time>2022-04-22T08:40:01Z</time>
      </trkpt>
      <trkpt lat="43.52238" lon="6.6521">
        <ele>189.6</ele>
        <time>2022-04-22T08:40:02Z</time>
      </trkpt>
      <trkpt lat="43.52238" lon="6.65213">
        <ele>189.7</ele>
        <time>2022-04-22T08:40:03Z</time>
      </trkpt>
      <trkpt lat="43.52238" lon="6.65216">
        <ele>189.7</ele>
        <time>2022-04-22T08:40:04Z</time>
      </trkpt>
      <trkpt lat="43.52239" lon="6.65218">
        <ele>189.8</ele>
        <time>2022-04-22T08:40:06Z</time>
      </trkpt>
      <trkpt lat="43.52239" lon="6.65219">
        <ele>189.8</ele>
        <time>2022-04-22T08:40:07Z</time>
      </trkpt>
      <trkpt lat="43.52239" lon="6.6522">
        <ele>189.9</ele>
        <time>2022-04-22T08:40:08Z</time>
      </trkpt>
      <trkpt lat="43.5224" lon="6.65222">
        <ele>189.9</ele>
        <time>2022-04-22T08:40:09Z</time>
      </trkpt>
      <trkpt lat="43.5224" lon="6.65223">
        <ele>190</ele>
        <time>2022-04-22T08:40:10Z</time>
      </trkpt>
      <trkpt lat="43.52241" lon="6.65221">
        <ele>190</ele>
        <time>2022-04-22T08:40:11Z</time>
      </trkpt>
      <trkpt lat="43.52242" lon="6.65221">
        <ele>190.1</ele>
        <time>2022-04-22T08:40:12Z</time>
      </trkpt>
      <trkpt lat="43.52243" lon="6.6522">
        <ele>190.2</ele>
        <time>2022-04-22T08:40:13Z</time>
      </trkpt>
      <trkpt lat="43.52244" lon="6.65219">
        <ele>190.3</ele>
        <time>2022-04-22T08:40:15Z</time>
      </trkpt>
      <trkpt lat="43.52245" lon="6.65219">
        <ele>190.3</ele>
        <time>2022-04-22T08:40:16Z</time>
      </trkpt>
      <trkpt lat="43.52246" lon="6.65219">
        <ele>190.4</ele>
        <time>2022-04-22T08:40:17Z</time>
      </trkpt>
      <trkpt lat="43.52248" lon="6.65219">
        <ele>190.5</ele>
        <time>2022-04-22T08:40:18Z</time>
      </trkpt>
      <trkpt lat="43.52249" lon="6.6522">
        <ele>190.6</ele>
        <time>2022-04-22T08:40:20Z</time>
      </trkpt>
      <trkpt lat="43.5225" lon="6.65222">
        <ele>190.8</ele>
        <time>2022-04-22T08:40:21Z</time>
      </trkpt>
      <trkpt lat="43.52251" lon="6.65223">
        <ele>190.9</ele>
        <time>2022-04-22T08:40:22Z</time>
      </trkpt>
      <trkpt lat="43.52252" lon="6.65224">
        <ele>191</ele>
        <time>2022-04-22T08:40:23Z</time>
      </trkpt>
      <trkpt lat="43.52253" lon="6.65225">
        <ele>191.1</ele>
        <time>2022-04-22T08:40:24Z</time>
      </trkpt>
      <trkpt lat="43.52253" lon="6.65226">
        <ele>191.2</ele>
        <time>2022-04-22T08:40:25Z</time>
      </trkpt>
      <trkpt lat="43.52255" lon="6.65228">
        <ele>191.4</ele>
        <time>2022-04-22T08:40:26Z</time>
      </trkpt>
      <trkpt lat="43.52255" lon="6.65229">
        <ele>191.5</ele>
        <time>2022-04-22T08:40:27Z</time>
      </trkpt>
      <trkpt lat="43.52256" lon="6.6523">
        <ele>191.6</ele>
        <time>2022-04-22T08:40:28Z</time>
      </trkpt>
      <trkpt lat="43.52258" lon="6.65233">
        <ele>191.8</ele>
        <time>2022-04-22T08:40:29Z</time>
      </trkpt>
      <trkpt lat="43.52259" lon="6.65235">
        <ele>192</ele>
        <time>2022-04-22T08:40:30Z</time>
      </trkpt>
      <trkpt lat="43.5226" lon="6.65236">
        <ele>192.1</ele>
        <time>2022-04-22T08:40:31Z</time>
      </trkpt>
      <trkpt lat="43.52261" lon="6.65237">
        <ele>192.2</ele>
        <time>2022-04-22T08:40:32Z</time>
      </trkpt>
      <trkpt lat="43.52263" lon="6.65238">
        <ele>192.3</ele>
        <time>2022-04-22T08:40:33Z</time>
      </trkpt>
      <trkpt lat="43.52264" lon="6.6524">
        <ele>192.3</ele>
        <time>2022-04-22T08:40:34Z</time>
      </trkpt>
      <trkpt lat="43.52265" lon="6.65241">
        <ele>192.4</ele>
        <time>2022-04-22T08:40:35Z</time>
      </trkpt>
      <trkpt lat="43.52266" lon="6.65243">
        <ele>192.5</ele>
        <time>2022-04-22T08:40:36Z</time>
      </trkpt>
      <trkpt lat="43.52267" lon="6.65244">
        <ele>192.5</ele>
        <time>2022-04-22T08:40:37Z</time>
      </trkpt>
      <trkpt lat="43.52267" lon="6.65245">
        <ele>192.6</ele>
        <time>2022-04-22T08:40:38Z</time>
      </trkpt>
      <trkpt lat="43.52268" lon="6.65246">
        <ele>192.6</ele>
        <time>2022-04-22T08:40:39Z</time>
      </trkpt>
      <trkpt lat="43.52269" lon="6.65248">
        <ele>192.7</ele>
        <time>2022-04-22T08:40:40Z</time>
      </trkpt>
      <trkpt lat="43.5227" lon="6.65251">
        <ele>192.8</ele>
        <time>2022-04-22T08:40:42Z</time>
      </trkpt>
      <trkpt lat="43.52272" lon="6.65254">
        <ele>193</ele>
        <time>2022-04-22T08:40:44Z</time>
      </trkpt>
      <trkpt lat="43.52272" lon="6.65255">
        <ele>193</ele>
        <time>2022-04-22T08:40:45Z</time>
      </trkpt>
      <trkpt lat="43.52273" lon="6.65257">
        <ele>193.1</ele>
        <time>2022-04-22T08:40:46Z</time>
      </trkpt>
      <trkpt lat="43.52274" lon="6.65258">
        <ele>193.1</ele>
        <time>2022-04-22T08:40:47Z</time>
      </trkpt>
      <trkpt lat="43.52275" lon="6.65259">
        <ele>193.2</ele>
        <time>2022-04-22T08:40:48Z</time>
      </trkpt>
      <trkpt lat="43.52275" lon="6.65259">
        <ele>193.3</ele>
        <time>2022-04-22T08:40:49Z</time>
      </trkpt>
      <trkpt lat="43.52276" lon="6.6526">
        <ele>193.3</ele>
        <time>2022-04-22T08:40:50Z</time>
      </trkpt>
      <trkpt lat="43.52277" lon="6.6526">
        <ele>193.4</ele>
        <time>2022-04-22T08:40:51Z</time>
      </trkpt>
      <trkpt lat="43.52278" lon="6.65261">
        <ele>193.5</ele>
        <time>2022-04-22T08:40:53Z</time>
      </trkpt>
      <trkpt lat="43.52279" lon="6.65261">
        <ele>193.5</ele>
        <time>2022-04-22T08:40:54Z</time>
      </trkpt>
      <trkpt lat="43.52279" lon="6.65261">
        <ele>193.6</ele>
        <time>2022-04-22T08:40:55Z</time>
      </trkpt>
      <trkpt lat="43.5228" lon="6.65262">
        <ele>193.6</ele>
        <time>2022-04-22T08:40:56Z</time>
      </trkpt>
      <trkpt lat="43.52282" lon="6.65263">
        <ele>193.8</ele>
        <time>2022-04-22T08:40:58Z</time>
      </trkpt>
      <trkpt lat="43.52284" lon="6.65264">
        <ele>193.9</ele>
        <time>2022-04-22T08:40:59Z</time>
      </trkpt>
      <trkpt lat="43.52285" lon="6.65264">
        <ele>194.1</ele>
        <time>2022-04-22T08:41:00Z</time>
      </trkpt>
      <trkpt lat="43.52286" lon="6.65265">
        <ele>194.2</ele>
        <time>2022-04-22T08:41:01Z</time>
      </trkpt>
      <trkpt lat="43.52287" lon="6.65265">
        <ele>194.3</ele>
        <time>2022-04-22T08:41:02Z</time>
      </trkpt>
      <trkpt lat="43.52288" lon="6.65265">
        <ele>194.4</ele>
        <time>2022-04-22T08:41:03Z</time>
      </trkpt>
      <trkpt lat="43.5229" lon="6.65265">
        <ele>194.6</ele>
        <time>2022-04-22T08:41:05Z</time>
      </trkpt>
      <trkpt lat="43.52291" lon="6.65264">
        <ele>194.8</ele>
        <time>2022-04-22T08:41:06Z</time>
      </trkpt>
      <trkpt lat="43.52292" lon="6.65262">
        <ele>194.9</ele>
        <time>2022-04-22T08:41:07Z</time>
      </trkpt>
      <trkpt lat="43.52293" lon="6.65262">
        <ele>195</ele>
        <time>2022-04-22T08:41:08Z</time>
      </trkpt>
      <trkpt lat="43.52294" lon="6.65262">
        <ele>195.1</ele>
        <time>2022-04-22T08:41:09Z</time>
      </trkpt>
      <trkpt lat="43.52295" lon="6.65261">
        <ele>195.3</ele>
        <time>2022-04-22T08:41:10Z</time>
      </trkpt>
      <trkpt lat="43.52296" lon="6.65259">
        <ele>195.5</ele>
        <time>2022-04-22T08:41:11Z</time>
      </trkpt>
      <trkpt lat="43.52297" lon="6.65255">
        <ele>195.8</ele>
        <time>2022-04-22T08:41:13Z</time>
      </trkpt>
      <trkpt lat="43.52299" lon="6.65254">
        <ele>196</ele>
        <time>2022-04-22T08:41:14Z</time>
      </trkpt>
      <trkpt lat="43.523" lon="6.65253">
        <ele>196.2</ele>
        <time>2022-04-22T08:41:15Z</time>
      </trkpt>
      <trkpt lat="43.52301" lon="6.65252">
        <ele>196.3</ele>
        <time>2022-04-22T08:41:16Z</time>
      </trkpt>
      <trkpt lat="43.52302" lon="6.65251">
        <ele>196.5</ele>
        <time>2022-04-22T08:41:18Z</time>
      </trkpt>
      <trkpt lat="43.52303" lon="6.6525">
        <ele>196.6</ele>
        <time>2022-04-22T08:41:19Z</time>
      </trkpt>
      <trkpt lat="43.52305" lon="6.65248">
        <ele>196.9</ele>
        <time>2022-04-22T08:41:20Z</time>
      </trkpt>
      <trkpt lat="43.52305" lon="6.65248">
        <ele>197</ele>
        <time>2022-04-22T08:41:21Z</time>
      </trkpt>
      <trkpt lat="43.52306" lon="6.65247">
        <ele>197.1</ele>
        <time>2022-04-22T08:41:22Z</time>
      </trkpt>
      <trkpt lat="43.52307" lon="6.65246">
        <ele>197.3</ele>
        <time>2022-04-22T08:41:24Z</time>
      </trkpt>
      <trkpt lat="43.52308" lon="6.65246">
        <ele>197.5</ele>
        <time>2022-04-22T08:41:25Z</time>
      </trkpt>
      <trkpt lat="43.5231" lon="6.65245">
        <ele>197.7</ele>
        <time>2022-04-22T08:41:26Z</time>
      </trkpt>
      <trkpt lat="43.52311" lon="6.65245">
        <ele>198</ele>
        <time>2022-04-22T08:41:27Z</time>
      </trkpt>
      <trkpt lat="43.52313" lon="6.65245">
        <ele>198.2</ele>
        <time>2022-04-22T08:41:28Z</time>
      </trkpt>
      <trkpt lat="43.52314" lon="6.65244">
        <ele>198.4</ele>
        <time>2022-04-22T08:41:30Z</time>
      </trkpt>
      <trkpt lat="43.52316" lon="6.65243">
        <ele>198.7</ele>
        <time>2022-04-22T08:41:31Z</time>
      </trkpt>
      <trkpt lat="43.52317" lon="6.65243">
        <ele>198.9</ele>
        <time>2022-04-22T08:41:32Z</time>
      </trkpt>
      <trkpt lat="43.52318" lon="6.65242">
        <ele>199.1</ele>
        <time>2022-04-22T08:41:33Z</time>
      </trkpt>
      <trkpt lat="43.52319" lon="6.65241">
        <ele>199.2</ele>
        <time>2022-04-22T08:41:34Z</time>
      </trkpt>
      <trkpt lat="43.5232" lon="6.65238">
        <ele>199.6</ele>
        <time>2022-04-22T08:41:36Z</time>
      </trkpt>
      <trkpt lat="43.52322" lon="6.65236">
        <ele>199.8</ele>
        <time>2022-04-22T08:41:37Z</time>
      </trkpt>
      <trkpt lat="43.52323" lon="6.65235">
        <ele>200</ele>
        <time>2022-04-22T08:41:38Z</time>
      </trkpt>
      <trkpt lat="43.52324" lon="6.65234">
        <ele>200.2</ele>
        <time>2022-04-22T08:41:39Z</time>
      </trkpt>
      <trkpt lat="43.52325" lon="6.65232">
        <ele>200.4</ele>
        <time>2022-04-22T08:41:40Z</time>
      </trkpt>
      <trkpt lat="43.52327" lon="6.65231">
        <ele>200.6</ele>
        <time>2022-04-22T08:41:41Z</time>
      </trkpt>
      <trkpt lat="43.52328" lon="6.65229">
        <ele>200.8</ele>
        <time>2022-04-22T08:41:42Z</time>
      </trkpt>
      <trkpt lat="43.5233" lon="6.65226">
        <ele>201</ele>
        <time>2022-04-22T08:41:44Z</time>
      </trkpt>
      <trkpt lat="43.5233" lon="6.65225">
        <ele>201.2</ele>
        <time>2022-04-22T08:41:45Z</time>
      </trkpt>
      <trkpt lat="43.52331" lon="6.65222">
        <ele>201.4</ele>
        <time>2022-04-22T08:41:46Z</time>
      </trkpt>
      <trkpt lat="43.52331" lon="6.6522">
        <ele>201.5</ele>
        <time>2022-04-22T08:41:47Z</time>
      </trkpt>
      <trkpt lat="43.52331" lon="6.65218">
        <ele>201.7</ele>
        <time>2022-04-22T08:41:49Z</time>
      </trkpt>
      <trkpt lat="43.52332" lon="6.65216">
        <ele>201.8</ele>
        <time>2022-04-22T08:41:50Z</time>
      </trkpt>
      <trkpt lat="43.52333" lon="6.65215">
        <ele>201.9</ele>
        <time>2022-04-22T08:41:51Z</time>
      </trkpt>
      <trkpt lat="43.52334" lon="6.65214">
        <ele>202</ele>
        <time>2022-04-22T08:41:52Z</time>
      </trkpt>
      <trkpt lat="43.52335" lon="6.65212">
        <ele>202.1</ele>
        <time>2022-04-22T08:41:53Z</time>
      </trkpt>
      <trkpt lat="43.52336" lon="6.6521">
        <ele>202.3</ele>
        <time>2022-04-22T08:41:55Z</time>
      </trkpt>
      <trkpt lat="43.52337" lon="6.65207">
        <ele>202.5</ele>
        <time>2022-04-22T08:41:56Z</time>
      </trkpt>
      <trkpt lat="43.52337" lon="6.65206">
        <ele>202.6</ele>
        <time>2022-04-22T08:41:57Z</time>
      </trkpt>
      <trkpt lat="43.52338" lon="6.65204">
        <ele>202.7</ele>
        <time>2022-04-22T08:41:58Z</time>
      </trkpt>
      <trkpt lat="43.52339" lon="6.65203">
        <ele>202.8</ele>
        <time>2022-04-22T08:41:59Z</time>
      </trkpt>
      <trkpt lat="43.5234" lon="6.65202">
        <ele>202.9</ele>
        <time>2022-04-22T08:42:00Z</time>
      </trkpt>
      <trkpt lat="43.52341" lon="6.65201">
        <ele>203</ele>
        <time>2022-04-22T08:42:02Z</time>
      </trkpt>
      <trkpt lat="43.52342" lon="6.652">
        <ele>203.1</ele>
        <time>2022-04-22T08:42:03Z</time>
      </trkpt>
      <trkpt lat="43.52344" lon="6.65199">
        <ele>203.2</ele>
        <time>2022-04-22T08:42:04Z</time>
      </trkpt>
      <trkpt lat="43.52345" lon="6.65198">
        <ele>203.3</ele>
        <time>2022-04-22T08:42:05Z</time>
      </trkpt>
      <trkpt lat="43.52346" lon="6.65197">
        <ele>203.4</ele>
        <time>2022-04-22T08:42:06Z</time>
      </trkpt>
      <trkpt lat="43.52347" lon="6.65196">
        <ele>203.5</ele>
        <time>2022-04-22T08:42:07Z</time>
      </trkpt>
      <trkpt lat="43.52348" lon="6.65195">
        <ele>203.5</ele>
        <time>2022-04-22T08:42:08Z</time>
      </trkpt>
      <trkpt lat="43.52349" lon="6.65195">
        <ele>203.6</ele>
        <time>2022-04-22T08:42:10Z</time>
      </trkpt>
      <trkpt lat="43.5235" lon="6.65194">
        <ele>203.7</ele>
        <time>2022-04-22T08:42:11Z</time>
      </trkpt>
      <trkpt lat="43.52351" lon="6.65194">
        <ele>203.7</ele>
        <time>2022-04-22T08:42:12Z</time>
      </trkpt>
      <trkpt lat="43.52353" lon="6.65193">
        <ele>203.8</ele>
        <time>2022-04-22T08:42:13Z</time>
      </trkpt>
      <trkpt lat="43.52354" lon="6.65193">
        <ele>203.9</ele>
        <time>2022-04-22T08:42:14Z</time>
      </trkpt>
      <trkpt lat="43.52355" lon="6.65192">
        <ele>203.9</ele>
        <time>2022-04-22T08:42:15Z</time>
      </trkpt>
      <trkpt lat="43.52356" lon="6.65192">
        <ele>204</ele>
        <time>2022-04-22T08:42:16Z</time>
      </trkpt>
      <trkpt lat="43.52358" lon="6.65191">
        <ele>204.1</ele>
        <time>2022-04-22T08:42:17Z</time>
      </trkpt>
      <trkpt lat="43.5236" lon="6.65192">
        <ele>204.1</ele>
        <time>2022-04-22T08:42:18Z</time>
      </trkpt>
      <trkpt lat="43.52361" lon="6.65192">
        <ele>204.2</ele>
        <time>2022-04-22T08:42:19Z</time>
      </trkpt>
      <trkpt lat="43.52363" lon="6.65192">
        <ele>204.3</ele>
        <time>2022-04-22T08:42:20Z</time>
      </trkpt>
      <trkpt lat="43.52365" lon="6.65192">
        <ele>204.3</ele>
        <time>2022-04-22T08:42:22Z</time>
      </trkpt>
      <trkpt lat="43.52367" lon="6.65192">
        <ele>204.4</ele>
        <time>2022-04-22T08:42:23Z</time>
      </trkpt>
      <trkpt lat="43.52368" lon="6.65191">
        <ele>204.4</ele>
        <time>2022-04-22T08:42:24Z</time>
      </trkpt>
      <trkpt lat="43.5237" lon="6.65191">
        <ele>204.4</ele>
        <time>2022-04-22T08:42:25Z</time>
      </trkpt>
      <trkpt lat="43.52371" lon="6.65189">
        <ele>204.5</ele>
        <time>2022-04-22T08:42:26Z</time>
      </trkpt>
      <trkpt lat="43.52373" lon="6.65188">
        <ele>204.5</ele>
        <time>2022-04-22T08:42:27Z</time>
      </trkpt>
      <trkpt lat="43.52374" lon="6.65186">
        <ele>204.5</ele>
        <time>2022-04-22T08:42:28Z</time>
      </trkpt>
      <trkpt lat="43.52375" lon="6.65185">
        <ele>204.5</ele>
        <time>2022-04-22T08:42:29Z</time>
      </trkpt>
      <trkpt lat="43.52376" lon="6.65184">
        <ele>204.6</ele>
        <time>2022-04-22T08:42:30Z</time>
      </trkpt>
      <trkpt lat="43.52378" lon="6.65183">
        <ele>204.6</ele>
        <time>2022-04-22T08:42:31Z</time>
      </trkpt>
      <trkpt lat="43.5238" lon="6.65181">
        <ele>204.6</ele>
        <time>2022-04-22T08:42:33Z</time>
      </trkpt>
      <trkpt lat="43.52383" lon="6.65178">
        <ele>204.7</ele>
        <time>2022-04-22T08:42:34Z</time>
      </trkpt>
      <trkpt lat="43.52383" lon="6.65176">
        <ele>204.7</ele>
        <time>2022-04-22T08:42:35Z</time>
      </trkpt>
      <trkpt lat="43.52385" lon="6.65175">
        <ele>204.7</ele>
        <time>2022-04-22T08:42:36Z</time>
      </trkpt>
      <trkpt lat="43.52386" lon="6.65174">
        <ele>204.7</ele>
        <time>2022-04-22T08:42:37Z</time>
      </trkpt>
      <trkpt lat="43.52388" lon="6.65173">
        <ele>204.7</ele>
        <time>2022-04-22T08:42:38Z</time>
      </trkpt>
      <trkpt lat="43.52389" lon="6.65173">
        <ele>204.6</ele>
        <time>2022-04-22T08:42:40Z</time>
      </trkpt>
      <trkpt lat="43.52391" lon="6.65172">
        <ele>204.6</ele>
        <time>2022-04-22T08:42:41Z</time>
      </trkpt>
      <trkpt lat="43.52392" lon="6.65172">
        <ele>204.6</ele>
        <time>2022-04-22T08:42:42Z</time>
      </trkpt>
      <trkpt lat="43.52395" lon="6.65171">
        <ele>204.5</ele>
        <time>2022-04-22T08:42:43Z</time>
      </trkpt>
      <trkpt lat="43.52396" lon="6.65171">
        <ele>204.5</ele>
        <time>2022-04-22T08:42:44Z</time>
      </trkpt>
      <trkpt lat="43.52398" lon="6.65171">
        <ele>204.4</ele>
        <time>2022-04-22T08:42:45Z</time>
      </trkpt>
      <trkpt lat="43.524" lon="6.65171">
        <ele>204.4</ele>
        <time>2022-04-22T08:42:47Z</time>
      </trkpt>
      <trkpt lat="43.52401" lon="6.65172">
        <ele>204.3</ele>
        <time>2022-04-22T08:42:48Z</time>
      </trkpt>
      <trkpt lat="43.52402" lon="6.65172">
        <ele>204.3</ele>
        <time>2022-04-22T08:42:49Z</time>
      </trkpt>
      <trkpt lat="43.52403" lon="6.65173">
        <ele>204.3</ele>
        <time>2022-04-22T08:42:50Z</time>
      </trkpt>
      <trkpt lat="43.52405" lon="6.65173">
        <ele>204.2</ele>
        <time>2022-04-22T08:42:51Z</time>
      </trkpt>
      <trkpt lat="43.52406" lon="6.65173">
        <ele>204.2</ele>
        <time>2022-04-22T08:42:52Z</time>
      </trkpt>
      <trkpt lat="43.52407" lon="6.65174">
        <ele>204.2</ele>
        <time>2022-04-22T08:42:53Z</time>
      </trkpt>
      <trkpt lat="43.52409" lon="6.65174">
        <ele>204.1</ele>
        <time>2022-04-22T08:42:54Z</time>
      </trkpt>
      <trkpt lat="43.5241" lon="6.65174">
        <ele>204.1</ele>
        <time>2022-04-22T08:42:55Z</time>
      </trkpt>
      <trkpt lat="43.52412" lon="6.65175">
        <ele>204.1</ele>
        <time>2022-04-22T08:42:56Z</time>
      </trkpt>
      <trkpt lat="43.52413" lon="6.65175">
        <ele>204.1</ele>
        <time>2022-04-22T08:42:57Z</time>
      </trkpt>
      <trkpt lat="43.52415" lon="6.65176">
        <ele>204.1</ele>
        <time>2022-04-22T08:42:58Z</time>
      </trkpt>
      <trkpt lat="43.52416" lon="6.65176">
        <ele>204.1</ele>
        <time>2022-04-22T08:42:59Z</time>
      </trkpt>
      <trkpt lat="43.52418" lon="6.65177">
        <ele>204.1</ele>
        <time>2022-04-22T08:43:00Z</time>
      </trkpt>
      <trkpt lat="43.52419" lon="6.65177">
        <ele>204.1</ele>
        <time>2022-04-22T08:43:01Z</time>
      </trkpt>
      <trkpt lat="43.52421" lon="6.65177">
        <ele>204.1</ele>
        <time>2022-04-22T08:43:02Z</time>
      </trkpt>
      <trkpt lat="43.52422" lon="6.65177">
        <ele>204.1</ele>
        <time>2022-04-22T08:43:03Z</time>
      </trkpt>
      <trkpt lat="43.52423" lon="6.65177">
        <ele>204.1</ele>
        <time>2022-04-22T08:43:04Z</time>
      </trkpt>
      <trkpt lat="43.52425" lon="6.65177">
        <ele>204.2</ele>
        <time>2022-04-22T08:43:05Z</time>
      </trkpt>
      <trkpt lat="43.52427" lon="6.65177">
        <ele>204.2</ele>
        <time>2022-04-22T08:43:06Z</time>
      </trkpt>
      <trkpt lat="43.52428" lon="6.65177">
        <ele>204.2</ele>
        <time>2022-04-22T08:43:08Z</time>
      </trkpt>
      <trkpt lat="43.52429" lon="6.65177">
        <ele>204.2</ele>
        <time>2022-04-22T08:43:09Z</time>
      </trkpt>
      <trkpt lat="43.52431" lon="6.65176">
        <ele>204.3</ele>
        <time>2022-04-22T08:43:10Z</time>
      </trkpt>
      <trkpt lat="43.52432" lon="6.65176">
        <ele>204.3</ele>
        <time>2022-04-22T08:43:11Z</time>
      </trkpt>
      <trkpt lat="43.52433" lon="6.65176">
        <ele>204.4</ele>
        <time>2022-04-22T08:43:12Z</time>
      </trkpt>
      <trkpt lat="43.52435" lon="6.65176">
        <ele>204.4</ele>
        <time>2022-04-22T08:43:13Z</time>
      </trkpt>
      <trkpt lat="43.52436" lon="6.65176">
        <ele>204.5</ele>
        <time>2022-04-22T08:43:14Z</time>
      </trkpt>
      <trkpt lat="43.52437" lon="6.65176">
        <ele>204.5</ele>
        <time>2022-04-22T08:43:15Z</time>
      </trkpt>
      <trkpt lat="43.52438" lon="6.65177">
        <ele>204.6</ele>
        <time>2022-04-22T08:43:17Z</time>
      </trkpt>
      <trkpt lat="43.5244" lon="6.65178">
        <ele>204.6</ele>
        <time>2022-04-22T08:43:18Z</time>
      </trkpt>
      <trkpt lat="43.52442" lon="6.65179">
        <ele>204.8</ele>
        <time>2022-04-22T08:43:19Z</time>
      </trkpt>
      <trkpt lat="43.52443" lon="6.6518">
        <ele>204.8</ele>
        <time>2022-04-22T08:43:20Z</time>
      </trkpt>
      <trkpt lat="43.52445" lon="6.65181">
        <ele>204.9</ele>
        <time>2022-04-22T08:43:21Z</time>
      </trkpt>
      <trkpt lat="43.52446" lon="6.65182">
        <ele>205</ele>
        <time>2022-04-22T08:43:22Z</time>
      </trkpt>
      <trkpt lat="43.52447" lon="6.65183">
        <ele>205</ele>
        <time>2022-04-22T08:43:23Z</time>
      </trkpt>
      <trkpt lat="43.52448" lon="6.65185">
        <ele>205.1</ele>
        <time>2022-04-22T08:43:24Z</time>
      </trkpt>
      <trkpt lat="43.5245" lon="6.65186">
        <ele>205.2</ele>
        <time>2022-04-22T08:43:25Z</time>
      </trkpt>
      <trkpt lat="43.52452" lon="6.65186">
        <ele>205.3</ele>
        <time>2022-04-22T08:43:27Z</time>
      </trkpt>
      <trkpt lat="43.52453" lon="6.65188">
        <ele>205.4</ele>
        <time>2022-04-22T08:43:28Z</time>
      </trkpt>
      <trkpt lat="43.52454" lon="6.65189">
        <ele>205.5</ele>
        <time>2022-04-22T08:43:30Z</time>
      </trkpt>
      <trkpt lat="43.52455" lon="6.65191">
        <ele>205.6</ele>
        <time>2022-04-22T08:43:31Z</time>
      </trkpt>
      <trkpt lat="43.52456" lon="6.65192">
        <ele>205.7</ele>
        <time>2022-04-22T08:43:32Z</time>
      </trkpt>
      <trkpt lat="43.52457" lon="6.65194">
        <ele>205.7</ele>
        <time>2022-04-22T08:43:33Z</time>
      </trkpt>
      <trkpt lat="43.52458" lon="6.65195">
        <ele>205.7</ele>
        <time>2022-04-22T08:43:34Z</time>
      </trkpt>
      <trkpt lat="43.52459" lon="6.65196">
        <ele>205.7</ele>
        <time>2022-04-22T08:43:35Z</time>
      </trkpt>
      <trkpt lat="43.5246" lon="6.65198">
        <ele>205.7</ele>
        <time>2022-04-22T08:43:37Z</time>
      </trkpt>
      <trkpt lat="43.52461" lon="6.652">
        <ele>205.7</ele>
        <time>2022-04-22T08:43:38Z</time>
      </trkpt>
      <trkpt lat="43.52462" lon="6.652">
        <ele>205.7</ele>
        <time>2022-04-22T08:43:39Z</time>
      </trkpt>
      <trkpt lat="43.52463" lon="6.652">
        <ele>205.7</ele>
        <time>2022-04-22T08:43:40Z</time>
      </trkpt>
      <trkpt lat="43.52465" lon="6.65199">
        <ele>205.7</ele>
        <time>2022-04-22T08:43:41Z</time>
      </trkpt>
      <trkpt lat="43.52466" lon="6.65199">
        <ele>205.7</ele>
        <time>2022-04-22T08:43:42Z</time>
      </trkpt>
      <trkpt lat="43.52467" lon="6.65199">
        <ele>205.7</ele>
        <time>2022-04-22T08:43:43Z</time>
      </trkpt>
      <trkpt lat="43.52469" lon="6.65199">
        <ele>205.7</ele>
        <time>2022-04-22T08:43:44Z</time>
      </trkpt>
      <trkpt lat="43.52471" lon="6.652">
        <ele>205.7</ele>
        <time>2022-04-22T08:43:45Z</time>
      </trkpt>
      <trkpt lat="43.52472" lon="6.65201">
        <ele>205.7</ele>
        <time>2022-04-22T08:43:46Z</time>
      </trkpt>
      <trkpt lat="43.52472" lon="6.65201">
        <ele>205.7</ele>
        <time>2022-04-22T08:43:47Z</time>
      </trkpt>
      <trkpt lat="43.52474" lon="6.65202">
        <ele>205.7</ele>
        <time>2022-04-22T08:43:48Z</time>
      </trkpt>
      <trkpt lat="43.52475" lon="6.65201">
        <ele>205.7</ele>
        <time>2022-04-22T08:43:49Z</time>
      </trkpt>
      <trkpt lat="43.52477" lon="6.65201">
        <ele>205.7</ele>
        <time>2022-04-22T08:43:50Z</time>
      </trkpt>
      <trkpt lat="43.52478" lon="6.65202">
        <ele>205.7</ele>
        <time>2022-04-22T08:43:51Z</time>
      </trkpt>
      <trkpt lat="43.52479" lon="6.65202">
        <ele>205.7</ele>
        <time>2022-04-22T08:43:52Z</time>
      </trkpt>
      <trkpt lat="43.52481" lon="6.65202">
        <ele>205.7</ele>
        <time>2022-04-22T08:43:54Z</time>
      </trkpt>
      <trkpt lat="43.52483" lon="6.65202">
        <ele>205.7</ele>
        <time>2022-04-22T08:43:55Z</time>
      </trkpt>
      <trkpt lat="43.52484" lon="6.65203">
        <ele>205.7</ele>
        <time>2022-04-22T08:43:56Z</time>
      </trkpt>
      <trkpt lat="43.52487" lon="6.65204">
        <ele>205.8</ele>
        <time>2022-04-22T08:43:58Z</time>
      </trkpt>
      <trkpt lat="43.52488" lon="6.65204">
        <ele>205.8</ele>
        <time>2022-04-22T08:43:59Z</time>
      </trkpt>
      <trkpt lat="43.52488" lon="6.65204">
        <ele>205.8</ele>
        <time>2022-04-22T08:44:00Z</time>
      </trkpt>
      <trkpt lat="43.52489" lon="6.65205">
        <ele>205.8</ele>
        <time>2022-04-22T08:44:01Z</time>
      </trkpt>
      <trkpt lat="43.52491" lon="6.65206">
        <ele>205.9</ele>
        <time>2022-04-22T08:44:02Z</time>
      </trkpt>
      <trkpt lat="43.52492" lon="6.65206">
        <ele>205.9</ele>
        <time>2022-04-22T08:44:03Z</time>
      </trkpt>
      <trkpt lat="43.52493" lon="6.65207">
        <ele>205.9</ele>
        <time>2022-04-22T08:44:04Z</time>
      </trkpt>
      <trkpt lat="43.52495" lon="6.65208">
        <ele>206</ele>
        <time>2022-04-22T08:44:06Z</time>
      </trkpt>
      <trkpt lat="43.52496" lon="6.65208">
        <ele>206</ele>
        <time>2022-04-22T08:44:07Z</time>
      </trkpt>
      <trkpt lat="43.52497" lon="6.65209">
        <ele>206</ele>
        <time>2022-04-22T08:44:08Z</time>
      </trkpt>
      <trkpt lat="43.52498" lon="6.65209">
        <ele>206.1</ele>
        <time>2022-04-22T08:44:09Z</time>
      </trkpt>
      <trkpt lat="43.52501" lon="6.6521">
        <ele>206.2</ele>
        <time>2022-04-22T08:44:11Z</time>
      </trkpt>
      <trkpt lat="43.52502" lon="6.6521">
        <ele>206.2</ele>
        <time>2022-04-22T08:44:12Z</time>
      </trkpt>
      <trkpt lat="43.52504" lon="6.6521">
        <ele>206.3</ele>
        <time>2022-04-22T08:44:13Z</time>
      </trkpt>
      <trkpt lat="43.52505" lon="6.65211">
        <ele>206.4</ele>
        <time>2022-04-22T08:44:14Z</time>
      </trkpt>
      <trkpt lat="43.52506" lon="6.65211">
        <ele>206.5</ele>
        <time>2022-04-22T08:44:15Z</time>
      </trkpt>
      <trkpt lat="43.52508" lon="6.65211">
        <ele>206.5</ele>
        <time>2022-04-22T08:44:16Z</time>
      </trkpt>
      <trkpt lat="43.52509" lon="6.65211">
        <ele>206.6</ele>
        <time>2022-04-22T08:44:17Z</time>
      </trkpt>
      <trkpt lat="43.5251" lon="6.65211">
        <ele>206.6</ele>
        <time>2022-04-22T08:44:19Z</time>
      </trkpt>
      <trkpt lat="43.52511" lon="6.65211">
        <ele>206.7</ele>
        <time>2022-04-22T08:44:20Z</time>
      </trkpt>
      <trkpt lat="43.52512" lon="6.65211">
        <ele>206.8</ele>
        <time>2022-04-22T08:44:21Z</time>
      </trkpt>
      <trkpt lat="43.52513" lon="6.65211">
        <ele>206.8</ele>
        <time>2022-04-22T08:44:22Z</time>
      </trkpt>
      <trkpt lat="43.52515" lon="6.65211">
        <ele>206.9</ele>
        <time>2022-04-22T08:44:23Z</time>
      </trkpt>
      <trkpt lat="43.52517" lon="6.65211">
        <ele>207</ele>
        <time>2022-04-22T08:44:25Z</time>
      </trkpt>
      <trkpt lat="43.52518" lon="6.65211">
        <ele>207.1</ele>
        <time>2022-04-22T08:44:26Z</time>
      </trkpt>
      <trkpt lat="43.52519" lon="6.65212">
        <ele>207.2</ele>
        <time>2022-04-22T08:44:27Z</time>
      </trkpt>
      <trkpt lat="43.5252" lon="6.65212">
        <ele>207.2</ele>
        <time>2022-04-22T08:44:28Z</time>
      </trkpt>
      <trkpt lat="43.52522" lon="6.65212">
        <ele>207.3</ele>
        <time>2022-04-22T08:44:29Z</time>
      </trkpt>
      <trkpt lat="43.52523" lon="6.65212">
        <ele>207.4</ele>
        <time>2022-04-22T08:44:30Z</time>
      </trkpt>
      <trkpt lat="43.52525" lon="6.65212">
        <ele>207.5</ele>
        <time>2022-04-22T08:44:31Z</time>
      </trkpt>
      <trkpt lat="43.52526" lon="6.65213">
        <ele>207.6</ele>
        <time>2022-04-22T08:44:32Z</time>
      </trkpt>
      <trkpt lat="43.52528" lon="6.65213">
        <ele>207.6</ele>
        <time>2022-04-22T08:44:33Z</time>
      </trkpt>
      <trkpt lat="43.5253" lon="6.65213">
        <ele>207.7</ele>
        <time>2022-04-22T08:44:34Z</time>
      </trkpt>
      <trkpt lat="43.52531" lon="6.65213">
        <ele>207.8</ele>
        <time>2022-04-22T08:44:35Z</time>
      </trkpt>
      <trkpt lat="43.52533" lon="6.65213">
        <ele>207.8</ele>
        <time>2022-04-22T08:44:36Z</time>
      </trkpt>
      <trkpt lat="43.52535" lon="6.65213">
        <ele>207.9</ele>
        <time>2022-04-22T08:44:37Z</time>
      </trkpt>
      <trkpt lat="43.52538" lon="6.65214">
        <ele>207.9</ele>
        <time>2022-04-22T08:44:39Z</time>
      </trkpt>
      <trkpt lat="43.5254" lon="6.65214">
        <ele>207.9</ele>
        <time>2022-04-22T08:44:40Z</time>
      </trkpt>
      <trkpt lat="43.52541" lon="6.65214">
        <ele>207.9</ele>
        <time>2022-04-22T08:44:41Z</time>
      </trkpt>
      <trkpt lat="43.52545" lon="6.65214">
        <ele>207.9</ele>
        <time>2022-04-22T08:44:42Z</time>
      </trkpt>
      <trkpt lat="43.52546" lon="6.65214">
        <ele>207.9</ele>
        <time>2022-04-22T08:44:43Z</time>
      </trkpt>
      <trkpt lat="43.52548" lon="6.65215">
        <ele>207.8</ele>
        <time>2022-04-22T08:44:44Z</time>
      </trkpt>
      <trkpt lat="43.5255" lon="6.65215">
        <ele>207.7</ele>
        <time>2022-04-22T08:44:46Z</time>
      </trkpt>
      <trkpt lat="43.52553" lon="6.65215">
        <ele>207.6</ele>
        <time>2022-04-22T08:44:47Z</time>
      </trkpt>
      <trkpt lat="43.52554" lon="6.65216">
        <ele>207.6</ele>
        <time>2022-04-22T08:44:48Z</time>
      </trkpt>
      <trkpt lat="43.52557" lon="6.65217">
        <ele>207.5</ele>
        <time>2022-04-22T08:44:49Z</time>
      </trkpt>
      <trkpt lat="43.52558" lon="6.65217">
        <ele>207.4</ele>
        <time>2022-04-22T08:44:50Z</time>
      </trkpt>
      <trkpt lat="43.5256" lon="6.65218">
        <ele>207.3</ele>
        <time>2022-04-22T08:44:51Z</time>
      </trkpt>
      <trkpt lat="43.52562" lon="6.65218">
        <ele>207.3</ele>
        <time>2022-04-22T08:44:52Z</time>
      </trkpt>
      <trkpt lat="43.52563" lon="6.65219">
        <ele>207.2</ele>
        <time>2022-04-22T08:44:53Z</time>
      </trkpt>
      <trkpt lat="43.52564" lon="6.65221">
        <ele>207.1</ele>
        <time>2022-04-22T08:44:54Z</time>
      </trkpt>
      <trkpt lat="43.52566" lon="6.65221">
        <ele>207.1</ele>
        <time>2022-04-22T08:44:55Z</time>
      </trkpt>
      <trkpt lat="43.52567" lon="6.65222">
        <ele>207</ele>
        <time>2022-04-22T08:44:57Z</time>
      </trkpt>
      <trkpt lat="43.52569" lon="6.65223">
        <ele>206.9</ele>
        <time>2022-04-22T08:44:58Z</time>
      </trkpt>
      <trkpt lat="43.5257" lon="6.65225">
        <ele>206.9</ele>
        <time>2022-04-22T08:44:59Z</time>
      </trkpt>
      <trkpt lat="43.52572" lon="6.65226">
        <ele>206.8</ele>
        <time>2022-04-22T08:45:00Z</time>
      </trkpt>
      <trkpt lat="43.52573" lon="6.65227">
        <ele>206.8</ele>
        <time>2022-04-22T08:45:01Z</time>
      </trkpt>
      <trkpt lat="43.52574" lon="6.65229">
        <ele>206.7</ele>
        <time>2022-04-22T08:45:02Z</time>
      </trkpt>
      <trkpt lat="43.52575" lon="6.6523">
        <ele>206.7</ele>
        <time>2022-04-22T08:45:03Z</time>
      </trkpt>
      <trkpt lat="43.52576" lon="6.65231">
        <ele>206.7</ele>
        <time>2022-04-22T08:45:04Z</time>
      </trkpt>
      <trkpt lat="43.52577" lon="6.65233">
        <ele>206.6</ele>
        <time>2022-04-22T08:45:05Z</time>
      </trkpt>
      <trkpt lat="43.52579" lon="6.65234">
        <ele>206.6</ele>
        <time>2022-04-22T08:45:06Z</time>
      </trkpt>
      <trkpt lat="43.5258" lon="6.65235">
        <ele>206.6</ele>
        <time>2022-04-22T08:45:07Z</time>
      </trkpt>
      <trkpt lat="43.52582" lon="6.65238">
        <ele>206.6</ele>
        <time>2022-04-22T08:45:08Z</time>
      </trkpt>
      <trkpt lat="43.52583" lon="6.6524">
        <ele>206.6</ele>
        <time>2022-04-22T08:45:09Z</time>
      </trkpt>
      <trkpt lat="43.52585" lon="6.65242">
        <ele>206.6</ele>
        <time>2022-04-22T08:45:11Z</time>
      </trkpt>
      <trkpt lat="43.52586" lon="6.65243">
        <ele>206.6</ele>
        <time>2022-04-22T08:45:12Z</time>
      </trkpt>
      <trkpt lat="43.52587" lon="6.65245">
        <ele>206.6</ele>
        <time>2022-04-22T08:45:13Z</time>
      </trkpt>
      <trkpt lat="43.52588" lon="6.65246">
        <ele>206.6</ele>
        <time>2022-04-22T08:45:14Z</time>
      </trkpt>
      <trkpt lat="43.52589" lon="6.65247">
        <ele>206.6</ele>
        <time>2022-04-22T08:45:15Z</time>
      </trkpt>
      <trkpt lat="43.5259" lon="6.65249">
        <ele>206.6</ele>
        <time>2022-04-22T08:45:16Z</time>
      </trkpt>
      <trkpt lat="43.52591" lon="6.6525">
        <ele>206.6</ele>
        <time>2022-04-22T08:45:17Z</time>
      </trkpt>
      <trkpt lat="43.52592" lon="6.65251">
        <ele>206.6</ele>
        <time>2022-04-22T08:45:18Z</time>
      </trkpt>
      <trkpt lat="43.52594" lon="6.65254">
        <ele>206.6</ele>
        <time>2022-04-22T08:45:19Z</time>
      </trkpt>
      <trkpt lat="43.52594" lon="6.65255">
        <ele>206.6</ele>
        <time>2022-04-22T08:45:20Z</time>
      </trkpt>
      <trkpt lat="43.52595" lon="6.65256">
        <ele>206.6</ele>
        <time>2022-04-22T08:45:21Z</time>
      </trkpt>
      <trkpt lat="43.52595" lon="6.65257">
        <ele>206.6</ele>
        <time>2022-04-22T08:45:22Z</time>
      </trkpt>
      <trkpt lat="43.52596" lon="6.65259">
        <ele>206.7</ele>
        <time>2022-04-22T08:45:23Z</time>
      </trkpt>
      <trkpt lat="43.52598" lon="6.65261">
        <ele>206.7</ele>
        <time>2022-04-22T08:45:25Z</time>
      </trkpt>
      <trkpt lat="43.52598" lon="6.65263">
        <ele>206.7</ele>
        <time>2022-04-22T08:45:26Z</time>
      </trkpt>
      <trkpt lat="43.52599" lon="6.65264">
        <ele>206.7</ele>
        <time>2022-04-22T08:45:27Z</time>
      </trkpt>
      <trkpt lat="43.52598" lon="6.65264">
        <ele>206.7</ele>
        <time>2022-04-22T08:45:28Z</time>
      </trkpt>
      <trkpt lat="43.52599" lon="6.65265">
        <ele>206.7</ele>
        <time>2022-04-22T08:45:29Z</time>
      </trkpt>
      <trkpt lat="43.52599" lon="6.65266">
        <ele>206.7</ele>
        <time>2022-04-22T08:45:30Z</time>
      </trkpt>
      <trkpt lat="43.526" lon="6.65267">
        <ele>206.7</ele>
        <time>2022-04-22T08:45:31Z</time>
      </trkpt>
      <trkpt lat="43.52601" lon="6.65268">
        <ele>206.7</ele>
        <time>2022-04-22T08:45:32Z</time>
      </trkpt>
      <trkpt lat="43.52601" lon="6.65269">
        <ele>206.7</ele>
        <time>2022-04-22T08:45:33Z</time>
      </trkpt>
      <trkpt lat="43.52602" lon="6.65272">
        <ele>206.7</ele>
        <time>2022-04-22T08:45:35Z</time>
      </trkpt>
      <trkpt lat="43.52603" lon="6.65273">
        <ele>206.7</ele>
        <time>2022-04-22T08:45:36Z</time>
      </trkpt>
      <trkpt lat="43.52603" lon="6.65274">
        <ele>206.7</ele>
        <time>2022-04-22T08:45:37Z</time>
      </trkpt>
      <trkpt lat="43.52604" lon="6.65276">
        <ele>206.7</ele>
        <time>2022-04-22T08:45:38Z</time>
      </trkpt>
      <trkpt lat="43.52605" lon="6.65278">
        <ele>206.7</ele>
        <time>2022-04-22T08:45:39Z</time>
      </trkpt>
      <trkpt lat="43.52606" lon="6.65279">
        <ele>206.7</ele>
        <time>2022-04-22T08:45:40Z</time>
      </trkpt>
      <trkpt lat="43.52606" lon="6.6528">
        <ele>206.7</ele>
        <time>2022-04-22T08:45:41Z</time>
      </trkpt>
      <trkpt lat="43.52608" lon="6.65282">
        <ele>206.7</ele>
        <time>2022-04-22T08:45:42Z</time>
      </trkpt>
      <trkpt lat="43.52609" lon="6.65282">
        <ele>206.7</ele>
        <time>2022-04-22T08:45:43Z</time>
      </trkpt>
      <trkpt lat="43.52609" lon="6.65283">
        <ele>206.7</ele>
        <time>2022-04-22T08:45:44Z</time>
      </trkpt>
      <trkpt lat="43.52611" lon="6.65284">
        <ele>206.7</ele>
        <time>2022-04-22T08:45:45Z</time>
      </trkpt>
      <trkpt lat="43.52612" lon="6.65285">
        <ele>206.7</ele>
        <time>2022-04-22T08:45:46Z</time>
      </trkpt>
      <trkpt lat="43.52614" lon="6.65289">
        <ele>206.7</ele>
        <time>2022-04-22T08:45:48Z</time>
      </trkpt>
      <trkpt lat="43.52615" lon="6.6529">
        <ele>206.7</ele>
        <time>2022-04-22T08:45:49Z</time>
      </trkpt>
      <trkpt lat="43.52616" lon="6.65291">
        <ele>206.7</ele>
        <time>2022-04-22T08:45:50Z</time>
      </trkpt>
      <trkpt lat="43.52617" lon="6.65293">
        <ele>206.7</ele>
        <time>2022-04-22T08:45:51Z</time>
      </trkpt>
      <trkpt lat="43.52618" lon="6.65294">
        <ele>206.8</ele>
        <time>2022-04-22T08:45:52Z</time>
      </trkpt>
      <trkpt lat="43.52619" lon="6.65295">
        <ele>206.8</ele>
        <time>2022-04-22T08:45:54Z</time>
      </trkpt>
      <trkpt lat="43.5262" lon="6.65296">
        <ele>206.8</ele>
        <time>2022-04-22T08:45:55Z</time>
      </trkpt>
      <trkpt lat="43.52622" lon="6.65297">
        <ele>206.9</ele>
        <time>2022-04-22T08:45:56Z</time>
      </trkpt>
      <trkpt lat="43.52623" lon="6.65298">
        <ele>206.9</ele>
        <time>2022-04-22T08:45:57Z</time>
      </trkpt>
      <trkpt lat="43.52623" lon="6.65299">
        <ele>207</ele>
        <time>2022-04-22T08:45:58Z</time>
      </trkpt>
      <trkpt lat="43.52624" lon="6.653">
        <ele>207</ele>
        <time>2022-04-22T08:45:59Z</time>
      </trkpt>
      <trkpt lat="43.52626" lon="6.65302">
        <ele>207.1</ele>
        <time>2022-04-22T08:46:01Z</time>
      </trkpt>
      <trkpt lat="43.52627" lon="6.65303">
        <ele>207.2</ele>
        <time>2022-04-22T08:46:02Z</time>
      </trkpt>
      <trkpt lat="43.52628" lon="6.65306">
        <ele>207.2</ele>
        <time>2022-04-22T08:46:03Z</time>
      </trkpt>
      <trkpt lat="43.52629" lon="6.65307">
        <ele>207.3</ele>
        <time>2022-04-22T08:46:04Z</time>
      </trkpt>
      <trkpt lat="43.52629" lon="6.65308">
        <ele>207.3</ele>
        <time>2022-04-22T08:46:05Z</time>
      </trkpt>
      <trkpt lat="43.5263" lon="6.65309">
        <ele>207.4</ele>
        <time>2022-04-22T08:46:06Z</time>
      </trkpt>
      <trkpt lat="43.52631" lon="6.65311">
        <ele>207.4</ele>
        <time>2022-04-22T08:46:08Z</time>
      </trkpt>
      <trkpt lat="43.52632" lon="6.65313">
        <ele>207.5</ele>
        <time>2022-04-22T08:46:09Z</time>
      </trkpt>
      <trkpt lat="43.52633" lon="6.65314">
        <ele>207.5</ele>
        <time>2022-04-22T08:46:10Z</time>
      </trkpt>
      <trkpt lat="43.52634" lon="6.65316">
        <ele>207.6</ele>
        <time>2022-04-22T08:46:11Z</time>
      </trkpt>
      <trkpt lat="43.52634" lon="6.65318">
        <ele>207.6</ele>
        <time>2022-04-22T08:46:12Z</time>
      </trkpt>
      <trkpt lat="43.52635" lon="6.65319">
        <ele>207.7</ele>
        <time>2022-04-22T08:46:13Z</time>
      </trkpt>
      <trkpt lat="43.52637" lon="6.65321">
        <ele>207.7</ele>
        <time>2022-04-22T08:46:14Z</time>
      </trkpt>
      <trkpt lat="43.52638" lon="6.65322">
        <ele>207.8</ele>
        <time>2022-04-22T08:46:15Z</time>
      </trkpt>
      <trkpt lat="43.52639" lon="6.65323">
        <ele>207.8</ele>
        <time>2022-04-22T08:46:16Z</time>
      </trkpt>
      <trkpt lat="43.52642" lon="6.65325">
        <ele>207.9</ele>
        <time>2022-04-22T08:46:17Z</time>
      </trkpt>
      <trkpt lat="43.52643" lon="6.65325">
        <ele>207.9</ele>
        <time>2022-04-22T08:46:19Z</time>
      </trkpt>
      <trkpt lat="43.52644" lon="6.65326">
        <ele>207.9</ele>
        <time>2022-04-22T08:46:20Z</time>
      </trkpt>
      <trkpt lat="43.52645" lon="6.65327">
        <ele>207.9</ele>
        <time>2022-04-22T08:46:21Z</time>
      </trkpt>
      <trkpt lat="43.52646" lon="6.65328">
        <ele>208</ele>
        <time>2022-04-22T08:46:22Z</time>
      </trkpt>
      <trkpt lat="43.52647" lon="6.65329">
        <ele>208</ele>
        <time>2022-04-22T08:46:23Z</time>
      </trkpt>
      <trkpt lat="43.52648" lon="6.6533">
        <ele>208</ele>
        <time>2022-04-22T08:46:24Z</time>
      </trkpt>
      <trkpt lat="43.5265" lon="6.65331">
        <ele>208.1</ele>
        <time>2022-04-22T08:46:26Z</time>
      </trkpt>
      <trkpt lat="43.52651" lon="6.65332">
        <ele>208.1</ele>
        <time>2022-04-22T08:46:27Z</time>
      </trkpt>
      <trkpt lat="43.52653" lon="6.65333">
        <ele>208.2</ele>
        <time>2022-04-22T08:46:29Z</time>
      </trkpt>
      <trkpt lat="43.52654" lon="6.65334">
        <ele>208.2</ele>
        <time>2022-04-22T08:46:30Z</time>
      </trkpt>
      <trkpt lat="43.52655" lon="6.65336">
        <ele>208.3</ele>
        <time>2022-04-22T08:46:31Z</time>
      </trkpt>
      <trkpt lat="43.52656" lon="6.65338">
        <ele>208.3</ele>
        <time>2022-04-22T08:46:32Z</time>
      </trkpt>
      <trkpt lat="43.52657" lon="6.6534">
        <ele>208.4</ele>
        <time>2022-04-22T08:46:33Z</time>
      </trkpt>
      <trkpt lat="43.52658" lon="6.65341">
        <ele>208.4</ele>
        <time>2022-04-22T08:46:34Z</time>
      </trkpt>
      <trkpt lat="43.5266" lon="6.65342">
        <ele>208.5</ele>
        <time>2022-04-22T08:46:36Z</time>
      </trkpt>
      <trkpt lat="43.52661" lon="6.65342">
        <ele>208.5</ele>
        <time>2022-04-22T08:46:37Z</time>
      </trkpt>
      <trkpt lat="43.52662" lon="6.65342">
        <ele>208.5</ele>
        <time>2022-04-22T08:46:38Z</time>
      </trkpt>
      <trkpt lat="43.52664" lon="6.65342">
        <ele>208.6</ele>
        <time>2022-04-22T08:46:40Z</time>
      </trkpt>
      <trkpt lat="43.52665" lon="6.65343">
        <ele>208.6</ele>
        <time>2022-04-22T08:46:41Z</time>
      </trkpt>
      <trkpt lat="43.52667" lon="6.65344">
        <ele>208.7</ele>
        <time>2022-04-22T08:46:42Z</time>
      </trkpt>
      <trkpt lat="43.52668" lon="6.65344">
        <ele>208.7</ele>
        <time>2022-04-22T08:46:43Z</time>
      </trkpt>
      <trkpt lat="43.52669" lon="6.65345">
        <ele>208.8</ele>
        <time>2022-04-22T08:46:44Z</time>
      </trkpt>
      <trkpt lat="43.52672" lon="6.65345">
        <ele>208.9</ele>
        <time>2022-04-22T08:46:46Z</time>
      </trkpt>
      <trkpt lat="43.52673" lon="6.65346">
        <ele>208.9</ele>
        <time>2022-04-22T08:46:47Z</time>
      </trkpt>
      <trkpt lat="43.52675" lon="6.65346">
        <ele>209</ele>
        <time>2022-04-22T08:46:48Z</time>
      </trkpt>
      <trkpt lat="43.52677" lon="6.65347">
        <ele>209</ele>
        <time>2022-04-22T08:46:49Z</time>
      </trkpt>
      <trkpt lat="43.52679" lon="6.65348">
        <ele>209.1</ele>
        <time>2022-04-22T08:46:50Z</time>
      </trkpt>
      <trkpt lat="43.52681" lon="6.65349">
        <ele>209.2</ele>
        <time>2022-04-22T08:46:51Z</time>
      </trkpt>
      <trkpt lat="43.52682" lon="6.65349">
        <ele>209.2</ele>
        <time>2022-04-22T08:46:52Z</time>
      </trkpt>
      <trkpt lat="43.52685" lon="6.65352">
        <ele>209.3</ele>
        <time>2022-04-22T08:46:54Z</time>
      </trkpt>
      <trkpt lat="43.52685" lon="6.65352">
        <ele>209.3</ele>
        <time>2022-04-22T08:46:55Z</time>
      </trkpt>
      <trkpt lat="43.52686" lon="6.65354">
        <ele>209.4</ele>
        <time>2022-04-22T08:46:56Z</time>
      </trkpt>
      <trkpt lat="43.52687" lon="6.65354">
        <ele>209.4</ele>
        <time>2022-04-22T08:46:57Z</time>
      </trkpt>
      <trkpt lat="43.52689" lon="6.65356">
        <ele>209.4</ele>
        <time>2022-04-22T08:46:58Z</time>
      </trkpt>
      <trkpt lat="43.5269" lon="6.65356">
        <ele>209.4</ele>
        <time>2022-04-22T08:46:59Z</time>
      </trkpt>
      <trkpt lat="43.52691" lon="6.65357">
        <ele>209.5</ele>
        <time>2022-04-22T08:47:00Z</time>
      </trkpt>
      <trkpt lat="43.52692" lon="6.65358">
        <ele>209.5</ele>
        <time>2022-04-22T08:47:01Z</time>
      </trkpt>
      <trkpt lat="43.52694" lon="6.65359">
        <ele>209.5</ele>
        <time>2022-04-22T08:47:02Z</time>
      </trkpt>
      <trkpt lat="43.52695" lon="6.65359">
        <ele>209.5</ele>
        <time>2022-04-22T08:47:03Z</time>
      </trkpt>
      <trkpt lat="43.52696" lon="6.6536">
        <ele>209.5</ele>
        <time>2022-04-22T08:47:04Z</time>
      </trkpt>
      <trkpt lat="43.52698" lon="6.65361">
        <ele>209.6</ele>
        <time>2022-04-22T08:47:05Z</time>
      </trkpt>
      <trkpt lat="43.52699" lon="6.65362">
        <ele>209.6</ele>
        <time>2022-04-22T08:47:06Z</time>
      </trkpt>
      <trkpt lat="43.52701" lon="6.65363">
        <ele>209.6</ele>
        <time>2022-04-22T08:47:07Z</time>
      </trkpt>
      <trkpt lat="43.52701" lon="6.65364">
        <ele>209.6</ele>
        <time>2022-04-22T08:47:08Z</time>
      </trkpt>
      <trkpt lat="43.52702" lon="6.65365">
        <ele>209.6</ele>
        <time>2022-04-22T08:47:09Z</time>
      </trkpt>
      <trkpt lat="43.52703" lon="6.65366">
        <ele>209.6</ele>
        <time>2022-04-22T08:47:10Z</time>
      </trkpt>
      <trkpt lat="43.52704" lon="6.65367">
        <ele>209.6</ele>
        <time>2022-04-22T08:47:11Z</time>
      </trkpt>
      <trkpt lat="43.52705" lon="6.65367">
        <ele>209.6</ele>
        <time>2022-04-22T08:47:12Z</time>
      </trkpt>
      <trkpt lat="43.52707" lon="6.65369">
        <ele>209.7</ele>
        <time>2022-04-22T08:47:13Z</time>
      </trkpt>
      <trkpt lat="43.52707" lon="6.6537">
        <ele>209.7</ele>
        <time>2022-04-22T08:47:14Z</time>
      </trkpt>
      <trkpt lat="43.52708" lon="6.6537">
        <ele>209.7</ele>
        <time>2022-04-22T08:47:15Z</time>
      </trkpt>
      <trkpt lat="43.5271" lon="6.65372">
        <ele>209.7</ele>
        <time>2022-04-22T08:47:16Z</time>
      </trkpt>
      <trkpt lat="43.52711" lon="6.65373">
        <ele>209.7</ele>
        <time>2022-04-22T08:47:17Z</time>
      </trkpt>
      <trkpt lat="43.52712" lon="6.65374">
        <ele>209.7</ele>
        <time>2022-04-22T08:47:18Z</time>
      </trkpt>
      <trkpt lat="43.52713" lon="6.65375">
        <ele>209.7</ele>
        <time>2022-04-22T08:47:19Z</time>
      </trkpt>
      <trkpt lat="43.52714" lon="6.65376">
        <ele>209.7</ele>
        <time>2022-04-22T08:47:20Z</time>
      </trkpt>
      <trkpt lat="43.52716" lon="6.65377">
        <ele>209.8</ele>
        <time>2022-04-22T08:47:21Z</time>
      </trkpt>
      <trkpt lat="43.52716" lon="6.65378">
        <ele>209.8</ele>
        <time>2022-04-22T08:47:22Z</time>
      </trkpt>
      <trkpt lat="43.52717" lon="6.65378">
        <ele>209.8</ele>
        <time>2022-04-22T08:47:23Z</time>
      </trkpt>
      <trkpt lat="43.52719" lon="6.65379">
        <ele>209.8</ele>
        <time>2022-04-22T08:47:24Z</time>
      </trkpt>
      <trkpt lat="43.5272" lon="6.6538">
        <ele>209.8</ele>
        <time>2022-04-22T08:47:25Z</time>
      </trkpt>
      <trkpt lat="43.52721" lon="6.65381">
        <ele>209.8</ele>
        <time>2022-04-22T08:47:26Z</time>
      </trkpt>
      <trkpt lat="43.52722" lon="6.65382">
        <ele>209.8</ele>
        <time>2022-04-22T08:47:27Z</time>
      </trkpt>
      <trkpt lat="43.52724" lon="6.65383">
        <ele>209.8</ele>
        <time>2022-04-22T08:47:28Z</time>
      </trkpt>
      <trkpt lat="43.52725" lon="6.65383">
        <ele>209.9</ele>
        <time>2022-04-22T08:47:29Z</time>
      </trkpt>
      <trkpt lat="43.52727" lon="6.65385">
        <ele>209.9</ele>
        <time>2022-04-22T08:47:31Z</time>
      </trkpt>
      <trkpt lat="43.52729" lon="6.65386">
        <ele>209.9</ele>
        <time>2022-04-22T08:47:32Z</time>
      </trkpt>
      <trkpt lat="43.5273" lon="6.65386">
        <ele>209.9</ele>
        <time>2022-04-22T08:47:33Z</time>
      </trkpt>
      <trkpt lat="43.52732" lon="6.65388">
        <ele>209.9</ele>
        <time>2022-04-22T08:47:34Z</time>
      </trkpt>
      <trkpt lat="43.52733" lon="6.65389">
        <ele>209.9</ele>
        <time>2022-04-22T08:47:35Z</time>
      </trkpt>
      <trkpt lat="43.52734" lon="6.65389">
        <ele>210</ele>
        <time>2022-04-22T08:47:36Z</time>
      </trkpt>
      <trkpt lat="43.52735" lon="6.65391">
        <ele>210</ele>
        <time>2022-04-22T08:47:37Z</time>
      </trkpt>
      <trkpt lat="43.52736" lon="6.65392">
        <ele>210</ele>
        <time>2022-04-22T08:47:38Z</time>
      </trkpt>
      <trkpt lat="43.52737" lon="6.65393">
        <ele>210</ele>
        <time>2022-04-22T08:47:39Z</time>
      </trkpt>
      <trkpt lat="43.52739" lon="6.65395">
        <ele>210</ele>
        <time>2022-04-22T08:47:40Z</time>
      </trkpt>
      <trkpt lat="43.5274" lon="6.65395">
        <ele>210</ele>
        <time>2022-04-22T08:47:41Z</time>
      </trkpt>
      <trkpt lat="43.52741" lon="6.65397">
        <ele>210.1</ele>
        <time>2022-04-22T08:47:42Z</time>
      </trkpt>
      <trkpt lat="43.52743" lon="6.65398">
        <ele>210.1</ele>
        <time>2022-04-22T08:47:43Z</time>
      </trkpt>
      <trkpt lat="43.52744" lon="6.654">
        <ele>210.1</ele>
        <time>2022-04-22T08:47:44Z</time>
      </trkpt>
      <trkpt lat="43.52746" lon="6.65401">
        <ele>210.1</ele>
        <time>2022-04-22T08:47:45Z</time>
      </trkpt>
      <trkpt lat="43.52747" lon="6.65402">
        <ele>210.1</ele>
        <time>2022-04-22T08:47:46Z</time>
      </trkpt>
      <trkpt lat="43.52748" lon="6.65404">
        <ele>210.1</ele>
        <time>2022-04-22T08:47:47Z</time>
      </trkpt>
      <trkpt lat="43.5275" lon="6.65405">
        <ele>210.1</ele>
        <time>2022-04-22T08:47:48Z</time>
      </trkpt>
      <trkpt lat="43.52752" lon="6.65406">
        <ele>210.1</ele>
        <time>2022-04-22T08:47:50Z</time>
      </trkpt>
      <trkpt lat="43.52753" lon="6.65407">
        <ele>210.1</ele>
        <time>2022-04-22T08:47:51Z</time>
      </trkpt>
      <trkpt lat="43.52755" lon="6.65409">
        <ele>210.1</ele>
        <time>2022-04-22T08:47:52Z</time>
      </trkpt>
      <trkpt lat="43.52758" lon="6.6541">
        <ele>210.1</ele>
        <time>2022-04-22T08:47:53Z</time>
      </trkpt>
      <trkpt lat="43.52759" lon="6.65411">
        <ele>210.1</ele>
        <time>2022-04-22T08:47:54Z</time>
      </trkpt>
      <trkpt lat="43.52762" lon="6.65413">
        <ele>210</ele>
        <time>2022-04-22T08:47:55Z</time>
      </trkpt>
      <trkpt lat="43.52763" lon="6.65413">
        <ele>210</ele>
        <time>2022-04-22T08:47:56Z</time>
      </trkpt>
      <trkpt lat="43.52765" lon="6.65414">
        <ele>210</ele>
        <time>2022-04-22T08:47:57Z</time>
      </trkpt>
      <trkpt lat="43.52766" lon="6.65415">
        <ele>210</ele>
        <time>2022-04-22T08:47:59Z</time>
      </trkpt>
      <trkpt lat="43.52768" lon="6.65416">
        <ele>210</ele>
        <time>2022-04-22T08:48:00Z</time>
      </trkpt>
      <trkpt lat="43.52769" lon="6.65417">
        <ele>210</ele>
        <time>2022-04-22T08:48:01Z</time>
      </trkpt>
      <trkpt lat="43.52771" lon="6.65418">
        <ele>209.9</ele>
        <time>2022-04-22T08:48:02Z</time>
      </trkpt>
      <trkpt lat="43.52772" lon="6.6542">
        <ele>209.9</ele>
        <time>2022-04-22T08:48:03Z</time>
      </trkpt>
      <trkpt lat="43.52773" lon="6.65421">
        <ele>209.9</ele>
        <time>2022-04-22T08:48:04Z</time>
      </trkpt>
      <trkpt lat="43.52775" lon="6.65422">
        <ele>209.9</ele>
        <time>2022-04-22T08:48:05Z</time>
      </trkpt>
      <trkpt lat="43.52776" lon="6.65424">
        <ele>209.9</ele>
        <time>2022-04-22T08:48:06Z</time>
      </trkpt>
      <trkpt lat="43.52777" lon="6.65425">
        <ele>209.9</ele>
        <time>2022-04-22T08:48:07Z</time>
      </trkpt>
      <trkpt lat="43.52779" lon="6.65426">
        <ele>209.9</ele>
        <time>2022-04-22T08:48:08Z</time>
      </trkpt>
      <trkpt lat="43.5278" lon="6.65427">
        <ele>209.9</ele>
        <time>2022-04-22T08:48:09Z</time>
      </trkpt>
      <trkpt lat="43.52781" lon="6.65428">
        <ele>209.9</ele>
        <time>2022-04-22T08:48:10Z</time>
      </trkpt>
      <trkpt lat="43.52782" lon="6.65429">
        <ele>209.9</ele>
        <time>2022-04-22T08:48:11Z</time>
      </trkpt>
      <trkpt lat="43.52784" lon="6.6543">
        <ele>209.9</ele>
        <time>2022-04-22T08:48:13Z</time>
      </trkpt>
      <trkpt lat="43.52785" lon="6.65432">
        <ele>209.9</ele>
        <time>2022-04-22T08:48:14Z</time>
      </trkpt>
      <trkpt lat="43.52787" lon="6.65435">
        <ele>209.8</ele>
        <time>2022-04-22T08:48:15Z</time>
      </trkpt>
      <trkpt lat="43.52788" lon="6.65435">
        <ele>209.8</ele>
        <time>2022-04-22T08:48:16Z</time>
      </trkpt>
      <trkpt lat="43.52789" lon="6.65436">
        <ele>209.8</ele>
        <time>2022-04-22T08:48:17Z</time>
      </trkpt>
      <trkpt lat="43.5279" lon="6.65437">
        <ele>209.8</ele>
        <time>2022-04-22T08:48:18Z</time>
      </trkpt>
      <trkpt lat="43.52792" lon="6.65438">
        <ele>209.8</ele>
        <time>2022-04-22T08:48:19Z</time>
      </trkpt>
      <trkpt lat="43.52793" lon="6.6544">
        <ele>209.8</ele>
        <time>2022-04-22T08:48:20Z</time>
      </trkpt>
      <trkpt lat="43.52794" lon="6.6544">
        <ele>209.9</ele>
        <time>2022-04-22T08:48:21Z</time>
      </trkpt>
      <trkpt lat="43.52796" lon="6.65441">
        <ele>209.9</ele>
        <time>2022-04-22T08:48:23Z</time>
      </trkpt>
      <trkpt lat="43.52798" lon="6.65441">
        <ele>209.9</ele>
        <time>2022-04-22T08:48:24Z</time>
      </trkpt>
      <trkpt lat="43.52799" lon="6.65442">
        <ele>209.9</ele>
        <time>2022-04-22T08:48:25Z</time>
      </trkpt>
      <trkpt lat="43.52799" lon="6.65442">
        <ele>209.9</ele>
        <time>2022-04-22T08:48:26Z</time>
      </trkpt>
      <trkpt lat="43.52802" lon="6.65443">
        <ele>209.9</ele>
        <time>2022-04-22T08:48:27Z</time>
      </trkpt>
      <trkpt lat="43.52802" lon="6.65443">
        <ele>210</ele>
        <time>2022-04-22T08:48:28Z</time>
      </trkpt>
      <trkpt lat="43.52803" lon="6.65444">
        <ele>210</ele>
        <time>2022-04-22T08:48:29Z</time>
      </trkpt>
      <trkpt lat="43.52804" lon="6.65445">
        <ele>210</ele>
        <time>2022-04-22T08:48:30Z</time>
      </trkpt>
      <trkpt lat="43.52806" lon="6.65446">
        <ele>210</ele>
        <time>2022-04-22T08:48:32Z</time>
      </trkpt>
      <trkpt lat="43.52807" lon="6.65447">
        <ele>210</ele>
        <time>2022-04-22T08:48:33Z</time>
      </trkpt>
      <trkpt lat="43.52809" lon="6.65448">
        <ele>210.2</ele>
        <time>2022-04-22T08:48:34Z</time>
      </trkpt>
      <trkpt lat="43.5281" lon="6.65448">
        <ele>210.4</ele>
        <time>2022-04-22T08:48:35Z</time>
      </trkpt>
      <trkpt lat="43.52811" lon="6.65448">
        <ele>210.5</ele>
        <time>2022-04-22T08:48:36Z</time>
      </trkpt>
      <trkpt lat="43.52812" lon="6.65448">
        <ele>210.6</ele>
        <time>2022-04-22T08:48:37Z</time>
      </trkpt>
      <trkpt lat="43.52812" lon="6.65446">
        <ele>210.8</ele>
        <time>2022-04-22T08:48:38Z</time>
      </trkpt>
      <trkpt lat="43.52811" lon="6.65446">
        <ele>210.9</ele>
        <time>2022-04-22T08:48:39Z</time>
      </trkpt>
      <trkpt lat="43.52811" lon="6.65445">
        <ele>211</ele>
        <time>2022-04-22T08:48:40Z</time>
      </trkpt>
      <trkpt lat="43.5281" lon="6.65444">
        <ele>211.1</ele>
        <time>2022-04-22T08:48:41Z</time>
      </trkpt>
      <trkpt lat="43.52808" lon="6.65443">
        <ele>211.3</ele>
        <time>2022-04-22T08:48:43Z</time>
      </trkpt>
      <trkpt lat="43.52807" lon="6.65443">
        <ele>211.5</ele>
        <time>2022-04-22T08:48:44Z</time>
      </trkpt>
      <trkpt lat="43.52806" lon="6.65443">
        <ele>211.7</ele>
        <time>2022-04-22T08:48:45Z</time>
      </trkpt>
      <trkpt lat="43.52805" lon="6.65443">
        <ele>211.8</ele>
        <time>2022-04-22T08:48:46Z</time>
      </trkpt>
      <trkpt lat="43.52804" lon="6.65442">
        <ele>211.9</ele>
        <time>2022-04-22T08:48:47Z</time>
      </trkpt>
      <trkpt lat="43.52804" lon="6.65441">
        <ele>212</ele>
        <time>2022-04-22T08:48:48Z</time>
      </trkpt>
      <trkpt lat="43.52804" lon="6.6544">
        <ele>212.2</ele>
        <time>2022-04-22T08:48:49Z</time>
      </trkpt>
      <trkpt lat="43.52804" lon="6.65438">
        <ele>212.3</ele>
        <time>2022-04-22T08:48:50Z</time>
      </trkpt>
      <trkpt lat="43.52803" lon="6.65436">
        <ele>212.5</ele>
        <time>2022-04-22T08:48:51Z</time>
      </trkpt>
      <trkpt lat="43.52803" lon="6.65434">
        <ele>212.8</ele>
        <time>2022-04-22T08:48:52Z</time>
      </trkpt>
      <trkpt lat="43.52802" lon="6.65431">
        <ele>213.2</ele>
        <time>2022-04-22T08:48:54Z</time>
      </trkpt>
      <trkpt lat="43.52802" lon="6.6543">
        <ele>213.4</ele>
        <time>2022-04-22T08:48:55Z</time>
      </trkpt>
      <trkpt lat="43.52802" lon="6.65429">
        <ele>213.5</ele>
        <time>2022-04-22T08:48:56Z</time>
      </trkpt>
      <trkpt lat="43.52801" lon="6.65427">
        <ele>213.7</ele>
        <time>2022-04-22T08:48:57Z</time>
      </trkpt>
      <trkpt lat="43.52801" lon="6.65425">
        <ele>214</ele>
        <time>2022-04-22T08:48:58Z</time>
      </trkpt>
      <trkpt lat="43.528" lon="6.65423">
        <ele>214.2</ele>
        <time>2022-04-22T08:48:59Z</time>
      </trkpt>
      <trkpt lat="43.528" lon="6.65421">
        <ele>214.5</ele>
        <time>2022-04-22T08:49:00Z</time>
      </trkpt>
      <trkpt lat="43.528" lon="6.65419">
        <ele>214.8</ele>
        <time>2022-04-22T08:49:02Z</time>
      </trkpt>
      <trkpt lat="43.52799" lon="6.65416">
        <ele>215.1</ele>
        <time>2022-04-22T08:49:03Z</time>
      </trkpt>
      <trkpt lat="43.52799" lon="6.65414">
        <ele>215.4</ele>
        <time>2022-04-22T08:49:04Z</time>
      </trkpt>
      <trkpt lat="43.52799" lon="6.65412">
        <ele>215.7</ele>
        <time>2022-04-22T08:49:05Z</time>
      </trkpt>
      <trkpt lat="43.52798" lon="6.6541">
        <ele>215.9</ele>
        <time>2022-04-22T08:49:06Z</time>
      </trkpt>
      <trkpt lat="43.52797" lon="6.65408">
        <ele>216.2</ele>
        <time>2022-04-22T08:49:07Z</time>
      </trkpt>
      <trkpt lat="43.52797" lon="6.65405">
        <ele>216.6</ele>
        <time>2022-04-22T08:49:09Z</time>
      </trkpt>
      <trkpt lat="43.52797" lon="6.65403">
        <ele>216.8</ele>
        <time>2022-04-22T08:49:11Z</time>
      </trkpt>
      <trkpt lat="43.52797" lon="6.65402">
        <ele>216.9</ele>
        <time>2022-04-22T08:49:12Z</time>
      </trkpt>
      <trkpt lat="43.52798" lon="6.65401">
        <ele>217</ele>
        <time>2022-04-22T08:49:13Z</time>
      </trkpt>
      <trkpt lat="43.52798" lon="6.654">
        <ele>217.1</ele>
        <time>2022-04-22T08:49:14Z</time>
      </trkpt>
      <trkpt lat="43.52798" lon="6.654">
        <ele>217.2</ele>
        <time>2022-04-22T08:49:15Z</time>
      </trkpt>
      <trkpt lat="43.52798" lon="6.65399">
        <ele>217.3</ele>
        <time>2022-04-22T08:49:16Z</time>
      </trkpt>
      <trkpt lat="43.52798" lon="6.65399">
        <ele>217.3</ele>
        <time>2022-04-22T08:49:17Z</time>
      </trkpt>
      <trkpt lat="43.52797" lon="6.65398">
        <ele>217.4</ele>
        <time>2022-04-22T08:49:18Z</time>
      </trkpt>
      <trkpt lat="43.52797" lon="6.65397">
        <ele>217.5</ele>
        <time>2022-04-22T08:49:19Z</time>
      </trkpt>
      <trkpt lat="43.52796" lon="6.65396">
        <ele>217.6</ele>
        <time>2022-04-22T08:49:20Z</time>
      </trkpt>
      <trkpt lat="43.52796" lon="6.65395">
        <ele>217.7</ele>
        <time>2022-04-22T08:49:22Z</time>
      </trkpt>
      <trkpt lat="43.52796" lon="6.65393">
        <ele>217.9</ele>
        <time>2022-04-22T08:49:23Z</time>
      </trkpt>
      <trkpt lat="43.52796" lon="6.65392">
        <ele>218</ele>
        <time>2022-04-22T08:49:24Z</time>
      </trkpt>
      <trkpt lat="43.52795" lon="6.6539">
        <ele>218.2</ele>
        <time>2022-04-22T08:49:26Z</time>
      </trkpt>
      <trkpt lat="43.52795" lon="6.65388">
        <ele>218.3</ele>
        <time>2022-04-22T08:49:27Z</time>
      </trkpt>
      <trkpt lat="43.52795" lon="6.65387">
        <ele>218.4</ele>
        <time>2022-04-22T08:49:28Z</time>
      </trkpt>
      <trkpt lat="43.52794" lon="6.65386">
        <ele>218.5</ele>
        <time>2022-04-22T08:49:29Z</time>
      </trkpt>
      <trkpt lat="43.52794" lon="6.65385">
        <ele>218.6</ele>
        <time>2022-04-22T08:49:30Z</time>
      </trkpt>
      <trkpt lat="43.52794" lon="6.65383">
        <ele>218.7</ele>
        <time>2022-04-22T08:49:31Z</time>
      </trkpt>
      <trkpt lat="43.52795" lon="6.65381">
        <ele>218.8</ele>
        <time>2022-04-22T08:49:33Z</time>
      </trkpt>
      <trkpt lat="43.52796" lon="6.65381">
        <ele>218.9</ele>
        <time>2022-04-22T08:49:34Z</time>
      </trkpt>
      <trkpt lat="43.52796" lon="6.6538">
        <ele>218.9</ele>
        <time>2022-04-22T08:49:35Z</time>
      </trkpt>
      <trkpt lat="43.52796" lon="6.65379">
        <ele>219</ele>
        <time>2022-04-22T08:49:36Z</time>
      </trkpt>
      <trkpt lat="43.52796" lon="6.65378">
        <ele>219</ele>
        <time>2022-04-22T08:49:37Z</time>
      </trkpt>
      <trkpt lat="43.52795" lon="6.65377">
        <ele>219.1</ele>
        <time>2022-04-22T08:49:38Z</time>
      </trkpt>
      <trkpt lat="43.52795" lon="6.65375">
        <ele>219.2</ele>
        <time>2022-04-22T08:49:39Z</time>
      </trkpt>
      <trkpt lat="43.52794" lon="6.65372">
        <ele>219.3</ele>
        <time>2022-04-22T08:49:41Z</time>
      </trkpt>
      <trkpt lat="43.52793" lon="6.6537">
        <ele>219.3</ele>
        <time>2022-04-22T08:49:42Z</time>
      </trkpt>
      <trkpt lat="43.52792" lon="6.65369">
        <ele>219.4</ele>
        <time>2022-04-22T08:49:43Z</time>
      </trkpt>
      <trkpt lat="43.52792" lon="6.65368">
        <ele>219.4</ele>
        <time>2022-04-22T08:49:44Z</time>
      </trkpt>
      <trkpt lat="43.5279" lon="6.65366">
        <ele>219.4</ele>
        <time>2022-04-22T08:49:45Z</time>
      </trkpt>
      <trkpt lat="43.52789" lon="6.65365">
        <ele>219.4</ele>
        <time>2022-04-22T08:49:46Z</time>
      </trkpt>
      <trkpt lat="43.52788" lon="6.65364">
        <ele>219.4</ele>
        <time>2022-04-22T08:49:48Z</time>
      </trkpt>
      <trkpt lat="43.52787" lon="6.65363">
        <ele>219.4</ele>
        <time>2022-04-22T08:49:49Z</time>
      </trkpt>
      <trkpt lat="43.52786" lon="6.65362">
        <ele>219.4</ele>
        <time>2022-04-22T08:49:50Z</time>
      </trkpt>
      <trkpt lat="43.52784" lon="6.65361">
        <ele>219.5</ele>
        <time>2022-04-22T08:49:51Z</time>
      </trkpt>
      <trkpt lat="43.52783" lon="6.65359">
        <ele>219.5</ele>
        <time>2022-04-22T08:49:53Z</time>
      </trkpt>
      <trkpt lat="43.52781" lon="6.65356">
        <ele>219.5</ele>
        <time>2022-04-22T08:49:54Z</time>
      </trkpt>
      <trkpt lat="43.52781" lon="6.65355">
        <ele>219.5</ele>
        <time>2022-04-22T08:49:55Z</time>
      </trkpt>
      <trkpt lat="43.5278" lon="6.65354">
        <ele>219.5</ele>
        <time>2022-04-22T08:49:56Z</time>
      </trkpt>
      <trkpt lat="43.52779" lon="6.65353">
        <ele>219.5</ele>
        <time>2022-04-22T08:49:57Z</time>
      </trkpt>
      <trkpt lat="43.52778" lon="6.65347">
        <ele>219.5</ele>
        <time>2022-04-22T08:50:00Z</time>
      </trkpt>
      <trkpt lat="43.52778" lon="6.65343">
        <ele>219.8</ele>
        <time>2022-04-22T08:50:02Z</time>
      </trkpt>
      <trkpt lat="43.52779" lon="6.65341">
        <ele>220</ele>
        <time>2022-04-22T08:50:03Z</time>
      </trkpt>
      <trkpt lat="43.52779" lon="6.65338">
        <ele>220.2</ele>
        <time>2022-04-22T08:50:04Z</time>
      </trkpt>
      <trkpt lat="43.52779" lon="6.65336">
        <ele>220.3</ele>
        <time>2022-04-22T08:50:05Z</time>
      </trkpt>
      <trkpt lat="43.5278" lon="6.65335">
        <ele>220.5</ele>
        <time>2022-04-22T08:50:06Z</time>
      </trkpt>
      <trkpt lat="43.52782" lon="6.65333">
        <ele>220.7</ele>
        <time>2022-04-22T08:50:08Z</time>
      </trkpt>
      <trkpt lat="43.52783" lon="6.65332">
        <ele>220.9</ele>
        <time>2022-04-22T08:50:09Z</time>
      </trkpt>
      <trkpt lat="43.52784" lon="6.65331">
        <ele>221</ele>
        <time>2022-04-22T08:50:10Z</time>
      </trkpt>
      <trkpt lat="43.52784" lon="6.65331">
        <ele>221.1</ele>
        <time>2022-04-22T08:50:11Z</time>
      </trkpt>
      <trkpt lat="43.52785" lon="6.6533">
        <ele>221.2</ele>
        <time>2022-04-22T08:50:12Z</time>
      </trkpt>
      <trkpt lat="43.52786" lon="6.65328">
        <ele>221.3</ele>
        <time>2022-04-22T08:50:13Z</time>
      </trkpt>
      <trkpt lat="43.52786" lon="6.65327">
        <ele>221.5</ele>
        <time>2022-04-22T08:50:14Z</time>
      </trkpt>
      <trkpt lat="43.52787" lon="6.65326">
        <ele>221.7</ele>
        <time>2022-04-22T08:50:16Z</time>
      </trkpt>
      <trkpt lat="43.52788" lon="6.65324">
        <ele>221.9</ele>
        <time>2022-04-22T08:50:17Z</time>
      </trkpt>
      <trkpt lat="43.52789" lon="6.65323">
        <ele>222</ele>
        <time>2022-04-22T08:50:18Z</time>
      </trkpt>
      <trkpt lat="43.5279" lon="6.65322">
        <ele>222.2</ele>
        <time>2022-04-22T08:50:19Z</time>
      </trkpt>
      <trkpt lat="43.52791" lon="6.65321">
        <ele>222.3</ele>
        <time>2022-04-22T08:50:20Z</time>
      </trkpt>
      <trkpt lat="43.52791" lon="6.65319">
        <ele>222.5</ele>
        <time>2022-04-22T08:50:21Z</time>
      </trkpt>
      <trkpt lat="43.52792" lon="6.65317">
        <ele>222.7</ele>
        <time>2022-04-22T08:50:23Z</time>
      </trkpt>
      <trkpt lat="43.52793" lon="6.65316">
        <ele>222.8</ele>
        <time>2022-04-22T08:50:24Z</time>
      </trkpt>
      <trkpt lat="43.52794" lon="6.65315">
        <ele>223.1</ele>
        <time>2022-04-22T08:50:25Z</time>
      </trkpt>
      <trkpt lat="43.52794" lon="6.65314">
        <ele>223.2</ele>
        <time>2022-04-22T08:50:26Z</time>
      </trkpt>
      <trkpt lat="43.52795" lon="6.65314">
        <ele>223.2</ele>
        <time>2022-04-22T08:50:27Z</time>
      </trkpt>
      <trkpt lat="43.52797" lon="6.65311">
        <ele>223.7</ele>
        <time>2022-04-22T08:50:29Z</time>
      </trkpt>
      <trkpt lat="43.52797" lon="6.6531">
        <ele>223.8</ele>
        <time>2022-04-22T08:50:30Z</time>
      </trkpt>
      <trkpt lat="43.52798" lon="6.65309">
        <ele>224</ele>
        <time>2022-04-22T08:50:31Z</time>
      </trkpt>
      <trkpt lat="43.52799" lon="6.65307">
        <ele>224.1</ele>
        <time>2022-04-22T08:50:32Z</time>
      </trkpt>
      <trkpt lat="43.52799" lon="6.65307">
        <ele>224.2</ele>
        <time>2022-04-22T08:50:33Z</time>
      </trkpt>
      <trkpt lat="43.52801" lon="6.65304">
        <ele>224.5</ele>
        <time>2022-04-22T08:50:34Z</time>
      </trkpt>
      <trkpt lat="43.52801" lon="6.65304">
        <ele>224.6</ele>
        <time>2022-04-22T08:50:35Z</time>
      </trkpt>
      <trkpt lat="43.52801" lon="6.65303">
        <ele>224.7</ele>
        <time>2022-04-22T08:50:36Z</time>
      </trkpt>
      <trkpt lat="43.52803" lon="6.653">
        <ele>225</ele>
        <time>2022-04-22T08:50:37Z</time>
      </trkpt>
      <trkpt lat="43.52803" lon="6.65299">
        <ele>225.1</ele>
        <time>2022-04-22T08:50:38Z</time>
      </trkpt>
      <trkpt lat="43.52804" lon="6.65298">
        <ele>225.3</ele>
        <time>2022-04-22T08:50:39Z</time>
      </trkpt>
      <trkpt lat="43.52806" lon="6.65296">
        <ele>225.6</ele>
        <time>2022-04-22T08:50:41Z</time>
      </trkpt>
      <trkpt lat="43.52807" lon="6.65295">
        <ele>225.8</ele>
        <time>2022-04-22T08:50:42Z</time>
      </trkpt>
      <trkpt lat="43.52808" lon="6.65293">
        <ele>226</ele>
        <time>2022-04-22T08:50:43Z</time>
      </trkpt>
      <trkpt lat="43.52809" lon="6.65292">
        <ele>226.2</ele>
        <time>2022-04-22T08:50:44Z</time>
      </trkpt>
      <trkpt lat="43.5281" lon="6.65291">
        <ele>226.4</ele>
        <time>2022-04-22T08:50:45Z</time>
      </trkpt>
      <trkpt lat="43.52812" lon="6.65289">
        <ele>226.7</ele>
        <time>2022-04-22T08:50:47Z</time>
      </trkpt>
      <trkpt lat="43.52814" lon="6.65288">
        <ele>226.9</ele>
        <time>2022-04-22T08:50:48Z</time>
      </trkpt>
      <trkpt lat="43.52815" lon="6.65287">
        <ele>227.1</ele>
        <time>2022-04-22T08:50:49Z</time>
      </trkpt>
      <trkpt lat="43.52817" lon="6.65285">
        <ele>227.3</ele>
        <time>2022-04-22T08:50:50Z</time>
      </trkpt>
      <trkpt lat="43.52818" lon="6.65285">
        <ele>227.5</ele>
        <time>2022-04-22T08:50:51Z</time>
      </trkpt>
      <trkpt lat="43.52819" lon="6.65283">
        <ele>227.7</ele>
        <time>2022-04-22T08:50:52Z</time>
      </trkpt>
      <trkpt lat="43.52821" lon="6.65282">
        <ele>227.9</ele>
        <time>2022-04-22T08:50:53Z</time>
      </trkpt>
      <trkpt lat="43.52823" lon="6.6528">
        <ele>228.2</ele>
        <time>2022-04-22T08:50:54Z</time>
      </trkpt>
      <trkpt lat="43.52823" lon="6.65279">
        <ele>228.3</ele>
        <time>2022-04-22T08:50:56Z</time>
      </trkpt>
      <trkpt lat="43.52824" lon="6.65278">
        <ele>228.5</ele>
        <time>2022-04-22T08:50:57Z</time>
      </trkpt>
      <trkpt lat="43.52825" lon="6.65277">
        <ele>228.6</ele>
        <time>2022-04-22T08:50:58Z</time>
      </trkpt>
      <trkpt lat="43.52826" lon="6.65276">
        <ele>228.7</ele>
        <time>2022-04-22T08:50:59Z</time>
      </trkpt>
      <trkpt lat="43.52827" lon="6.65274">
        <ele>229</ele>
        <time>2022-04-22T08:51:00Z</time>
      </trkpt>
      <trkpt lat="43.52827" lon="6.65273">
        <ele>229.1</ele>
        <time>2022-04-22T08:51:01Z</time>
      </trkpt>
      <trkpt lat="43.52828" lon="6.65272">
        <ele>229.2</ele>
        <time>2022-04-22T08:51:02Z</time>
      </trkpt>
      <trkpt lat="43.52829" lon="6.6527">
        <ele>229.4</ele>
        <time>2022-04-22T08:51:03Z</time>
      </trkpt>
      <trkpt lat="43.5283" lon="6.65267">
        <ele>229.7</ele>
        <time>2022-04-22T08:51:05Z</time>
      </trkpt>
      <trkpt lat="43.5283" lon="6.65266">
        <ele>229.8</ele>
        <time>2022-04-22T08:51:06Z</time>
      </trkpt>
      <trkpt lat="43.52831" lon="6.65264">
        <ele>230</ele>
        <time>2022-04-22T08:51:07Z</time>
      </trkpt>
      <trkpt lat="43.52832" lon="6.65261">
        <ele>230.3</ele>
        <time>2022-04-22T08:51:09Z</time>
      </trkpt>
      <trkpt lat="43.52832" lon="6.65259">
        <ele>230.5</ele>
        <time>2022-04-22T08:51:10Z</time>
      </trkpt>
      <trkpt lat="43.52832" lon="6.65257">
        <ele>230.7</ele>
        <time>2022-04-22T08:51:11Z</time>
      </trkpt>
      <trkpt lat="43.52832" lon="6.65255">
        <ele>230.9</ele>
        <time>2022-04-22T08:51:12Z</time>
      </trkpt>
      <trkpt lat="43.52833" lon="6.65253">
        <ele>231</ele>
        <time>2022-04-22T08:51:13Z</time>
      </trkpt>
      <trkpt lat="43.52833" lon="6.65251">
        <ele>231.3</ele>
        <time>2022-04-22T08:51:15Z</time>
      </trkpt>
      <trkpt lat="43.52834" lon="6.65249">
        <ele>231.5</ele>
        <time>2022-04-22T08:51:16Z</time>
      </trkpt>
      <trkpt lat="43.52835" lon="6.65247">
        <ele>231.7</ele>
        <time>2022-04-22T08:51:17Z</time>
      </trkpt>
      <trkpt lat="43.52836" lon="6.65246">
        <ele>231.9</ele>
        <time>2022-04-22T08:51:18Z</time>
      </trkpt>
      <trkpt lat="43.52837" lon="6.65245">
        <ele>232.1</ele>
        <time>2022-04-22T08:51:19Z</time>
      </trkpt>
      <trkpt lat="43.52837" lon="6.65244">
        <ele>232.2</ele>
        <time>2022-04-22T08:51:21Z</time>
      </trkpt>
      <trkpt lat="43.52838" lon="6.65242">
        <ele>232.4</ele>
        <time>2022-04-22T08:51:22Z</time>
      </trkpt>
      <trkpt lat="43.52839" lon="6.65241">
        <ele>232.6</ele>
        <time>2022-04-22T08:51:23Z</time>
      </trkpt>
      <trkpt lat="43.52839" lon="6.65239">
        <ele>232.8</ele>
        <time>2022-04-22T08:51:24Z</time>
      </trkpt>
      <trkpt lat="43.5284" lon="6.65238">
        <ele>233</ele>
        <time>2022-04-22T08:51:25Z</time>
      </trkpt>
      <trkpt lat="43.5284" lon="6.65235">
        <ele>233.2</ele>
        <time>2022-04-22T08:51:26Z</time>
      </trkpt>
      <trkpt lat="43.52841" lon="6.65234">
        <ele>233.4</ele>
        <time>2022-04-22T08:51:27Z</time>
      </trkpt>
      <trkpt lat="43.52841" lon="6.65233">
        <ele>233.5</ele>
        <time>2022-04-22T08:51:28Z</time>
      </trkpt>
      <trkpt lat="43.52841" lon="6.65232">
        <ele>233.6</ele>
        <time>2022-04-22T08:51:29Z</time>
      </trkpt>
      <trkpt lat="43.52841" lon="6.65231">
        <ele>233.7</ele>
        <time>2022-04-22T08:51:30Z</time>
      </trkpt>
      <trkpt lat="43.52842" lon="6.65229">
        <ele>234</ele>
        <time>2022-04-22T08:51:32Z</time>
      </trkpt>
      <trkpt lat="43.52842" lon="6.65227">
        <ele>234.1</ele>
        <time>2022-04-22T08:51:33Z</time>
      </trkpt>
      <trkpt lat="43.52842" lon="6.65226">
        <ele>234.3</ele>
        <time>2022-04-22T08:51:34Z</time>
      </trkpt>
      <trkpt lat="43.52843" lon="6.65224">
        <ele>234.5</ele>
        <time>2022-04-22T08:51:35Z</time>
      </trkpt>
      <trkpt lat="43.52843" lon="6.65224">
        <ele>234.6</ele>
        <time>2022-04-22T08:51:36Z</time>
      </trkpt>
      <trkpt lat="43.52845" lon="6.65223">
        <ele>234.8</ele>
        <time>2022-04-22T08:51:38Z</time>
      </trkpt>
      <trkpt lat="43.52845" lon="6.65222">
        <ele>234.9</ele>
        <time>2022-04-22T08:51:39Z</time>
      </trkpt>
      <trkpt lat="43.52847" lon="6.65222">
        <ele>235.1</ele>
        <time>2022-04-22T08:51:40Z</time>
      </trkpt>
      <trkpt lat="43.52848" lon="6.65221">
        <ele>235.4</ele>
        <time>2022-04-22T08:51:42Z</time>
      </trkpt>
      <trkpt lat="43.52849" lon="6.6522">
        <ele>235.5</ele>
        <time>2022-04-22T08:51:43Z</time>
      </trkpt>
      <trkpt lat="43.52851" lon="6.65218">
        <ele>235.9</ele>
        <time>2022-04-22T08:51:44Z</time>
      </trkpt>
      <trkpt lat="43.52852" lon="6.65217">
        <ele>236</ele>
        <time>2022-04-22T08:51:45Z</time>
      </trkpt>
      <trkpt lat="43.52854" lon="6.65216">
        <ele>236.2</ele>
        <time>2022-04-22T08:51:46Z</time>
      </trkpt>
      <trkpt lat="43.52855" lon="6.65215">
        <ele>236.3</ele>
        <time>2022-04-22T08:51:47Z</time>
      </trkpt>
      <trkpt lat="43.52857" lon="6.65214">
        <ele>236.5</ele>
        <time>2022-04-22T08:51:48Z</time>
      </trkpt>
      <trkpt lat="43.52859" lon="6.65213">
        <ele>236.6</ele>
        <time>2022-04-22T08:51:50Z</time>
      </trkpt>
      <trkpt lat="43.52862" lon="6.65212">
        <ele>236.9</ele>
        <time>2022-04-22T08:51:52Z</time>
      </trkpt>
      <trkpt lat="43.52863" lon="6.65212">
        <ele>237</ele>
        <time>2022-04-22T08:51:53Z</time>
      </trkpt>
      <trkpt lat="43.52866" lon="6.65211">
        <ele>237.2</ele>
        <time>2022-04-22T08:51:54Z</time>
      </trkpt>
      <trkpt lat="43.52868" lon="6.65211">
        <ele>237.3</ele>
        <time>2022-04-22T08:51:55Z</time>
      </trkpt>
      <trkpt lat="43.5287" lon="6.65211">
        <ele>237.5</ele>
        <time>2022-04-22T08:51:56Z</time>
      </trkpt>
      <trkpt lat="43.52872" lon="6.65211">
        <ele>237.7</ele>
        <time>2022-04-22T08:51:58Z</time>
      </trkpt>
      <trkpt lat="43.52873" lon="6.6521">
        <ele>237.8</ele>
        <time>2022-04-22T08:51:59Z</time>
      </trkpt>
      <trkpt lat="43.52875" lon="6.65209">
        <ele>237.9</ele>
        <time>2022-04-22T08:52:00Z</time>
      </trkpt>
      <trkpt lat="43.52876" lon="6.65208">
        <ele>238.1</ele>
        <time>2022-04-22T08:52:01Z</time>
      </trkpt>
      <trkpt lat="43.52878" lon="6.65208">
        <ele>238.2</ele>
        <time>2022-04-22T08:52:02Z</time>
      </trkpt>
      <trkpt lat="43.5288" lon="6.65206">
        <ele>238.5</ele>
        <time>2022-04-22T08:52:04Z</time>
      </trkpt>
      <trkpt lat="43.52881" lon="6.65206">
        <ele>238.6</ele>
        <time>2022-04-22T08:52:05Z</time>
      </trkpt>
      <trkpt lat="43.52883" lon="6.65205">
        <ele>238.8</ele>
        <time>2022-04-22T08:52:06Z</time>
      </trkpt>
      <trkpt lat="43.52885" lon="6.65203">
        <ele>239</ele>
        <time>2022-04-22T08:52:07Z</time>
      </trkpt>
      <trkpt lat="43.52886" lon="6.65203">
        <ele>239.1</ele>
        <time>2022-04-22T08:52:08Z</time>
      </trkpt>
      <trkpt lat="43.52888" lon="6.65199">
        <ele>239.5</ele>
        <time>2022-04-22T08:52:10Z</time>
      </trkpt>
      <trkpt lat="43.52888" lon="6.65198">
        <ele>239.6</ele>
        <time>2022-04-22T08:52:11Z</time>
      </trkpt>
      <trkpt lat="43.52889" lon="6.65196">
        <ele>239.7</ele>
        <time>2022-04-22T08:52:12Z</time>
      </trkpt>
      <trkpt lat="43.52889" lon="6.65195">
        <ele>239.8</ele>
        <time>2022-04-22T08:52:13Z</time>
      </trkpt>
      <trkpt lat="43.52888" lon="6.65194">
        <ele>239.9</ele>
        <time>2022-04-22T08:52:15Z</time>
      </trkpt>
      <trkpt lat="43.52888" lon="6.65193">
        <ele>240</ele>
        <time>2022-04-22T08:52:16Z</time>
      </trkpt>
      <trkpt lat="43.52888" lon="6.65192">
        <ele>240.1</ele>
        <time>2022-04-22T08:52:17Z</time>
      </trkpt>
      <trkpt lat="43.52888" lon="6.65191">
        <ele>240.2</ele>
        <time>2022-04-22T08:52:18Z</time>
      </trkpt>
      <trkpt lat="43.52888" lon="6.6519">
        <ele>240.3</ele>
        <time>2022-04-22T08:52:19Z</time>
      </trkpt>
      <trkpt lat="43.52888" lon="6.65189">
        <ele>240.4</ele>
        <time>2022-04-22T08:52:20Z</time>
      </trkpt>
      <trkpt lat="43.52889" lon="6.65188">
        <ele>240.4</ele>
        <time>2022-04-22T08:52:21Z</time>
      </trkpt>
      <trkpt lat="43.52889" lon="6.65188">
        <ele>240.5</ele>
        <time>2022-04-22T08:52:22Z</time>
      </trkpt>
      <trkpt lat="43.52889" lon="6.65187">
        <ele>240.6</ele>
        <time>2022-04-22T08:52:24Z</time>
      </trkpt>
      <trkpt lat="43.5289" lon="6.65185">
        <ele>240.7</ele>
        <time>2022-04-22T08:52:25Z</time>
      </trkpt>
      <trkpt lat="43.5289" lon="6.65184">
        <ele>240.9</ele>
        <time>2022-04-22T08:52:26Z</time>
      </trkpt>
      <trkpt lat="43.52892" lon="6.65181">
        <ele>241.1</ele>
        <time>2022-04-22T08:52:27Z</time>
      </trkpt>
      <trkpt lat="43.52892" lon="6.6518">
        <ele>241.2</ele>
        <time>2022-04-22T08:52:28Z</time>
      </trkpt>
      <trkpt lat="43.52893" lon="6.65179">
        <ele>241.3</ele>
        <time>2022-04-22T08:52:29Z</time>
      </trkpt>
      <trkpt lat="43.52893" lon="6.65178">
        <ele>241.4</ele>
        <time>2022-04-22T08:52:30Z</time>
      </trkpt>
      <trkpt lat="43.52894" lon="6.65176">
        <ele>241.6</ele>
        <time>2022-04-22T08:52:31Z</time>
      </trkpt>
      <trkpt lat="43.52895" lon="6.65174">
        <ele>241.8</ele>
        <time>2022-04-22T08:52:33Z</time>
      </trkpt>
      <trkpt lat="43.52895" lon="6.65172">
        <ele>241.9</ele>
        <time>2022-04-22T08:52:34Z</time>
      </trkpt>
      <trkpt lat="43.52896" lon="6.6517">
        <ele>242.1</ele>
        <time>2022-04-22T08:52:35Z</time>
      </trkpt>
      <trkpt lat="43.52897" lon="6.65169">
        <ele>242.2</ele>
        <time>2022-04-22T08:52:36Z</time>
      </trkpt>
      <trkpt lat="43.52897" lon="6.65168">
        <ele>242.3</ele>
        <time>2022-04-22T08:52:37Z</time>
      </trkpt>
      <trkpt lat="43.52898" lon="6.65166">
        <ele>242.4</ele>
        <time>2022-04-22T08:52:38Z</time>
      </trkpt>
      <trkpt lat="43.52898" lon="6.65165">
        <ele>242.5</ele>
        <time>2022-04-22T08:52:39Z</time>
      </trkpt>
      <trkpt lat="43.52899" lon="6.65162">
        <ele>242.7</ele>
        <time>2022-04-22T08:52:41Z</time>
      </trkpt>
      <trkpt lat="43.52899" lon="6.65159">
        <ele>242.9</ele>
        <time>2022-04-22T08:52:42Z</time>
      </trkpt>
      <trkpt lat="43.529" lon="6.65157">
        <ele>243.1</ele>
        <time>2022-04-22T08:52:43Z</time>
      </trkpt>
      <trkpt lat="43.529" lon="6.65154">
        <ele>243.3</ele>
        <time>2022-04-22T08:52:44Z</time>
      </trkpt>
      <trkpt lat="43.529" lon="6.65153">
        <ele>243.4</ele>
        <time>2022-04-22T08:52:46Z</time>
      </trkpt>
      <trkpt lat="43.529" lon="6.65151">
        <ele>243.6</ele>
        <time>2022-04-22T08:52:47Z</time>
      </trkpt>
      <trkpt lat="43.52899" lon="6.65148">
        <ele>243.7</ele>
        <time>2022-04-22T08:52:48Z</time>
      </trkpt>
      <trkpt lat="43.529" lon="6.65146">
        <ele>244</ele>
        <time>2022-04-22T08:52:49Z</time>
      </trkpt>
      <trkpt lat="43.529" lon="6.65144">
        <ele>244.1</ele>
        <time>2022-04-22T08:52:50Z</time>
      </trkpt>
      <trkpt lat="43.529" lon="6.65142">
        <ele>244.3</ele>
        <time>2022-04-22T08:52:51Z</time>
      </trkpt>
      <trkpt lat="43.529" lon="6.6514">
        <ele>244.5</ele>
        <time>2022-04-22T08:52:52Z</time>
      </trkpt>
      <trkpt lat="43.529" lon="6.65137">
        <ele>244.8</ele>
        <time>2022-04-22T08:52:53Z</time>
      </trkpt>
      <trkpt lat="43.52901" lon="6.65136">
        <ele>244.9</ele>
        <time>2022-04-22T08:52:55Z</time>
      </trkpt>
      <trkpt lat="43.52901" lon="6.65135">
        <ele>245</ele>
        <time>2022-04-22T08:52:56Z</time>
      </trkpt>
      <trkpt lat="43.529" lon="6.65132">
        <ele>245.3</ele>
        <time>2022-04-22T08:52:57Z</time>
      </trkpt>
      <trkpt lat="43.529" lon="6.65131">
        <ele>245.4</ele>
        <time>2022-04-22T08:52:58Z</time>
      </trkpt>
      <trkpt lat="43.529" lon="6.6513">
        <ele>245.6</ele>
        <time>2022-04-22T08:52:59Z</time>
      </trkpt>
      <trkpt lat="43.529" lon="6.65129">
        <ele>245.7</ele>
        <time>2022-04-22T08:53:00Z</time>
      </trkpt>
      <trkpt lat="43.52899" lon="6.65127">
        <ele>245.8</ele>
        <time>2022-04-22T08:53:01Z</time>
      </trkpt>
      <trkpt lat="43.529" lon="6.65125">
        <ele>246</ele>
        <time>2022-04-22T08:53:02Z</time>
      </trkpt>
      <trkpt lat="43.529" lon="6.65124">
        <ele>246.2</ele>
        <time>2022-04-22T08:53:03Z</time>
      </trkpt>
      <trkpt lat="43.529" lon="6.65122">
        <ele>246.4</ele>
        <time>2022-04-22T08:53:04Z</time>
      </trkpt>
      <trkpt lat="43.529" lon="6.6512">
        <ele>246.6</ele>
        <time>2022-04-22T08:53:06Z</time>
      </trkpt>
      <trkpt lat="43.52899" lon="6.65117">
        <ele>246.9</ele>
        <time>2022-04-22T08:53:07Z</time>
      </trkpt>
      <trkpt lat="43.52899" lon="6.65116">
        <ele>247.1</ele>
        <time>2022-04-22T08:53:08Z</time>
      </trkpt>
      <trkpt lat="43.52898" lon="6.65115">
        <ele>247.2</ele>
        <time>2022-04-22T08:53:09Z</time>
      </trkpt>
      <trkpt lat="43.52898" lon="6.65112">
        <ele>247.5</ele>
        <time>2022-04-22T08:53:10Z</time>
      </trkpt>
      <trkpt lat="43.52897" lon="6.65111">
        <ele>247.6</ele>
        <time>2022-04-22T08:53:11Z</time>
      </trkpt>
      <trkpt lat="43.52897" lon="6.6511">
        <ele>247.7</ele>
        <time>2022-04-22T08:53:12Z</time>
      </trkpt>
      <trkpt lat="43.52897" lon="6.65109">
        <ele>247.9</ele>
        <time>2022-04-22T08:53:13Z</time>
      </trkpt>
      <trkpt lat="43.52896" lon="6.65107">
        <ele>248.1</ele>
        <time>2022-04-22T08:53:14Z</time>
      </trkpt>
      <trkpt lat="43.52896" lon="6.65105">
        <ele>248.3</ele>
        <time>2022-04-22T08:53:16Z</time>
      </trkpt>
      <trkpt lat="43.52896" lon="6.65104">
        <ele>248.5</ele>
        <time>2022-04-22T08:53:17Z</time>
      </trkpt>
      <trkpt lat="43.52897" lon="6.65102">
        <ele>248.7</ele>
        <time>2022-04-22T08:53:18Z</time>
      </trkpt>
      <trkpt lat="43.52898" lon="6.65101">
        <ele>248.8</ele>
        <time>2022-04-22T08:53:19Z</time>
      </trkpt>
      <trkpt lat="43.52898" lon="6.651">
        <ele>249</ele>
        <time>2022-04-22T08:53:20Z</time>
      </trkpt>
      <trkpt lat="43.52899" lon="6.65099">
        <ele>249.2</ele>
        <time>2022-04-22T08:53:22Z</time>
      </trkpt>
      <trkpt lat="43.529" lon="6.65097">
        <ele>249.4</ele>
        <time>2022-04-22T08:53:23Z</time>
      </trkpt>
      <trkpt lat="43.52901" lon="6.65096">
        <ele>249.6</ele>
        <time>2022-04-22T08:53:25Z</time>
      </trkpt>
      <trkpt lat="43.52901" lon="6.65094">
        <ele>249.8</ele>
        <time>2022-04-22T08:53:26Z</time>
      </trkpt>
      <trkpt lat="43.52901" lon="6.65093">
        <ele>249.9</ele>
        <time>2022-04-22T08:53:27Z</time>
      </trkpt>
      <trkpt lat="43.52901" lon="6.65092">
        <ele>250.1</ele>
        <time>2022-04-22T08:53:28Z</time>
      </trkpt>
      <trkpt lat="43.52901" lon="6.65091">
        <ele>250.2</ele>
        <time>2022-04-22T08:53:29Z</time>
      </trkpt>
      <trkpt lat="43.52902" lon="6.6509">
        <ele>250.2</ele>
        <time>2022-04-22T08:53:30Z</time>
      </trkpt>
      <trkpt lat="43.52902" lon="6.6509">
        <ele>250.3</ele>
        <time>2022-04-22T08:53:31Z</time>
      </trkpt>
      <trkpt lat="43.52902" lon="6.65088">
        <ele>250.6</ele>
        <time>2022-04-22T08:53:33Z</time>
      </trkpt>
      <trkpt lat="43.52902" lon="6.65085">
        <ele>250.8</ele>
        <time>2022-04-22T08:53:34Z</time>
      </trkpt>
      <trkpt lat="43.52902" lon="6.65085">
        <ele>250.9</ele>
        <time>2022-04-22T08:53:35Z</time>
      </trkpt>
      <trkpt lat="43.52902" lon="6.65084">
        <ele>251</ele>
        <time>2022-04-22T08:53:36Z</time>
      </trkpt>
      <trkpt lat="43.52902" lon="6.65084">
        <ele>251.1</ele>
        <time>2022-04-22T08:53:37Z</time>
      </trkpt>
      <trkpt lat="43.52902" lon="6.65083">
        <ele>251.3</ele>
        <time>2022-04-22T08:53:38Z</time>
      </trkpt>
      <trkpt lat="43.52902" lon="6.65081">
        <ele>251.4</ele>
        <time>2022-04-22T08:53:39Z</time>
      </trkpt>
      <trkpt lat="43.52902" lon="6.6508">
        <ele>251.6</ele>
        <time>2022-04-22T08:53:40Z</time>
      </trkpt>
      <trkpt lat="43.52902" lon="6.65077">
        <ele>251.9</ele>
        <time>2022-04-22T08:53:42Z</time>
      </trkpt>
      <trkpt lat="43.52902" lon="6.65076">
        <ele>252.1</ele>
        <time>2022-04-22T08:53:43Z</time>
      </trkpt>
      <trkpt lat="43.52902" lon="6.65074">
        <ele>252.2</ele>
        <time>2022-04-22T08:53:44Z</time>
      </trkpt>
      <trkpt lat="43.52902" lon="6.65072">
        <ele>252.5</ele>
        <time>2022-04-22T08:53:46Z</time>
      </trkpt>
      <trkpt lat="43.52902" lon="6.6507">
        <ele>252.7</ele>
        <time>2022-04-22T08:53:47Z</time>
      </trkpt>
      <trkpt lat="43.52902" lon="6.65068">
        <ele>252.9</ele>
        <time>2022-04-22T08:53:48Z</time>
      </trkpt>
      <trkpt lat="43.52901" lon="6.65067">
        <ele>253</ele>
        <time>2022-04-22T08:53:49Z</time>
      </trkpt>
      <trkpt lat="43.52901" lon="6.65066">
        <ele>253.2</ele>
        <time>2022-04-22T08:53:50Z</time>
      </trkpt>
      <trkpt lat="43.52901" lon="6.65064">
        <ele>253.4</ele>
        <time>2022-04-22T08:53:52Z</time>
      </trkpt>
      <trkpt lat="43.529" lon="6.65062">
        <ele>253.6</ele>
        <time>2022-04-22T08:53:53Z</time>
      </trkpt>
      <trkpt lat="43.529" lon="6.65061">
        <ele>253.7</ele>
        <time>2022-04-22T08:53:54Z</time>
      </trkpt>
      <trkpt lat="43.529" lon="6.6506">
        <ele>253.8</ele>
        <time>2022-04-22T08:53:55Z</time>
      </trkpt>
      <trkpt lat="43.52898" lon="6.65058">
        <ele>254.2</ele>
        <time>2022-04-22T08:53:57Z</time>
      </trkpt>
      <trkpt lat="43.52896" lon="6.65056">
        <ele>254.6</ele>
        <time>2022-04-22T08:53:58Z</time>
      </trkpt>
      <trkpt lat="43.52895" lon="6.65055">
        <ele>254.7</ele>
        <time>2022-04-22T08:53:59Z</time>
      </trkpt>
      <trkpt lat="43.52894" lon="6.65053">
        <ele>255</ele>
        <time>2022-04-22T08:54:00Z</time>
      </trkpt>
      <trkpt lat="43.52893" lon="6.65052">
        <ele>255.2</ele>
        <time>2022-04-22T08:54:01Z</time>
      </trkpt>
      <trkpt lat="43.52892" lon="6.65051">
        <ele>255.4</ele>
        <time>2022-04-22T08:54:03Z</time>
      </trkpt>
      <trkpt lat="43.52891" lon="6.6505">
        <ele>255.6</ele>
        <time>2022-04-22T08:54:04Z</time>
      </trkpt>
      <trkpt lat="43.5289" lon="6.6505">
        <ele>255.7</ele>
        <time>2022-04-22T08:54:05Z</time>
      </trkpt>
      <trkpt lat="43.52889" lon="6.6505">
        <ele>255.9</ele>
        <time>2022-04-22T08:54:06Z</time>
      </trkpt>
      <trkpt lat="43.52888" lon="6.65049">
        <ele>256</ele>
        <time>2022-04-22T08:54:07Z</time>
      </trkpt>
      <trkpt lat="43.52886" lon="6.65047">
        <ele>256.3</ele>
        <time>2022-04-22T08:54:08Z</time>
      </trkpt>
      <trkpt lat="43.52885" lon="6.65047">
        <ele>256.4</ele>
        <time>2022-04-22T08:54:09Z</time>
      </trkpt>
      <trkpt lat="43.52884" lon="6.65047">
        <ele>256.6</ele>
        <time>2022-04-22T08:54:10Z</time>
      </trkpt>
      <trkpt lat="43.52883" lon="6.65046">
        <ele>256.8</ele>
        <time>2022-04-22T08:54:11Z</time>
      </trkpt>
      <trkpt lat="43.52882" lon="6.65046">
        <ele>257</ele>
        <time>2022-04-22T08:54:13Z</time>
      </trkpt>
      <trkpt lat="43.5288" lon="6.65045">
        <ele>257.3</ele>
        <time>2022-04-22T08:54:14Z</time>
      </trkpt>
      <trkpt lat="43.52879" lon="6.65044">
        <ele>257.4</ele>
        <time>2022-04-22T08:54:15Z</time>
      </trkpt>
      <trkpt lat="43.52878" lon="6.65043">
        <ele>257.7</ele>
        <time>2022-04-22T08:54:16Z</time>
      </trkpt>
      <trkpt lat="43.52877" lon="6.65042">
        <ele>257.8</ele>
        <time>2022-04-22T08:54:17Z</time>
      </trkpt>
      <trkpt lat="43.52876" lon="6.65042">
        <ele>257.9</ele>
        <time>2022-04-22T08:54:19Z</time>
      </trkpt>
      <trkpt lat="43.52875" lon="6.65042">
        <ele>258</ele>
        <time>2022-04-22T08:54:20Z</time>
      </trkpt>
      <trkpt lat="43.52874" lon="6.65042">
        <ele>258.2</ele>
        <time>2022-04-22T08:54:21Z</time>
      </trkpt>
      <trkpt lat="43.52873" lon="6.65041">
        <ele>258.3</ele>
        <time>2022-04-22T08:54:23Z</time>
      </trkpt>
      <trkpt lat="43.52873" lon="6.65041">
        <ele>258.4</ele>
        <time>2022-04-22T08:54:24Z</time>
      </trkpt>
      <trkpt lat="43.52871" lon="6.6504">
        <ele>258.6</ele>
        <time>2022-04-22T08:54:25Z</time>
      </trkpt>
      <trkpt lat="43.5287" lon="6.6504">
        <ele>258.8</ele>
        <time>2022-04-22T08:54:26Z</time>
      </trkpt>
      <trkpt lat="43.52867" lon="6.65039">
        <ele>259.2</ele>
        <time>2022-04-22T08:54:27Z</time>
      </trkpt>
      <trkpt lat="43.52865" lon="6.65038">
        <ele>259.4</ele>
        <time>2022-04-22T08:54:29Z</time>
      </trkpt>
      <trkpt lat="43.52864" lon="6.65038">
        <ele>259.7</ele>
        <time>2022-04-22T08:54:30Z</time>
      </trkpt>
      <trkpt lat="43.52862" lon="6.65037">
        <ele>259.9</ele>
        <time>2022-04-22T08:54:31Z</time>
      </trkpt>
      <trkpt lat="43.52861" lon="6.65037">
        <ele>260.1</ele>
        <time>2022-04-22T08:54:32Z</time>
      </trkpt>
      <trkpt lat="43.52859" lon="6.65037">
        <ele>260.3</ele>
        <time>2022-04-22T08:54:33Z</time>
      </trkpt>
      <trkpt lat="43.52857" lon="6.65036">
        <ele>260.7</ele>
        <time>2022-04-22T08:54:34Z</time>
      </trkpt>
      <trkpt lat="43.52854" lon="6.65036">
        <ele>261</ele>
        <time>2022-04-22T08:54:36Z</time>
      </trkpt>
      <trkpt lat="43.52853" lon="6.65036">
        <ele>261.2</ele>
        <time>2022-04-22T08:54:37Z</time>
      </trkpt>
      <trkpt lat="43.52851" lon="6.65036">
        <ele>261.4</ele>
        <time>2022-04-22T08:54:38Z</time>
      </trkpt>
      <trkpt lat="43.52849" lon="6.65036">
        <ele>261.7</ele>
        <time>2022-04-22T08:54:39Z</time>
      </trkpt>
      <trkpt lat="43.52848" lon="6.65035">
        <ele>262</ele>
        <time>2022-04-22T08:54:40Z</time>
      </trkpt>
      <trkpt lat="43.52847" lon="6.65035">
        <ele>262.1</ele>
        <time>2022-04-22T08:54:41Z</time>
      </trkpt>
      <trkpt lat="43.52846" lon="6.65035">
        <ele>262.2</ele>
        <time>2022-04-22T08:54:42Z</time>
      </trkpt>
      <trkpt lat="43.52845" lon="6.65034">
        <ele>262.4</ele>
        <time>2022-04-22T08:54:43Z</time>
      </trkpt>
      <trkpt lat="43.52844" lon="6.65033">
        <ele>262.6</ele>
        <time>2022-04-22T08:54:45Z</time>
      </trkpt>
      <trkpt lat="43.52843" lon="6.65033">
        <ele>262.7</ele>
        <time>2022-04-22T08:54:46Z</time>
      </trkpt>
      <trkpt lat="43.52842" lon="6.65032">
        <ele>262.9</ele>
        <time>2022-04-22T08:54:47Z</time>
      </trkpt>
      <trkpt lat="43.52841" lon="6.65031">
        <ele>263.1</ele>
        <time>2022-04-22T08:54:48Z</time>
      </trkpt>
      <trkpt lat="43.52839" lon="6.65031">
        <ele>263.3</ele>
        <time>2022-04-22T08:54:49Z</time>
      </trkpt>
      <trkpt lat="43.52838" lon="6.6503">
        <ele>263.4</ele>
        <time>2022-04-22T08:54:50Z</time>
      </trkpt>
      <trkpt lat="43.52837" lon="6.65029">
        <ele>263.6</ele>
        <time>2022-04-22T08:54:51Z</time>
      </trkpt>
      <trkpt lat="43.52836" lon="6.65029">
        <ele>263.7</ele>
        <time>2022-04-22T08:54:52Z</time>
      </trkpt>
      <trkpt lat="43.52835" lon="6.65029">
        <ele>263.9</ele>
        <time>2022-04-22T08:54:54Z</time>
      </trkpt>
      <trkpt lat="43.52833" lon="6.65028">
        <ele>264.1</ele>
        <time>2022-04-22T08:54:55Z</time>
      </trkpt>
      <trkpt lat="43.52832" lon="6.65027">
        <ele>264.2</ele>
        <time>2022-04-22T08:54:56Z</time>
      </trkpt>
      <trkpt lat="43.52831" lon="6.65026">
        <ele>264.4</ele>
        <time>2022-04-22T08:54:57Z</time>
      </trkpt>
      <trkpt lat="43.52829" lon="6.65026">
        <ele>264.6</ele>
        <time>2022-04-22T08:54:58Z</time>
      </trkpt>
      <trkpt lat="43.52828" lon="6.65025">
        <ele>264.9</ele>
        <time>2022-04-22T08:55:00Z</time>
      </trkpt>
      <trkpt lat="43.52826" lon="6.65024">
        <ele>265</ele>
        <time>2022-04-22T08:55:01Z</time>
      </trkpt>
      <trkpt lat="43.52825" lon="6.65023">
        <ele>265.3</ele>
        <time>2022-04-22T08:55:02Z</time>
      </trkpt>
      <trkpt lat="43.52823" lon="6.65023">
        <ele>265.5</ele>
        <time>2022-04-22T08:55:03Z</time>
      </trkpt>
      <trkpt lat="43.52822" lon="6.65023">
        <ele>265.7</ele>
        <time>2022-04-22T08:55:04Z</time>
      </trkpt>
      <trkpt lat="43.5282" lon="6.65023">
        <ele>266</ele>
        <time>2022-04-22T08:55:06Z</time>
      </trkpt>
      <trkpt lat="43.52819" lon="6.65022">
        <ele>266.2</ele>
        <time>2022-04-22T08:55:07Z</time>
      </trkpt>
      <trkpt lat="43.52818" lon="6.65022">
        <ele>266.4</ele>
        <time>2022-04-22T08:55:08Z</time>
      </trkpt>
      <trkpt lat="43.52817" lon="6.65022">
        <ele>266.5</ele>
        <time>2022-04-22T08:55:09Z</time>
      </trkpt>
      <trkpt lat="43.52816" lon="6.65022">
        <ele>266.6</ele>
        <time>2022-04-22T08:55:10Z</time>
      </trkpt>
      <trkpt lat="43.52816" lon="6.65022">
        <ele>266.7</ele>
        <time>2022-04-22T08:55:11Z</time>
      </trkpt>
      <trkpt lat="43.52815" lon="6.65022">
        <ele>266.8</ele>
        <time>2022-04-22T08:55:12Z</time>
      </trkpt>
      <trkpt lat="43.52814" lon="6.65022">
        <ele>266.9</ele>
        <time>2022-04-22T08:55:13Z</time>
      </trkpt>
      <trkpt lat="43.52814" lon="6.65022">
        <ele>267.1</ele>
        <time>2022-04-22T08:55:14Z</time>
      </trkpt>
      <trkpt lat="43.52813" lon="6.65021">
        <ele>267.2</ele>
        <time>2022-04-22T08:55:15Z</time>
      </trkpt>
      <trkpt lat="43.52811" lon="6.65021">
        <ele>267.5</ele>
        <time>2022-04-22T08:55:17Z</time>
      </trkpt>
      <trkpt lat="43.5281" lon="6.65021">
        <ele>267.6</ele>
        <time>2022-04-22T08:55:18Z</time>
      </trkpt>
      <trkpt lat="43.52809" lon="6.6502">
        <ele>267.9</ele>
        <time>2022-04-22T08:55:19Z</time>
      </trkpt>
      <trkpt lat="43.52808" lon="6.6502">
        <ele>268.1</ele>
        <time>2022-04-22T08:55:21Z</time>
      </trkpt>
      <trkpt lat="43.52807" lon="6.65019">
        <ele>268.2</ele>
        <time>2022-04-22T08:55:22Z</time>
      </trkpt>
      <trkpt lat="43.52806" lon="6.65019">
        <ele>268.4</ele>
        <time>2022-04-22T08:55:23Z</time>
      </trkpt>
      <trkpt lat="43.52805" lon="6.65018">
        <ele>268.7</ele>
        <time>2022-04-22T08:55:24Z</time>
      </trkpt>
      <trkpt lat="43.52804" lon="6.65017">
        <ele>268.8</ele>
        <time>2022-04-22T08:55:25Z</time>
      </trkpt>
      <trkpt lat="43.52803" lon="6.65016">
        <ele>269</ele>
        <time>2022-04-22T08:55:26Z</time>
      </trkpt>
      <trkpt lat="43.52803" lon="6.65015">
        <ele>269.2</ele>
        <time>2022-04-22T08:55:27Z</time>
      </trkpt>
      <trkpt lat="43.52802" lon="6.65015">
        <ele>269.3</ele>
        <time>2022-04-22T08:55:28Z</time>
      </trkpt>
      <trkpt lat="43.528" lon="6.65015">
        <ele>269.5</ele>
        <time>2022-04-22T08:55:29Z</time>
      </trkpt>
      <trkpt lat="43.52799" lon="6.65014">
        <ele>269.7</ele>
        <time>2022-04-22T08:55:30Z</time>
      </trkpt>
      <trkpt lat="43.52798" lon="6.65014">
        <ele>269.9</ele>
        <time>2022-04-22T08:55:31Z</time>
      </trkpt>
      <trkpt lat="43.52796" lon="6.65013">
        <ele>270.2</ele>
        <time>2022-04-22T08:55:32Z</time>
      </trkpt>
      <trkpt lat="43.52795" lon="6.65013">
        <ele>270.4</ele>
        <time>2022-04-22T08:55:33Z</time>
      </trkpt>
      <trkpt lat="43.52793" lon="6.65012">
        <ele>270.7</ele>
        <time>2022-04-22T08:55:34Z</time>
      </trkpt>
      <trkpt lat="43.52792" lon="6.65011">
        <ele>271</ele>
        <time>2022-04-22T08:55:35Z</time>
      </trkpt>
      <trkpt lat="43.52788" lon="6.65009">
        <ele>271.7</ele>
        <time>2022-04-22T08:55:37Z</time>
      </trkpt>
      <trkpt lat="43.52787" lon="6.65009">
        <ele>271.8</ele>
        <time>2022-04-22T08:55:38Z</time>
      </trkpt>
      <trkpt lat="43.52787" lon="6.65008">
        <ele>271.9</ele>
        <time>2022-04-22T08:55:39Z</time>
      </trkpt>
      <trkpt lat="43.52786" lon="6.65007">
        <ele>272.1</ele>
        <time>2022-04-22T08:55:40Z</time>
      </trkpt>
      <trkpt lat="43.52786" lon="6.65006">
        <ele>272.3</ele>
        <time>2022-04-22T08:55:41Z</time>
      </trkpt>
      <trkpt lat="43.52785" lon="6.65005">
        <ele>272.5</ele>
        <time>2022-04-22T08:55:42Z</time>
      </trkpt>
      <trkpt lat="43.52784" lon="6.65004">
        <ele>272.7</ele>
        <time>2022-04-22T08:55:44Z</time>
      </trkpt>
      <trkpt lat="43.52783" lon="6.65003">
        <ele>272.9</ele>
        <time>2022-04-22T08:55:45Z</time>
      </trkpt>
      <trkpt lat="43.52782" lon="6.65002">
        <ele>273.1</ele>
        <time>2022-04-22T08:55:46Z</time>
      </trkpt>
      <trkpt lat="43.52781" lon="6.65001">
        <ele>273.3</ele>
        <time>2022-04-22T08:55:47Z</time>
      </trkpt>
      <trkpt lat="43.52779" lon="6.65">
        <ele>273.6</ele>
        <time>2022-04-22T08:55:49Z</time>
      </trkpt>
      <trkpt lat="43.52778" lon="6.64999">
        <ele>273.8</ele>
        <time>2022-04-22T08:55:50Z</time>
      </trkpt>
      <trkpt lat="43.52777" lon="6.64998">
        <ele>274</ele>
        <time>2022-04-22T08:55:51Z</time>
      </trkpt>
      <trkpt lat="43.52776" lon="6.64998">
        <ele>274.1</ele>
        <time>2022-04-22T08:55:52Z</time>
      </trkpt>
      <trkpt lat="43.52775" lon="6.64998">
        <ele>274.3</ele>
        <time>2022-04-22T08:55:53Z</time>
      </trkpt>
      <trkpt lat="43.52774" lon="6.64997">
        <ele>274.5</ele>
        <time>2022-04-22T08:55:54Z</time>
      </trkpt>
      <trkpt lat="43.52772" lon="6.64997">
        <ele>274.7</ele>
        <time>2022-04-22T08:55:56Z</time>
      </trkpt>
      <trkpt lat="43.52772" lon="6.64998">
        <ele>274.8</ele>
        <time>2022-04-22T08:55:57Z</time>
      </trkpt>
      <trkpt lat="43.5277" lon="6.64998">
        <ele>275</ele>
        <time>2022-04-22T08:55:58Z</time>
      </trkpt>
      <trkpt lat="43.52769" lon="6.64998">
        <ele>275.1</ele>
        <time>2022-04-22T08:55:59Z</time>
      </trkpt>
      <trkpt lat="43.52768" lon="6.64998">
        <ele>275.3</ele>
        <time>2022-04-22T08:56:00Z</time>
      </trkpt>
      <trkpt lat="43.52766" lon="6.64999">
        <ele>275.5</ele>
        <time>2022-04-22T08:56:01Z</time>
      </trkpt>
      <trkpt lat="43.52763" lon="6.65">
        <ele>275.7</ele>
        <time>2022-04-22T08:56:03Z</time>
      </trkpt>
      <trkpt lat="43.52762" lon="6.65001">
        <ele>275.9</ele>
        <time>2022-04-22T08:56:04Z</time>
      </trkpt>
      <trkpt lat="43.52761" lon="6.65002">
        <ele>276</ele>
        <time>2022-04-22T08:56:05Z</time>
      </trkpt>
      <trkpt lat="43.5276" lon="6.65002">
        <ele>276.2</ele>
        <time>2022-04-22T08:56:06Z</time>
      </trkpt>
      <trkpt lat="43.52758" lon="6.65003">
        <ele>276.4</ele>
        <time>2022-04-22T08:56:07Z</time>
      </trkpt>
      <trkpt lat="43.52756" lon="6.65004">
        <ele>276.7</ele>
        <time>2022-04-22T08:56:08Z</time>
      </trkpt>
      <trkpt lat="43.52755" lon="6.65004">
        <ele>276.9</ele>
        <time>2022-04-22T08:56:10Z</time>
      </trkpt>
      <trkpt lat="43.52754" lon="6.65005">
        <ele>277.1</ele>
        <time>2022-04-22T08:56:11Z</time>
      </trkpt>
      <trkpt lat="43.52753" lon="6.65004">
        <ele>277.2</ele>
        <time>2022-04-22T08:56:12Z</time>
      </trkpt>
      <trkpt lat="43.52751" lon="6.65004">
        <ele>277.4</ele>
        <time>2022-04-22T08:56:13Z</time>
      </trkpt>
      <trkpt lat="43.5275" lon="6.65004">
        <ele>277.6</ele>
        <time>2022-04-22T08:56:14Z</time>
      </trkpt>
      <trkpt lat="43.5275" lon="6.65004">
        <ele>277.8</ele>
        <time>2022-04-22T08:56:15Z</time>
      </trkpt>
      <trkpt lat="43.52748" lon="6.65005">
        <ele>277.9</ele>
        <time>2022-04-22T08:56:16Z</time>
      </trkpt>
      <trkpt lat="43.52748" lon="6.65005">
        <ele>278.1</ele>
        <time>2022-04-22T08:56:17Z</time>
      </trkpt>
      <trkpt lat="43.52747" lon="6.65005">
        <ele>278.3</ele>
        <time>2022-04-22T08:56:18Z</time>
      </trkpt>
      <trkpt lat="43.52746" lon="6.65006">
        <ele>278.5</ele>
        <time>2022-04-22T08:56:19Z</time>
      </trkpt>
      <trkpt lat="43.52744" lon="6.65006">
        <ele>278.7</ele>
        <time>2022-04-22T08:56:20Z</time>
      </trkpt>
      <trkpt lat="43.52742" lon="6.65006">
        <ele>279.2</ele>
        <time>2022-04-22T08:56:22Z</time>
      </trkpt>
      <trkpt lat="43.52741" lon="6.65007">
        <ele>279.3</ele>
        <time>2022-04-22T08:56:23Z</time>
      </trkpt>
      <trkpt lat="43.52741" lon="6.65007">
        <ele>279.4</ele>
        <time>2022-04-22T08:56:24Z</time>
      </trkpt>
      <trkpt lat="43.5274" lon="6.65007">
        <ele>279.6</ele>
        <time>2022-04-22T08:56:25Z</time>
      </trkpt>
      <trkpt lat="43.52739" lon="6.65008">
        <ele>279.8</ele>
        <time>2022-04-22T08:56:26Z</time>
      </trkpt>
      <trkpt lat="43.52737" lon="6.65008">
        <ele>280</ele>
        <time>2022-04-22T08:56:28Z</time>
      </trkpt>
      <trkpt lat="43.52736" lon="6.65008">
        <ele>280.2</ele>
        <time>2022-04-22T08:56:29Z</time>
      </trkpt>
      <trkpt lat="43.52735" lon="6.65008">
        <ele>280.4</ele>
        <time>2022-04-22T08:56:30Z</time>
      </trkpt>
      <trkpt lat="43.52734" lon="6.65008">
        <ele>280.6</ele>
        <time>2022-04-22T08:56:31Z</time>
      </trkpt>
      <trkpt lat="43.52733" lon="6.65008">
        <ele>280.8</ele>
        <time>2022-04-22T08:56:32Z</time>
      </trkpt>
      <trkpt lat="43.52732" lon="6.65009">
        <ele>280.9</ele>
        <time>2022-04-22T08:56:33Z</time>
      </trkpt>
      <trkpt lat="43.52731" lon="6.65008">
        <ele>281.1</ele>
        <time>2022-04-22T08:56:34Z</time>
      </trkpt>
      <trkpt lat="43.52728" lon="6.65007">
        <ele>281.6</ele>
        <time>2022-04-22T08:56:36Z</time>
      </trkpt>
      <trkpt lat="43.52728" lon="6.65006">
        <ele>281.8</ele>
        <time>2022-04-22T08:56:37Z</time>
      </trkpt>
      <trkpt lat="43.52726" lon="6.65003">
        <ele>282.1</ele>
        <time>2022-04-22T08:56:38Z</time>
      </trkpt>
      <trkpt lat="43.52726" lon="6.65002">
        <ele>282.3</ele>
        <time>2022-04-22T08:56:39Z</time>
      </trkpt>
      <trkpt lat="43.52726" lon="6.65001">
        <ele>282.4</ele>
        <time>2022-04-22T08:56:40Z</time>
      </trkpt>
      <trkpt lat="43.52726" lon="6.64998">
        <ele>282.8</ele>
        <time>2022-04-22T08:56:42Z</time>
      </trkpt>
      <trkpt lat="43.52726" lon="6.64996">
        <ele>283</ele>
        <time>2022-04-22T08:56:43Z</time>
      </trkpt>
      <trkpt lat="43.52726" lon="6.64994">
        <ele>283.1</ele>
        <time>2022-04-22T08:56:44Z</time>
      </trkpt>
      <trkpt lat="43.52726" lon="6.64992">
        <ele>283.3</ele>
        <time>2022-04-22T08:56:45Z</time>
      </trkpt>
      <trkpt lat="43.52727" lon="6.64991">
        <ele>283.5</ele>
        <time>2022-04-22T08:56:46Z</time>
      </trkpt>
      <trkpt lat="43.52728" lon="6.64987">
        <ele>283.9</ele>
        <time>2022-04-22T08:56:48Z</time>
      </trkpt>
      <trkpt lat="43.52728" lon="6.64985">
        <ele>284.1</ele>
        <time>2022-04-22T08:56:50Z</time>
      </trkpt>
      <trkpt lat="43.52729" lon="6.64983">
        <ele>284.3</ele>
        <time>2022-04-22T08:56:51Z</time>
      </trkpt>
      <trkpt lat="43.52729" lon="6.6498">
        <ele>284.5</ele>
        <time>2022-04-22T08:56:52Z</time>
      </trkpt>
      <trkpt lat="43.52729" lon="6.64979">
        <ele>284.7</ele>
        <time>2022-04-22T08:56:53Z</time>
      </trkpt>
      <trkpt lat="43.52729" lon="6.64977">
        <ele>284.8</ele>
        <time>2022-04-22T08:56:54Z</time>
      </trkpt>
      <trkpt lat="43.52728" lon="6.64975">
        <ele>285.1</ele>
        <time>2022-04-22T08:56:56Z</time>
      </trkpt>
      <trkpt lat="43.52728" lon="6.64973">
        <ele>285.2</ele>
        <time>2022-04-22T08:56:57Z</time>
      </trkpt>
      <trkpt lat="43.52727" lon="6.64972">
        <ele>285.4</ele>
        <time>2022-04-22T08:56:58Z</time>
      </trkpt>
      <trkpt lat="43.52726" lon="6.6497">
        <ele>285.6</ele>
        <time>2022-04-22T08:57:00Z</time>
      </trkpt>
      <trkpt lat="43.52725" lon="6.6497">
        <ele>285.7</ele>
        <time>2022-04-22T08:57:01Z</time>
      </trkpt>
      <trkpt lat="43.52725" lon="6.64969">
        <ele>285.8</ele>
        <time>2022-04-22T08:57:02Z</time>
      </trkpt>
      <trkpt lat="43.52724" lon="6.64969">
        <ele>286</ele>
        <time>2022-04-22T08:57:03Z</time>
      </trkpt>
      <trkpt lat="43.52722" lon="6.64968">
        <ele>286.3</ele>
        <time>2022-04-22T08:57:05Z</time>
      </trkpt>
      <trkpt lat="43.52721" lon="6.64968">
        <ele>286.4</ele>
        <time>2022-04-22T08:57:06Z</time>
      </trkpt>
      <trkpt lat="43.5272" lon="6.64968">
        <ele>286.6</ele>
        <time>2022-04-22T08:57:07Z</time>
      </trkpt>
      <trkpt lat="43.52719" lon="6.64968">
        <ele>286.7</ele>
        <time>2022-04-22T08:57:08Z</time>
      </trkpt>
      <trkpt lat="43.52718" lon="6.64968">
        <ele>287</ele>
        <time>2022-04-22T08:57:09Z</time>
      </trkpt>
      <trkpt lat="43.52717" lon="6.64968">
        <ele>287.2</ele>
        <time>2022-04-22T08:57:11Z</time>
      </trkpt>
      <trkpt lat="43.52715" lon="6.64968">
        <ele>287.4</ele>
        <time>2022-04-22T08:57:12Z</time>
      </trkpt>
      <trkpt lat="43.52714" lon="6.64968">
        <ele>287.7</ele>
        <time>2022-04-22T08:57:13Z</time>
      </trkpt>
      <trkpt lat="43.52712" lon="6.64969">
        <ele>288</ele>
        <time>2022-04-22T08:57:14Z</time>
      </trkpt>
      <trkpt lat="43.52711" lon="6.64969">
        <ele>288.2</ele>
        <time>2022-04-22T08:57:16Z</time>
      </trkpt>
      <trkpt lat="43.5271" lon="6.64969">
        <ele>288.3</ele>
        <time>2022-04-22T08:57:17Z</time>
      </trkpt>
      <trkpt lat="43.52709" lon="6.64969">
        <ele>288.6</ele>
        <time>2022-04-22T08:57:18Z</time>
      </trkpt>
      <trkpt lat="43.52707" lon="6.64969">
        <ele>288.8</ele>
        <time>2022-04-22T08:57:19Z</time>
      </trkpt>
      <trkpt lat="43.52707" lon="6.64968">
        <ele>289</ele>
        <time>2022-04-22T08:57:20Z</time>
      </trkpt>
      <trkpt lat="43.52706" lon="6.64967">
        <ele>289.1</ele>
        <time>2022-04-22T08:57:21Z</time>
      </trkpt>
      <trkpt lat="43.52706" lon="6.64966">
        <ele>289.2</ele>
        <time>2022-04-22T08:57:22Z</time>
      </trkpt>
      <trkpt lat="43.52704" lon="6.64965">
        <ele>289.6</ele>
        <time>2022-04-22T08:57:24Z</time>
      </trkpt>
      <trkpt lat="43.52704" lon="6.64965">
        <ele>289.7</ele>
        <time>2022-04-22T08:57:25Z</time>
      </trkpt>
      <trkpt lat="43.52703" lon="6.64964">
        <ele>289.8</ele>
        <time>2022-04-22T08:57:26Z</time>
      </trkpt>
      <trkpt lat="43.52703" lon="6.64964">
        <ele>290</ele>
        <time>2022-04-22T08:57:27Z</time>
      </trkpt>
      <trkpt lat="43.52702" lon="6.64963">
        <ele>290.1</ele>
        <time>2022-04-22T08:57:28Z</time>
      </trkpt>
      <trkpt lat="43.52702" lon="6.64962">
        <ele>290.3</ele>
        <time>2022-04-22T08:57:29Z</time>
      </trkpt>
      <trkpt lat="43.52701" lon="6.6496">
        <ele>290.5</ele>
        <time>2022-04-22T08:57:31Z</time>
      </trkpt>
      <trkpt lat="43.527" lon="6.64959">
        <ele>290.7</ele>
        <time>2022-04-22T08:57:32Z</time>
      </trkpt>
      <trkpt lat="43.52699" lon="6.64958">
        <ele>291</ele>
        <time>2022-04-22T08:57:33Z</time>
      </trkpt>
      <trkpt lat="43.52698" lon="6.64957">
        <ele>291.2</ele>
        <time>2022-04-22T08:57:34Z</time>
      </trkpt>
      <trkpt lat="43.52698" lon="6.64956">
        <ele>291.3</ele>
        <time>2022-04-22T08:57:35Z</time>
      </trkpt>
      <trkpt lat="43.52697" lon="6.64955">
        <ele>291.6</ele>
        <time>2022-04-22T08:57:36Z</time>
      </trkpt>
      <trkpt lat="43.52696" lon="6.64954">
        <ele>291.8</ele>
        <time>2022-04-22T08:57:37Z</time>
      </trkpt>
      <trkpt lat="43.52694" lon="6.64951">
        <ele>292.3</ele>
        <time>2022-04-22T08:57:39Z</time>
      </trkpt>
      <trkpt lat="43.52693" lon="6.6495">
        <ele>292.5</ele>
        <time>2022-04-22T08:57:40Z</time>
      </trkpt>
      <trkpt lat="43.52692" lon="6.64949">
        <ele>292.8</ele>
        <time>2022-04-22T08:57:41Z</time>
      </trkpt>
      <trkpt lat="43.52691" lon="6.64948">
        <ele>293.2</ele>
        <time>2022-04-22T08:57:42Z</time>
      </trkpt>
      <trkpt lat="43.52689" lon="6.64946">
        <ele>293.5</ele>
        <time>2022-04-22T08:57:44Z</time>
      </trkpt>
      <trkpt lat="43.52687" lon="6.64945">
        <ele>293.9</ele>
        <time>2022-04-22T08:57:45Z</time>
      </trkpt>
      <trkpt lat="43.52687" lon="6.64944">
        <ele>294.1</ele>
        <time>2022-04-22T08:57:46Z</time>
      </trkpt>
      <trkpt lat="43.52686" lon="6.64943">
        <ele>294.2</ele>
        <time>2022-04-22T08:57:47Z</time>
      </trkpt>
      <trkpt lat="43.52685" lon="6.64942">
        <ele>294.5</ele>
        <time>2022-04-22T08:57:48Z</time>
      </trkpt>
      <trkpt lat="43.52684" lon="6.6494">
        <ele>294.7</ele>
        <time>2022-04-22T08:57:50Z</time>
      </trkpt>
      <trkpt lat="43.52685" lon="6.64939">
        <ele>294.9</ele>
        <time>2022-04-22T08:57:51Z</time>
      </trkpt>
      <trkpt lat="43.52685" lon="6.64937">
        <ele>295.2</ele>
        <time>2022-04-22T08:57:52Z</time>
      </trkpt>
      <trkpt lat="43.52685" lon="6.64935">
        <ele>295.4</ele>
        <time>2022-04-22T08:57:53Z</time>
      </trkpt>
      <trkpt lat="43.52685" lon="6.64934">
        <ele>295.6</ele>
        <time>2022-04-22T08:57:54Z</time>
      </trkpt>
      <trkpt lat="43.52685" lon="6.64933">
        <ele>295.7</ele>
        <time>2022-04-22T08:57:55Z</time>
      </trkpt>
      <trkpt lat="43.52684" lon="6.64932">
        <ele>296</ele>
        <time>2022-04-22T08:57:56Z</time>
      </trkpt>
      <trkpt lat="43.52684" lon="6.64931">
        <ele>296.2</ele>
        <time>2022-04-22T08:57:58Z</time>
      </trkpt>
      <trkpt lat="43.52683" lon="6.6493">
        <ele>296.4</ele>
        <time>2022-04-22T08:57:59Z</time>
      </trkpt>
      <trkpt lat="43.52682" lon="6.6493">
        <ele>296.5</ele>
        <time>2022-04-22T08:58:00Z</time>
      </trkpt>
      <trkpt lat="43.52681" lon="6.64929">
        <ele>296.7</ele>
        <time>2022-04-22T08:58:01Z</time>
      </trkpt>
      <trkpt lat="43.5268" lon="6.64928">
        <ele>297</ele>
        <time>2022-04-22T08:58:02Z</time>
      </trkpt>
      <trkpt lat="43.52679" lon="6.64926">
        <ele>297.4</ele>
        <time>2022-04-22T08:58:04Z</time>
      </trkpt>
      <trkpt lat="43.52679" lon="6.64925">
        <ele>297.5</ele>
        <time>2022-04-22T08:58:05Z</time>
      </trkpt>
      <trkpt lat="43.52679" lon="6.64925">
        <ele>297.6</ele>
        <time>2022-04-22T08:58:06Z</time>
      </trkpt>
      <trkpt lat="43.52678" lon="6.64924">
        <ele>297.7</ele>
        <time>2022-04-22T08:58:07Z</time>
      </trkpt>
      <trkpt lat="43.52676" lon="6.64925">
        <ele>298</ele>
        <time>2022-04-22T08:58:08Z</time>
      </trkpt>
      <trkpt lat="43.52675" lon="6.64926">
        <ele>298.4</ele>
        <time>2022-04-22T08:58:10Z</time>
      </trkpt>
      <trkpt lat="43.52674" lon="6.64927">
        <ele>298.6</ele>
        <time>2022-04-22T08:58:11Z</time>
      </trkpt>
      <trkpt lat="43.52673" lon="6.64927">
        <ele>298.8</ele>
        <time>2022-04-22T08:58:12Z</time>
      </trkpt>
      <trkpt lat="43.52672" lon="6.64927">
        <ele>299</ele>
        <time>2022-04-22T08:58:13Z</time>
      </trkpt>
      <trkpt lat="43.52671" lon="6.64926">
        <ele>299.2</ele>
        <time>2022-04-22T08:58:14Z</time>
      </trkpt>
      <trkpt lat="43.52669" lon="6.64925">
        <ele>299.7</ele>
        <time>2022-04-22T08:58:16Z</time>
      </trkpt>
      <trkpt lat="43.52668" lon="6.64924">
        <ele>299.9</ele>
        <time>2022-04-22T08:58:17Z</time>
      </trkpt>
      <trkpt lat="43.52667" lon="6.64922">
        <ele>300.2</ele>
        <time>2022-04-22T08:58:18Z</time>
      </trkpt>
      <trkpt lat="43.52666" lon="6.64921">
        <ele>300.4</ele>
        <time>2022-04-22T08:58:20Z</time>
      </trkpt>
      <trkpt lat="43.52664" lon="6.6492">
        <ele>300.8</ele>
        <time>2022-04-22T08:58:21Z</time>
      </trkpt>
      <trkpt lat="43.52664" lon="6.64919">
        <ele>301</ele>
        <time>2022-04-22T08:58:22Z</time>
      </trkpt>
      <trkpt lat="43.52663" lon="6.64918">
        <ele>301.1</ele>
        <time>2022-04-22T08:58:23Z</time>
      </trkpt>
      <trkpt lat="43.52663" lon="6.64917">
        <ele>301.4</ele>
        <time>2022-04-22T08:58:24Z</time>
      </trkpt>
      <trkpt lat="43.52662" lon="6.64916">
        <ele>301.6</ele>
        <time>2022-04-22T08:58:26Z</time>
      </trkpt>
      <trkpt lat="43.52661" lon="6.64915">
        <ele>301.8</ele>
        <time>2022-04-22T08:58:27Z</time>
      </trkpt>
      <trkpt lat="43.5266" lon="6.64913">
        <ele>302</ele>
        <time>2022-04-22T08:58:28Z</time>
      </trkpt>
      <trkpt lat="43.5266" lon="6.64913">
        <ele>302.2</ele>
        <time>2022-04-22T08:58:29Z</time>
      </trkpt>
      <trkpt lat="43.52659" lon="6.64912">
        <ele>302.3</ele>
        <time>2022-04-22T08:58:30Z</time>
      </trkpt>
      <trkpt lat="43.52658" lon="6.64912">
        <ele>302.5</ele>
        <time>2022-04-22T08:58:31Z</time>
      </trkpt>
      <trkpt lat="43.52658" lon="6.64911">
        <ele>302.6</ele>
        <time>2022-04-22T08:58:32Z</time>
      </trkpt>
      <trkpt lat="43.52657" lon="6.6491">
        <ele>302.8</ele>
        <time>2022-04-22T08:58:33Z</time>
      </trkpt>
      <trkpt lat="43.52656" lon="6.6491">
        <ele>303</ele>
        <time>2022-04-22T08:58:34Z</time>
      </trkpt>
      <trkpt lat="43.52655" lon="6.64909">
        <ele>303.2</ele>
        <time>2022-04-22T08:58:36Z</time>
      </trkpt>
      <trkpt lat="43.52654" lon="6.64909">
        <ele>303.3</ele>
        <time>2022-04-22T08:58:37Z</time>
      </trkpt>
      <trkpt lat="43.52653" lon="6.64908">
        <ele>303.6</ele>
        <time>2022-04-22T08:58:38Z</time>
      </trkpt>
      <trkpt lat="43.52653" lon="6.64907">
        <ele>303.8</ele>
        <time>2022-04-22T08:58:39Z</time>
      </trkpt>
      <trkpt lat="43.52652" lon="6.64906">
        <ele>304</ele>
        <time>2022-04-22T08:58:40Z</time>
      </trkpt>
      <trkpt lat="43.52651" lon="6.64904">
        <ele>304.2</ele>
        <time>2022-04-22T08:58:42Z</time>
      </trkpt>
      <trkpt lat="43.5265" lon="6.64901">
        <ele>304.8</ele>
        <time>2022-04-22T08:58:43Z</time>
      </trkpt>
      <trkpt lat="43.5265" lon="6.64899">
        <ele>305</ele>
        <time>2022-04-22T08:58:44Z</time>
      </trkpt>
      <trkpt lat="43.5265" lon="6.64898">
        <ele>305.2</ele>
        <time>2022-04-22T08:58:45Z</time>
      </trkpt>
      <trkpt lat="43.5265" lon="6.64897">
        <ele>305.4</ele>
        <time>2022-04-22T08:58:46Z</time>
      </trkpt>
      <trkpt lat="43.52649" lon="6.64894">
        <ele>305.7</ele>
        <time>2022-04-22T08:58:47Z</time>
      </trkpt>
      <trkpt lat="43.52649" lon="6.64893">
        <ele>305.9</ele>
        <time>2022-04-22T08:58:49Z</time>
      </trkpt>
      <trkpt lat="43.5265" lon="6.64891">
        <ele>306.1</ele>
        <time>2022-04-22T08:58:50Z</time>
      </trkpt>
      <trkpt lat="43.5265" lon="6.6489">
        <ele>306.3</ele>
        <time>2022-04-22T08:58:51Z</time>
      </trkpt>
      <trkpt lat="43.5265" lon="6.64889">
        <ele>306.5</ele>
        <time>2022-04-22T08:58:52Z</time>
      </trkpt>
      <trkpt lat="43.5265" lon="6.64888">
        <ele>306.6</ele>
        <time>2022-04-22T08:58:53Z</time>
      </trkpt>
      <trkpt lat="43.5265" lon="6.64886">
        <ele>306.8</ele>
        <time>2022-04-22T08:58:54Z</time>
      </trkpt>
      <trkpt lat="43.5265" lon="6.64885">
        <ele>307</ele>
        <time>2022-04-22T08:58:56Z</time>
      </trkpt>
      <trkpt lat="43.5265" lon="6.64884">
        <ele>307.1</ele>
        <time>2022-04-22T08:58:57Z</time>
      </trkpt>
      <trkpt lat="43.5265" lon="6.64883">
        <ele>307.3</ele>
        <time>2022-04-22T08:58:58Z</time>
      </trkpt>
      <trkpt lat="43.5265" lon="6.64882">
        <ele>307.4</ele>
        <time>2022-04-22T08:58:59Z</time>
      </trkpt>
      <trkpt lat="43.5265" lon="6.64881">
        <ele>307.5</ele>
        <time>2022-04-22T08:59:00Z</time>
      </trkpt>
      <trkpt lat="43.5265" lon="6.6488">
        <ele>307.6</ele>
        <time>2022-04-22T08:59:01Z</time>
      </trkpt>
      <trkpt lat="43.5265" lon="6.64878">
        <ele>307.9</ele>
        <time>2022-04-22T08:59:03Z</time>
      </trkpt>
      <trkpt lat="43.52649" lon="6.64877">
        <ele>308.1</ele>
        <time>2022-04-22T08:59:04Z</time>
      </trkpt>
      <trkpt lat="43.5265" lon="6.64875">
        <ele>308.3</ele>
        <time>2022-04-22T08:59:05Z</time>
      </trkpt>
      <trkpt lat="43.5265" lon="6.64874">
        <ele>308.5</ele>
        <time>2022-04-22T08:59:06Z</time>
      </trkpt>
      <trkpt lat="43.52649" lon="6.64874">
        <ele>308.5</ele>
        <time>2022-04-22T08:59:07Z</time>
      </trkpt>
      <trkpt lat="43.5265" lon="6.64874">
        <ele>308.6</ele>
        <time>2022-04-22T08:59:08Z</time>
      </trkpt>
      <trkpt lat="43.5265" lon="6.64873">
        <ele>308.8</ele>
        <time>2022-04-22T08:59:09Z</time>
      </trkpt>
      <trkpt lat="43.52652" lon="6.64872">
        <ele>309.1</ele>
        <time>2022-04-22T08:59:11Z</time>
      </trkpt>
      <trkpt lat="43.52653" lon="6.64869">
        <ele>309.5</ele>
        <time>2022-04-22T08:59:12Z</time>
      </trkpt>
      <trkpt lat="43.52653" lon="6.64868">
        <ele>309.7</ele>
        <time>2022-04-22T08:59:13Z</time>
      </trkpt>
      <trkpt lat="43.52654" lon="6.64867">
        <ele>309.8</ele>
        <time>2022-04-22T08:59:14Z</time>
      </trkpt>
      <trkpt lat="43.52655" lon="6.64867">
        <ele>310</ele>
        <time>2022-04-22T08:59:15Z</time>
      </trkpt>
      <trkpt lat="43.52656" lon="6.64867">
        <ele>310.2</ele>
        <time>2022-04-22T08:59:16Z</time>
      </trkpt>
      <trkpt lat="43.52656" lon="6.64866">
        <ele>310.4</ele>
        <time>2022-04-22T08:59:17Z</time>
      </trkpt>
      <trkpt lat="43.52657" lon="6.64865">
        <ele>310.6</ele>
        <time>2022-04-22T08:59:18Z</time>
      </trkpt>
      <trkpt lat="43.52658" lon="6.64864">
        <ele>310.9</ele>
        <time>2022-04-22T08:59:19Z</time>
      </trkpt>
      <trkpt lat="43.52659" lon="6.64863">
        <ele>311.1</ele>
        <time>2022-04-22T08:59:20Z</time>
      </trkpt>
      <trkpt lat="43.52659" lon="6.64861">
        <ele>311.3</ele>
        <time>2022-04-22T08:59:21Z</time>
      </trkpt>
      <trkpt lat="43.52659" lon="6.6486">
        <ele>311.5</ele>
        <time>2022-04-22T08:59:22Z</time>
      </trkpt>
      <trkpt lat="43.5266" lon="6.6486">
        <ele>311.6</ele>
        <time>2022-04-22T08:59:23Z</time>
      </trkpt>
      <trkpt lat="43.52659" lon="6.6486">
        <ele>311.6</ele>
        <time>2022-04-22T08:59:24Z</time>
      </trkpt>
      <trkpt lat="43.52659" lon="6.6486">
        <ele>311.8</ele>
        <time>2022-04-22T08:59:26Z</time>
      </trkpt>
      <trkpt lat="43.52659" lon="6.6486">
        <ele>311.8</ele>
        <time>2022-04-22T08:59:27Z</time>
      </trkpt>
      <trkpt lat="43.5266" lon="6.64859">
        <ele>312</ele>
        <time>2022-04-22T08:59:28Z</time>
      </trkpt>
      <trkpt lat="43.52661" lon="6.64858">
        <ele>312.3</ele>
        <time>2022-04-22T08:59:29Z</time>
      </trkpt>
      <trkpt lat="43.52662" lon="6.64857">
        <ele>312.7</ele>
        <time>2022-04-22T08:59:30Z</time>
      </trkpt>
      <trkpt lat="43.52664" lon="6.64856">
        <ele>313.3</ele>
        <time>2022-04-22T08:59:31Z</time>
      </trkpt>
      <trkpt lat="43.52665" lon="6.64855">
        <ele>313.5</ele>
        <time>2022-04-22T08:59:32Z</time>
      </trkpt>
      <trkpt lat="43.52665" lon="6.64854">
        <ele>313.7</ele>
        <time>2022-04-22T08:59:33Z</time>
      </trkpt>
      <trkpt lat="43.52666" lon="6.64853">
        <ele>314</ele>
        <time>2022-04-22T08:59:35Z</time>
      </trkpt>
      <trkpt lat="43.52666" lon="6.64851">
        <ele>314.2</ele>
        <time>2022-04-22T08:59:36Z</time>
      </trkpt>
      <trkpt lat="43.52666" lon="6.6485">
        <ele>314.4</ele>
        <time>2022-04-22T08:59:37Z</time>
      </trkpt>
      <trkpt lat="43.52667" lon="6.64849">
        <ele>314.7</ele>
        <time>2022-04-22T08:59:38Z</time>
      </trkpt>
      <trkpt lat="43.52667" lon="6.64849">
        <ele>314.9</ele>
        <time>2022-04-22T08:59:39Z</time>
      </trkpt>
      <trkpt lat="43.52668" lon="6.64848">
        <ele>315</ele>
        <time>2022-04-22T08:59:40Z</time>
      </trkpt>
      <trkpt lat="43.52668" lon="6.64848">
        <ele>315.2</ele>
        <time>2022-04-22T08:59:41Z</time>
      </trkpt>
      <trkpt lat="43.52669" lon="6.64847">
        <ele>315.6</ele>
        <time>2022-04-22T08:59:42Z</time>
      </trkpt>
      <trkpt lat="43.52671" lon="6.64846">
        <ele>315.9</ele>
        <time>2022-04-22T08:59:44Z</time>
      </trkpt>
      <trkpt lat="43.52671" lon="6.64846">
        <ele>316.2</ele>
        <time>2022-04-22T08:59:45Z</time>
      </trkpt>
      <trkpt lat="43.52672" lon="6.64846">
        <ele>316.4</ele>
        <time>2022-04-22T08:59:46Z</time>
      </trkpt>
      <trkpt lat="43.52673" lon="6.64846">
        <ele>316.6</ele>
        <time>2022-04-22T08:59:47Z</time>
      </trkpt>
      <trkpt lat="43.52674" lon="6.64845">
        <ele>316.9</ele>
        <time>2022-04-22T08:59:48Z</time>
      </trkpt>
      <trkpt lat="43.52675" lon="6.64844">
        <ele>317.3</ele>
        <time>2022-04-22T08:59:50Z</time>
      </trkpt>
      <trkpt lat="43.52676" lon="6.64843">
        <ele>317.5</ele>
        <time>2022-04-22T08:59:51Z</time>
      </trkpt>
      <trkpt lat="43.52676" lon="6.64843">
        <ele>317.7</ele>
        <time>2022-04-22T08:59:52Z</time>
      </trkpt>
      <trkpt lat="43.52677" lon="6.64843">
        <ele>317.9</ele>
        <time>2022-04-22T08:59:53Z</time>
      </trkpt>
      <trkpt lat="43.52678" lon="6.64842">
        <ele>318.1</ele>
        <time>2022-04-22T08:59:54Z</time>
      </trkpt>
      <trkpt lat="43.52679" lon="6.64842">
        <ele>318.5</ele>
        <time>2022-04-22T08:59:56Z</time>
      </trkpt>
      <trkpt lat="43.5268" lon="6.64842">
        <ele>318.8</ele>
        <time>2022-04-22T08:59:57Z</time>
      </trkpt>
      <trkpt lat="43.52681" lon="6.64841">
        <ele>319</ele>
        <time>2022-04-22T08:59:58Z</time>
      </trkpt>
      <trkpt lat="43.52682" lon="6.6484">
        <ele>319.2</ele>
        <time>2022-04-22T08:59:59Z</time>
      </trkpt>
      <trkpt lat="43.52683" lon="6.64839">
        <ele>319.5</ele>
        <time>2022-04-22T09:00:00Z</time>
      </trkpt>
      <trkpt lat="43.52684" lon="6.64838">
        <ele>319.8</ele>
        <time>2022-04-22T09:00:02Z</time>
      </trkpt>
      <trkpt lat="43.52684" lon="6.64838">
        <ele>320</ele>
        <time>2022-04-22T09:00:03Z</time>
      </trkpt>
      <trkpt lat="43.52685" lon="6.64837">
        <ele>320.2</ele>
        <time>2022-04-22T09:00:04Z</time>
      </trkpt>
      <trkpt lat="43.52685" lon="6.64836">
        <ele>320.3</ele>
        <time>2022-04-22T09:00:05Z</time>
      </trkpt>
      <trkpt lat="43.52686" lon="6.64836">
        <ele>320.5</ele>
        <time>2022-04-22T09:00:06Z</time>
      </trkpt>
      <trkpt lat="43.52686" lon="6.64835">
        <ele>320.6</ele>
        <time>2022-04-22T09:00:07Z</time>
      </trkpt>
      <trkpt lat="43.52686" lon="6.64835">
        <ele>320.7</ele>
        <time>2022-04-22T09:00:09Z</time>
      </trkpt>
      <trkpt lat="43.52687" lon="6.64833">
        <ele>320.9</ele>
        <time>2022-04-22T09:00:10Z</time>
      </trkpt>
      <trkpt lat="43.52687" lon="6.64832">
        <ele>321.3</ele>
        <time>2022-04-22T09:00:11Z</time>
      </trkpt>
      <trkpt lat="43.52688" lon="6.64832">
        <ele>321.4</ele>
        <time>2022-04-22T09:00:12Z</time>
      </trkpt>
      <trkpt lat="43.52688" lon="6.64833">
        <ele>321.5</ele>
        <time>2022-04-22T09:00:13Z</time>
      </trkpt>
      <trkpt lat="43.52689" lon="6.64833">
        <ele>321.7</ele>
        <time>2022-04-22T09:00:14Z</time>
      </trkpt>
      <trkpt lat="43.5269" lon="6.64834">
        <ele>321.9</ele>
        <time>2022-04-22T09:00:15Z</time>
      </trkpt>
      <trkpt lat="43.52691" lon="6.64834">
        <ele>322.1</ele>
        <time>2022-04-22T09:00:17Z</time>
      </trkpt>
      <trkpt lat="43.52692" lon="6.64834">
        <ele>322.3</ele>
        <time>2022-04-22T09:00:18Z</time>
      </trkpt>
      <trkpt lat="43.52692" lon="6.64834">
        <ele>322.5</ele>
        <time>2022-04-22T09:00:19Z</time>
      </trkpt>
      <trkpt lat="43.52693" lon="6.64834">
        <ele>322.6</ele>
        <time>2022-04-22T09:00:20Z</time>
      </trkpt>
      <trkpt lat="43.52693" lon="6.64835">
        <ele>322.8</ele>
        <time>2022-04-22T09:00:21Z</time>
      </trkpt>
      <trkpt lat="43.52694" lon="6.64835">
        <ele>322.9</ele>
        <time>2022-04-22T09:00:22Z</time>
      </trkpt>
      <trkpt lat="43.52695" lon="6.64835">
        <ele>323.1</ele>
        <time>2022-04-22T09:00:23Z</time>
      </trkpt>
      <trkpt lat="43.52696" lon="6.64834">
        <ele>323.3</ele>
        <time>2022-04-22T09:00:24Z</time>
      </trkpt>
      <trkpt lat="43.52697" lon="6.64832">
        <ele>323.7</ele>
        <time>2022-04-22T09:00:25Z</time>
      </trkpt>
      <trkpt lat="43.52698" lon="6.64831">
        <ele>324</ele>
        <time>2022-04-22T09:00:26Z</time>
      </trkpt>
      <trkpt lat="43.52699" lon="6.6483">
        <ele>324.2</ele>
        <time>2022-04-22T09:00:27Z</time>
      </trkpt>
      <trkpt lat="43.527" lon="6.64829">
        <ele>324.5</ele>
        <time>2022-04-22T09:00:29Z</time>
      </trkpt>
      <trkpt lat="43.527" lon="6.64828">
        <ele>324.7</ele>
        <time>2022-04-22T09:00:30Z</time>
      </trkpt>
      <trkpt lat="43.52701" lon="6.64827">
        <ele>325</ele>
        <time>2022-04-22T09:00:31Z</time>
      </trkpt>
      <trkpt lat="43.52702" lon="6.64826">
        <ele>325.2</ele>
        <time>2022-04-22T09:00:32Z</time>
      </trkpt>
      <trkpt lat="43.52702" lon="6.64825">
        <ele>325.4</ele>
        <time>2022-04-22T09:00:33Z</time>
      </trkpt>
      <trkpt lat="43.52703" lon="6.64824">
        <ele>325.6</ele>
        <time>2022-04-22T09:00:35Z</time>
      </trkpt>
      <trkpt lat="43.52703" lon="6.64823">
        <ele>325.8</ele>
        <time>2022-04-22T09:00:36Z</time>
      </trkpt>
      <trkpt lat="43.52704" lon="6.64822">
        <ele>326.1</ele>
        <time>2022-04-22T09:00:37Z</time>
      </trkpt>
      <trkpt lat="43.52705" lon="6.64821">
        <ele>326.3</ele>
        <time>2022-04-22T09:00:38Z</time>
      </trkpt>
      <trkpt lat="43.52705" lon="6.6482">
        <ele>326.5</ele>
        <time>2022-04-22T09:00:39Z</time>
      </trkpt>
      <trkpt lat="43.52706" lon="6.6482">
        <ele>326.7</ele>
        <time>2022-04-22T09:00:41Z</time>
      </trkpt>
      <trkpt lat="43.52707" lon="6.64819">
        <ele>327</ele>
        <time>2022-04-22T09:00:42Z</time>
      </trkpt>
      <trkpt lat="43.52708" lon="6.64817">
        <ele>327.3</ele>
        <time>2022-04-22T09:00:43Z</time>
      </trkpt>
      <trkpt lat="43.52709" lon="6.64816">
        <ele>327.6</ele>
        <time>2022-04-22T09:00:44Z</time>
      </trkpt>
      <trkpt lat="43.52709" lon="6.64815">
        <ele>327.8</ele>
        <time>2022-04-22T09:00:46Z</time>
      </trkpt>
      <trkpt lat="43.5271" lon="6.64813">
        <ele>328.1</ele>
        <time>2022-04-22T09:00:47Z</time>
      </trkpt>
      <trkpt lat="43.52711" lon="6.64813">
        <ele>328.4</ele>
        <time>2022-04-22T09:00:48Z</time>
      </trkpt>
      <trkpt lat="43.52712" lon="6.64813">
        <ele>328.7</ele>
        <time>2022-04-22T09:00:49Z</time>
      </trkpt>
      <trkpt lat="43.52713" lon="6.64812">
        <ele>328.9</ele>
        <time>2022-04-22T09:00:50Z</time>
      </trkpt>
      <trkpt lat="43.52714" lon="6.64812">
        <ele>329.1</ele>
        <time>2022-04-22T09:00:51Z</time>
      </trkpt>
      <trkpt lat="43.52715" lon="6.64812">
        <ele>329.3</ele>
        <time>2022-04-22T09:00:52Z</time>
      </trkpt>
      <trkpt lat="43.52716" lon="6.64812">
        <ele>329.6</ele>
        <time>2022-04-22T09:00:53Z</time>
      </trkpt>
      <trkpt lat="43.52717" lon="6.64811">
        <ele>329.8</ele>
        <time>2022-04-22T09:00:54Z</time>
      </trkpt>
      <trkpt lat="43.52719" lon="6.6481">
        <ele>330.3</ele>
        <time>2022-04-22T09:00:55Z</time>
      </trkpt>
      <trkpt lat="43.5272" lon="6.64809">
        <ele>330.6</ele>
        <time>2022-04-22T09:00:57Z</time>
      </trkpt>
      <trkpt lat="43.52722" lon="6.64808">
        <ele>331</ele>
        <time>2022-04-22T09:00:58Z</time>
      </trkpt>
      <trkpt lat="43.52723" lon="6.64808">
        <ele>331.3</ele>
        <time>2022-04-22T09:00:59Z</time>
      </trkpt>
      <trkpt lat="43.52724" lon="6.64807">
        <ele>331.6</ele>
        <time>2022-04-22T09:01:01Z</time>
      </trkpt>
      <trkpt lat="43.52725" lon="6.64806">
        <ele>331.9</ele>
        <time>2022-04-22T09:01:02Z</time>
      </trkpt>
      <trkpt lat="43.52727" lon="6.64806">
        <ele>332.2</ele>
        <time>2022-04-22T09:01:03Z</time>
      </trkpt>
      <trkpt lat="43.52728" lon="6.64806">
        <ele>332.5</ele>
        <time>2022-04-22T09:01:04Z</time>
      </trkpt>
      <trkpt lat="43.52728" lon="6.64806">
        <ele>332.7</ele>
        <time>2022-04-22T09:01:05Z</time>
      </trkpt>
      <trkpt lat="43.52729" lon="6.64806">
        <ele>332.8</ele>
        <time>2022-04-22T09:01:06Z</time>
      </trkpt>
      <trkpt lat="43.5273" lon="6.64805">
        <ele>333.1</ele>
        <time>2022-04-22T09:01:07Z</time>
      </trkpt>
      <trkpt lat="43.52732" lon="6.64806">
        <ele>333.4</ele>
        <time>2022-04-22T09:01:09Z</time>
      </trkpt>
      <trkpt lat="43.52732" lon="6.64808">
        <ele>333.8</ele>
        <time>2022-04-22T09:01:10Z</time>
      </trkpt>
      <trkpt lat="43.52733" lon="6.64809">
        <ele>334</ele>
        <time>2022-04-22T09:01:11Z</time>
      </trkpt>
      <trkpt lat="43.52733" lon="6.64809">
        <ele>334.1</ele>
        <time>2022-04-22T09:01:12Z</time>
      </trkpt>
      <trkpt lat="43.52734" lon="6.64809">
        <ele>334.2</ele>
        <time>2022-04-22T09:01:13Z</time>
      </trkpt>
      <trkpt lat="43.52734" lon="6.6481">
        <ele>334.4</ele>
        <time>2022-04-22T09:01:14Z</time>
      </trkpt>
      <trkpt lat="43.52735" lon="6.6481">
        <ele>334.5</ele>
        <time>2022-04-22T09:01:15Z</time>
      </trkpt>
      <trkpt lat="43.52735" lon="6.6481">
        <ele>334.6</ele>
        <time>2022-04-22T09:01:16Z</time>
      </trkpt>
      <trkpt lat="43.52736" lon="6.6481">
        <ele>334.8</ele>
        <time>2022-04-22T09:01:17Z</time>
      </trkpt>
      <trkpt lat="43.52737" lon="6.64808">
        <ele>335.1</ele>
        <time>2022-04-22T09:01:18Z</time>
      </trkpt>
      <trkpt lat="43.52738" lon="6.64807">
        <ele>335.5</ele>
        <time>2022-04-22T09:01:20Z</time>
      </trkpt>
      <trkpt lat="43.5274" lon="6.64807">
        <ele>335.9</ele>
        <time>2022-04-22T09:01:21Z</time>
      </trkpt>
      <trkpt lat="43.52741" lon="6.64806">
        <ele>336.2</ele>
        <time>2022-04-22T09:01:22Z</time>
      </trkpt>
      <trkpt lat="43.52742" lon="6.64805">
        <ele>336.5</ele>
        <time>2022-04-22T09:01:23Z</time>
      </trkpt>
      <trkpt lat="43.52743" lon="6.64805">
        <ele>336.8</ele>
        <time>2022-04-22T09:01:24Z</time>
      </trkpt>
      <trkpt lat="43.52746" lon="6.64803">
        <ele>337.4</ele>
        <time>2022-04-22T09:01:26Z</time>
      </trkpt>
      <trkpt lat="43.52748" lon="6.648">
        <ele>338.1</ele>
        <time>2022-04-22T09:01:28Z</time>
      </trkpt>
      <trkpt lat="43.52749" lon="6.64799">
        <ele>338.3</ele>
        <time>2022-04-22T09:01:29Z</time>
      </trkpt>
      <trkpt lat="43.5275" lon="6.64798">
        <ele>338.6</ele>
        <time>2022-04-22T09:01:31Z</time>
      </trkpt>
      <trkpt lat="43.52751" lon="6.64797">
        <ele>338.9</ele>
        <time>2022-04-22T09:01:32Z</time>
      </trkpt>
      <trkpt lat="43.52753" lon="6.64795">
        <ele>339.3</ele>
        <time>2022-04-22T09:01:33Z</time>
      </trkpt>
      <trkpt lat="43.52754" lon="6.64795">
        <ele>339.5</ele>
        <time>2022-04-22T09:01:34Z</time>
      </trkpt>
      <trkpt lat="43.52754" lon="6.64794">
        <ele>339.6</ele>
        <time>2022-04-22T09:01:35Z</time>
      </trkpt>
      <trkpt lat="43.52755" lon="6.64794">
        <ele>339.7</ele>
        <time>2022-04-22T09:01:36Z</time>
      </trkpt>
      <trkpt lat="43.52756" lon="6.64793">
        <ele>339.9</ele>
        <time>2022-04-22T09:01:37Z</time>
      </trkpt>
      <trkpt lat="43.52757" lon="6.64793">
        <ele>340.2</ele>
        <time>2022-04-22T09:01:39Z</time>
      </trkpt>
      <trkpt lat="43.52759" lon="6.64792">
        <ele>340.4</ele>
        <time>2022-04-22T09:01:40Z</time>
      </trkpt>
      <trkpt lat="43.5276" lon="6.64793">
        <ele>340.6</ele>
        <time>2022-04-22T09:01:41Z</time>
      </trkpt>
      <trkpt lat="43.52761" lon="6.64793">
        <ele>340.7</ele>
        <time>2022-04-22T09:01:42Z</time>
      </trkpt>
      <trkpt lat="43.52763" lon="6.64792">
        <ele>340.9</ele>
        <time>2022-04-22T09:01:43Z</time>
      </trkpt>
      <trkpt lat="43.52764" lon="6.64792">
        <ele>341.1</ele>
        <time>2022-04-22T09:01:44Z</time>
      </trkpt>
      <trkpt lat="43.52765" lon="6.64792">
        <ele>341.2</ele>
        <time>2022-04-22T09:01:45Z</time>
      </trkpt>
      <trkpt lat="43.52765" lon="6.64791">
        <ele>341.4</ele>
        <time>2022-04-22T09:01:46Z</time>
      </trkpt>
      <trkpt lat="43.52767" lon="6.6479">
        <ele>341.7</ele>
        <time>2022-04-22T09:01:48Z</time>
      </trkpt>
      <trkpt lat="43.52768" lon="6.6479">
        <ele>341.8</ele>
        <time>2022-04-22T09:01:49Z</time>
      </trkpt>
      <trkpt lat="43.52769" lon="6.6479">
        <ele>341.9</ele>
        <time>2022-04-22T09:01:50Z</time>
      </trkpt>
      <trkpt lat="43.5277" lon="6.6479">
        <ele>342.1</ele>
        <time>2022-04-22T09:01:51Z</time>
      </trkpt>
      <trkpt lat="43.52771" lon="6.6479">
        <ele>342.3</ele>
        <time>2022-04-22T09:01:52Z</time>
      </trkpt>
      <trkpt lat="43.52772" lon="6.64789">
        <ele>342.4</ele>
        <time>2022-04-22T09:01:53Z</time>
      </trkpt>
      <trkpt lat="43.52773" lon="6.64787">
        <ele>342.6</ele>
        <time>2022-04-22T09:01:54Z</time>
      </trkpt>
      <trkpt lat="43.52775" lon="6.64786">
        <ele>343</ele>
        <time>2022-04-22T09:01:56Z</time>
      </trkpt>
      <trkpt lat="43.52776" lon="6.64785">
        <ele>343.1</ele>
        <time>2022-04-22T09:01:57Z</time>
      </trkpt>
      <trkpt lat="43.52777" lon="6.64785">
        <ele>343.3</ele>
        <time>2022-04-22T09:01:58Z</time>
      </trkpt>
      <trkpt lat="43.52778" lon="6.64784">
        <ele>343.4</ele>
        <time>2022-04-22T09:02:00Z</time>
      </trkpt>
      <trkpt lat="43.52779" lon="6.64784">
        <ele>343.6</ele>
        <time>2022-04-22T09:02:01Z</time>
      </trkpt>
      <trkpt lat="43.5278" lon="6.64783">
        <ele>343.8</ele>
        <time>2022-04-22T09:02:02Z</time>
      </trkpt>
      <trkpt lat="43.52781" lon="6.64782">
        <ele>344</ele>
        <time>2022-04-22T09:02:03Z</time>
      </trkpt>
      <trkpt lat="43.52781" lon="6.64781">
        <ele>344.2</ele>
        <time>2022-04-22T09:02:04Z</time>
      </trkpt>
      <trkpt lat="43.52782" lon="6.6478">
        <ele>344.3</ele>
        <time>2022-04-22T09:02:06Z</time>
      </trkpt>
      <trkpt lat="43.52783" lon="6.64779">
        <ele>344.5</ele>
        <time>2022-04-22T09:02:07Z</time>
      </trkpt>
      <trkpt lat="43.52784" lon="6.64778">
        <ele>344.8</ele>
        <time>2022-04-22T09:02:08Z</time>
      </trkpt>
      <trkpt lat="43.52785" lon="6.64777">
        <ele>345.1</ele>
        <time>2022-04-22T09:02:09Z</time>
      </trkpt>
      <trkpt lat="43.52786" lon="6.64776">
        <ele>345.3</ele>
        <time>2022-04-22T09:02:10Z</time>
      </trkpt>
      <trkpt lat="43.52787" lon="6.64775">
        <ele>345.6</ele>
        <time>2022-04-22T09:02:11Z</time>
      </trkpt>
      <trkpt lat="43.52788" lon="6.64774">
        <ele>345.7</ele>
        <time>2022-04-22T09:02:12Z</time>
      </trkpt>
      <trkpt lat="43.52789" lon="6.64774">
        <ele>345.9</ele>
        <time>2022-04-22T09:02:13Z</time>
      </trkpt>
      <trkpt lat="43.52789" lon="6.64773">
        <ele>346</ele>
        <time>2022-04-22T09:02:14Z</time>
      </trkpt>
      <trkpt lat="43.52791" lon="6.64771">
        <ele>346.5</ele>
        <time>2022-04-22T09:02:16Z</time>
      </trkpt>
      <trkpt lat="43.52792" lon="6.64771">
        <ele>346.6</ele>
        <time>2022-04-22T09:02:17Z</time>
      </trkpt>
      <trkpt lat="43.52793" lon="6.6477">
        <ele>346.8</ele>
        <time>2022-04-22T09:02:18Z</time>
      </trkpt>
      <trkpt lat="43.52794" lon="6.6477">
        <ele>347.1</ele>
        <time>2022-04-22T09:02:20Z</time>
      </trkpt>
      <trkpt lat="43.52795" lon="6.64771">
        <ele>347.2</ele>
        <time>2022-04-22T09:02:21Z</time>
      </trkpt>
      <trkpt lat="43.52796" lon="6.64771">
        <ele>347.4</ele>
        <time>2022-04-22T09:02:22Z</time>
      </trkpt>
      <trkpt lat="43.52797" lon="6.64772">
        <ele>347.6</ele>
        <time>2022-04-22T09:02:23Z</time>
      </trkpt>
      <trkpt lat="43.52797" lon="6.64772">
        <ele>347.6</ele>
        <time>2022-04-22T09:02:24Z</time>
      </trkpt>
      <trkpt lat="43.52798" lon="6.64771">
        <ele>347.8</ele>
        <time>2022-04-22T09:02:25Z</time>
      </trkpt>
      <trkpt lat="43.52799" lon="6.64771">
        <ele>348</ele>
        <time>2022-04-22T09:02:26Z</time>
      </trkpt>
      <trkpt lat="43.52799" lon="6.64771">
        <ele>348</ele>
        <time>2022-04-22T09:02:27Z</time>
      </trkpt>
      <trkpt lat="43.52799" lon="6.64771">
        <ele>348.1</ele>
        <time>2022-04-22T09:02:28Z</time>
      </trkpt>
      <trkpt lat="43.528" lon="6.64771">
        <ele>348.2</ele>
        <time>2022-04-22T09:02:29Z</time>
      </trkpt>
      <trkpt lat="43.528" lon="6.64771">
        <ele>348.2</ele>
        <time>2022-04-22T09:02:30Z</time>
      </trkpt>
      <trkpt lat="43.528" lon="6.6477">
        <ele>348.3</ele>
        <time>2022-04-22T09:02:31Z</time>
      </trkpt>
      <trkpt lat="43.52801" lon="6.6477">
        <ele>348.3</ele>
        <time>2022-04-22T09:02:32Z</time>
      </trkpt>
      <trkpt lat="43.52801" lon="6.6477">
        <ele>348.4</ele>
        <time>2022-04-22T09:02:33Z</time>
      </trkpt>
      <trkpt lat="43.52801" lon="6.6477">
        <ele>348.5</ele>
        <time>2022-04-22T09:02:35Z</time>
      </trkpt>
      <trkpt lat="43.52802" lon="6.6477">
        <ele>348.5</ele>
        <time>2022-04-22T09:02:36Z</time>
      </trkpt>
      <trkpt lat="43.52803" lon="6.64769">
        <ele>348.7</ele>
        <time>2022-04-22T09:02:37Z</time>
      </trkpt>
      <trkpt lat="43.52804" lon="6.64768">
        <ele>349.1</ele>
        <time>2022-04-22T09:02:38Z</time>
      </trkpt>
      <trkpt lat="43.52805" lon="6.64766">
        <ele>349.3</ele>
        <time>2022-04-22T09:02:39Z</time>
      </trkpt>
      <trkpt lat="43.52805" lon="6.64765">
        <ele>349.5</ele>
        <time>2022-04-22T09:02:40Z</time>
      </trkpt>
      <trkpt lat="43.52806" lon="6.64764">
        <ele>349.7</ele>
        <time>2022-04-22T09:02:41Z</time>
      </trkpt>
      <trkpt lat="43.52807" lon="6.64763">
        <ele>349.9</ele>
        <time>2022-04-22T09:02:42Z</time>
      </trkpt>
      <trkpt lat="43.52807" lon="6.64763">
        <ele>350</ele>
        <time>2022-04-22T09:02:43Z</time>
      </trkpt>
      <trkpt lat="43.52808" lon="6.64761">
        <ele>350.2</ele>
        <time>2022-04-22T09:02:44Z</time>
      </trkpt>
      <trkpt lat="43.52809" lon="6.64761">
        <ele>350.4</ele>
        <time>2022-04-22T09:02:45Z</time>
      </trkpt>
      <trkpt lat="43.52809" lon="6.64759">
        <ele>350.6</ele>
        <time>2022-04-22T09:02:46Z</time>
      </trkpt>
      <trkpt lat="43.5281" lon="6.64758">
        <ele>350.8</ele>
        <time>2022-04-22T09:02:47Z</time>
      </trkpt>
      <trkpt lat="43.5281" lon="6.64756">
        <ele>351.1</ele>
        <time>2022-04-22T09:02:48Z</time>
      </trkpt>
      <trkpt lat="43.52811" lon="6.64755">
        <ele>351.2</ele>
        <time>2022-04-22T09:02:49Z</time>
      </trkpt>
      <trkpt lat="43.5281" lon="6.64755">
        <ele>351.3</ele>
        <time>2022-04-22T09:02:50Z</time>
      </trkpt>
      <trkpt lat="43.52811" lon="6.64754">
        <ele>351.5</ele>
        <time>2022-04-22T09:02:51Z</time>
      </trkpt>
      <trkpt lat="43.52811" lon="6.64753">
        <ele>351.6</ele>
        <time>2022-04-22T09:02:52Z</time>
      </trkpt>
      <trkpt lat="43.52813" lon="6.64751">
        <ele>352.1</ele>
        <time>2022-04-22T09:02:54Z</time>
      </trkpt>
      <trkpt lat="43.52814" lon="6.6475">
        <ele>352.3</ele>
        <time>2022-04-22T09:02:55Z</time>
      </trkpt>
      <trkpt lat="43.52815" lon="6.64749">
        <ele>352.6</ele>
        <time>2022-04-22T09:02:56Z</time>
      </trkpt>
      <trkpt lat="43.52817" lon="6.64747">
        <ele>353.1</ele>
        <time>2022-04-22T09:02:57Z</time>
      </trkpt>
      <trkpt lat="43.52817" lon="6.64746">
        <ele>353.3</ele>
        <time>2022-04-22T09:02:59Z</time>
      </trkpt>
      <trkpt lat="43.52818" lon="6.64746">
        <ele>353.5</ele>
        <time>2022-04-22T09:03:00Z</time>
      </trkpt>
      <trkpt lat="43.52819" lon="6.64745">
        <ele>353.6</ele>
        <time>2022-04-22T09:03:01Z</time>
      </trkpt>
      <trkpt lat="43.52819" lon="6.64744">
        <ele>353.7</ele>
        <time>2022-04-22T09:03:02Z</time>
      </trkpt>
      <trkpt lat="43.52819" lon="6.64744">
        <ele>353.9</ele>
        <time>2022-04-22T09:03:04Z</time>
      </trkpt>
      <trkpt lat="43.5282" lon="6.64743">
        <ele>354</ele>
        <time>2022-04-22T09:03:05Z</time>
      </trkpt>
      <trkpt lat="43.5282" lon="6.64742">
        <ele>354.2</ele>
        <time>2022-04-22T09:03:06Z</time>
      </trkpt>
      <trkpt lat="43.52821" lon="6.64741">
        <ele>354.4</ele>
        <time>2022-04-22T09:03:07Z</time>
      </trkpt>
      <trkpt lat="43.52821" lon="6.6474">
        <ele>354.6</ele>
        <time>2022-04-22T09:03:08Z</time>
      </trkpt>
      <trkpt lat="43.52822" lon="6.64739">
        <ele>354.8</ele>
        <time>2022-04-22T09:03:10Z</time>
      </trkpt>
      <trkpt lat="43.52823" lon="6.64738">
        <ele>355</ele>
        <time>2022-04-22T09:03:11Z</time>
      </trkpt>
      <trkpt lat="43.52824" lon="6.64738">
        <ele>355.2</ele>
        <time>2022-04-22T09:03:12Z</time>
      </trkpt>
      <trkpt lat="43.52825" lon="6.64738">
        <ele>355.4</ele>
        <time>2022-04-22T09:03:14Z</time>
      </trkpt>
      <trkpt lat="43.52826" lon="6.64737">
        <ele>355.6</ele>
        <time>2022-04-22T09:03:15Z</time>
      </trkpt>
      <trkpt lat="43.52826" lon="6.64735">
        <ele>355.8</ele>
        <time>2022-04-22T09:03:16Z</time>
      </trkpt>
      <trkpt lat="43.52827" lon="6.64734">
        <ele>356</ele>
        <time>2022-04-22T09:03:17Z</time>
      </trkpt>
      <trkpt lat="43.52829" lon="6.64731">
        <ele>356.5</ele>
        <time>2022-04-22T09:03:19Z</time>
      </trkpt>
      <trkpt lat="43.5283" lon="6.6473">
        <ele>356.6</ele>
        <time>2022-04-22T09:03:20Z</time>
      </trkpt>
      <trkpt lat="43.52831" lon="6.6473">
        <ele>356.8</ele>
        <time>2022-04-22T09:03:21Z</time>
      </trkpt>
      <trkpt lat="43.52832" lon="6.6473">
        <ele>356.9</ele>
        <time>2022-04-22T09:03:22Z</time>
      </trkpt>
      <trkpt lat="43.52833" lon="6.6473">
        <ele>357</ele>
        <time>2022-04-22T09:03:23Z</time>
      </trkpt>
      <trkpt lat="43.52834" lon="6.64729">
        <ele>357.2</ele>
        <time>2022-04-22T09:03:24Z</time>
      </trkpt>
      <trkpt lat="43.52834" lon="6.64728">
        <ele>357.3</ele>
        <time>2022-04-22T09:03:25Z</time>
      </trkpt>
      <trkpt lat="43.52835" lon="6.64727">
        <ele>357.5</ele>
        <time>2022-04-22T09:03:26Z</time>
      </trkpt>
      <trkpt lat="43.52837" lon="6.64726">
        <ele>357.7</ele>
        <time>2022-04-22T09:03:27Z</time>
      </trkpt>
      <trkpt lat="43.52838" lon="6.64725">
        <ele>357.8</ele>
        <time>2022-04-22T09:03:29Z</time>
      </trkpt>
      <trkpt lat="43.52838" lon="6.64724">
        <ele>357.9</ele>
        <time>2022-04-22T09:03:30Z</time>
      </trkpt>
      <trkpt lat="43.52839" lon="6.64723">
        <ele>358.1</ele>
        <time>2022-04-22T09:03:31Z</time>
      </trkpt>
      <trkpt lat="43.5284" lon="6.64721">
        <ele>358.3</ele>
        <time>2022-04-22T09:03:32Z</time>
      </trkpt>
      <trkpt lat="43.52841" lon="6.6472">
        <ele>358.4</ele>
        <time>2022-04-22T09:03:33Z</time>
      </trkpt>
      <trkpt lat="43.52842" lon="6.64718">
        <ele>358.6</ele>
        <time>2022-04-22T09:03:34Z</time>
      </trkpt>
      <trkpt lat="43.52845" lon="6.64716">
        <ele>359</ele>
        <time>2022-04-22T09:03:36Z</time>
      </trkpt>
      <trkpt lat="43.52845" lon="6.64715">
        <ele>359.1</ele>
        <time>2022-04-22T09:03:37Z</time>
      </trkpt>
      <trkpt lat="43.52847" lon="6.64713">
        <ele>359.4</ele>
        <time>2022-04-22T09:03:38Z</time>
      </trkpt>
      <trkpt lat="43.52848" lon="6.64712">
        <ele>359.6</ele>
        <time>2022-04-22T09:03:39Z</time>
      </trkpt>
      <trkpt lat="43.52849" lon="6.64711">
        <ele>359.7</ele>
        <time>2022-04-22T09:03:40Z</time>
      </trkpt>
      <trkpt lat="43.52851" lon="6.64709">
        <ele>360</ele>
        <time>2022-04-22T09:03:41Z</time>
      </trkpt>
      <trkpt lat="43.52851" lon="6.64707">
        <ele>360.2</ele>
        <time>2022-04-22T09:03:43Z</time>
      </trkpt>
      <trkpt lat="43.52852" lon="6.64705">
        <ele>360.6</ele>
        <time>2022-04-22T09:03:44Z</time>
      </trkpt>
      <trkpt lat="43.52853" lon="6.64703">
        <ele>360.8</ele>
        <time>2022-04-22T09:03:45Z</time>
      </trkpt>
      <trkpt lat="43.52854" lon="6.64702">
        <ele>361.1</ele>
        <time>2022-04-22T09:03:46Z</time>
      </trkpt>
      <trkpt lat="43.52855" lon="6.64701">
        <ele>361.3</ele>
        <time>2022-04-22T09:03:47Z</time>
      </trkpt>
      <trkpt lat="43.52857" lon="6.64701">
        <ele>361.5</ele>
        <time>2022-04-22T09:03:48Z</time>
      </trkpt>
      <trkpt lat="43.52857" lon="6.647">
        <ele>361.7</ele>
        <time>2022-04-22T09:03:49Z</time>
      </trkpt>
      <trkpt lat="43.52858" lon="6.647">
        <ele>361.9</ele>
        <time>2022-04-22T09:03:50Z</time>
      </trkpt>
      <trkpt lat="43.52859" lon="6.647">
        <ele>362</ele>
        <time>2022-04-22T09:03:51Z</time>
      </trkpt>
      <trkpt lat="43.52859" lon="6.647">
        <ele>362.1</ele>
        <time>2022-04-22T09:03:52Z</time>
      </trkpt>
      <trkpt lat="43.5286" lon="6.647">
        <ele>362.2</ele>
        <time>2022-04-22T09:03:53Z</time>
      </trkpt>
      <trkpt lat="43.52861" lon="6.647">
        <ele>362.4</ele>
        <time>2022-04-22T09:03:54Z</time>
      </trkpt>
      <trkpt lat="43.52861" lon="6.647">
        <ele>362.5</ele>
        <time>2022-04-22T09:03:55Z</time>
      </trkpt>
      <trkpt lat="43.52862" lon="6.647">
        <ele>362.7</ele>
        <time>2022-04-22T09:03:56Z</time>
      </trkpt>
      <trkpt lat="43.52863" lon="6.647">
        <ele>362.9</ele>
        <time>2022-04-22T09:03:58Z</time>
      </trkpt>
      <trkpt lat="43.52863" lon="6.647">
        <ele>363</ele>
        <time>2022-04-22T09:03:59Z</time>
      </trkpt>
      <trkpt lat="43.52864" lon="6.647">
        <ele>363.2</ele>
        <time>2022-04-22T09:04:00Z</time>
      </trkpt>
      <trkpt lat="43.52865" lon="6.64698">
        <ele>363.5</ele>
        <time>2022-04-22T09:04:01Z</time>
      </trkpt>
      <trkpt lat="43.52865" lon="6.64697">
        <ele>363.7</ele>
        <time>2022-04-22T09:04:02Z</time>
      </trkpt>
      <trkpt lat="43.52865" lon="6.64696">
        <ele>364</ele>
        <time>2022-04-22T09:04:04Z</time>
      </trkpt>
      <trkpt lat="43.52864" lon="6.64694">
        <ele>364.2</ele>
        <time>2022-04-22T09:04:05Z</time>
      </trkpt>
      <trkpt lat="43.52865" lon="6.64693">
        <ele>364.5</ele>
        <time>2022-04-22T09:04:06Z</time>
      </trkpt>
      <trkpt lat="43.52865" lon="6.64691">
        <ele>364.8</ele>
        <time>2022-04-22T09:04:07Z</time>
      </trkpt>
      <trkpt lat="43.52865" lon="6.6469">
        <ele>365</ele>
        <time>2022-04-22T09:04:08Z</time>
      </trkpt>
      <trkpt lat="43.52865" lon="6.64689">
        <ele>365.3</ele>
        <time>2022-04-22T09:04:09Z</time>
      </trkpt>
      <trkpt lat="43.52865" lon="6.64687">
        <ele>365.7</ele>
        <time>2022-04-22T09:04:11Z</time>
      </trkpt>
      <trkpt lat="43.52866" lon="6.64686">
        <ele>366</ele>
        <time>2022-04-22T09:04:12Z</time>
      </trkpt>
      <trkpt lat="43.52867" lon="6.64685">
        <ele>366.3</ele>
        <time>2022-04-22T09:04:13Z</time>
      </trkpt>
      <trkpt lat="43.52868" lon="6.64684">
        <ele>366.6</ele>
        <time>2022-04-22T09:04:14Z</time>
      </trkpt>
      <trkpt lat="43.52869" lon="6.64682">
        <ele>367.1</ele>
        <time>2022-04-22T09:04:16Z</time>
      </trkpt>
      <trkpt lat="43.52869" lon="6.64681">
        <ele>367.5</ele>
        <time>2022-04-22T09:04:17Z</time>
      </trkpt>
      <trkpt lat="43.5287" lon="6.64678">
        <ele>368</ele>
        <time>2022-04-22T09:04:18Z</time>
      </trkpt>
      <trkpt lat="43.52871" lon="6.64677">
        <ele>368.3</ele>
        <time>2022-04-22T09:04:20Z</time>
      </trkpt>
      <trkpt lat="43.52872" lon="6.64676">
        <ele>368.7</ele>
        <time>2022-04-22T09:04:21Z</time>
      </trkpt>
      <trkpt lat="43.52872" lon="6.64675">
        <ele>368.9</ele>
        <time>2022-04-22T09:04:22Z</time>
      </trkpt>
      <trkpt lat="43.52873" lon="6.64674">
        <ele>369.2</ele>
        <time>2022-04-22T09:04:24Z</time>
      </trkpt>
      <trkpt lat="43.52874" lon="6.64674">
        <ele>369.5</ele>
        <time>2022-04-22T09:04:25Z</time>
      </trkpt>
      <trkpt lat="43.52875" lon="6.64673">
        <ele>369.9</ele>
        <time>2022-04-22T09:04:26Z</time>
      </trkpt>
      <trkpt lat="43.52876" lon="6.64672">
        <ele>370.1</ele>
        <time>2022-04-22T09:04:27Z</time>
      </trkpt>
      <trkpt lat="43.52877" lon="6.64672">
        <ele>370.3</ele>
        <time>2022-04-22T09:04:28Z</time>
      </trkpt>
      <trkpt lat="43.52877" lon="6.64671">
        <ele>370.5</ele>
        <time>2022-04-22T09:04:29Z</time>
      </trkpt>
      <trkpt lat="43.52878" lon="6.64669">
        <ele>370.9</ele>
        <time>2022-04-22T09:04:31Z</time>
      </trkpt>
      <trkpt lat="43.52879" lon="6.64669">
        <ele>371.2</ele>
        <time>2022-04-22T09:04:32Z</time>
      </trkpt>
      <trkpt lat="43.5288" lon="6.64668">
        <ele>371.5</ele>
        <time>2022-04-22T09:04:33Z</time>
      </trkpt>
      <trkpt lat="43.52881" lon="6.64667">
        <ele>371.7</ele>
        <time>2022-04-22T09:04:34Z</time>
      </trkpt>
      <trkpt lat="43.52883" lon="6.64666">
        <ele>372.3</ele>
        <time>2022-04-22T09:04:36Z</time>
      </trkpt>
      <trkpt lat="43.52883" lon="6.64665">
        <ele>372.5</ele>
        <time>2022-04-22T09:04:37Z</time>
      </trkpt>
      <trkpt lat="43.52884" lon="6.64664">
        <ele>372.8</ele>
        <time>2022-04-22T09:04:38Z</time>
      </trkpt>
      <trkpt lat="43.52885" lon="6.64663">
        <ele>373.1</ele>
        <time>2022-04-22T09:04:39Z</time>
      </trkpt>
      <trkpt lat="43.52886" lon="6.64662">
        <ele>373.4</ele>
        <time>2022-04-22T09:04:40Z</time>
      </trkpt>
      <trkpt lat="43.52887" lon="6.64661">
        <ele>373.8</ele>
        <time>2022-04-22T09:04:41Z</time>
      </trkpt>
      <trkpt lat="43.52888" lon="6.6466">
        <ele>374.2</ele>
        <time>2022-04-22T09:04:42Z</time>
      </trkpt>
      <trkpt lat="43.52889" lon="6.6466">
        <ele>374.5</ele>
        <time>2022-04-22T09:04:44Z</time>
      </trkpt>
      <trkpt lat="43.52891" lon="6.64659">
        <ele>374.9</ele>
        <time>2022-04-22T09:04:45Z</time>
      </trkpt>
      <trkpt lat="43.52893" lon="6.64658">
        <ele>375.4</ele>
        <time>2022-04-22T09:04:46Z</time>
      </trkpt>
      <trkpt lat="43.52893" lon="6.64657">
        <ele>375.6</ele>
        <time>2022-04-22T09:04:47Z</time>
      </trkpt>
      <trkpt lat="43.52894" lon="6.64656">
        <ele>375.9</ele>
        <time>2022-04-22T09:04:49Z</time>
      </trkpt>
      <trkpt lat="43.52895" lon="6.64655">
        <ele>376.3</ele>
        <time>2022-04-22T09:04:50Z</time>
      </trkpt>
      <trkpt lat="43.52896" lon="6.64654">
        <ele>376.6</ele>
        <time>2022-04-22T09:04:52Z</time>
      </trkpt>
      <trkpt lat="43.52897" lon="6.64653">
        <ele>376.9</ele>
        <time>2022-04-22T09:04:53Z</time>
      </trkpt>
      <trkpt lat="43.52898" lon="6.64651">
        <ele>377.2</ele>
        <time>2022-04-22T09:04:55Z</time>
      </trkpt>
      <trkpt lat="43.52898" lon="6.64651">
        <ele>377.3</ele>
        <time>2022-04-22T09:04:56Z</time>
      </trkpt>
      <trkpt lat="43.52898" lon="6.6465">
        <ele>377.4</ele>
        <time>2022-04-22T09:04:57Z</time>
      </trkpt>
      <trkpt lat="43.52898" lon="6.64649">
        <ele>377.5</ele>
        <time>2022-04-22T09:04:58Z</time>
      </trkpt>
      <trkpt lat="43.52898" lon="6.64649">
        <ele>377.7</ele>
        <time>2022-04-22T09:04:59Z</time>
      </trkpt>
      <trkpt lat="43.52899" lon="6.64648">
        <ele>377.8</ele>
        <time>2022-04-22T09:05:00Z</time>
      </trkpt>
      <trkpt lat="43.52899" lon="6.64647">
        <ele>377.9</ele>
        <time>2022-04-22T09:05:01Z</time>
      </trkpt>
      <trkpt lat="43.52899" lon="6.64647">
        <ele>378</ele>
        <time>2022-04-22T09:05:03Z</time>
      </trkpt>
      <trkpt lat="43.52899" lon="6.64646">
        <ele>378.1</ele>
        <time>2022-04-22T09:05:04Z</time>
      </trkpt>
      <trkpt lat="43.52899" lon="6.64645">
        <ele>378.3</ele>
        <time>2022-04-22T09:05:05Z</time>
      </trkpt>
      <trkpt lat="43.52899" lon="6.64645">
        <ele>378.4</ele>
        <time>2022-04-22T09:05:06Z</time>
      </trkpt>
      <trkpt lat="43.529" lon="6.64644">
        <ele>378.5</ele>
        <time>2022-04-22T09:05:07Z</time>
      </trkpt>
      <trkpt lat="43.529" lon="6.64643">
        <ele>378.6</ele>
        <time>2022-04-22T09:05:08Z</time>
      </trkpt>
      <trkpt lat="43.52901" lon="6.64641">
        <ele>379.1</ele>
        <time>2022-04-22T09:05:10Z</time>
      </trkpt>
      <trkpt lat="43.52901" lon="6.6464">
        <ele>379.3</ele>
        <time>2022-04-22T09:05:11Z</time>
      </trkpt>
      <trkpt lat="43.52902" lon="6.64639">
        <ele>379.4</ele>
        <time>2022-04-22T09:05:12Z</time>
      </trkpt>
      <trkpt lat="43.52903" lon="6.64637">
        <ele>379.7</ele>
        <time>2022-04-22T09:05:13Z</time>
      </trkpt>
      <trkpt lat="43.52904" lon="6.64636">
        <ele>380</ele>
        <time>2022-04-22T09:05:14Z</time>
      </trkpt>
      <trkpt lat="43.52906" lon="6.64635">
        <ele>380.4</ele>
        <time>2022-04-22T09:05:16Z</time>
      </trkpt>
      <trkpt lat="43.52907" lon="6.64635">
        <ele>380.6</ele>
        <time>2022-04-22T09:05:17Z</time>
      </trkpt>
      <trkpt lat="43.52907" lon="6.64634">
        <ele>380.7</ele>
        <time>2022-04-22T09:05:18Z</time>
      </trkpt>
      <trkpt lat="43.52909" lon="6.64632">
        <ele>381.1</ele>
        <time>2022-04-22T09:05:19Z</time>
      </trkpt>
      <trkpt lat="43.52909" lon="6.64631">
        <ele>381.3</ele>
        <time>2022-04-22T09:05:20Z</time>
      </trkpt>
      <trkpt lat="43.5291" lon="6.6463">
        <ele>381.5</ele>
        <time>2022-04-22T09:05:21Z</time>
      </trkpt>
      <trkpt lat="43.5291" lon="6.64628">
        <ele>381.8</ele>
        <time>2022-04-22T09:05:23Z</time>
      </trkpt>
      <trkpt lat="43.5291" lon="6.64627">
        <ele>381.9</ele>
        <time>2022-04-22T09:05:24Z</time>
      </trkpt>
      <trkpt lat="43.5291" lon="6.64626">
        <ele>382.1</ele>
        <time>2022-04-22T09:05:25Z</time>
      </trkpt>
      <trkpt lat="43.52911" lon="6.64626">
        <ele>382.2</ele>
        <time>2022-04-22T09:05:26Z</time>
      </trkpt>
      <trkpt lat="43.52912" lon="6.64624">
        <ele>382.4</ele>
        <time>2022-04-22T09:05:27Z</time>
      </trkpt>
      <trkpt lat="43.52913" lon="6.64624">
        <ele>382.7</ele>
        <time>2022-04-22T09:05:29Z</time>
      </trkpt>
      <trkpt lat="43.52914" lon="6.64623">
        <ele>382.9</ele>
        <time>2022-04-22T09:05:30Z</time>
      </trkpt>
      <trkpt lat="43.52915" lon="6.64622">
        <ele>383.2</ele>
        <time>2022-04-22T09:05:31Z</time>
      </trkpt>
      <trkpt lat="43.52915" lon="6.64622">
        <ele>383.4</ele>
        <time>2022-04-22T09:05:32Z</time>
      </trkpt>
      <trkpt lat="43.52916" lon="6.64621">
        <ele>383.6</ele>
        <time>2022-04-22T09:05:34Z</time>
      </trkpt>
      <trkpt lat="43.52917" lon="6.6462">
        <ele>383.8</ele>
        <time>2022-04-22T09:05:35Z</time>
      </trkpt>
      <trkpt lat="43.52917" lon="6.64618">
        <ele>384.1</ele>
        <time>2022-04-22T09:05:36Z</time>
      </trkpt>
      <trkpt lat="43.52918" lon="6.64617">
        <ele>384.2</ele>
        <time>2022-04-22T09:05:37Z</time>
      </trkpt>
      <trkpt lat="43.52918" lon="6.64616">
        <ele>384.4</ele>
        <time>2022-04-22T09:05:38Z</time>
      </trkpt>
      <trkpt lat="43.52919" lon="6.64616">
        <ele>384.5</ele>
        <time>2022-04-22T09:05:40Z</time>
      </trkpt>
      <trkpt lat="43.5292" lon="6.64616">
        <ele>384.8</ele>
        <time>2022-04-22T09:05:41Z</time>
      </trkpt>
      <trkpt lat="43.5292" lon="6.64616">
        <ele>384.9</ele>
        <time>2022-04-22T09:05:42Z</time>
      </trkpt>
      <trkpt lat="43.52922" lon="6.64616">
        <ele>385.2</ele>
        <time>2022-04-22T09:05:43Z</time>
      </trkpt>
      <trkpt lat="43.52923" lon="6.64616">
        <ele>385.4</ele>
        <time>2022-04-22T09:05:44Z</time>
      </trkpt>
      <trkpt lat="43.52924" lon="6.64616">
        <ele>385.8</ele>
        <time>2022-04-22T09:05:46Z</time>
      </trkpt>
      <trkpt lat="43.52925" lon="6.64616">
        <ele>386</ele>
        <time>2022-04-22T09:05:47Z</time>
      </trkpt>
      <trkpt lat="43.52926" lon="6.64616">
        <ele>386.2</ele>
        <time>2022-04-22T09:05:48Z</time>
      </trkpt>
      <trkpt lat="43.52927" lon="6.64615">
        <ele>386.5</ele>
        <time>2022-04-22T09:05:49Z</time>
      </trkpt>
      <trkpt lat="43.52929" lon="6.64615">
        <ele>386.8</ele>
        <time>2022-04-22T09:05:50Z</time>
      </trkpt>
      <trkpt lat="43.5293" lon="6.64614">
        <ele>387.1</ele>
        <time>2022-04-22T09:05:52Z</time>
      </trkpt>
      <trkpt lat="43.52932" lon="6.64613">
        <ele>387.4</ele>
        <time>2022-04-22T09:05:53Z</time>
      </trkpt>
      <trkpt lat="43.52932" lon="6.64612">
        <ele>387.7</ele>
        <time>2022-04-22T09:05:54Z</time>
      </trkpt>
      <trkpt lat="43.52933" lon="6.64611">
        <ele>387.9</ele>
        <time>2022-04-22T09:05:55Z</time>
      </trkpt>
      <trkpt lat="43.52933" lon="6.64611">
        <ele>388.1</ele>
        <time>2022-04-22T09:05:56Z</time>
      </trkpt>
      <trkpt lat="43.52935" lon="6.6461">
        <ele>388.4</ele>
        <time>2022-04-22T09:05:58Z</time>
      </trkpt>
      <trkpt lat="43.52936" lon="6.64609">
        <ele>388.8</ele>
        <time>2022-04-22T09:05:59Z</time>
      </trkpt>
      <trkpt lat="43.52937" lon="6.64608">
        <ele>389</ele>
        <time>2022-04-22T09:06:00Z</time>
      </trkpt>
      <trkpt lat="43.52937" lon="6.64607">
        <ele>389.2</ele>
        <time>2022-04-22T09:06:01Z</time>
      </trkpt>
      <trkpt lat="43.52938" lon="6.64606">
        <ele>389.4</ele>
        <time>2022-04-22T09:06:02Z</time>
      </trkpt>
      <trkpt lat="43.52938" lon="6.64606">
        <ele>389.6</ele>
        <time>2022-04-22T09:06:03Z</time>
      </trkpt>
      <trkpt lat="43.52939" lon="6.64605">
        <ele>389.8</ele>
        <time>2022-04-22T09:06:05Z</time>
      </trkpt>
      <trkpt lat="43.5294" lon="6.64603">
        <ele>390.1</ele>
        <time>2022-04-22T09:06:06Z</time>
      </trkpt>
      <trkpt lat="43.5294" lon="6.64602">
        <ele>390.4</ele>
        <time>2022-04-22T09:06:07Z</time>
      </trkpt>
      <trkpt lat="43.52941" lon="6.64599">
        <ele>391</ele>
        <time>2022-04-22T09:06:08Z</time>
      </trkpt>
      <trkpt lat="43.52941" lon="6.64598">
        <ele>391.2</ele>
        <time>2022-04-22T09:06:10Z</time>
      </trkpt>
      <trkpt lat="43.52942" lon="6.64597">
        <ele>391.5</ele>
        <time>2022-04-22T09:06:11Z</time>
      </trkpt>
      <trkpt lat="43.52943" lon="6.64595">
        <ele>392</ele>
        <time>2022-04-22T09:06:12Z</time>
      </trkpt>
      <trkpt lat="43.52944" lon="6.64594">
        <ele>392.3</ele>
        <time>2022-04-22T09:06:13Z</time>
      </trkpt>
      <trkpt lat="43.52944" lon="6.64593">
        <ele>392.5</ele>
        <time>2022-04-22T09:06:14Z</time>
      </trkpt>
      <trkpt lat="43.52945" lon="6.64591">
        <ele>392.8</ele>
        <time>2022-04-22T09:06:15Z</time>
      </trkpt>
      <trkpt lat="43.52946" lon="6.6459">
        <ele>393.2</ele>
        <time>2022-04-22T09:06:17Z</time>
      </trkpt>
      <trkpt lat="43.52947" lon="6.64588">
        <ele>393.6</ele>
        <time>2022-04-22T09:06:18Z</time>
      </trkpt>
      <trkpt lat="43.52948" lon="6.64586">
        <ele>394.2</ele>
        <time>2022-04-22T09:06:19Z</time>
      </trkpt>
      <trkpt lat="43.52949" lon="6.64586">
        <ele>394.4</ele>
        <time>2022-04-22T09:06:20Z</time>
      </trkpt>
      <trkpt lat="43.5295" lon="6.64585">
        <ele>394.7</ele>
        <time>2022-04-22T09:06:21Z</time>
      </trkpt>
      <trkpt lat="43.52951" lon="6.64584">
        <ele>394.9</ele>
        <time>2022-04-22T09:06:22Z</time>
      </trkpt>
      <trkpt lat="43.52952" lon="6.64583">
        <ele>395.3</ele>
        <time>2022-04-22T09:06:23Z</time>
      </trkpt>
      <trkpt lat="43.52953" lon="6.64582">
        <ele>395.6</ele>
        <time>2022-04-22T09:06:25Z</time>
      </trkpt>
      <trkpt lat="43.52954" lon="6.64581">
        <ele>395.8</ele>
        <time>2022-04-22T09:06:26Z</time>
      </trkpt>
      <trkpt lat="43.52955" lon="6.6458">
        <ele>396.1</ele>
        <time>2022-04-22T09:06:27Z</time>
      </trkpt>
      <trkpt lat="43.52956" lon="6.6458">
        <ele>396.3</ele>
        <time>2022-04-22T09:06:28Z</time>
      </trkpt>
      <trkpt lat="43.52957" lon="6.64579">
        <ele>396.6</ele>
        <time>2022-04-22T09:06:30Z</time>
      </trkpt>
      <trkpt lat="43.52958" lon="6.64578">
        <ele>396.8</ele>
        <time>2022-04-22T09:06:31Z</time>
      </trkpt>
      <trkpt lat="43.52959" lon="6.64578">
        <ele>397.1</ele>
        <time>2022-04-22T09:06:32Z</time>
      </trkpt>
      <trkpt lat="43.5296" lon="6.64577">
        <ele>397.3</ele>
        <time>2022-04-22T09:06:33Z</time>
      </trkpt>
      <trkpt lat="43.52961" lon="6.64576">
        <ele>397.6</ele>
        <time>2022-04-22T09:06:35Z</time>
      </trkpt>
      <trkpt lat="43.52962" lon="6.64576">
        <ele>397.8</ele>
        <time>2022-04-22T09:06:36Z</time>
      </trkpt>
      <trkpt lat="43.52963" lon="6.64575">
        <ele>398</ele>
        <time>2022-04-22T09:06:37Z</time>
      </trkpt>
      <trkpt lat="43.52963" lon="6.64575">
        <ele>398.1</ele>
        <time>2022-04-22T09:06:38Z</time>
      </trkpt>
      <trkpt lat="43.52965" lon="6.64574">
        <ele>398.5</ele>
        <time>2022-04-22T09:06:40Z</time>
      </trkpt>
      <trkpt lat="43.52965" lon="6.64574">
        <ele>398.7</ele>
        <time>2022-04-22T09:06:41Z</time>
      </trkpt>
      <trkpt lat="43.52966" lon="6.64574">
        <ele>398.9</ele>
        <time>2022-04-22T09:06:42Z</time>
      </trkpt>
      <trkpt lat="43.52968" lon="6.64573">
        <ele>399.2</ele>
        <time>2022-04-22T09:06:44Z</time>
      </trkpt>
      <trkpt lat="43.52969" lon="6.64572">
        <ele>399.4</ele>
        <time>2022-04-22T09:06:45Z</time>
      </trkpt>
      <trkpt lat="43.52969" lon="6.64572">
        <ele>399.6</ele>
        <time>2022-04-22T09:06:46Z</time>
      </trkpt>
      <trkpt lat="43.5297" lon="6.64571">
        <ele>399.8</ele>
        <time>2022-04-22T09:06:47Z</time>
      </trkpt>
      <trkpt lat="43.52972" lon="6.64571">
        <ele>400.1</ele>
        <time>2022-04-22T09:06:49Z</time>
      </trkpt>
      <trkpt lat="43.52973" lon="6.6457">
        <ele>400.3</ele>
        <time>2022-04-22T09:06:50Z</time>
      </trkpt>
      <trkpt lat="43.52974" lon="6.6457">
        <ele>400.5</ele>
        <time>2022-04-22T09:06:51Z</time>
      </trkpt>
      <trkpt lat="43.52975" lon="6.64569">
        <ele>400.8</ele>
        <time>2022-04-22T09:06:52Z</time>
      </trkpt>
      <trkpt lat="43.52976" lon="6.64568">
        <ele>401</ele>
        <time>2022-04-22T09:06:54Z</time>
      </trkpt>
      <trkpt lat="43.52978" lon="6.64568">
        <ele>401.3</ele>
        <time>2022-04-22T09:06:55Z</time>
      </trkpt>
      <trkpt lat="43.52979" lon="6.64568">
        <ele>401.5</ele>
        <time>2022-04-22T09:06:56Z</time>
      </trkpt>
      <trkpt lat="43.5298" lon="6.64568">
        <ele>401.6</ele>
        <time>2022-04-22T09:06:57Z</time>
      </trkpt>
      <trkpt lat="43.52981" lon="6.64567">
        <ele>401.8</ele>
        <time>2022-04-22T09:06:59Z</time>
      </trkpt>
      <trkpt lat="43.52982" lon="6.64567">
        <ele>402</ele>
        <time>2022-04-22T09:07:00Z</time>
      </trkpt>
      <trkpt lat="43.52982" lon="6.64567">
        <ele>402.1</ele>
        <time>2022-04-22T09:07:01Z</time>
      </trkpt>
      <trkpt lat="43.52984" lon="6.64566">
        <ele>402.4</ele>
        <time>2022-04-22T09:07:02Z</time>
      </trkpt>
      <trkpt lat="43.52984" lon="6.64566">
        <ele>402.5</ele>
        <time>2022-04-22T09:07:03Z</time>
      </trkpt>
      <trkpt lat="43.52985" lon="6.64565">
        <ele>402.5</ele>
        <time>2022-04-22T09:07:04Z</time>
      </trkpt>
      <trkpt lat="43.52985" lon="6.64565">
        <ele>402.6</ele>
        <time>2022-04-22T09:07:06Z</time>
      </trkpt>
      <trkpt lat="43.52986" lon="6.64564">
        <ele>402.7</ele>
        <time>2022-04-22T09:07:07Z</time>
      </trkpt>
      <trkpt lat="43.52986" lon="6.64564">
        <ele>402.8</ele>
        <time>2022-04-22T09:07:08Z</time>
      </trkpt>
      <trkpt lat="43.52987" lon="6.64563">
        <ele>402.9</ele>
        <time>2022-04-22T09:07:09Z</time>
      </trkpt>
      <trkpt lat="43.52988" lon="6.64559">
        <ele>403.3</ele>
        <time>2022-04-22T09:07:11Z</time>
      </trkpt>
      <trkpt lat="43.52989" lon="6.64558">
        <ele>403.4</ele>
        <time>2022-04-22T09:07:12Z</time>
      </trkpt>
      <trkpt lat="43.5299" lon="6.64556">
        <ele>403.7</ele>
        <time>2022-04-22T09:07:13Z</time>
      </trkpt>
      <trkpt lat="43.5299" lon="6.64554">
        <ele>403.8</ele>
        <time>2022-04-22T09:07:14Z</time>
      </trkpt>
      <trkpt lat="43.52991" lon="6.64553">
        <ele>404.1</ele>
        <time>2022-04-22T09:07:15Z</time>
      </trkpt>
      <trkpt lat="43.52992" lon="6.64552">
        <ele>404.2</ele>
        <time>2022-04-22T09:07:16Z</time>
      </trkpt>
      <trkpt lat="43.52994" lon="6.64551">
        <ele>404.4</ele>
        <time>2022-04-22T09:07:17Z</time>
      </trkpt>
      <trkpt lat="43.52996" lon="6.6455">
        <ele>404.7</ele>
        <time>2022-04-22T09:07:19Z</time>
      </trkpt>
      <trkpt lat="43.52997" lon="6.64548">
        <ele>404.8</ele>
        <time>2022-04-22T09:07:20Z</time>
      </trkpt>
      <trkpt lat="43.52996" lon="6.64547">
        <ele>405</ele>
        <time>2022-04-22T09:07:22Z</time>
      </trkpt>
      <trkpt lat="43.52997" lon="6.64546">
        <ele>405.1</ele>
        <time>2022-04-22T09:07:23Z</time>
      </trkpt>
      <trkpt lat="43.52997" lon="6.64545">
        <ele>405.2</ele>
        <time>2022-04-22T09:07:24Z</time>
      </trkpt>
      <trkpt lat="43.52999" lon="6.64544">
        <ele>405.5</ele>
        <time>2022-04-22T09:07:25Z</time>
      </trkpt>
      <trkpt lat="43.53" lon="6.64543">
        <ele>405.7</ele>
        <time>2022-04-22T09:07:26Z</time>
      </trkpt>
      <trkpt lat="43.53002" lon="6.64541">
        <ele>405.9</ele>
        <time>2022-04-22T09:07:28Z</time>
      </trkpt>
      <trkpt lat="43.53003" lon="6.64541">
        <ele>406.1</ele>
        <time>2022-04-22T09:07:29Z</time>
      </trkpt>
      <trkpt lat="43.53003" lon="6.6454">
        <ele>406.2</ele>
        <time>2022-04-22T09:07:30Z</time>
      </trkpt>
      <trkpt lat="43.53005" lon="6.6454">
        <ele>406.5</ele>
        <time>2022-04-22T09:07:32Z</time>
      </trkpt>
      <trkpt lat="43.53006" lon="6.64539">
        <ele>406.6</ele>
        <time>2022-04-22T09:07:33Z</time>
      </trkpt>
      <trkpt lat="43.53007" lon="6.64538">
        <ele>406.8</ele>
        <time>2022-04-22T09:07:34Z</time>
      </trkpt>
      <trkpt lat="43.53008" lon="6.64537">
        <ele>406.9</ele>
        <time>2022-04-22T09:07:35Z</time>
      </trkpt>
      <trkpt lat="43.53009" lon="6.64536">
        <ele>407.2</ele>
        <time>2022-04-22T09:07:36Z</time>
      </trkpt>
      <trkpt lat="43.5301" lon="6.64535">
        <ele>407.3</ele>
        <time>2022-04-22T09:07:37Z</time>
      </trkpt>
      <trkpt lat="43.53011" lon="6.64535">
        <ele>407.5</ele>
        <time>2022-04-22T09:07:39Z</time>
      </trkpt>
      <trkpt lat="43.53013" lon="6.64534">
        <ele>407.7</ele>
        <time>2022-04-22T09:07:40Z</time>
      </trkpt>
      <trkpt lat="43.53014" lon="6.64534">
        <ele>407.9</ele>
        <time>2022-04-22T09:07:41Z</time>
      </trkpt>
      <trkpt lat="43.53015" lon="6.64533">
        <ele>408</ele>
        <time>2022-04-22T09:07:42Z</time>
      </trkpt>
      <trkpt lat="43.53016" lon="6.64533">
        <ele>408.1</ele>
        <time>2022-04-22T09:07:43Z</time>
      </trkpt>
      <trkpt lat="43.53017" lon="6.64533">
        <ele>408.3</ele>
        <time>2022-04-22T09:07:44Z</time>
      </trkpt>
      <trkpt lat="43.53018" lon="6.64532">
        <ele>408.5</ele>
        <time>2022-04-22T09:07:46Z</time>
      </trkpt>
      <trkpt lat="43.53019" lon="6.64532">
        <ele>408.7</ele>
        <time>2022-04-22T09:07:47Z</time>
      </trkpt>
      <trkpt lat="43.53021" lon="6.64531">
        <ele>409.1</ele>
        <time>2022-04-22T09:07:49Z</time>
      </trkpt>
      <trkpt lat="43.53022" lon="6.64531">
        <ele>409.2</ele>
        <time>2022-04-22T09:07:50Z</time>
      </trkpt>
      <trkpt lat="43.53024" lon="6.6453">
        <ele>409.4</ele>
        <time>2022-04-22T09:07:51Z</time>
      </trkpt>
      <trkpt lat="43.53025" lon="6.64528">
        <ele>409.8</ele>
        <time>2022-04-22T09:07:53Z</time>
      </trkpt>
      <trkpt lat="43.53027" lon="6.64527">
        <ele>410.1</ele>
        <time>2022-04-22T09:07:54Z</time>
      </trkpt>
      <trkpt lat="43.53027" lon="6.64526">
        <ele>410.2</ele>
        <time>2022-04-22T09:07:56Z</time>
      </trkpt>
      <trkpt lat="43.53028" lon="6.64525">
        <ele>410.4</ele>
        <time>2022-04-22T09:07:57Z</time>
      </trkpt>
      <trkpt lat="43.53029" lon="6.64525">
        <ele>410.6</ele>
        <time>2022-04-22T09:07:58Z</time>
      </trkpt>
      <trkpt lat="43.53031" lon="6.64523">
        <ele>410.9</ele>
        <time>2022-04-22T09:07:59Z</time>
      </trkpt>
      <trkpt lat="43.53032" lon="6.64523">
        <ele>411</ele>
        <time>2022-04-22T09:08:00Z</time>
      </trkpt>
      <trkpt lat="43.53033" lon="6.64522">
        <ele>411.2</ele>
        <time>2022-04-22T09:08:02Z</time>
      </trkpt>
      <trkpt lat="43.53034" lon="6.64522">
        <ele>411.3</ele>
        <time>2022-04-22T09:08:03Z</time>
      </trkpt>
      <trkpt lat="43.53035" lon="6.64521">
        <ele>411.6</ele>
        <time>2022-04-22T09:08:04Z</time>
      </trkpt>
      <trkpt lat="43.53036" lon="6.64521">
        <ele>411.7</ele>
        <time>2022-04-22T09:08:05Z</time>
      </trkpt>
      <trkpt lat="43.53036" lon="6.6452">
        <ele>411.8</ele>
        <time>2022-04-22T09:08:06Z</time>
      </trkpt>
      <trkpt lat="43.53037" lon="6.6452">
        <ele>411.9</ele>
        <time>2022-04-22T09:08:07Z</time>
      </trkpt>
      <trkpt lat="43.53039" lon="6.64518">
        <ele>412.3</ele>
        <time>2022-04-22T09:08:09Z</time>
      </trkpt>
      <trkpt lat="43.5304" lon="6.64517">
        <ele>412.4</ele>
        <time>2022-04-22T09:08:10Z</time>
      </trkpt>
      <trkpt lat="43.5304" lon="6.64516">
        <ele>412.6</ele>
        <time>2022-04-22T09:08:11Z</time>
      </trkpt>
      <trkpt lat="43.53041" lon="6.64515">
        <ele>412.8</ele>
        <time>2022-04-22T09:08:12Z</time>
      </trkpt>
      <trkpt lat="43.53042" lon="6.64513">
        <ele>413</ele>
        <time>2022-04-22T09:08:13Z</time>
      </trkpt>
      <trkpt lat="43.53042" lon="6.64512">
        <ele>413.2</ele>
        <time>2022-04-22T09:08:14Z</time>
      </trkpt>
      <trkpt lat="43.53043" lon="6.64511">
        <ele>413.3</ele>
        <time>2022-04-22T09:08:15Z</time>
      </trkpt>
      <trkpt lat="43.53045" lon="6.6451">
        <ele>413.7</ele>
        <time>2022-04-22T09:08:17Z</time>
      </trkpt>
      <trkpt lat="43.53045" lon="6.64509">
        <ele>413.8</ele>
        <time>2022-04-22T09:08:18Z</time>
      </trkpt>
      <trkpt lat="43.53046" lon="6.64508">
        <ele>414</ele>
        <time>2022-04-22T09:08:19Z</time>
      </trkpt>
      <trkpt lat="43.53048" lon="6.64508">
        <ele>414.3</ele>
        <time>2022-04-22T09:08:20Z</time>
      </trkpt>
      <trkpt lat="43.53049" lon="6.64508">
        <ele>414.5</ele>
        <time>2022-04-22T09:08:21Z</time>
      </trkpt>
      <trkpt lat="43.5305" lon="6.64507">
        <ele>414.6</ele>
        <time>2022-04-22T09:08:22Z</time>
      </trkpt>
      <trkpt lat="43.5305" lon="6.64507">
        <ele>414.8</ele>
        <time>2022-04-22T09:08:23Z</time>
      </trkpt>
      <trkpt lat="43.53053" lon="6.64507">
        <ele>415.4</ele>
        <time>2022-04-22T09:08:24Z</time>
      </trkpt>
      <trkpt lat="43.53055" lon="6.64508">
        <ele>415.6</ele>
        <time>2022-04-22T09:08:26Z</time>
      </trkpt>
      <trkpt lat="43.53056" lon="6.64508">
        <ele>415.8</ele>
        <time>2022-04-22T09:08:27Z</time>
      </trkpt>
      <trkpt lat="43.53057" lon="6.64508">
        <ele>416.1</ele>
        <time>2022-04-22T09:08:28Z</time>
      </trkpt>
      <trkpt lat="43.53059" lon="6.64507">
        <ele>416.4</ele>
        <time>2022-04-22T09:08:29Z</time>
      </trkpt>
      <trkpt lat="43.5306" lon="6.64507">
        <ele>416.6</ele>
        <time>2022-04-22T09:08:30Z</time>
      </trkpt>
      <trkpt lat="43.53062" lon="6.64506">
        <ele>417</ele>
        <time>2022-04-22T09:08:31Z</time>
      </trkpt>
      <trkpt lat="43.53063" lon="6.64506">
        <ele>417.1</ele>
        <time>2022-04-22T09:08:32Z</time>
      </trkpt>
      <trkpt lat="43.53064" lon="6.64506">
        <ele>417.3</ele>
        <time>2022-04-22T09:08:33Z</time>
      </trkpt>
      <trkpt lat="43.53065" lon="6.64506">
        <ele>417.4</ele>
        <time>2022-04-22T09:08:34Z</time>
      </trkpt>
      <trkpt lat="43.53066" lon="6.64505">
        <ele>417.6</ele>
        <time>2022-04-22T09:08:35Z</time>
      </trkpt>
      <trkpt lat="43.53068" lon="6.64504">
        <ele>417.9</ele>
        <time>2022-04-22T09:08:37Z</time>
      </trkpt>
      <trkpt lat="43.53069" lon="6.64504">
        <ele>418</ele>
        <time>2022-04-22T09:08:38Z</time>
      </trkpt>
      <trkpt lat="43.53071" lon="6.64503">
        <ele>418.2</ele>
        <time>2022-04-22T09:08:39Z</time>
      </trkpt>
      <trkpt lat="43.53072" lon="6.64502">
        <ele>418.4</ele>
        <time>2022-04-22T09:08:41Z</time>
      </trkpt>
      <trkpt lat="43.53073" lon="6.64501">
        <ele>418.6</ele>
        <time>2022-04-22T09:08:42Z</time>
      </trkpt>
      <trkpt lat="43.53074" lon="6.645">
        <ele>418.7</ele>
        <time>2022-04-22T09:08:43Z</time>
      </trkpt>
      <trkpt lat="43.53075" lon="6.64499">
        <ele>418.8</ele>
        <time>2022-04-22T09:08:44Z</time>
      </trkpt>
      <trkpt lat="43.53076" lon="6.64499">
        <ele>419</ele>
        <time>2022-04-22T09:08:46Z</time>
      </trkpt>
      <trkpt lat="43.53077" lon="6.64498">
        <ele>419.2</ele>
        <time>2022-04-22T09:08:47Z</time>
      </trkpt>
      <trkpt lat="43.53078" lon="6.64498">
        <ele>419.3</ele>
        <time>2022-04-22T09:08:48Z</time>
      </trkpt>
      <trkpt lat="43.53078" lon="6.64497">
        <ele>419.4</ele>
        <time>2022-04-22T09:08:49Z</time>
      </trkpt>
      <trkpt lat="43.53079" lon="6.64497">
        <ele>419.5</ele>
        <time>2022-04-22T09:08:50Z</time>
      </trkpt>
      <trkpt lat="43.5308" lon="6.64496">
        <ele>419.7</ele>
        <time>2022-04-22T09:08:52Z</time>
      </trkpt>
      <trkpt lat="43.53082" lon="6.64495">
        <ele>420</ele>
        <time>2022-04-22T09:08:54Z</time>
      </trkpt>
      <trkpt lat="43.53082" lon="6.64496">
        <ele>420</ele>
        <time>2022-04-22T09:08:55Z</time>
      </trkpt>
      <trkpt lat="43.53082" lon="6.64496">
        <ele>420.1</ele>
        <time>2022-04-22T09:08:56Z</time>
      </trkpt>
      <trkpt lat="43.53082" lon="6.64496">
        <ele>420.2</ele>
        <time>2022-04-22T09:08:58Z</time>
      </trkpt>
      <trkpt lat="43.53083" lon="6.64495">
        <ele>420.3</ele>
        <time>2022-04-22T09:08:59Z</time>
      </trkpt>
      <trkpt lat="43.53084" lon="6.64492">
        <ele>420.7</ele>
        <time>2022-04-22T09:09:00Z</time>
      </trkpt>
      <trkpt lat="43.53084" lon="6.64491">
        <ele>420.8</ele>
        <time>2022-04-22T09:09:02Z</time>
      </trkpt>
      <trkpt lat="43.53084" lon="6.64489">
        <ele>421</ele>
        <time>2022-04-22T09:09:03Z</time>
      </trkpt>
      <trkpt lat="43.53084" lon="6.64487">
        <ele>421.2</ele>
        <time>2022-04-22T09:09:04Z</time>
      </trkpt>
      <trkpt lat="43.53085" lon="6.64485">
        <ele>421.5</ele>
        <time>2022-04-22T09:09:05Z</time>
      </trkpt>
      <trkpt lat="43.53086" lon="6.64483">
        <ele>421.8</ele>
        <time>2022-04-22T09:09:07Z</time>
      </trkpt>
      <trkpt lat="43.53087" lon="6.64481">
        <ele>422.1</ele>
        <time>2022-04-22T09:09:08Z</time>
      </trkpt>
      <trkpt lat="43.53088" lon="6.6448">
        <ele>422.3</ele>
        <time>2022-04-22T09:09:09Z</time>
      </trkpt>
      <trkpt lat="43.53089" lon="6.64479">
        <ele>422.6</ele>
        <time>2022-04-22T09:09:10Z</time>
      </trkpt>
      <trkpt lat="43.5309" lon="6.64478">
        <ele>422.8</ele>
        <time>2022-04-22T09:09:12Z</time>
      </trkpt>
      <trkpt lat="43.53091" lon="6.64477">
        <ele>423.1</ele>
        <time>2022-04-22T09:09:13Z</time>
      </trkpt>
      <trkpt lat="43.53093" lon="6.64476">
        <ele>423.3</ele>
        <time>2022-04-22T09:09:14Z</time>
      </trkpt>
      <trkpt lat="43.53094" lon="6.64476">
        <ele>423.5</ele>
        <time>2022-04-22T09:09:15Z</time>
      </trkpt>
      <trkpt lat="43.53095" lon="6.64476">
        <ele>423.7</ele>
        <time>2022-04-22T09:09:16Z</time>
      </trkpt>
      <trkpt lat="43.53095" lon="6.64475">
        <ele>423.8</ele>
        <time>2022-04-22T09:09:17Z</time>
      </trkpt>
      <trkpt lat="43.53097" lon="6.64475">
        <ele>424.1</ele>
        <time>2022-04-22T09:09:19Z</time>
      </trkpt>
      <trkpt lat="43.53098" lon="6.64474">
        <ele>424.3</ele>
        <time>2022-04-22T09:09:20Z</time>
      </trkpt>
      <trkpt lat="43.53099" lon="6.64473">
        <ele>424.5</ele>
        <time>2022-04-22T09:09:21Z</time>
      </trkpt>
      <trkpt lat="43.531" lon="6.64473">
        <ele>424.7</ele>
        <time>2022-04-22T09:09:22Z</time>
      </trkpt>
      <trkpt lat="43.53101" lon="6.64472">
        <ele>424.9</ele>
        <time>2022-04-22T09:09:23Z</time>
      </trkpt>
      <trkpt lat="43.53101" lon="6.64471">
        <ele>425</ele>
        <time>2022-04-22T09:09:25Z</time>
      </trkpt>
      <trkpt lat="43.53102" lon="6.64471">
        <ele>425.2</ele>
        <time>2022-04-22T09:09:26Z</time>
      </trkpt>
      <trkpt lat="43.53104" lon="6.6447">
        <ele>425.4</ele>
        <time>2022-04-22T09:09:27Z</time>
      </trkpt>
      <trkpt lat="43.53106" lon="6.64469">
        <ele>425.8</ele>
        <time>2022-04-22T09:09:28Z</time>
      </trkpt>
      <trkpt lat="43.53107" lon="6.64469">
        <ele>426</ele>
        <time>2022-04-22T09:09:29Z</time>
      </trkpt>
      <trkpt lat="43.53108" lon="6.64468">
        <ele>426.1</ele>
        <time>2022-04-22T09:09:30Z</time>
      </trkpt>
      <trkpt lat="43.53109" lon="6.64468">
        <ele>426.4</ele>
        <time>2022-04-22T09:09:31Z</time>
      </trkpt>
      <trkpt lat="43.5311" lon="6.64467">
        <ele>426.5</ele>
        <time>2022-04-22T09:09:32Z</time>
      </trkpt>
      <trkpt lat="43.53109" lon="6.64465">
        <ele>426.7</ele>
        <time>2022-04-22T09:09:34Z</time>
      </trkpt>
      <trkpt lat="43.5311" lon="6.64464">
        <ele>426.9</ele>
        <time>2022-04-22T09:09:35Z</time>
      </trkpt>
      <trkpt lat="43.53111" lon="6.64464">
        <ele>427.1</ele>
        <time>2022-04-22T09:09:36Z</time>
      </trkpt>
      <trkpt lat="43.53112" lon="6.64464">
        <ele>427.3</ele>
        <time>2022-04-22T09:09:37Z</time>
      </trkpt>
      <trkpt lat="43.53114" lon="6.64466">
        <ele>427.6</ele>
        <time>2022-04-22T09:09:38Z</time>
      </trkpt>
      <trkpt lat="43.53115" lon="6.64468">
        <ele>428</ele>
        <time>2022-04-22T09:09:40Z</time>
      </trkpt>
      <trkpt lat="43.53117" lon="6.64467">
        <ele>428.4</ele>
        <time>2022-04-22T09:09:41Z</time>
      </trkpt>
      <trkpt lat="43.53118" lon="6.64466">
        <ele>428.5</ele>
        <time>2022-04-22T09:09:42Z</time>
      </trkpt>
      <trkpt lat="43.53119" lon="6.64465">
        <ele>428.7</ele>
        <time>2022-04-22T09:09:43Z</time>
      </trkpt>
      <trkpt lat="43.53121" lon="6.64462">
        <ele>429.2</ele>
        <time>2022-04-22T09:09:45Z</time>
      </trkpt>
      <trkpt lat="43.53121" lon="6.6446">
        <ele>429.4</ele>
        <time>2022-04-22T09:09:46Z</time>
      </trkpt>
      <trkpt lat="43.53122" lon="6.64458">
        <ele>429.7</ele>
        <time>2022-04-22T09:09:47Z</time>
      </trkpt>
      <trkpt lat="43.53123" lon="6.64457">
        <ele>430</ele>
        <time>2022-04-22T09:09:48Z</time>
      </trkpt>
      <trkpt lat="43.53124" lon="6.64456">
        <ele>430.2</ele>
        <time>2022-04-22T09:09:49Z</time>
      </trkpt>
      <trkpt lat="43.53125" lon="6.64454">
        <ele>430.6</ele>
        <time>2022-04-22T09:09:50Z</time>
      </trkpt>
      <trkpt lat="43.53126" lon="6.64453">
        <ele>430.8</ele>
        <time>2022-04-22T09:09:51Z</time>
      </trkpt>
      <trkpt lat="43.53127" lon="6.64453">
        <ele>431</ele>
        <time>2022-04-22T09:09:52Z</time>
      </trkpt>
      <trkpt lat="43.53128" lon="6.64451">
        <ele>431.3</ele>
        <time>2022-04-22T09:09:53Z</time>
      </trkpt>
      <trkpt lat="43.53129" lon="6.64451">
        <ele>431.5</ele>
        <time>2022-04-22T09:09:54Z</time>
      </trkpt>
      <trkpt lat="43.5313" lon="6.6445">
        <ele>431.8</ele>
        <time>2022-04-22T09:09:55Z</time>
      </trkpt>
      <trkpt lat="43.53131" lon="6.64449">
        <ele>432</ele>
        <time>2022-04-22T09:09:56Z</time>
      </trkpt>
      <trkpt lat="43.53133" lon="6.64448">
        <ele>432.4</ele>
        <time>2022-04-22T09:09:58Z</time>
      </trkpt>
      <trkpt lat="43.53133" lon="6.64446">
        <ele>432.6</ele>
        <time>2022-04-22T09:09:59Z</time>
      </trkpt>
      <trkpt lat="43.53134" lon="6.64445">
        <ele>432.9</ele>
        <time>2022-04-22T09:10:00Z</time>
      </trkpt>
      <trkpt lat="43.53135" lon="6.64444">
        <ele>433.1</ele>
        <time>2022-04-22T09:10:01Z</time>
      </trkpt>
      <trkpt lat="43.53136" lon="6.64444">
        <ele>433.3</ele>
        <time>2022-04-22T09:10:02Z</time>
      </trkpt>
      <trkpt lat="43.53137" lon="6.64443">
        <ele>433.5</ele>
        <time>2022-04-22T09:10:03Z</time>
      </trkpt>
      <trkpt lat="43.53138" lon="6.64442">
        <ele>433.7</ele>
        <time>2022-04-22T09:10:05Z</time>
      </trkpt>
      <trkpt lat="43.53139" lon="6.64441">
        <ele>433.9</ele>
        <time>2022-04-22T09:10:06Z</time>
      </trkpt>
      <trkpt lat="43.5314" lon="6.6444">
        <ele>434.2</ele>
        <time>2022-04-22T09:10:07Z</time>
      </trkpt>
      <trkpt lat="43.5314" lon="6.64439">
        <ele>434.3</ele>
        <time>2022-04-22T09:10:08Z</time>
      </trkpt>
      <trkpt lat="43.53141" lon="6.64438">
        <ele>434.6</ele>
        <time>2022-04-22T09:10:10Z</time>
      </trkpt>
      <trkpt lat="43.53142" lon="6.64438">
        <ele>434.7</ele>
        <time>2022-04-22T09:10:11Z</time>
      </trkpt>
      <trkpt lat="43.53143" lon="6.64437">
        <ele>434.8</ele>
        <time>2022-04-22T09:10:12Z</time>
      </trkpt>
      <trkpt lat="43.53143" lon="6.64437">
        <ele>434.9</ele>
        <time>2022-04-22T09:10:13Z</time>
      </trkpt>
      <trkpt lat="43.53144" lon="6.64436">
        <ele>435</ele>
        <time>2022-04-22T09:10:14Z</time>
      </trkpt>
      <trkpt lat="43.53144" lon="6.64435">
        <ele>435.3</ele>
        <time>2022-04-22T09:10:15Z</time>
      </trkpt>
      <trkpt lat="43.53145" lon="6.64434">
        <ele>435.5</ele>
        <time>2022-04-22T09:10:16Z</time>
      </trkpt>
      <trkpt lat="43.53146" lon="6.64431">
        <ele>435.8</ele>
        <time>2022-04-22T09:10:18Z</time>
      </trkpt>
      <trkpt lat="43.53147" lon="6.6443">
        <ele>436</ele>
        <time>2022-04-22T09:10:19Z</time>
      </trkpt>
      <trkpt lat="43.53148" lon="6.64429">
        <ele>436.3</ele>
        <time>2022-04-22T09:10:20Z</time>
      </trkpt>
      <trkpt lat="43.53148" lon="6.64427">
        <ele>436.4</ele>
        <time>2022-04-22T09:10:21Z</time>
      </trkpt>
      <trkpt lat="43.53149" lon="6.64425">
        <ele>436.8</ele>
        <time>2022-04-22T09:10:23Z</time>
      </trkpt>
      <trkpt lat="43.5315" lon="6.64424">
        <ele>436.9</ele>
        <time>2022-04-22T09:10:24Z</time>
      </trkpt>
      <trkpt lat="43.53151" lon="6.64423">
        <ele>437.1</ele>
        <time>2022-04-22T09:10:25Z</time>
      </trkpt>
      <trkpt lat="43.53152" lon="6.64422">
        <ele>437.3</ele>
        <time>2022-04-22T09:10:26Z</time>
      </trkpt>
      <trkpt lat="43.53153" lon="6.64422">
        <ele>437.4</ele>
        <time>2022-04-22T09:10:27Z</time>
      </trkpt>
      <trkpt lat="43.53154" lon="6.64422">
        <ele>437.6</ele>
        <time>2022-04-22T09:10:28Z</time>
      </trkpt>
      <trkpt lat="43.53155" lon="6.64422">
        <ele>437.8</ele>
        <time>2022-04-22T09:10:29Z</time>
      </trkpt>
      <trkpt lat="43.53157" lon="6.64422">
        <ele>438.1</ele>
        <time>2022-04-22T09:10:31Z</time>
      </trkpt>
      <trkpt lat="43.53157" lon="6.64421">
        <ele>438.2</ele>
        <time>2022-04-22T09:10:32Z</time>
      </trkpt>
      <trkpt lat="43.53158" lon="6.64421">
        <ele>438.3</ele>
        <time>2022-04-22T09:10:33Z</time>
      </trkpt>
      <trkpt lat="43.53158" lon="6.6442">
        <ele>438.4</ele>
        <time>2022-04-22T09:10:34Z</time>
      </trkpt>
      <trkpt lat="43.53159" lon="6.64419">
        <ele>438.6</ele>
        <time>2022-04-22T09:10:35Z</time>
      </trkpt>
      <trkpt lat="43.5316" lon="6.64419">
        <ele>438.7</ele>
        <time>2022-04-22T09:10:36Z</time>
      </trkpt>
      <trkpt lat="43.53161" lon="6.64419">
        <ele>439</ele>
        <time>2022-04-22T09:10:38Z</time>
      </trkpt>
      <trkpt lat="43.53163" lon="6.64419">
        <ele>439.3</ele>
        <time>2022-04-22T09:10:39Z</time>
      </trkpt>
      <trkpt lat="43.53164" lon="6.64419">
        <ele>439.5</ele>
        <time>2022-04-22T09:10:40Z</time>
      </trkpt>
      <trkpt lat="43.53166" lon="6.6442">
        <ele>439.9</ele>
        <time>2022-04-22T09:10:42Z</time>
      </trkpt>
      <trkpt lat="43.53167" lon="6.64421">
        <ele>440.1</ele>
        <time>2022-04-22T09:10:43Z</time>
      </trkpt>
      <trkpt lat="43.53168" lon="6.64421">
        <ele>440.3</ele>
        <time>2022-04-22T09:10:44Z</time>
      </trkpt>
      <trkpt lat="43.53169" lon="6.64422">
        <ele>440.5</ele>
        <time>2022-04-22T09:10:45Z</time>
      </trkpt>
      <trkpt lat="43.53169" lon="6.64423">
        <ele>440.7</ele>
        <time>2022-04-22T09:10:46Z</time>
      </trkpt>
      <trkpt lat="43.5317" lon="6.64424">
        <ele>440.9</ele>
        <time>2022-04-22T09:10:48Z</time>
      </trkpt>
      <trkpt lat="43.53172" lon="6.64424">
        <ele>441.1</ele>
        <time>2022-04-22T09:10:49Z</time>
      </trkpt>
      <trkpt lat="43.53173" lon="6.64424">
        <ele>441.3</ele>
        <time>2022-04-22T09:10:50Z</time>
      </trkpt>
      <trkpt lat="43.53173" lon="6.64423">
        <ele>441.6</ele>
        <time>2022-04-22T09:10:51Z</time>
      </trkpt>
      <trkpt lat="43.53175" lon="6.6442">
        <ele>442</ele>
        <time>2022-04-22T09:10:52Z</time>
      </trkpt>
      <trkpt lat="43.53175" lon="6.64419">
        <ele>442.2</ele>
        <time>2022-04-22T09:10:54Z</time>
      </trkpt>
      <trkpt lat="43.53176" lon="6.64418">
        <ele>442.4</ele>
        <time>2022-04-22T09:10:55Z</time>
      </trkpt>
      <trkpt lat="43.53176" lon="6.64417">
        <ele>442.6</ele>
        <time>2022-04-22T09:10:56Z</time>
      </trkpt>
      <trkpt lat="43.53177" lon="6.64417">
        <ele>442.8</ele>
        <time>2022-04-22T09:10:57Z</time>
      </trkpt>
      <trkpt lat="43.53178" lon="6.64417">
        <ele>442.9</ele>
        <time>2022-04-22T09:10:58Z</time>
      </trkpt>
      <trkpt lat="43.53179" lon="6.64417">
        <ele>443</ele>
        <time>2022-04-22T09:10:59Z</time>
      </trkpt>
      <trkpt lat="43.53178" lon="6.64418">
        <ele>443.1</ele>
        <time>2022-04-22T09:11:00Z</time>
      </trkpt>
      <trkpt lat="43.53179" lon="6.64417">
        <ele>443.3</ele>
        <time>2022-04-22T09:11:01Z</time>
      </trkpt>
      <trkpt lat="43.5318" lon="6.64416">
        <ele>443.5</ele>
        <time>2022-04-22T09:11:03Z</time>
      </trkpt>
      <trkpt lat="43.53181" lon="6.64416">
        <ele>443.7</ele>
        <time>2022-04-22T09:11:04Z</time>
      </trkpt>
      <trkpt lat="43.53182" lon="6.64415">
        <ele>443.9</ele>
        <time>2022-04-22T09:11:05Z</time>
      </trkpt>
      <trkpt lat="43.53183" lon="6.64414">
        <ele>444.2</ele>
        <time>2022-04-22T09:11:06Z</time>
      </trkpt>
      <trkpt lat="43.53184" lon="6.64413">
        <ele>444.4</ele>
        <time>2022-04-22T09:11:07Z</time>
      </trkpt>
      <trkpt lat="43.53185" lon="6.64412">
        <ele>444.8</ele>
        <time>2022-04-22T09:11:09Z</time>
      </trkpt>
      <trkpt lat="43.53188" lon="6.64413">
        <ele>445.3</ele>
        <time>2022-04-22T09:11:10Z</time>
      </trkpt>
      <trkpt lat="43.53188" lon="6.64413">
        <ele>445.4</ele>
        <time>2022-04-22T09:11:12Z</time>
      </trkpt>
      <trkpt lat="43.53189" lon="6.64413">
        <ele>445.5</ele>
        <time>2022-04-22T09:11:13Z</time>
      </trkpt>
      <trkpt lat="43.53191" lon="6.64411">
        <ele>446.2</ele>
        <time>2022-04-22T09:11:14Z</time>
      </trkpt>
      <trkpt lat="43.53193" lon="6.64407">
        <ele>446.8</ele>
        <time>2022-04-22T09:11:15Z</time>
      </trkpt>
      <trkpt lat="43.53194" lon="6.64405">
        <ele>447.1</ele>
        <time>2022-04-22T09:11:16Z</time>
      </trkpt>
      <trkpt lat="43.53195" lon="6.64404">
        <ele>447.4</ele>
        <time>2022-04-22T09:11:17Z</time>
      </trkpt>
      <trkpt lat="43.53195" lon="6.64402">
        <ele>447.7</ele>
        <time>2022-04-22T09:11:18Z</time>
      </trkpt>
      <trkpt lat="43.53197" lon="6.64401">
        <ele>447.9</ele>
        <time>2022-04-22T09:11:19Z</time>
      </trkpt>
      <trkpt lat="43.53199" lon="6.644">
        <ele>448.3</ele>
        <time>2022-04-22T09:11:21Z</time>
      </trkpt>
      <trkpt lat="43.532" lon="6.644">
        <ele>448.5</ele>
        <time>2022-04-22T09:11:22Z</time>
      </trkpt>
      <trkpt lat="43.53201" lon="6.64399">
        <ele>448.8</ele>
        <time>2022-04-22T09:11:23Z</time>
      </trkpt>
      <trkpt lat="43.53203" lon="6.64398">
        <ele>449.3</ele>
        <time>2022-04-22T09:11:25Z</time>
      </trkpt>
      <trkpt lat="43.53204" lon="6.64397">
        <ele>449.5</ele>
        <time>2022-04-22T09:11:26Z</time>
      </trkpt>
      <trkpt lat="43.53205" lon="6.64396">
        <ele>449.6</ele>
        <time>2022-04-22T09:11:27Z</time>
      </trkpt>
      <trkpt lat="43.53206" lon="6.64395">
        <ele>449.8</ele>
        <time>2022-04-22T09:11:28Z</time>
      </trkpt>
      <trkpt lat="43.53207" lon="6.64395">
        <ele>450</ele>
        <time>2022-04-22T09:11:29Z</time>
      </trkpt>
      <trkpt lat="43.53207" lon="6.64395">
        <ele>450.1</ele>
        <time>2022-04-22T09:11:30Z</time>
      </trkpt>
      <trkpt lat="43.53208" lon="6.64394">
        <ele>450.2</ele>
        <time>2022-04-22T09:11:31Z</time>
      </trkpt>
      <trkpt lat="43.5321" lon="6.64393">
        <ele>450.5</ele>
        <time>2022-04-22T09:11:33Z</time>
      </trkpt>
      <trkpt lat="43.5321" lon="6.64392">
        <ele>450.6</ele>
        <time>2022-04-22T09:11:34Z</time>
      </trkpt>
      <trkpt lat="43.53211" lon="6.64391">
        <ele>450.8</ele>
        <time>2022-04-22T09:11:35Z</time>
      </trkpt>
      <trkpt lat="43.53212" lon="6.6439">
        <ele>451</ele>
        <time>2022-04-22T09:11:36Z</time>
      </trkpt>
      <trkpt lat="43.53213" lon="6.6439">
        <ele>451.2</ele>
        <time>2022-04-22T09:11:37Z</time>
      </trkpt>
      <trkpt lat="43.53214" lon="6.6439">
        <ele>451.3</ele>
        <time>2022-04-22T09:11:38Z</time>
      </trkpt>
      <trkpt lat="43.53215" lon="6.6439">
        <ele>451.5</ele>
        <time>2022-04-22T09:11:40Z</time>
      </trkpt>
      <trkpt lat="43.53216" lon="6.64391">
        <ele>451.6</ele>
        <time>2022-04-22T09:11:41Z</time>
      </trkpt>
      <trkpt lat="43.53217" lon="6.64392">
        <ele>451.8</ele>
        <time>2022-04-22T09:11:42Z</time>
      </trkpt>
      <trkpt lat="43.53218" lon="6.64392">
        <ele>451.9</ele>
        <time>2022-04-22T09:11:43Z</time>
      </trkpt>
      <trkpt lat="43.53219" lon="6.64393">
        <ele>452</ele>
        <time>2022-04-22T09:11:44Z</time>
      </trkpt>
      <trkpt lat="43.5322" lon="6.64393">
        <ele>452.2</ele>
        <time>2022-04-22T09:11:45Z</time>
      </trkpt>
      <trkpt lat="43.53222" lon="6.64393">
        <ele>452.4</ele>
        <time>2022-04-22T09:11:47Z</time>
      </trkpt>
      <trkpt lat="43.53223" lon="6.64393">
        <ele>452.6</ele>
        <time>2022-04-22T09:11:48Z</time>
      </trkpt>
      <trkpt lat="43.53224" lon="6.64394">
        <ele>452.8</ele>
        <time>2022-04-22T09:11:49Z</time>
      </trkpt>
      <trkpt lat="43.53226" lon="6.64394">
        <ele>452.9</ele>
        <time>2022-04-22T09:11:50Z</time>
      </trkpt>
      <trkpt lat="43.53227" lon="6.64396">
        <ele>453.2</ele>
        <time>2022-04-22T09:11:52Z</time>
      </trkpt>
      <trkpt lat="43.53228" lon="6.64396">
        <ele>453.3</ele>
        <time>2022-04-22T09:11:53Z</time>
      </trkpt>
      <trkpt lat="43.53229" lon="6.64397">
        <ele>453.5</ele>
        <time>2022-04-22T09:11:54Z</time>
      </trkpt>
      <trkpt lat="43.5323" lon="6.64397">
        <ele>453.6</ele>
        <time>2022-04-22T09:11:55Z</time>
      </trkpt>
      <trkpt lat="43.53231" lon="6.64398">
        <ele>453.8</ele>
        <time>2022-04-22T09:11:56Z</time>
      </trkpt>
      <trkpt lat="43.53232" lon="6.64398">
        <ele>453.9</ele>
        <time>2022-04-22T09:11:57Z</time>
      </trkpt>
      <trkpt lat="43.53234" lon="6.64398">
        <ele>454.1</ele>
        <time>2022-04-22T09:11:59Z</time>
      </trkpt>
      <trkpt lat="43.53235" lon="6.64398">
        <ele>454.4</ele>
        <time>2022-04-22T09:12:00Z</time>
      </trkpt>
      <trkpt lat="43.53238" lon="6.64399">
        <ele>454.8</ele>
        <time>2022-04-22T09:12:02Z</time>
      </trkpt>
      <trkpt lat="43.53238" lon="6.64398">
        <ele>454.9</ele>
        <time>2022-04-22T09:12:03Z</time>
      </trkpt>
      <trkpt lat="43.53239" lon="6.64398">
        <ele>455</ele>
        <time>2022-04-22T09:12:04Z</time>
      </trkpt>
      <trkpt lat="43.5324" lon="6.64399">
        <ele>455.1</ele>
        <time>2022-04-22T09:12:05Z</time>
      </trkpt>
      <trkpt lat="43.53241" lon="6.64399">
        <ele>455.3</ele>
        <time>2022-04-22T09:12:06Z</time>
      </trkpt>
      <trkpt lat="43.53241" lon="6.644">
        <ele>455.5</ele>
        <time>2022-04-22T09:12:07Z</time>
      </trkpt>
      <trkpt lat="43.53242" lon="6.64402">
        <ele>455.6</ele>
        <time>2022-04-22T09:12:08Z</time>
      </trkpt>
      <trkpt lat="43.53243" lon="6.64402">
        <ele>455.8</ele>
        <time>2022-04-22T09:12:09Z</time>
      </trkpt>
      <trkpt lat="43.53244" lon="6.64402">
        <ele>456</ele>
        <time>2022-04-22T09:12:10Z</time>
      </trkpt>
      <trkpt lat="43.53245" lon="6.64402">
        <ele>456.2</ele>
        <time>2022-04-22T09:12:11Z</time>
      </trkpt>
      <trkpt lat="43.53247" lon="6.64402">
        <ele>456.4</ele>
        <time>2022-04-22T09:12:13Z</time>
      </trkpt>
      <trkpt lat="43.53248" lon="6.64402">
        <ele>456.6</ele>
        <time>2022-04-22T09:12:14Z</time>
      </trkpt>
      <trkpt lat="43.53249" lon="6.64403">
        <ele>456.8</ele>
        <time>2022-04-22T09:12:15Z</time>
      </trkpt>
      <trkpt lat="43.53251" lon="6.64404">
        <ele>457.1</ele>
        <time>2022-04-22T09:12:17Z</time>
      </trkpt>
      <trkpt lat="43.53252" lon="6.64404">
        <ele>457.3</ele>
        <time>2022-04-22T09:12:18Z</time>
      </trkpt>
      <trkpt lat="43.53252" lon="6.64405">
        <ele>457.5</ele>
        <time>2022-04-22T09:12:19Z</time>
      </trkpt>
      <trkpt lat="43.53253" lon="6.64405">
        <ele>457.6</ele>
        <time>2022-04-22T09:12:20Z</time>
      </trkpt>
      <trkpt lat="43.53254" lon="6.64405">
        <ele>457.8</ele>
        <time>2022-04-22T09:12:21Z</time>
      </trkpt>
      <trkpt lat="43.53255" lon="6.64406">
        <ele>457.9</ele>
        <time>2022-04-22T09:12:22Z</time>
      </trkpt>
      <trkpt lat="43.53256" lon="6.64406">
        <ele>458</ele>
        <time>2022-04-22T09:12:23Z</time>
      </trkpt>
      <trkpt lat="43.53257" lon="6.64407">
        <ele>458.2</ele>
        <time>2022-04-22T09:12:24Z</time>
      </trkpt>
      <trkpt lat="43.53258" lon="6.64408">
        <ele>458.4</ele>
        <time>2022-04-22T09:12:25Z</time>
      </trkpt>
      <trkpt lat="43.5326" lon="6.64409">
        <ele>458.7</ele>
        <time>2022-04-22T09:12:27Z</time>
      </trkpt>
      <trkpt lat="43.5326" lon="6.6441">
        <ele>458.9</ele>
        <time>2022-04-22T09:12:28Z</time>
      </trkpt>
      <trkpt lat="43.53261" lon="6.64411">
        <ele>459.1</ele>
        <time>2022-04-22T09:12:29Z</time>
      </trkpt>
      <trkpt lat="43.53262" lon="6.64412">
        <ele>459.3</ele>
        <time>2022-04-22T09:12:30Z</time>
      </trkpt>
      <trkpt lat="43.53263" lon="6.64415">
        <ele>459.6</ele>
        <time>2022-04-22T09:12:32Z</time>
      </trkpt>
      <trkpt lat="43.53264" lon="6.64416">
        <ele>459.9</ele>
        <time>2022-04-22T09:12:33Z</time>
      </trkpt>
      <trkpt lat="43.53265" lon="6.64418">
        <ele>460.1</ele>
        <time>2022-04-22T09:12:34Z</time>
      </trkpt>
      <trkpt lat="43.53265" lon="6.64419">
        <ele>460.2</ele>
        <time>2022-04-22T09:12:35Z</time>
      </trkpt>
      <trkpt lat="43.53267" lon="6.64421">
        <ele>460.6</ele>
        <time>2022-04-22T09:12:37Z</time>
      </trkpt>
      <trkpt lat="43.53268" lon="6.64423">
        <ele>460.9</ele>
        <time>2022-04-22T09:12:38Z</time>
      </trkpt>
      <trkpt lat="43.53269" lon="6.64424">
        <ele>461.1</ele>
        <time>2022-04-22T09:12:39Z</time>
      </trkpt>
      <trkpt lat="43.53269" lon="6.64425">
        <ele>461.2</ele>
        <time>2022-04-22T09:12:40Z</time>
      </trkpt>
      <trkpt lat="43.5327" lon="6.64426">
        <ele>461.4</ele>
        <time>2022-04-22T09:12:41Z</time>
      </trkpt>
      <trkpt lat="43.53272" lon="6.64427">
        <ele>461.6</ele>
        <time>2022-04-22T09:12:42Z</time>
      </trkpt>
      <trkpt lat="43.53273" lon="6.64427">
        <ele>461.8</ele>
        <time>2022-04-22T09:12:43Z</time>
      </trkpt>
      <trkpt lat="43.53274" lon="6.64428">
        <ele>462</ele>
        <time>2022-04-22T09:12:45Z</time>
      </trkpt>
      <trkpt lat="43.53275" lon="6.64429">
        <ele>462.3</ele>
        <time>2022-04-22T09:12:46Z</time>
      </trkpt>
      <trkpt lat="43.53276" lon="6.64429">
        <ele>462.4</ele>
        <time>2022-04-22T09:12:47Z</time>
      </trkpt>
      <trkpt lat="43.53276" lon="6.64431">
        <ele>462.6</ele>
        <time>2022-04-22T09:12:48Z</time>
      </trkpt>
      <trkpt lat="43.53277" lon="6.64432">
        <ele>462.8</ele>
        <time>2022-04-22T09:12:49Z</time>
      </trkpt>
      <trkpt lat="43.53278" lon="6.64433">
        <ele>463</ele>
        <time>2022-04-22T09:12:50Z</time>
      </trkpt>
      <trkpt lat="43.53278" lon="6.64433">
        <ele>463.2</ele>
        <time>2022-04-22T09:12:52Z</time>
      </trkpt>
      <trkpt lat="43.53279" lon="6.64434">
        <ele>463.4</ele>
        <time>2022-04-22T09:12:53Z</time>
      </trkpt>
      <trkpt lat="43.5328" lon="6.64434">
        <ele>463.5</ele>
        <time>2022-04-22T09:12:54Z</time>
      </trkpt>
      <trkpt lat="43.5328" lon="6.64435">
        <ele>463.6</ele>
        <time>2022-04-22T09:12:55Z</time>
      </trkpt>
      <trkpt lat="43.5328" lon="6.64435">
        <ele>463.7</ele>
        <time>2022-04-22T09:12:56Z</time>
      </trkpt>
      <trkpt lat="43.53281" lon="6.64435">
        <ele>463.7</ele>
        <time>2022-04-22T09:12:57Z</time>
      </trkpt>
      <trkpt lat="43.53282" lon="6.64435">
        <ele>463.9</ele>
        <time>2022-04-22T09:12:58Z</time>
      </trkpt>
      <trkpt lat="43.53282" lon="6.64436">
        <ele>464.1</ele>
        <time>2022-04-22T09:12:59Z</time>
      </trkpt>
      <trkpt lat="43.53282" lon="6.64437">
        <ele>464.3</ele>
        <time>2022-04-22T09:13:00Z</time>
      </trkpt>
      <trkpt lat="43.53283" lon="6.64438">
        <ele>464.4</ele>
        <time>2022-04-22T09:13:01Z</time>
      </trkpt>
      <trkpt lat="43.53283" lon="6.64438">
        <ele>464.6</ele>
        <time>2022-04-22T09:13:02Z</time>
      </trkpt>
      <trkpt lat="43.53285" lon="6.64439">
        <ele>464.8</ele>
        <time>2022-04-22T09:13:03Z</time>
      </trkpt>
      <trkpt lat="43.53285" lon="6.64439">
        <ele>465</ele>
        <time>2022-04-22T09:13:05Z</time>
      </trkpt>
      <trkpt lat="43.53287" lon="6.64438">
        <ele>465.3</ele>
        <time>2022-04-22T09:13:06Z</time>
      </trkpt>
      <trkpt lat="43.53287" lon="6.64438">
        <ele>465.6</ele>
        <time>2022-04-22T09:13:07Z</time>
      </trkpt>
      <trkpt lat="43.53288" lon="6.64436">
        <ele>465.8</ele>
        <time>2022-04-22T09:13:08Z</time>
      </trkpt>
      <trkpt lat="43.53289" lon="6.64437">
        <ele>466.1</ele>
        <time>2022-04-22T09:13:09Z</time>
      </trkpt>
      <trkpt lat="43.5329" lon="6.64438">
        <ele>466.3</ele>
        <time>2022-04-22T09:13:10Z</time>
      </trkpt>
      <trkpt lat="43.53291" lon="6.64438">
        <ele>466.5</ele>
        <time>2022-04-22T09:13:11Z</time>
      </trkpt>
      <trkpt lat="43.53291" lon="6.64439">
        <ele>466.7</ele>
        <time>2022-04-22T09:13:13Z</time>
      </trkpt>
      <trkpt lat="43.53292" lon="6.6444">
        <ele>466.9</ele>
        <time>2022-04-22T09:13:14Z</time>
      </trkpt>
      <trkpt lat="43.53293" lon="6.6444">
        <ele>467.1</ele>
        <time>2022-04-22T09:13:15Z</time>
      </trkpt>
      <trkpt lat="43.53294" lon="6.64441">
        <ele>467.3</ele>
        <time>2022-04-22T09:13:16Z</time>
      </trkpt>
      <trkpt lat="43.53295" lon="6.64442">
        <ele>467.7</ele>
        <time>2022-04-22T09:13:18Z</time>
      </trkpt>
      <trkpt lat="43.53296" lon="6.64442">
        <ele>468</ele>
        <time>2022-04-22T09:13:19Z</time>
      </trkpt>
      <trkpt lat="43.53297" lon="6.64443">
        <ele>468.2</ele>
        <time>2022-04-22T09:13:20Z</time>
      </trkpt>
      <trkpt lat="43.53299" lon="6.64443">
        <ele>468.6</ele>
        <time>2022-04-22T09:13:22Z</time>
      </trkpt>
      <trkpt lat="43.533" lon="6.64443">
        <ele>468.8</ele>
        <time>2022-04-22T09:13:23Z</time>
      </trkpt>
      <trkpt lat="43.53301" lon="6.64443">
        <ele>469.2</ele>
        <time>2022-04-22T09:13:24Z</time>
      </trkpt>
      <trkpt lat="43.53302" lon="6.64444">
        <ele>469.3</ele>
        <time>2022-04-22T09:13:25Z</time>
      </trkpt>
      <trkpt lat="43.53303" lon="6.64444">
        <ele>469.5</ele>
        <time>2022-04-22T09:13:26Z</time>
      </trkpt>
      <trkpt lat="43.53304" lon="6.64445">
        <ele>469.7</ele>
        <time>2022-04-22T09:13:27Z</time>
      </trkpt>
      <trkpt lat="43.53305" lon="6.64445">
        <ele>469.9</ele>
        <time>2022-04-22T09:13:28Z</time>
      </trkpt>
      <trkpt lat="43.53306" lon="6.64444">
        <ele>470.1</ele>
        <time>2022-04-22T09:13:29Z</time>
      </trkpt>
      <trkpt lat="43.53307" lon="6.64443">
        <ele>470.3</ele>
        <time>2022-04-22T09:13:30Z</time>
      </trkpt>
      <trkpt lat="43.53307" lon="6.64442">
        <ele>470.4</ele>
        <time>2022-04-22T09:13:31Z</time>
      </trkpt>
      <trkpt lat="43.53309" lon="6.64442">
        <ele>470.6</ele>
        <time>2022-04-22T09:13:33Z</time>
      </trkpt>
      <trkpt lat="43.5331" lon="6.64441">
        <ele>470.8</ele>
        <time>2022-04-22T09:13:34Z</time>
      </trkpt>
      <trkpt lat="43.5331" lon="6.6444">
        <ele>470.9</ele>
        <time>2022-04-22T09:13:35Z</time>
      </trkpt>
      <trkpt lat="43.53311" lon="6.64439">
        <ele>471.1</ele>
        <time>2022-04-22T09:13:36Z</time>
      </trkpt>
      <trkpt lat="43.5331" lon="6.64438">
        <ele>471.2</ele>
        <time>2022-04-22T09:13:37Z</time>
      </trkpt>
      <trkpt lat="43.5331" lon="6.64437">
        <ele>471.3</ele>
        <time>2022-04-22T09:13:38Z</time>
      </trkpt>
      <trkpt lat="43.53311" lon="6.64435">
        <ele>471.5</ele>
        <time>2022-04-22T09:13:39Z</time>
      </trkpt>
      <trkpt lat="43.53312" lon="6.64432">
        <ele>471.8</ele>
        <time>2022-04-22T09:13:40Z</time>
      </trkpt>
      <trkpt lat="43.53313" lon="6.64431">
        <ele>472</ele>
        <time>2022-04-22T09:13:42Z</time>
      </trkpt>
      <trkpt lat="43.53314" lon="6.64429">
        <ele>472.1</ele>
        <time>2022-04-22T09:13:43Z</time>
      </trkpt>
      <trkpt lat="43.53315" lon="6.64428">
        <ele>472.3</ele>
        <time>2022-04-22T09:13:44Z</time>
      </trkpt>
      <trkpt lat="43.53317" lon="6.64426">
        <ele>472.5</ele>
        <time>2022-04-22T09:13:45Z</time>
      </trkpt>
      <trkpt lat="43.53318" lon="6.64424">
        <ele>472.7</ele>
        <time>2022-04-22T09:13:47Z</time>
      </trkpt>
      <trkpt lat="43.53319" lon="6.64423">
        <ele>472.8</ele>
        <time>2022-04-22T09:13:48Z</time>
      </trkpt>
      <trkpt lat="43.5332" lon="6.64423">
        <ele>472.9</ele>
        <time>2022-04-22T09:13:49Z</time>
      </trkpt>
      <trkpt lat="43.53321" lon="6.64422">
        <ele>473</ele>
        <time>2022-04-22T09:13:50Z</time>
      </trkpt>
      <trkpt lat="43.53322" lon="6.64421">
        <ele>473.1</ele>
        <time>2022-04-22T09:13:51Z</time>
      </trkpt>
      <trkpt lat="43.53323" lon="6.64421">
        <ele>473.2</ele>
        <time>2022-04-22T09:13:52Z</time>
      </trkpt>
      <trkpt lat="43.53324" lon="6.64421">
        <ele>473.3</ele>
        <time>2022-04-22T09:13:53Z</time>
      </trkpt>
      <trkpt lat="43.53326" lon="6.6442">
        <ele>473.4</ele>
        <time>2022-04-22T09:13:54Z</time>
      </trkpt>
      <trkpt lat="43.53327" lon="6.64421">
        <ele>473.5</ele>
        <time>2022-04-22T09:13:55Z</time>
      </trkpt>
      <trkpt lat="43.53328" lon="6.64421">
        <ele>473.6</ele>
        <time>2022-04-22T09:13:56Z</time>
      </trkpt>
      <trkpt lat="43.53329" lon="6.64422">
        <ele>473.7</ele>
        <time>2022-04-22T09:13:58Z</time>
      </trkpt>
      <trkpt lat="43.5333" lon="6.64423">
        <ele>473.8</ele>
        <time>2022-04-22T09:13:59Z</time>
      </trkpt>
      <trkpt lat="43.53331" lon="6.64422">
        <ele>474</ele>
        <time>2022-04-22T09:14:00Z</time>
      </trkpt>
      <trkpt lat="43.53333" lon="6.64422">
        <ele>474.1</ele>
        <time>2022-04-22T09:14:01Z</time>
      </trkpt>
      <trkpt lat="43.53334" lon="6.64422">
        <ele>474.2</ele>
        <time>2022-04-22T09:14:02Z</time>
      </trkpt>
      <trkpt lat="43.53335" lon="6.64421">
        <ele>474.3</ele>
        <time>2022-04-22T09:14:03Z</time>
      </trkpt>
      <trkpt lat="43.53336" lon="6.64421">
        <ele>474.4</ele>
        <time>2022-04-22T09:14:04Z</time>
      </trkpt>
      <trkpt lat="43.53338" lon="6.64421">
        <ele>474.5</ele>
        <time>2022-04-22T09:14:05Z</time>
      </trkpt>
      <trkpt lat="43.53339" lon="6.6442">
        <ele>474.7</ele>
        <time>2022-04-22T09:14:06Z</time>
      </trkpt>
      <trkpt lat="43.53341" lon="6.64419">
        <ele>474.8</ele>
        <time>2022-04-22T09:14:07Z</time>
      </trkpt>
      <trkpt lat="43.53342" lon="6.64419">
        <ele>475</ele>
        <time>2022-04-22T09:14:08Z</time>
      </trkpt>
      <trkpt lat="43.53344" lon="6.64418">
        <ele>475.1</ele>
        <time>2022-04-22T09:14:10Z</time>
      </trkpt>
      <trkpt lat="43.53345" lon="6.64418">
        <ele>475.3</ele>
        <time>2022-04-22T09:14:11Z</time>
      </trkpt>
      <trkpt lat="43.53347" lon="6.64418">
        <ele>475.5</ele>
        <time>2022-04-22T09:14:12Z</time>
      </trkpt>
      <trkpt lat="43.53348" lon="6.64419">
        <ele>475.6</ele>
        <time>2022-04-22T09:14:13Z</time>
      </trkpt>
      <trkpt lat="43.53349" lon="6.64419">
        <ele>475.7</ele>
        <time>2022-04-22T09:14:14Z</time>
      </trkpt>
      <trkpt lat="43.5335" lon="6.64419">
        <ele>475.8</ele>
        <time>2022-04-22T09:14:15Z</time>
      </trkpt>
      <trkpt lat="43.53352" lon="6.64419">
        <ele>475.9</ele>
        <time>2022-04-22T09:14:17Z</time>
      </trkpt>
      <trkpt lat="43.53352" lon="6.64419">
        <ele>476</ele>
        <time>2022-04-22T09:14:18Z</time>
      </trkpt>
      <trkpt lat="43.53353" lon="6.64418">
        <ele>476.1</ele>
        <time>2022-04-22T09:14:19Z</time>
      </trkpt>
      <trkpt lat="43.53354" lon="6.64417">
        <ele>476.2</ele>
        <time>2022-04-22T09:14:20Z</time>
      </trkpt>
      <trkpt lat="43.53354" lon="6.64416">
        <ele>476.3</ele>
        <time>2022-04-22T09:14:21Z</time>
      </trkpt>
      <trkpt lat="43.53356" lon="6.64415">
        <ele>476.5</ele>
        <time>2022-04-22T09:14:23Z</time>
      </trkpt>
      <trkpt lat="43.53357" lon="6.64414">
        <ele>476.6</ele>
        <time>2022-04-22T09:14:24Z</time>
      </trkpt>
      <trkpt lat="43.53357" lon="6.64413">
        <ele>476.6</ele>
        <time>2022-04-22T09:14:25Z</time>
      </trkpt>
      <trkpt lat="43.53358" lon="6.64413">
        <ele>476.8</ele>
        <time>2022-04-22T09:14:26Z</time>
      </trkpt>
      <trkpt lat="43.53359" lon="6.64412">
        <ele>476.9</ele>
        <time>2022-04-22T09:14:27Z</time>
      </trkpt>
      <trkpt lat="43.53359" lon="6.64411">
        <ele>477</ele>
        <time>2022-04-22T09:14:28Z</time>
      </trkpt>
      <trkpt lat="43.5336" lon="6.6441">
        <ele>477</ele>
        <time>2022-04-22T09:14:29Z</time>
      </trkpt>
      <trkpt lat="43.5336" lon="6.64409">
        <ele>477.1</ele>
        <time>2022-04-22T09:14:30Z</time>
      </trkpt>
      <trkpt lat="43.53361" lon="6.64407">
        <ele>477.3</ele>
        <time>2022-04-22T09:14:31Z</time>
      </trkpt>
      <trkpt lat="43.53361" lon="6.64407">
        <ele>477.4</ele>
        <time>2022-04-22T09:14:33Z</time>
      </trkpt>
      <trkpt lat="43.53362" lon="6.64405">
        <ele>477.6</ele>
        <time>2022-04-22T09:14:34Z</time>
      </trkpt>
      <trkpt lat="43.53363" lon="6.64405">
        <ele>477.7</ele>
        <time>2022-04-22T09:14:35Z</time>
      </trkpt>
      <trkpt lat="43.53364" lon="6.64404">
        <ele>477.8</ele>
        <time>2022-04-22T09:14:36Z</time>
      </trkpt>
      <trkpt lat="43.53366" lon="6.64403">
        <ele>478.2</ele>
        <time>2022-04-22T09:14:38Z</time>
      </trkpt>
      <trkpt lat="43.53367" lon="6.64401">
        <ele>478.4</ele>
        <time>2022-04-22T09:14:39Z</time>
      </trkpt>
      <trkpt lat="43.53368" lon="6.644">
        <ele>478.6</ele>
        <time>2022-04-22T09:14:40Z</time>
      </trkpt>
      <trkpt lat="43.53369" lon="6.64398">
        <ele>478.8</ele>
        <time>2022-04-22T09:14:41Z</time>
      </trkpt>
      <trkpt lat="43.5337" lon="6.64396">
        <ele>479.2</ele>
        <time>2022-04-22T09:14:43Z</time>
      </trkpt>
      <trkpt lat="43.53371" lon="6.64396">
        <ele>479.4</ele>
        <time>2022-04-22T09:14:44Z</time>
      </trkpt>
      <trkpt lat="43.53374" lon="6.64395">
        <ele>479.8</ele>
        <time>2022-04-22T09:14:45Z</time>
      </trkpt>
      <trkpt lat="43.53375" lon="6.64395">
        <ele>480</ele>
        <time>2022-04-22T09:14:46Z</time>
      </trkpt>
      <trkpt lat="43.53375" lon="6.64395">
        <ele>480.2</ele>
        <time>2022-04-22T09:14:47Z</time>
      </trkpt>
      <trkpt lat="43.53376" lon="6.64395">
        <ele>480.3</ele>
        <time>2022-04-22T09:14:48Z</time>
      </trkpt>
      <trkpt lat="43.53378" lon="6.64394">
        <ele>480.6</ele>
        <time>2022-04-22T09:14:50Z</time>
      </trkpt>
      <trkpt lat="43.53378" lon="6.64393">
        <ele>480.8</ele>
        <time>2022-04-22T09:14:51Z</time>
      </trkpt>
      <trkpt lat="43.5338" lon="6.64391">
        <ele>481.2</ele>
        <time>2022-04-22T09:14:52Z</time>
      </trkpt>
      <trkpt lat="43.5338" lon="6.6439">
        <ele>481.3</ele>
        <time>2022-04-22T09:14:53Z</time>
      </trkpt>
      <trkpt lat="43.53381" lon="6.64389">
        <ele>481.5</ele>
        <time>2022-04-22T09:14:54Z</time>
      </trkpt>
      <trkpt lat="43.53382" lon="6.64388">
        <ele>481.7</ele>
        <time>2022-04-22T09:14:56Z</time>
      </trkpt>
      <trkpt lat="43.53383" lon="6.64386">
        <ele>482.1</ele>
        <time>2022-04-22T09:14:57Z</time>
      </trkpt>
      <trkpt lat="43.53384" lon="6.64385">
        <ele>482.3</ele>
        <time>2022-04-22T09:14:58Z</time>
      </trkpt>
      <trkpt lat="43.53385" lon="6.64385">
        <ele>482.5</ele>
        <time>2022-04-22T09:14:59Z</time>
      </trkpt>
      <trkpt lat="43.53386" lon="6.64384">
        <ele>482.7</ele>
        <time>2022-04-22T09:15:00Z</time>
      </trkpt>
      <trkpt lat="43.53386" lon="6.64384">
        <ele>482.9</ele>
        <time>2022-04-22T09:15:01Z</time>
      </trkpt>
      <trkpt lat="43.53387" lon="6.64382">
        <ele>483.1</ele>
        <time>2022-04-22T09:15:02Z</time>
      </trkpt>
      <trkpt lat="43.53387" lon="6.64382">
        <ele>483.2</ele>
        <time>2022-04-22T09:15:03Z</time>
      </trkpt>
      <trkpt lat="43.53388" lon="6.64381">
        <ele>483.4</ele>
        <time>2022-04-22T09:15:04Z</time>
      </trkpt>
      <trkpt lat="43.53389" lon="6.64381">
        <ele>483.7</ele>
        <time>2022-04-22T09:15:05Z</time>
      </trkpt>
      <trkpt lat="43.53392" lon="6.6438">
        <ele>484.3</ele>
        <time>2022-04-22T09:15:07Z</time>
      </trkpt>
      <trkpt lat="43.53394" lon="6.6438">
        <ele>484.7</ele>
        <time>2022-04-22T09:15:09Z</time>
      </trkpt>
      <trkpt lat="43.53394" lon="6.64379">
        <ele>484.8</ele>
        <time>2022-04-22T09:15:10Z</time>
      </trkpt>
      <trkpt lat="43.53395" lon="6.64378">
        <ele>485.2</ele>
        <time>2022-04-22T09:15:12Z</time>
      </trkpt>
      <trkpt lat="43.53396" lon="6.64376">
        <ele>485.6</ele>
        <time>2022-04-22T09:15:13Z</time>
      </trkpt>
      <trkpt lat="43.53397" lon="6.64375">
        <ele>485.8</ele>
        <time>2022-04-22T09:15:15Z</time>
      </trkpt>
      <trkpt lat="43.53397" lon="6.64374">
        <ele>486.1</ele>
        <time>2022-04-22T09:15:16Z</time>
      </trkpt>
      <trkpt lat="43.53398" lon="6.64373">
        <ele>486.2</ele>
        <time>2022-04-22T09:15:17Z</time>
      </trkpt>
      <trkpt lat="43.53399" lon="6.64373">
        <ele>486.4</ele>
        <time>2022-04-22T09:15:18Z</time>
      </trkpt>
      <trkpt lat="43.534" lon="6.64375">
        <ele>486.8</ele>
        <time>2022-04-22T09:15:19Z</time>
      </trkpt>
      <trkpt lat="43.53402" lon="6.64375">
        <ele>487.2</ele>
        <time>2022-04-22T09:15:21Z</time>
      </trkpt>
      <trkpt lat="43.53404" lon="6.64375">
        <ele>487.6</ele>
        <time>2022-04-22T09:15:23Z</time>
      </trkpt>
      <trkpt lat="43.53405" lon="6.64374">
        <ele>487.9</ele>
        <time>2022-04-22T09:15:24Z</time>
      </trkpt>
      <trkpt lat="43.53406" lon="6.64374">
        <ele>488.2</ele>
        <time>2022-04-22T09:15:25Z</time>
      </trkpt>
      <trkpt lat="43.53407" lon="6.64373">
        <ele>488.5</ele>
        <time>2022-04-22T09:15:26Z</time>
      </trkpt>
      <trkpt lat="43.53408" lon="6.64373">
        <ele>488.7</ele>
        <time>2022-04-22T09:15:27Z</time>
      </trkpt>
      <trkpt lat="43.53409" lon="6.64372">
        <ele>488.9</ele>
        <time>2022-04-22T09:15:28Z</time>
      </trkpt>
      <trkpt lat="43.5341" lon="6.64372">
        <ele>489</ele>
        <time>2022-04-22T09:15:29Z</time>
      </trkpt>
      <trkpt lat="43.53412" lon="6.64371">
        <ele>489.4</ele>
        <time>2022-04-22T09:15:31Z</time>
      </trkpt>
      <trkpt lat="43.53413" lon="6.6437">
        <ele>489.6</ele>
        <time>2022-04-22T09:15:32Z</time>
      </trkpt>
      <trkpt lat="43.53414" lon="6.6437">
        <ele>489.7</ele>
        <time>2022-04-22T09:15:33Z</time>
      </trkpt>
      <trkpt lat="43.53415" lon="6.6437">
        <ele>489.9</ele>
        <time>2022-04-22T09:15:35Z</time>
      </trkpt>
      <trkpt lat="43.53415" lon="6.6437">
        <ele>490</ele>
        <time>2022-04-22T09:15:36Z</time>
      </trkpt>
      <trkpt lat="43.53416" lon="6.64371">
        <ele>490.2</ele>
        <time>2022-04-22T09:15:37Z</time>
      </trkpt>
      <trkpt lat="43.53417" lon="6.64372">
        <ele>490.3</ele>
        <time>2022-04-22T09:15:38Z</time>
      </trkpt>
      <trkpt lat="43.53418" lon="6.64373">
        <ele>490.5</ele>
        <time>2022-04-22T09:15:39Z</time>
      </trkpt>
      <trkpt lat="43.53419" lon="6.64374">
        <ele>490.6</ele>
        <time>2022-04-22T09:15:40Z</time>
      </trkpt>
      <trkpt lat="43.5342" lon="6.64373">
        <ele>490.8</ele>
        <time>2022-04-22T09:15:41Z</time>
      </trkpt>
      <trkpt lat="43.53421" lon="6.64373">
        <ele>490.9</ele>
        <time>2022-04-22T09:15:42Z</time>
      </trkpt>
      <trkpt lat="43.53424" lon="6.64372">
        <ele>491.2</ele>
        <time>2022-04-22T09:15:43Z</time>
      </trkpt>
      <trkpt lat="43.53425" lon="6.64372">
        <ele>491.4</ele>
        <time>2022-04-22T09:15:45Z</time>
      </trkpt>
      <trkpt lat="43.53426" lon="6.64372">
        <ele>491.5</ele>
        <time>2022-04-22T09:15:46Z</time>
      </trkpt>
      <trkpt lat="43.53427" lon="6.64371">
        <ele>491.6</ele>
        <time>2022-04-22T09:15:47Z</time>
      </trkpt>
      <trkpt lat="43.53428" lon="6.64371">
        <ele>491.7</ele>
        <time>2022-04-22T09:15:48Z</time>
      </trkpt>
      <trkpt lat="43.5343" lon="6.64371">
        <ele>491.9</ele>
        <time>2022-04-22T09:15:49Z</time>
      </trkpt>
      <trkpt lat="43.53431" lon="6.6437">
        <ele>492</ele>
        <time>2022-04-22T09:15:50Z</time>
      </trkpt>
      <trkpt lat="43.53431" lon="6.64369">
        <ele>492.1</ele>
        <time>2022-04-22T09:15:51Z</time>
      </trkpt>
      <trkpt lat="43.53432" lon="6.64368">
        <ele>492.2</ele>
        <time>2022-04-22T09:15:52Z</time>
      </trkpt>
      <trkpt lat="43.53433" lon="6.64366">
        <ele>492.3</ele>
        <time>2022-04-22T09:15:53Z</time>
      </trkpt>
      <trkpt lat="43.53435" lon="6.64365">
        <ele>492.5</ele>
        <time>2022-04-22T09:15:54Z</time>
      </trkpt>
      <trkpt lat="43.53435" lon="6.64364">
        <ele>492.6</ele>
        <time>2022-04-22T09:15:55Z</time>
      </trkpt>
      <trkpt lat="43.53436" lon="6.64364">
        <ele>492.7</ele>
        <time>2022-04-22T09:15:56Z</time>
      </trkpt>
      <trkpt lat="43.53438" lon="6.64363">
        <ele>492.8</ele>
        <time>2022-04-22T09:15:57Z</time>
      </trkpt>
      <trkpt lat="43.5344" lon="6.64363">
        <ele>492.9</ele>
        <time>2022-04-22T09:15:58Z</time>
      </trkpt>
      <trkpt lat="43.53441" lon="6.64362">
        <ele>493</ele>
        <time>2022-04-22T09:15:59Z</time>
      </trkpt>
      <trkpt lat="43.53442" lon="6.64362">
        <ele>493.1</ele>
        <time>2022-04-22T09:16:00Z</time>
      </trkpt>
      <trkpt lat="43.53443" lon="6.64361">
        <ele>493.2</ele>
        <time>2022-04-22T09:16:01Z</time>
      </trkpt>
      <trkpt lat="43.53445" lon="6.6436">
        <ele>493.4</ele>
        <time>2022-04-22T09:16:03Z</time>
      </trkpt>
      <trkpt lat="43.53446" lon="6.64359">
        <ele>493.5</ele>
        <time>2022-04-22T09:16:04Z</time>
      </trkpt>
      <trkpt lat="43.53447" lon="6.64359">
        <ele>493.5</ele>
        <time>2022-04-22T09:16:05Z</time>
      </trkpt>
      <trkpt lat="43.53447" lon="6.64358">
        <ele>493.6</ele>
        <time>2022-04-22T09:16:06Z</time>
      </trkpt>
      <trkpt lat="43.53448" lon="6.64357">
        <ele>493.7</ele>
        <time>2022-04-22T09:16:07Z</time>
      </trkpt>
      <trkpt lat="43.53449" lon="6.64356">
        <ele>493.8</ele>
        <time>2022-04-22T09:16:08Z</time>
      </trkpt>
      <trkpt lat="43.53449" lon="6.64353">
        <ele>493.9</ele>
        <time>2022-04-22T09:16:09Z</time>
      </trkpt>
      <trkpt lat="43.53451" lon="6.64351">
        <ele>494.1</ele>
        <time>2022-04-22T09:16:11Z</time>
      </trkpt>
      <trkpt lat="43.53452" lon="6.6435">
        <ele>494.2</ele>
        <time>2022-04-22T09:16:12Z</time>
      </trkpt>
      <trkpt lat="43.53454" lon="6.64347">
        <ele>494.5</ele>
        <time>2022-04-22T09:16:13Z</time>
      </trkpt>
      <trkpt lat="43.53455" lon="6.64347">
        <ele>494.6</ele>
        <time>2022-04-22T09:16:14Z</time>
      </trkpt>
      <trkpt lat="43.53456" lon="6.64345">
        <ele>494.8</ele>
        <time>2022-04-22T09:16:15Z</time>
      </trkpt>
      <trkpt lat="43.53457" lon="6.64342">
        <ele>495</ele>
        <time>2022-04-22T09:16:16Z</time>
      </trkpt>
      <trkpt lat="43.53458" lon="6.6434">
        <ele>495.3</ele>
        <time>2022-04-22T09:16:17Z</time>
      </trkpt>
      <trkpt lat="43.53459" lon="6.64339">
        <ele>495.4</ele>
        <time>2022-04-22T09:16:18Z</time>
      </trkpt>
      <trkpt lat="43.53459" lon="6.64337">
        <ele>495.6</ele>
        <time>2022-04-22T09:16:19Z</time>
      </trkpt>
      <trkpt lat="43.5346" lon="6.64336">
        <ele>495.7</ele>
        <time>2022-04-22T09:16:20Z</time>
      </trkpt>
      <trkpt lat="43.5346" lon="6.64336">
        <ele>495.8</ele>
        <time>2022-04-22T09:16:21Z</time>
      </trkpt>
      <trkpt lat="43.53461" lon="6.64335">
        <ele>496</ele>
        <time>2022-04-22T09:16:22Z</time>
      </trkpt>
      <trkpt lat="43.53464" lon="6.64333">
        <ele>496.4</ele>
        <time>2022-04-22T09:16:24Z</time>
      </trkpt>
      <trkpt lat="43.53465" lon="6.64333">
        <ele>496.6</ele>
        <time>2022-04-22T09:16:25Z</time>
      </trkpt>
      <trkpt lat="43.53467" lon="6.64331">
        <ele>496.9</ele>
        <time>2022-04-22T09:16:27Z</time>
      </trkpt>
      <trkpt lat="43.53468" lon="6.6433">
        <ele>497.1</ele>
        <time>2022-04-22T09:16:28Z</time>
      </trkpt>
      <trkpt lat="43.53469" lon="6.64329">
        <ele>497.3</ele>
        <time>2022-04-22T09:16:29Z</time>
      </trkpt>
      <trkpt lat="43.53471" lon="6.64327">
        <ele>497.7</ele>
        <time>2022-04-22T09:16:31Z</time>
      </trkpt>
      <trkpt lat="43.53472" lon="6.64325">
        <ele>497.9</ele>
        <time>2022-04-22T09:16:32Z</time>
      </trkpt>
      <trkpt lat="43.53473" lon="6.64324">
        <ele>498.1</ele>
        <time>2022-04-22T09:16:33Z</time>
      </trkpt>
      <trkpt lat="43.53474" lon="6.64323">
        <ele>498.3</ele>
        <time>2022-04-22T09:16:35Z</time>
      </trkpt>
      <trkpt lat="43.53476" lon="6.64322">
        <ele>498.5</ele>
        <time>2022-04-22T09:16:36Z</time>
      </trkpt>
      <trkpt lat="43.53477" lon="6.64321">
        <ele>498.7</ele>
        <time>2022-04-22T09:16:37Z</time>
      </trkpt>
      <trkpt lat="43.53478" lon="6.6432">
        <ele>498.8</ele>
        <time>2022-04-22T09:16:38Z</time>
      </trkpt>
      <trkpt lat="43.53478" lon="6.64319">
        <ele>498.9</ele>
        <time>2022-04-22T09:16:39Z</time>
      </trkpt>
      <trkpt lat="43.53479" lon="6.64318">
        <ele>499.1</ele>
        <time>2022-04-22T09:16:40Z</time>
      </trkpt>
      <trkpt lat="43.5348" lon="6.64317">
        <ele>499.3</ele>
        <time>2022-04-22T09:16:42Z</time>
      </trkpt>
      <trkpt lat="43.53481" lon="6.64316">
        <ele>499.3</ele>
        <time>2022-04-22T09:16:43Z</time>
      </trkpt>
      <trkpt lat="43.53481" lon="6.64317">
        <ele>499.4</ele>
        <time>2022-04-22T09:16:44Z</time>
      </trkpt>
      <trkpt lat="43.53482" lon="6.64317">
        <ele>499.5</ele>
        <time>2022-04-22T09:16:45Z</time>
      </trkpt>
      <trkpt lat="43.53482" lon="6.64316">
        <ele>499.6</ele>
        <time>2022-04-22T09:16:46Z</time>
      </trkpt>
      <trkpt lat="43.53483" lon="6.64314">
        <ele>499.7</ele>
        <time>2022-04-22T09:16:47Z</time>
      </trkpt>
      <trkpt lat="43.53483" lon="6.64312">
        <ele>499.9</ele>
        <time>2022-04-22T09:16:49Z</time>
      </trkpt>
      <trkpt lat="43.53483" lon="6.6431">
        <ele>500.1</ele>
        <time>2022-04-22T09:16:50Z</time>
      </trkpt>
      <trkpt lat="43.53485" lon="6.64307">
        <ele>500.3</ele>
        <time>2022-04-22T09:16:51Z</time>
      </trkpt>
      <trkpt lat="43.53486" lon="6.64306">
        <ele>500.4</ele>
        <time>2022-04-22T09:16:53Z</time>
      </trkpt>
      <trkpt lat="43.53487" lon="6.64305">
        <ele>500.6</ele>
        <time>2022-04-22T09:16:54Z</time>
      </trkpt>
      <trkpt lat="43.53487" lon="6.64304">
        <ele>500.7</ele>
        <time>2022-04-22T09:16:55Z</time>
      </trkpt>
      <trkpt lat="43.53488" lon="6.64303">
        <ele>500.8</ele>
        <time>2022-04-22T09:16:56Z</time>
      </trkpt>
      <trkpt lat="43.53489" lon="6.64301">
        <ele>500.9</ele>
        <time>2022-04-22T09:16:57Z</time>
      </trkpt>
      <trkpt lat="43.53489" lon="6.643">
        <ele>501.1</ele>
        <time>2022-04-22T09:16:58Z</time>
      </trkpt>
      <trkpt lat="43.5349" lon="6.64298">
        <ele>501.2</ele>
        <time>2022-04-22T09:16:59Z</time>
      </trkpt>
      <trkpt lat="43.5349" lon="6.64297">
        <ele>501.3</ele>
        <time>2022-04-22T09:17:00Z</time>
      </trkpt>
      <trkpt lat="43.53491" lon="6.64296">
        <ele>501.4</ele>
        <time>2022-04-22T09:17:01Z</time>
      </trkpt>
      <trkpt lat="43.53491" lon="6.64295">
        <ele>501.5</ele>
        <time>2022-04-22T09:17:02Z</time>
      </trkpt>
      <trkpt lat="43.53492" lon="6.64292">
        <ele>501.7</ele>
        <time>2022-04-22T09:17:03Z</time>
      </trkpt>
      <trkpt lat="43.53493" lon="6.64291">
        <ele>501.8</ele>
        <time>2022-04-22T09:17:05Z</time>
      </trkpt>
      <trkpt lat="43.53493" lon="6.6429">
        <ele>501.9</ele>
        <time>2022-04-22T09:17:06Z</time>
      </trkpt>
      <trkpt lat="43.53494" lon="6.64288">
        <ele>502.1</ele>
        <time>2022-04-22T09:17:07Z</time>
      </trkpt>
      <trkpt lat="43.53494" lon="6.64286">
        <ele>502.2</ele>
        <time>2022-04-22T09:17:08Z</time>
      </trkpt>
      <trkpt lat="43.53496" lon="6.64284">
        <ele>502.4</ele>
        <time>2022-04-22T09:17:09Z</time>
      </trkpt>
      <trkpt lat="43.53496" lon="6.64283">
        <ele>502.5</ele>
        <time>2022-04-22T09:17:10Z</time>
      </trkpt>
      <trkpt lat="43.53497" lon="6.64282">
        <ele>502.6</ele>
        <time>2022-04-22T09:17:11Z</time>
      </trkpt>
      <trkpt lat="43.535" lon="6.64281">
        <ele>502.8</ele>
        <time>2022-04-22T09:17:13Z</time>
      </trkpt>
      <trkpt lat="43.535" lon="6.6428">
        <ele>502.9</ele>
        <time>2022-04-22T09:17:14Z</time>
      </trkpt>
      <trkpt lat="43.53501" lon="6.64278">
        <ele>503</ele>
        <time>2022-04-22T09:17:15Z</time>
      </trkpt>
      <trkpt lat="43.53501" lon="6.64276">
        <ele>503.2</ele>
        <time>2022-04-22T09:17:16Z</time>
      </trkpt>
      <trkpt lat="43.53504" lon="6.64273">
        <ele>503.4</ele>
        <time>2022-04-22T09:17:18Z</time>
      </trkpt>
      <trkpt lat="43.53505" lon="6.64273">
        <ele>503.5</ele>
        <time>2022-04-22T09:17:19Z</time>
      </trkpt>
      <trkpt lat="43.53507" lon="6.64271">
        <ele>503.7</ele>
        <time>2022-04-22T09:17:20Z</time>
      </trkpt>
      <trkpt lat="43.53507" lon="6.6427">
        <ele>503.7</ele>
        <time>2022-04-22T09:17:21Z</time>
      </trkpt>
      <trkpt lat="43.53508" lon="6.64269">
        <ele>503.8</ele>
        <time>2022-04-22T09:17:22Z</time>
      </trkpt>
      <trkpt lat="43.53509" lon="6.64267">
        <ele>504</ele>
        <time>2022-04-22T09:17:24Z</time>
      </trkpt>
      <trkpt lat="43.5351" lon="6.64266">
        <ele>504.1</ele>
        <time>2022-04-22T09:17:25Z</time>
      </trkpt>
      <trkpt lat="43.53511" lon="6.64265">
        <ele>504.1</ele>
        <time>2022-04-22T09:17:26Z</time>
      </trkpt>
      <trkpt lat="43.53511" lon="6.64259">
        <ele>504.7</ele>
        <time>2022-04-22T09:19:03Z</time>
      </trkpt>
      <trkpt lat="43.53511" lon="6.64259">
        <ele>504.7</ele>
        <time>2022-04-22T09:19:04Z</time>
      </trkpt>
      <trkpt lat="43.53511" lon="6.64259">
        <ele>504.7</ele>
        <time>2022-04-22T09:19:05Z</time>
      </trkpt>
      <trkpt lat="43.53511" lon="6.64259">
        <ele>504.7</ele>
        <time>2022-04-22T09:19:06Z</time>
      </trkpt>
      <trkpt lat="43.5351" lon="6.64259">
        <ele>504.7</ele>
        <time>2022-04-22T09:19:08Z</time>
      </trkpt>
      <trkpt lat="43.5351" lon="6.64259">
        <ele>504.7</ele>
        <time>2022-04-22T09:19:09Z</time>
      </trkpt>
      <trkpt lat="43.5351" lon="6.64258">
        <ele>504.8</ele>
        <time>2022-04-22T09:19:11Z</time>
      </trkpt>
      <trkpt lat="43.53509" lon="6.64255">
        <ele>505</ele>
        <time>2022-04-22T09:19:12Z</time>
      </trkpt>
      <trkpt lat="43.53509" lon="6.64253">
        <ele>505.1</ele>
        <time>2022-04-22T09:19:13Z</time>
      </trkpt>
      <trkpt lat="43.53508" lon="6.64251">
        <ele>505.2</ele>
        <time>2022-04-22T09:19:14Z</time>
      </trkpt>
      <trkpt lat="43.53507" lon="6.64247">
        <ele>505.5</ele>
        <time>2022-04-22T09:19:16Z</time>
      </trkpt>
      <trkpt lat="43.53506" lon="6.64246">
        <ele>505.6</ele>
        <time>2022-04-22T09:19:17Z</time>
      </trkpt>
      <trkpt lat="43.53506" lon="6.64245">
        <ele>505.7</ele>
        <time>2022-04-22T09:19:18Z</time>
      </trkpt>
      <trkpt lat="43.53505" lon="6.64244">
        <ele>505.8</ele>
        <time>2022-04-22T09:19:19Z</time>
      </trkpt>
      <trkpt lat="43.53504" lon="6.64243">
        <ele>505.9</ele>
        <time>2022-04-22T09:19:20Z</time>
      </trkpt>
      <trkpt lat="43.53503" lon="6.64242">
        <ele>506</ele>
        <time>2022-04-22T09:19:21Z</time>
      </trkpt>
      <trkpt lat="43.53502" lon="6.64241">
        <ele>506.2</ele>
        <time>2022-04-22T09:19:22Z</time>
      </trkpt>
      <trkpt lat="43.53501" lon="6.64239">
        <ele>506.4</ele>
        <time>2022-04-22T09:19:24Z</time>
      </trkpt>
      <trkpt lat="43.535" lon="6.64237">
        <ele>506.5</ele>
        <time>2022-04-22T09:19:25Z</time>
      </trkpt>
      <trkpt lat="43.535" lon="6.64235">
        <ele>506.7</ele>
        <time>2022-04-22T09:19:26Z</time>
      </trkpt>
      <trkpt lat="43.53498" lon="6.64232">
        <ele>507</ele>
        <time>2022-04-22T09:19:27Z</time>
      </trkpt>
      <trkpt lat="43.53498" lon="6.64231">
        <ele>507</ele>
        <time>2022-04-22T09:19:28Z</time>
      </trkpt>
      <trkpt lat="43.53497" lon="6.6423">
        <ele>507.1</ele>
        <time>2022-04-22T09:19:29Z</time>
      </trkpt>
      <trkpt lat="43.53496" lon="6.64228">
        <ele>507.4</ele>
        <time>2022-04-22T09:19:30Z</time>
      </trkpt>
      <trkpt lat="43.53496" lon="6.64227">
        <ele>507.5</ele>
        <time>2022-04-22T09:19:31Z</time>
      </trkpt>
      <trkpt lat="43.53495" lon="6.64226">
        <ele>507.6</ele>
        <time>2022-04-22T09:19:32Z</time>
      </trkpt>
      <trkpt lat="43.53494" lon="6.64225">
        <ele>507.7</ele>
        <time>2022-04-22T09:19:33Z</time>
      </trkpt>
      <trkpt lat="43.53494" lon="6.64224">
        <ele>507.8</ele>
        <time>2022-04-22T09:19:34Z</time>
      </trkpt>
      <trkpt lat="43.53493" lon="6.64223">
        <ele>507.9</ele>
        <time>2022-04-22T09:19:35Z</time>
      </trkpt>
      <trkpt lat="43.53492" lon="6.6422">
        <ele>508.2</ele>
        <time>2022-04-22T09:19:36Z</time>
      </trkpt>
      <trkpt lat="43.53492" lon="6.64219">
        <ele>508.3</ele>
        <time>2022-04-22T09:19:37Z</time>
      </trkpt>
      <trkpt lat="43.53492" lon="6.64218">
        <ele>508.4</ele>
        <time>2022-04-22T09:19:38Z</time>
      </trkpt>
      <trkpt lat="43.53492" lon="6.64215">
        <ele>508.6</ele>
        <time>2022-04-22T09:19:40Z</time>
      </trkpt>
      <trkpt lat="43.53491" lon="6.64214">
        <ele>508.7</ele>
        <time>2022-04-22T09:19:41Z</time>
      </trkpt>
      <trkpt lat="43.53491" lon="6.64213">
        <ele>508.8</ele>
        <time>2022-04-22T09:19:42Z</time>
      </trkpt>
      <trkpt lat="43.53491" lon="6.64211">
        <ele>508.9</ele>
        <time>2022-04-22T09:19:43Z</time>
      </trkpt>
      <trkpt lat="43.5349" lon="6.64211">
        <ele>509</ele>
        <time>2022-04-22T09:19:44Z</time>
      </trkpt>
      <trkpt lat="43.5349" lon="6.6421">
        <ele>509.1</ele>
        <time>2022-04-22T09:19:45Z</time>
      </trkpt>
      <trkpt lat="43.5349" lon="6.64208">
        <ele>509.2</ele>
        <time>2022-04-22T09:19:46Z</time>
      </trkpt>
      <trkpt lat="43.53489" lon="6.64206">
        <ele>509.4</ele>
        <time>2022-04-22T09:19:47Z</time>
      </trkpt>
      <trkpt lat="43.53488" lon="6.64205">
        <ele>509.6</ele>
        <time>2022-04-22T09:19:48Z</time>
      </trkpt>
      <trkpt lat="43.53488" lon="6.64204">
        <ele>509.7</ele>
        <time>2022-04-22T09:19:49Z</time>
      </trkpt>
      <trkpt lat="43.53487" lon="6.64203">
        <ele>509.8</ele>
        <time>2022-04-22T09:19:51Z</time>
      </trkpt>
      <trkpt lat="43.53487" lon="6.64203">
        <ele>509.8</ele>
        <time>2022-04-22T09:19:52Z</time>
      </trkpt>
      <trkpt lat="43.53486" lon="6.64201">
        <ele>510</ele>
        <time>2022-04-22T09:19:53Z</time>
      </trkpt>
      <trkpt lat="43.53486" lon="6.642">
        <ele>510.2</ele>
        <time>2022-04-22T09:19:54Z</time>
      </trkpt>
      <trkpt lat="43.53485" lon="6.64197">
        <ele>510.5</ele>
        <time>2022-04-22T09:19:56Z</time>
      </trkpt>
      <trkpt lat="43.53485" lon="6.64195">
        <ele>510.7</ele>
        <time>2022-04-22T09:19:57Z</time>
      </trkpt>
      <trkpt lat="43.53484" lon="6.64194">
        <ele>510.8</ele>
        <time>2022-04-22T09:19:58Z</time>
      </trkpt>
      <trkpt lat="43.53484" lon="6.64193">
        <ele>510.9</ele>
        <time>2022-04-22T09:19:59Z</time>
      </trkpt>
      <trkpt lat="43.53484" lon="6.64192">
        <ele>511</ele>
        <time>2022-04-22T09:20:00Z</time>
      </trkpt>
      <trkpt lat="43.53483" lon="6.6419">
        <ele>511.2</ele>
        <time>2022-04-22T09:20:01Z</time>
      </trkpt>
      <trkpt lat="43.53483" lon="6.64188">
        <ele>511.5</ele>
        <time>2022-04-22T09:20:03Z</time>
      </trkpt>
      <trkpt lat="43.53482" lon="6.64186">
        <ele>511.7</ele>
        <time>2022-04-22T09:20:04Z</time>
      </trkpt>
      <trkpt lat="43.53482" lon="6.64184">
        <ele>511.9</ele>
        <time>2022-04-22T09:20:05Z</time>
      </trkpt>
      <trkpt lat="43.53482" lon="6.64183">
        <ele>512.1</ele>
        <time>2022-04-22T09:20:07Z</time>
      </trkpt>
      <trkpt lat="43.53482" lon="6.64181">
        <ele>512.3</ele>
        <time>2022-04-22T09:20:08Z</time>
      </trkpt>
      <trkpt lat="43.53481" lon="6.6418">
        <ele>512.4</ele>
        <time>2022-04-22T09:20:09Z</time>
      </trkpt>
      <trkpt lat="43.53481" lon="6.64178">
        <ele>512.7</ele>
        <time>2022-04-22T09:20:11Z</time>
      </trkpt>
      <trkpt lat="43.5348" lon="6.64176">
        <ele>513</ele>
        <time>2022-04-22T09:20:12Z</time>
      </trkpt>
      <trkpt lat="43.53479" lon="6.64174">
        <ele>513.3</ele>
        <time>2022-04-22T09:20:14Z</time>
      </trkpt>
      <trkpt lat="43.53478" lon="6.64174">
        <ele>513.5</ele>
        <time>2022-04-22T09:20:15Z</time>
      </trkpt>
      <trkpt lat="43.53478" lon="6.64173">
        <ele>513.6</ele>
        <time>2022-04-22T09:20:16Z</time>
      </trkpt>
      <trkpt lat="43.53477" lon="6.64171">
        <ele>513.9</ele>
        <time>2022-04-22T09:20:17Z</time>
      </trkpt>
      <trkpt lat="43.53477" lon="6.64169">
        <ele>514.3</ele>
        <time>2022-04-22T09:20:18Z</time>
      </trkpt>
      <trkpt lat="43.53476" lon="6.64166">
        <ele>514.7</ele>
        <time>2022-04-22T09:20:20Z</time>
      </trkpt>
      <trkpt lat="43.53476" lon="6.64165">
        <ele>515</ele>
        <time>2022-04-22T09:20:21Z</time>
      </trkpt>
      <trkpt lat="43.53475" lon="6.64162">
        <ele>515.3</ele>
        <time>2022-04-22T09:20:22Z</time>
      </trkpt>
      <trkpt lat="43.53475" lon="6.64161">
        <ele>515.6</ele>
        <time>2022-04-22T09:20:23Z</time>
      </trkpt>
      <trkpt lat="43.53475" lon="6.64159">
        <ele>515.9</ele>
        <time>2022-04-22T09:20:24Z</time>
      </trkpt>
      <trkpt lat="43.53474" lon="6.64157">
        <ele>516.2</ele>
        <time>2022-04-22T09:20:26Z</time>
      </trkpt>
      <trkpt lat="43.53474" lon="6.64155">
        <ele>516.7</ele>
        <time>2022-04-22T09:20:27Z</time>
      </trkpt>
      <trkpt lat="43.53474" lon="6.64153">
        <ele>516.9</ele>
        <time>2022-04-22T09:20:28Z</time>
      </trkpt>
      <trkpt lat="43.53474" lon="6.64152">
        <ele>517.1</ele>
        <time>2022-04-22T09:20:29Z</time>
      </trkpt>
      <trkpt lat="43.53474" lon="6.64151">
        <ele>517.4</ele>
        <time>2022-04-22T09:20:30Z</time>
      </trkpt>
      <trkpt lat="43.53474" lon="6.64149">
        <ele>517.7</ele>
        <time>2022-04-22T09:20:32Z</time>
      </trkpt>
      <trkpt lat="43.53474" lon="6.64148">
        <ele>517.8</ele>
        <time>2022-04-22T09:20:33Z</time>
      </trkpt>
      <trkpt lat="43.53474" lon="6.64148">
        <ele>517.9</ele>
        <time>2022-04-22T09:20:34Z</time>
      </trkpt>
      <trkpt lat="43.53474" lon="6.64148">
        <ele>517.9</ele>
        <time>2022-04-22T09:20:35Z</time>
      </trkpt>
      <trkpt lat="43.53474" lon="6.64148">
        <ele>518</ele>
        <time>2022-04-22T09:20:37Z</time>
      </trkpt>
      <trkpt lat="43.53474" lon="6.64148">
        <ele>518.1</ele>
        <time>2022-04-22T09:20:38Z</time>
      </trkpt>
      <trkpt lat="43.53474" lon="6.64149">
        <ele>518.1</ele>
        <time>2022-04-22T09:20:39Z</time>
      </trkpt>
      <trkpt lat="43.53474" lon="6.64148">
        <ele>518.2</ele>
        <time>2022-04-22T09:20:40Z</time>
      </trkpt>
      <trkpt lat="43.53474" lon="6.64149">
        <ele>518.3</ele>
        <time>2022-04-22T09:20:42Z</time>
      </trkpt>
      <trkpt lat="43.53474" lon="6.64149">
        <ele>518.3</ele>
        <time>2022-04-22T09:20:43Z</time>
      </trkpt>
      <trkpt lat="43.53474" lon="6.64148">
        <ele>518.5</ele>
        <time>2022-04-22T09:20:44Z</time>
      </trkpt>
      <trkpt lat="43.53474" lon="6.64147">
        <ele>518.7</ele>
        <time>2022-04-22T09:20:46Z</time>
      </trkpt>
      <trkpt lat="43.53474" lon="6.64146">
        <ele>519</ele>
        <time>2022-04-22T09:20:47Z</time>
      </trkpt>
      <trkpt lat="43.53473" lon="6.64145">
        <ele>519.1</ele>
        <time>2022-04-22T09:20:48Z</time>
      </trkpt>
      <trkpt lat="43.53472" lon="6.64142">
        <ele>519.7</ele>
        <time>2022-04-22T09:20:49Z</time>
      </trkpt>
      <trkpt lat="43.53472" lon="6.64141">
        <ele>520</ele>
        <time>2022-04-22T09:20:51Z</time>
      </trkpt>
      <trkpt lat="43.53471" lon="6.6414">
        <ele>520.2</ele>
        <time>2022-04-22T09:20:52Z</time>
      </trkpt>
      <trkpt lat="43.53471" lon="6.64139">
        <ele>520.5</ele>
        <time>2022-04-22T09:20:53Z</time>
      </trkpt>
      <trkpt lat="43.5347" lon="6.64138">
        <ele>520.7</ele>
        <time>2022-04-22T09:20:54Z</time>
      </trkpt>
      <trkpt lat="43.5347" lon="6.64136">
        <ele>521</ele>
        <time>2022-04-22T09:20:55Z</time>
      </trkpt>
      <trkpt lat="43.5347" lon="6.64135">
        <ele>521.3</ele>
        <time>2022-04-22T09:20:56Z</time>
      </trkpt>
      <trkpt lat="43.53469" lon="6.64132">
        <ele>521.8</ele>
        <time>2022-04-22T09:20:57Z</time>
      </trkpt>
      <trkpt lat="43.53469" lon="6.64131">
        <ele>522</ele>
        <time>2022-04-22T09:20:59Z</time>
      </trkpt>
      <trkpt lat="43.53469" lon="6.64129">
        <ele>522.4</ele>
        <time>2022-04-22T09:21:00Z</time>
      </trkpt>
      <trkpt lat="43.53468" lon="6.64128">
        <ele>522.6</ele>
        <time>2022-04-22T09:21:01Z</time>
      </trkpt>
      <trkpt lat="43.53467" lon="6.64125">
        <ele>523.4</ele>
        <time>2022-04-22T09:21:02Z</time>
      </trkpt>
      <trkpt lat="43.53466" lon="6.64124">
        <ele>523.7</ele>
        <time>2022-04-22T09:21:04Z</time>
      </trkpt>
      <trkpt lat="43.53465" lon="6.64123">
        <ele>524</ele>
        <time>2022-04-22T09:21:05Z</time>
      </trkpt>
      <trkpt lat="43.53464" lon="6.64122">
        <ele>524.3</ele>
        <time>2022-04-22T09:21:06Z</time>
      </trkpt>
      <trkpt lat="43.53463" lon="6.64121">
        <ele>524.6</ele>
        <time>2022-04-22T09:21:07Z</time>
      </trkpt>
      <trkpt lat="43.53463" lon="6.6412">
        <ele>524.9</ele>
        <time>2022-04-22T09:21:08Z</time>
      </trkpt>
      <trkpt lat="43.53462" lon="6.64118">
        <ele>525.2</ele>
        <time>2022-04-22T09:21:09Z</time>
      </trkpt>
      <trkpt lat="43.53462" lon="6.64116">
        <ele>525.6</ele>
        <time>2022-04-22T09:21:11Z</time>
      </trkpt>
      <trkpt lat="43.53462" lon="6.64114">
        <ele>526.1</ele>
        <time>2022-04-22T09:21:12Z</time>
      </trkpt>
      <trkpt lat="43.53462" lon="6.64114">
        <ele>526.2</ele>
        <time>2022-04-22T09:21:13Z</time>
      </trkpt>
      <trkpt lat="43.53462" lon="6.64112">
        <ele>526.5</ele>
        <time>2022-04-22T09:21:14Z</time>
      </trkpt>
      <trkpt lat="43.53462" lon="6.64111">
        <ele>526.7</ele>
        <time>2022-04-22T09:21:16Z</time>
      </trkpt>
      <trkpt lat="43.53462" lon="6.6411">
        <ele>526.8</ele>
        <time>2022-04-22T09:21:17Z</time>
      </trkpt>
      <trkpt lat="43.53462" lon="6.6411">
        <ele>526.9</ele>
        <time>2022-04-22T09:21:18Z</time>
      </trkpt>
      <trkpt lat="43.53461" lon="6.6411">
        <ele>527.1</ele>
        <time>2022-04-22T09:21:19Z</time>
      </trkpt>
      <trkpt lat="43.53461" lon="6.64109">
        <ele>527.2</ele>
        <time>2022-04-22T09:21:20Z</time>
      </trkpt>
      <trkpt lat="43.53461" lon="6.64108">
        <ele>527.4</ele>
        <time>2022-04-22T09:21:21Z</time>
      </trkpt>
      <trkpt lat="43.53461" lon="6.64108">
        <ele>527.6</ele>
        <time>2022-04-22T09:21:22Z</time>
      </trkpt>
      <trkpt lat="43.53462" lon="6.64107">
        <ele>527.7</ele>
        <time>2022-04-22T09:21:24Z</time>
      </trkpt>
      <trkpt lat="43.53462" lon="6.64106">
        <ele>527.9</ele>
        <time>2022-04-22T09:21:25Z</time>
      </trkpt>
      <trkpt lat="43.53462" lon="6.64105">
        <ele>528.2</ele>
        <time>2022-04-22T09:21:26Z</time>
      </trkpt>
      <trkpt lat="43.53463" lon="6.64104">
        <ele>528.4</ele>
        <time>2022-04-22T09:21:27Z</time>
      </trkpt>
      <trkpt lat="43.53463" lon="6.64104">
        <ele>528.6</ele>
        <time>2022-04-22T09:21:28Z</time>
      </trkpt>
      <trkpt lat="43.53463" lon="6.64103">
        <ele>528.7</ele>
        <time>2022-04-22T09:21:29Z</time>
      </trkpt>
      <trkpt lat="43.53464" lon="6.64103">
        <ele>528.9</ele>
        <time>2022-04-22T09:21:31Z</time>
      </trkpt>
      <trkpt lat="43.53464" lon="6.64102">
        <ele>529.2</ele>
        <time>2022-04-22T09:21:32Z</time>
      </trkpt>
      <trkpt lat="43.53464" lon="6.64101">
        <ele>529.3</ele>
        <time>2022-04-22T09:21:33Z</time>
      </trkpt>
      <trkpt lat="43.53463" lon="6.64101">
        <ele>529.4</ele>
        <time>2022-04-22T09:21:34Z</time>
      </trkpt>
      <trkpt lat="43.53463" lon="6.641">
        <ele>529.7</ele>
        <time>2022-04-22T09:21:35Z</time>
      </trkpt>
      <trkpt lat="43.53463" lon="6.64098">
        <ele>530.2</ele>
        <time>2022-04-22T09:21:37Z</time>
      </trkpt>
      <trkpt lat="43.53462" lon="6.64097">
        <ele>530.4</ele>
        <time>2022-04-22T09:21:38Z</time>
      </trkpt>
      <trkpt lat="43.53461" lon="6.64095">
        <ele>530.9</ele>
        <time>2022-04-22T09:21:39Z</time>
      </trkpt>
      <trkpt lat="43.53461" lon="6.64094">
        <ele>531.2</ele>
        <time>2022-04-22T09:21:41Z</time>
      </trkpt>
      <trkpt lat="43.5346" lon="6.64093">
        <ele>531.7</ele>
        <time>2022-04-22T09:21:42Z</time>
      </trkpt>
      <trkpt lat="43.5346" lon="6.64092">
        <ele>531.9</ele>
        <time>2022-04-22T09:21:43Z</time>
      </trkpt>
      <trkpt lat="43.53459" lon="6.64092">
        <ele>532.2</ele>
        <time>2022-04-22T09:21:44Z</time>
      </trkpt>
      <trkpt lat="43.53458" lon="6.64091">
        <ele>532.5</ele>
        <time>2022-04-22T09:21:46Z</time>
      </trkpt>
      <trkpt lat="43.53457" lon="6.6409">
        <ele>532.8</ele>
        <time>2022-04-22T09:21:48Z</time>
      </trkpt>
      <trkpt lat="43.53457" lon="6.6409">
        <ele>533</ele>
        <time>2022-04-22T09:21:49Z</time>
      </trkpt>
      <trkpt lat="43.53457" lon="6.6409">
        <ele>533.1</ele>
        <time>2022-04-22T09:21:50Z</time>
      </trkpt>
      <trkpt lat="43.53456" lon="6.64089">
        <ele>533.4</ele>
        <time>2022-04-22T09:21:51Z</time>
      </trkpt>
      <trkpt lat="43.53455" lon="6.64087">
        <ele>534</ele>
        <time>2022-04-22T09:21:52Z</time>
      </trkpt>
      <trkpt lat="43.53455" lon="6.64086">
        <ele>534.3</ele>
        <time>2022-04-22T09:21:53Z</time>
      </trkpt>
      <trkpt lat="43.53454" lon="6.64085">
        <ele>534.7</ele>
        <time>2022-04-22T09:21:54Z</time>
      </trkpt>
      <trkpt lat="43.53453" lon="6.64081">
        <ele>535.7</ele>
        <time>2022-04-22T09:21:56Z</time>
      </trkpt>
      <trkpt lat="43.53451" lon="6.64078">
        <ele>536.8</ele>
        <time>2022-04-22T09:21:57Z</time>
      </trkpt>
      <trkpt lat="43.53449" lon="6.64076">
        <ele>537.6</ele>
        <time>2022-04-22T09:21:58Z</time>
      </trkpt>
      <trkpt lat="43.53448" lon="6.64074">
        <ele>538.4</ele>
        <time>2022-04-22T09:22:00Z</time>
      </trkpt>
      <trkpt lat="43.53447" lon="6.64072">
        <ele>538.9</ele>
        <time>2022-04-22T09:22:01Z</time>
      </trkpt>
      <trkpt lat="43.53447" lon="6.6407">
        <ele>539.5</ele>
        <time>2022-04-22T09:22:02Z</time>
      </trkpt>
      <trkpt lat="43.53447" lon="6.64069">
        <ele>539.9</ele>
        <time>2022-04-22T09:22:03Z</time>
      </trkpt>
      <trkpt lat="43.53447" lon="6.64068">
        <ele>540.2</ele>
        <time>2022-04-22T09:22:04Z</time>
      </trkpt>
      <trkpt lat="43.53446" lon="6.64067">
        <ele>540.5</ele>
        <time>2022-04-22T09:22:05Z</time>
      </trkpt>
      <trkpt lat="43.53446" lon="6.64066">
        <ele>540.8</ele>
        <time>2022-04-22T09:22:06Z</time>
      </trkpt>
      <trkpt lat="43.53445" lon="6.64065">
        <ele>541.3</ele>
        <time>2022-04-22T09:22:08Z</time>
      </trkpt>
      <trkpt lat="43.53444" lon="6.64064">
        <ele>541.7</ele>
        <time>2022-04-22T09:22:09Z</time>
      </trkpt>
      <trkpt lat="43.53444" lon="6.64063">
        <ele>542</ele>
        <time>2022-04-22T09:22:10Z</time>
      </trkpt>
      <trkpt lat="43.53444" lon="6.64062">
        <ele>542.4</ele>
        <time>2022-04-22T09:22:11Z</time>
      </trkpt>
      <trkpt lat="43.53444" lon="6.64061">
        <ele>542.8</ele>
        <time>2022-04-22T09:22:12Z</time>
      </trkpt>
      <trkpt lat="43.53444" lon="6.64059">
        <ele>543.4</ele>
        <time>2022-04-22T09:22:14Z</time>
      </trkpt>
      <trkpt lat="43.53445" lon="6.64058">
        <ele>543.8</ele>
        <time>2022-04-22T09:22:15Z</time>
      </trkpt>
      <trkpt lat="43.53445" lon="6.64057">
        <ele>544.1</ele>
        <time>2022-04-22T09:22:16Z</time>
      </trkpt>
      <trkpt lat="43.53445" lon="6.64056">
        <ele>544.3</ele>
        <time>2022-04-22T09:22:17Z</time>
      </trkpt>
      <trkpt lat="43.53445" lon="6.64056">
        <ele>544.4</ele>
        <time>2022-04-22T09:22:18Z</time>
      </trkpt>
      <trkpt lat="43.53445" lon="6.64055">
        <ele>544.7</ele>
        <time>2022-04-22T09:22:20Z</time>
      </trkpt>
      <trkpt lat="43.53444" lon="6.64054">
        <ele>544.9</ele>
        <time>2022-04-22T09:22:21Z</time>
      </trkpt>
      <trkpt lat="43.53444" lon="6.64053">
        <ele>545.2</ele>
        <time>2022-04-22T09:22:22Z</time>
      </trkpt>
      <trkpt lat="43.53444" lon="6.64052">
        <ele>545.6</ele>
        <time>2022-04-22T09:22:24Z</time>
      </trkpt>
      <trkpt lat="43.53444" lon="6.6405">
        <ele>546.1</ele>
        <time>2022-04-22T09:22:26Z</time>
      </trkpt>
      <trkpt lat="43.53444" lon="6.64048">
        <ele>546.8</ele>
        <time>2022-04-22T09:22:27Z</time>
      </trkpt>
      <trkpt lat="43.53444" lon="6.64047">
        <ele>547.1</ele>
        <time>2022-04-22T09:22:28Z</time>
      </trkpt>
      <trkpt lat="43.53444" lon="6.64046">
        <ele>547.4</ele>
        <time>2022-04-22T09:22:29Z</time>
      </trkpt>
      <trkpt lat="43.53445" lon="6.64044">
        <ele>547.9</ele>
        <time>2022-04-22T09:22:30Z</time>
      </trkpt>
      <trkpt lat="43.53445" lon="6.64043">
        <ele>548.1</ele>
        <time>2022-04-22T09:22:31Z</time>
      </trkpt>
      <trkpt lat="43.53445" lon="6.64042">
        <ele>548.4</ele>
        <time>2022-04-22T09:22:33Z</time>
      </trkpt>
      <trkpt lat="43.53445" lon="6.64041">
        <ele>548.6</ele>
        <time>2022-04-22T09:22:34Z</time>
      </trkpt>
      <trkpt lat="43.53444" lon="6.6404">
        <ele>548.9</ele>
        <time>2022-04-22T09:22:35Z</time>
      </trkpt>
      <trkpt lat="43.53444" lon="6.64039">
        <ele>549.2</ele>
        <time>2022-04-22T09:22:36Z</time>
      </trkpt>
      <trkpt lat="43.53443" lon="6.64037">
        <ele>549.6</ele>
        <time>2022-04-22T09:22:38Z</time>
      </trkpt>
      <trkpt lat="43.53443" lon="6.64036">
        <ele>549.9</ele>
        <time>2022-04-22T09:22:39Z</time>
      </trkpt>
      <trkpt lat="43.53442" lon="6.64035">
        <ele>550</ele>
        <time>2022-04-22T09:22:40Z</time>
      </trkpt>
      <trkpt lat="43.53442" lon="6.64034">
        <ele>550.2</ele>
        <time>2022-04-22T09:22:41Z</time>
      </trkpt>
      <trkpt lat="43.53442" lon="6.64034">
        <ele>550.3</ele>
        <time>2022-04-22T09:22:42Z</time>
      </trkpt>
      <trkpt lat="43.53442" lon="6.64033">
        <ele>550.4</ele>
        <time>2022-04-22T09:22:43Z</time>
      </trkpt>
      <trkpt lat="43.53442" lon="6.64034">
        <ele>550.7</ele>
        <time>2022-04-22T09:22:44Z</time>
      </trkpt>
      <trkpt lat="43.53441" lon="6.64034">
        <ele>550.8</ele>
        <time>2022-04-22T09:22:46Z</time>
      </trkpt>
      <trkpt lat="43.53441" lon="6.64033">
        <ele>551</ele>
        <time>2022-04-22T09:22:47Z</time>
      </trkpt>
      <trkpt lat="43.5344" lon="6.64032">
        <ele>551.2</ele>
        <time>2022-04-22T09:22:48Z</time>
      </trkpt>
      <trkpt lat="43.53439" lon="6.6403">
        <ele>551.7</ele>
        <time>2022-04-22T09:22:50Z</time>
      </trkpt>
      <trkpt lat="43.53438" lon="6.64028">
        <ele>552</ele>
        <time>2022-04-22T09:22:51Z</time>
      </trkpt>
      <trkpt lat="43.53437" lon="6.64028">
        <ele>552.1</ele>
        <time>2022-04-22T09:22:52Z</time>
      </trkpt>
      <trkpt lat="43.53436" lon="6.64027">
        <ele>552.3</ele>
        <time>2022-04-22T09:22:53Z</time>
      </trkpt>
      <trkpt lat="43.53435" lon="6.64026">
        <ele>552.6</ele>
        <time>2022-04-22T09:22:54Z</time>
      </trkpt>
      <trkpt lat="43.53434" lon="6.64026">
        <ele>552.7</ele>
        <time>2022-04-22T09:22:55Z</time>
      </trkpt>
      <trkpt lat="43.53434" lon="6.64025">
        <ele>552.8</ele>
        <time>2022-04-22T09:22:56Z</time>
      </trkpt>
      <trkpt lat="43.53433" lon="6.64025">
        <ele>552.9</ele>
        <time>2022-04-22T09:22:57Z</time>
      </trkpt>
      <trkpt lat="43.53432" lon="6.64024">
        <ele>553.1</ele>
        <time>2022-04-22T09:22:58Z</time>
      </trkpt>
      <trkpt lat="43.5343" lon="6.64024">
        <ele>553.3</ele>
        <time>2022-04-22T09:22:59Z</time>
      </trkpt>
      <trkpt lat="43.53428" lon="6.64023">
        <ele>553.6</ele>
        <time>2022-04-22T09:23:00Z</time>
      </trkpt>
      <trkpt lat="43.53428" lon="6.64022">
        <ele>553.5</ele>
        <time>2022-04-22T09:23:01Z</time>
      </trkpt>
      <trkpt lat="43.53427" lon="6.64022">
        <ele>553.5</ele>
        <time>2022-04-22T09:23:02Z</time>
      </trkpt>
      <trkpt lat="43.53425" lon="6.64022">
        <ele>553.4</ele>
        <time>2022-04-22T09:23:04Z</time>
      </trkpt>
      <trkpt lat="43.53424" lon="6.64022">
        <ele>553.2</ele>
        <time>2022-04-22T09:23:05Z</time>
      </trkpt>
      <trkpt lat="43.53422" lon="6.64022">
        <ele>553.1</ele>
        <time>2022-04-22T09:23:06Z</time>
      </trkpt>
      <trkpt lat="43.53421" lon="6.64022">
        <ele>553</ele>
        <time>2022-04-22T09:23:07Z</time>
      </trkpt>
      <trkpt lat="43.5342" lon="6.64022">
        <ele>553</ele>
        <time>2022-04-22T09:23:08Z</time>
      </trkpt>
      <trkpt lat="43.53418" lon="6.64023">
        <ele>552.7</ele>
        <time>2022-04-22T09:23:09Z</time>
      </trkpt>
      <trkpt lat="43.53417" lon="6.64024">
        <ele>552.6</ele>
        <time>2022-04-22T09:23:10Z</time>
      </trkpt>
      <trkpt lat="43.53416" lon="6.64025">
        <ele>552.5</ele>
        <time>2022-04-22T09:23:11Z</time>
      </trkpt>
      <trkpt lat="43.53413" lon="6.64025">
        <ele>552.2</ele>
        <time>2022-04-22T09:23:12Z</time>
      </trkpt>
      <trkpt lat="43.53412" lon="6.64025">
        <ele>552</ele>
        <time>2022-04-22T09:23:14Z</time>
      </trkpt>
      <trkpt lat="43.53411" lon="6.64025">
        <ele>551.9</ele>
        <time>2022-04-22T09:23:15Z</time>
      </trkpt>
      <trkpt lat="43.53409" lon="6.64025">
        <ele>551.7</ele>
        <time>2022-04-22T09:23:16Z</time>
      </trkpt>
      <trkpt lat="43.53408" lon="6.64026">
        <ele>551.6</ele>
        <time>2022-04-22T09:23:17Z</time>
      </trkpt>
      <trkpt lat="43.53407" lon="6.64026">
        <ele>551.5</ele>
        <time>2022-04-22T09:23:18Z</time>
      </trkpt>
      <trkpt lat="43.53406" lon="6.64027">
        <ele>551.4</ele>
        <time>2022-04-22T09:23:20Z</time>
      </trkpt>
      <trkpt lat="43.53406" lon="6.64027">
        <ele>551.3</ele>
        <time>2022-04-22T09:23:21Z</time>
      </trkpt>
      <trkpt lat="43.53405" lon="6.64028">
        <ele>551.2</ele>
        <time>2022-04-22T09:23:22Z</time>
      </trkpt>
      <trkpt lat="43.53404" lon="6.64028">
        <ele>551.1</ele>
        <time>2022-04-22T09:23:23Z</time>
      </trkpt>
      <trkpt lat="43.53402" lon="6.64028">
        <ele>550.9</ele>
        <time>2022-04-22T09:23:24Z</time>
      </trkpt>
      <trkpt lat="43.53401" lon="6.64028">
        <ele>550.7</ele>
        <time>2022-04-22T09:23:25Z</time>
      </trkpt>
      <trkpt lat="43.534" lon="6.64028">
        <ele>550.6</ele>
        <time>2022-04-22T09:23:26Z</time>
      </trkpt>
      <trkpt lat="43.53399" lon="6.64028">
        <ele>550.6</ele>
        <time>2022-04-22T09:23:27Z</time>
      </trkpt>
      <trkpt lat="43.53399" lon="6.64028">
        <ele>550.5</ele>
        <time>2022-04-22T09:23:28Z</time>
      </trkpt>
      <trkpt lat="43.53397" lon="6.64028">
        <ele>550.3</ele>
        <time>2022-04-22T09:23:29Z</time>
      </trkpt>
      <trkpt lat="43.53396" lon="6.64028">
        <ele>550.1</ele>
        <time>2022-04-22T09:23:30Z</time>
      </trkpt>
      <trkpt lat="43.53393" lon="6.64028">
        <ele>549.8</ele>
        <time>2022-04-22T09:23:31Z</time>
      </trkpt>
      <trkpt lat="43.53392" lon="6.64028">
        <ele>549.7</ele>
        <time>2022-04-22T09:23:33Z</time>
      </trkpt>
      <trkpt lat="43.53391" lon="6.64027">
        <ele>549.5</ele>
        <time>2022-04-22T09:23:34Z</time>
      </trkpt>
      <trkpt lat="43.5339" lon="6.64027">
        <ele>549.4</ele>
        <time>2022-04-22T09:23:35Z</time>
      </trkpt>
      <trkpt lat="43.53389" lon="6.64027">
        <ele>549.2</ele>
        <time>2022-04-22T09:23:36Z</time>
      </trkpt>
      <trkpt lat="43.53387" lon="6.64027">
        <ele>549</ele>
        <time>2022-04-22T09:23:37Z</time>
      </trkpt>
      <trkpt lat="43.53386" lon="6.64027">
        <ele>548.8</ele>
        <time>2022-04-22T09:23:38Z</time>
      </trkpt>
      <trkpt lat="43.53385" lon="6.64027">
        <ele>548.6</ele>
        <time>2022-04-22T09:23:39Z</time>
      </trkpt>
      <trkpt lat="43.53384" lon="6.64027">
        <ele>548.5</ele>
        <time>2022-04-22T09:23:40Z</time>
      </trkpt>
      <trkpt lat="43.53383" lon="6.64027">
        <ele>548.4</ele>
        <time>2022-04-22T09:23:41Z</time>
      </trkpt>
      <trkpt lat="43.53382" lon="6.64028">
        <ele>548.2</ele>
        <time>2022-04-22T09:23:42Z</time>
      </trkpt>
      <trkpt lat="43.53381" lon="6.64028">
        <ele>548.1</ele>
        <time>2022-04-22T09:23:43Z</time>
      </trkpt>
      <trkpt lat="43.5338" lon="6.64028">
        <ele>547.9</ele>
        <time>2022-04-22T09:23:44Z</time>
      </trkpt>
      <trkpt lat="43.53378" lon="6.64029">
        <ele>547.6</ele>
        <time>2022-04-22T09:23:45Z</time>
      </trkpt>
      <trkpt lat="43.53377" lon="6.64029">
        <ele>547.5</ele>
        <time>2022-04-22T09:23:46Z</time>
      </trkpt>
      <trkpt lat="43.53376" lon="6.6403">
        <ele>547.4</ele>
        <time>2022-04-22T09:23:47Z</time>
      </trkpt>
      <trkpt lat="43.53375" lon="6.6403">
        <ele>547.1</ele>
        <time>2022-04-22T09:23:48Z</time>
      </trkpt>
      <trkpt lat="43.53373" lon="6.64031">
        <ele>546.9</ele>
        <time>2022-04-22T09:23:49Z</time>
      </trkpt>
      <trkpt lat="43.5337" lon="6.64031">
        <ele>546.5</ele>
        <time>2022-04-22T09:23:50Z</time>
      </trkpt>
      <trkpt lat="43.53369" lon="6.64031">
        <ele>546.3</ele>
        <time>2022-04-22T09:23:51Z</time>
      </trkpt>
      <trkpt lat="43.53366" lon="6.64031">
        <ele>545.8</ele>
        <time>2022-04-22T09:23:53Z</time>
      </trkpt>
      <trkpt lat="43.53365" lon="6.64031">
        <ele>545.7</ele>
        <time>2022-04-22T09:23:54Z</time>
      </trkpt>
      <trkpt lat="43.53363" lon="6.64031">
        <ele>545.4</ele>
        <time>2022-04-22T09:23:55Z</time>
      </trkpt>
      <trkpt lat="43.53362" lon="6.64031">
        <ele>545.3</ele>
        <time>2022-04-22T09:23:56Z</time>
      </trkpt>
      <trkpt lat="43.53361" lon="6.64032">
        <ele>545.2</ele>
        <time>2022-04-22T09:23:57Z</time>
      </trkpt>
      <trkpt lat="43.5336" lon="6.64032">
        <ele>545</ele>
        <time>2022-04-22T09:23:58Z</time>
      </trkpt>
      <trkpt lat="43.53359" lon="6.64032">
        <ele>544.9</ele>
        <time>2022-04-22T09:23:59Z</time>
      </trkpt>
      <trkpt lat="43.53358" lon="6.64032">
        <ele>544.8</ele>
        <time>2022-04-22T09:24:00Z</time>
      </trkpt>
      <trkpt lat="43.53357" lon="6.64031">
        <ele>544.7</ele>
        <time>2022-04-22T09:24:01Z</time>
      </trkpt>
      <trkpt lat="43.53356" lon="6.64031">
        <ele>544.5</ele>
        <time>2022-04-22T09:24:03Z</time>
      </trkpt>
      <trkpt lat="43.53354" lon="6.64032">
        <ele>544.3</ele>
        <time>2022-04-22T09:24:04Z</time>
      </trkpt>
      <trkpt lat="43.53353" lon="6.64032">
        <ele>544.2</ele>
        <time>2022-04-22T09:24:05Z</time>
      </trkpt>
      <trkpt lat="43.53351" lon="6.64032">
        <ele>544.1</ele>
        <time>2022-04-22T09:24:07Z</time>
      </trkpt>
      <trkpt lat="43.53349" lon="6.64032">
        <ele>543.9</ele>
        <time>2022-04-22T09:24:08Z</time>
      </trkpt>
      <trkpt lat="43.53349" lon="6.64032">
        <ele>543.9</ele>
        <time>2022-04-22T09:24:09Z</time>
      </trkpt>
      <trkpt lat="43.53348" lon="6.64032">
        <ele>543.8</ele>
        <time>2022-04-22T09:24:10Z</time>
      </trkpt>
      <trkpt lat="43.53347" lon="6.64032">
        <ele>543.8</ele>
        <time>2022-04-22T09:24:11Z</time>
      </trkpt>
      <trkpt lat="43.53346" lon="6.64032">
        <ele>543.7</ele>
        <time>2022-04-22T09:24:12Z</time>
      </trkpt>
      <trkpt lat="43.53345" lon="6.64032">
        <ele>543.7</ele>
        <time>2022-04-22T09:24:13Z</time>
      </trkpt>
      <trkpt lat="43.53344" lon="6.64031">
        <ele>543.6</ele>
        <time>2022-04-22T09:24:15Z</time>
      </trkpt>
      <trkpt lat="43.53343" lon="6.64032">
        <ele>543.5</ele>
        <time>2022-04-22T09:24:16Z</time>
      </trkpt>
      <trkpt lat="43.53342" lon="6.64032">
        <ele>543.5</ele>
        <time>2022-04-22T09:24:17Z</time>
      </trkpt>
      <trkpt lat="43.53339" lon="6.64034">
        <ele>543.3</ele>
        <time>2022-04-22T09:24:18Z</time>
      </trkpt>
      <trkpt lat="43.53338" lon="6.64034">
        <ele>543.3</ele>
        <time>2022-04-22T09:24:19Z</time>
      </trkpt>
      <trkpt lat="43.53337" lon="6.64035">
        <ele>543.2</ele>
        <time>2022-04-22T09:24:20Z</time>
      </trkpt>
      <trkpt lat="43.53336" lon="6.64036">
        <ele>543.2</ele>
        <time>2022-04-22T09:24:21Z</time>
      </trkpt>
      <trkpt lat="43.53335" lon="6.64037">
        <ele>543.1</ele>
        <time>2022-04-22T09:24:22Z</time>
      </trkpt>
      <trkpt lat="43.53334" lon="6.64037">
        <ele>543.1</ele>
        <time>2022-04-22T09:24:23Z</time>
      </trkpt>
      <trkpt lat="43.53333" lon="6.64037">
        <ele>543.1</ele>
        <time>2022-04-22T09:24:24Z</time>
      </trkpt>
      <trkpt lat="43.53332" lon="6.64037">
        <ele>543</ele>
        <time>2022-04-22T09:24:25Z</time>
      </trkpt>
      <trkpt lat="43.53331" lon="6.64036">
        <ele>543</ele>
        <time>2022-04-22T09:24:26Z</time>
      </trkpt>
      <trkpt lat="43.5333" lon="6.64036">
        <ele>542.9</ele>
        <time>2022-04-22T09:24:28Z</time>
      </trkpt>
      <trkpt lat="43.53329" lon="6.64036">
        <ele>542.9</ele>
        <time>2022-04-22T09:24:29Z</time>
      </trkpt>
      <trkpt lat="43.53328" lon="6.64037">
        <ele>542.8</ele>
        <time>2022-04-22T09:24:30Z</time>
      </trkpt>
      <trkpt lat="43.53327" lon="6.64037">
        <ele>542.8</ele>
        <time>2022-04-22T09:24:31Z</time>
      </trkpt>
      <trkpt lat="43.53326" lon="6.64037">
        <ele>542.7</ele>
        <time>2022-04-22T09:24:32Z</time>
      </trkpt>
      <trkpt lat="43.53325" lon="6.64037">
        <ele>542.7</ele>
        <time>2022-04-22T09:24:33Z</time>
      </trkpt>
      <trkpt lat="43.53324" lon="6.64037">
        <ele>542.6</ele>
        <time>2022-04-22T09:24:34Z</time>
      </trkpt>
      <trkpt lat="43.53323" lon="6.64039">
        <ele>542.5</ele>
        <time>2022-04-22T09:24:35Z</time>
      </trkpt>
      <trkpt lat="43.53321" lon="6.64041">
        <ele>542.4</ele>
        <time>2022-04-22T09:24:36Z</time>
      </trkpt>
      <trkpt lat="43.53321" lon="6.64041">
        <ele>542.3</ele>
        <time>2022-04-22T09:24:37Z</time>
      </trkpt>
      <trkpt lat="43.5332" lon="6.64042">
        <ele>542.2</ele>
        <time>2022-04-22T09:24:38Z</time>
      </trkpt>
      <trkpt lat="43.53317" lon="6.64042">
        <ele>542</ele>
        <time>2022-04-22T09:24:39Z</time>
      </trkpt>
      <trkpt lat="43.53316" lon="6.64042">
        <ele>542</ele>
        <time>2022-04-22T09:24:41Z</time>
      </trkpt>
      <trkpt lat="43.53315" lon="6.64042">
        <ele>541.9</ele>
        <time>2022-04-22T09:24:42Z</time>
      </trkpt>
      <trkpt lat="43.53314" lon="6.64041">
        <ele>541.8</ele>
        <time>2022-04-22T09:24:43Z</time>
      </trkpt>
      <trkpt lat="43.53313" lon="6.64041">
        <ele>541.7</ele>
        <time>2022-04-22T09:24:44Z</time>
      </trkpt>
      <trkpt lat="43.53311" lon="6.64043">
        <ele>541.5</ele>
        <time>2022-04-22T09:24:45Z</time>
      </trkpt>
      <trkpt lat="43.5331" lon="6.64043">
        <ele>541.4</ele>
        <time>2022-04-22T09:24:46Z</time>
      </trkpt>
      <trkpt lat="43.53309" lon="6.64045">
        <ele>541.3</ele>
        <time>2022-04-22T09:24:47Z</time>
      </trkpt>
      <trkpt lat="43.53307" lon="6.64046">
        <ele>541.1</ele>
        <time>2022-04-22T09:24:48Z</time>
      </trkpt>
      <trkpt lat="43.53306" lon="6.64047">
        <ele>541</ele>
        <time>2022-04-22T09:24:49Z</time>
      </trkpt>
      <trkpt lat="43.53304" lon="6.64048">
        <ele>540.9</ele>
        <time>2022-04-22T09:24:51Z</time>
      </trkpt>
      <trkpt lat="43.53303" lon="6.64049">
        <ele>540.8</ele>
        <time>2022-04-22T09:24:52Z</time>
      </trkpt>
      <trkpt lat="43.53302" lon="6.6405">
        <ele>540.7</ele>
        <time>2022-04-22T09:24:53Z</time>
      </trkpt>
      <trkpt lat="43.53301" lon="6.64051">
        <ele>540.6</ele>
        <time>2022-04-22T09:24:54Z</time>
      </trkpt>
      <trkpt lat="43.533" lon="6.64052">
        <ele>540.5</ele>
        <time>2022-04-22T09:24:55Z</time>
      </trkpt>
      <trkpt lat="43.533" lon="6.64053">
        <ele>540.4</ele>
        <time>2022-04-22T09:24:56Z</time>
      </trkpt>
      <trkpt lat="43.53299" lon="6.64053">
        <ele>540.3</ele>
        <time>2022-04-22T09:24:57Z</time>
      </trkpt>
      <trkpt lat="43.53298" lon="6.64054">
        <ele>540.2</ele>
        <time>2022-04-22T09:24:58Z</time>
      </trkpt>
      <trkpt lat="43.53297" lon="6.64054">
        <ele>540.1</ele>
        <time>2022-04-22T09:24:59Z</time>
      </trkpt>
      <trkpt lat="43.53296" lon="6.64055">
        <ele>540</ele>
        <time>2022-04-22T09:25:00Z</time>
      </trkpt>
      <trkpt lat="43.53295" lon="6.64056">
        <ele>539.9</ele>
        <time>2022-04-22T09:25:01Z</time>
      </trkpt>
      <trkpt lat="43.53294" lon="6.64056">
        <ele>539.8</ele>
        <time>2022-04-22T09:25:02Z</time>
      </trkpt>
      <trkpt lat="43.53293" lon="6.64057">
        <ele>539.7</ele>
        <time>2022-04-22T09:25:03Z</time>
      </trkpt>
      <trkpt lat="43.53291" lon="6.64058">
        <ele>539.5</ele>
        <time>2022-04-22T09:25:04Z</time>
      </trkpt>
      <trkpt lat="43.53288" lon="6.64059">
        <ele>539.2</ele>
        <time>2022-04-22T09:25:06Z</time>
      </trkpt>
      <trkpt lat="43.53287" lon="6.6406">
        <ele>539.1</ele>
        <time>2022-04-22T09:25:07Z</time>
      </trkpt>
      <trkpt lat="43.53286" lon="6.64061">
        <ele>538.9</ele>
        <time>2022-04-22T09:25:08Z</time>
      </trkpt>
      <trkpt lat="43.53285" lon="6.64062">
        <ele>538.8</ele>
        <time>2022-04-22T09:25:09Z</time>
      </trkpt>
      <trkpt lat="43.53283" lon="6.64064">
        <ele>538.5</ele>
        <time>2022-04-22T09:25:10Z</time>
      </trkpt>
      <trkpt lat="43.53282" lon="6.64064">
        <ele>538.4</ele>
        <time>2022-04-22T09:25:11Z</time>
      </trkpt>
      <trkpt lat="43.53281" lon="6.64065">
        <ele>538.3</ele>
        <time>2022-04-22T09:25:12Z</time>
      </trkpt>
      <trkpt lat="43.5328" lon="6.64067">
        <ele>538.1</ele>
        <time>2022-04-22T09:25:13Z</time>
      </trkpt>
      <trkpt lat="43.53279" lon="6.64068">
        <ele>537.8</ele>
        <time>2022-04-22T09:25:14Z</time>
      </trkpt>
      <trkpt lat="43.53279" lon="6.6407">
        <ele>537.6</ele>
        <time>2022-04-22T09:25:15Z</time>
      </trkpt>
      <trkpt lat="43.53278" lon="6.64072">
        <ele>537.3</ele>
        <time>2022-04-22T09:25:16Z</time>
      </trkpt>
      <trkpt lat="43.53277" lon="6.64074">
        <ele>537.1</ele>
        <time>2022-04-22T09:25:17Z</time>
      </trkpt>
      <trkpt lat="43.53276" lon="6.64076">
        <ele>536.7</ele>
        <time>2022-04-22T09:25:19Z</time>
      </trkpt>
      <trkpt lat="43.53275" lon="6.64078">
        <ele>536.4</ele>
        <time>2022-04-22T09:25:20Z</time>
      </trkpt>
      <trkpt lat="43.53274" lon="6.64079">
        <ele>536.1</ele>
        <time>2022-04-22T09:25:21Z</time>
      </trkpt>
      <trkpt lat="43.53274" lon="6.64081">
        <ele>535.9</ele>
        <time>2022-04-22T09:25:22Z</time>
      </trkpt>
      <trkpt lat="43.53274" lon="6.64082">
        <ele>535.7</ele>
        <time>2022-04-22T09:25:23Z</time>
      </trkpt>
      <trkpt lat="43.53274" lon="6.64085">
        <ele>535.3</ele>
        <time>2022-04-22T09:25:25Z</time>
      </trkpt>
      <trkpt lat="43.53274" lon="6.64086">
        <ele>535</ele>
        <time>2022-04-22T09:25:26Z</time>
      </trkpt>
      <trkpt lat="43.53274" lon="6.64088">
        <ele>534.8</ele>
        <time>2022-04-22T09:25:28Z</time>
      </trkpt>
      <trkpt lat="43.53273" lon="6.64089">
        <ele>534.6</ele>
        <time>2022-04-22T09:25:29Z</time>
      </trkpt>
      <trkpt lat="43.53273" lon="6.64091">
        <ele>534.2</ele>
        <time>2022-04-22T09:25:30Z</time>
      </trkpt>
      <trkpt lat="43.53272" lon="6.64091">
        <ele>534.1</ele>
        <time>2022-04-22T09:25:31Z</time>
      </trkpt>
      <trkpt lat="43.53272" lon="6.64093">
        <ele>533.9</ele>
        <time>2022-04-22T09:25:32Z</time>
      </trkpt>
      <trkpt lat="43.53271" lon="6.64094">
        <ele>533.6</ele>
        <time>2022-04-22T09:25:33Z</time>
      </trkpt>
      <trkpt lat="43.53271" lon="6.64095">
        <ele>533.5</ele>
        <time>2022-04-22T09:25:34Z</time>
      </trkpt>
      <trkpt lat="43.5327" lon="6.64095">
        <ele>533.3</ele>
        <time>2022-04-22T09:25:35Z</time>
      </trkpt>
      <trkpt lat="43.5327" lon="6.64095">
        <ele>533.2</ele>
        <time>2022-04-22T09:25:37Z</time>
      </trkpt>
      <trkpt lat="43.53269" lon="6.64097">
        <ele>532.8</ele>
        <time>2022-04-22T09:25:38Z</time>
      </trkpt>
      <trkpt lat="43.53269" lon="6.64098">
        <ele>532.6</ele>
        <time>2022-04-22T09:25:39Z</time>
      </trkpt>
      <trkpt lat="43.53269" lon="6.641">
        <ele>532.3</ele>
        <time>2022-04-22T09:25:40Z</time>
      </trkpt>
      <trkpt lat="43.53269" lon="6.64101">
        <ele>531.9</ele>
        <time>2022-04-22T09:25:42Z</time>
      </trkpt>
      <trkpt lat="43.53268" lon="6.64102">
        <ele>531.7</ele>
        <time>2022-04-22T09:25:43Z</time>
      </trkpt>
      <trkpt lat="43.53268" lon="6.64103">
        <ele>531.5</ele>
        <time>2022-04-22T09:25:44Z</time>
      </trkpt>
      <trkpt lat="43.53267" lon="6.64104">
        <ele>531.2</ele>
        <time>2022-04-22T09:25:45Z</time>
      </trkpt>
      <trkpt lat="43.53266" lon="6.64105">
        <ele>531</ele>
        <time>2022-04-22T09:25:46Z</time>
      </trkpt>
      <trkpt lat="43.53265" lon="6.64106">
        <ele>530.7</ele>
        <time>2022-04-22T09:25:47Z</time>
      </trkpt>
      <trkpt lat="43.53264" lon="6.64107">
        <ele>530.4</ele>
        <time>2022-04-22T09:25:48Z</time>
      </trkpt>
      <trkpt lat="43.53263" lon="6.64107">
        <ele>530.2</ele>
        <time>2022-04-22T09:25:49Z</time>
      </trkpt>
      <trkpt lat="43.53261" lon="6.6411">
        <ele>529.7</ele>
        <time>2022-04-22T09:25:50Z</time>
      </trkpt>
      <trkpt lat="43.53261" lon="6.64111">
        <ele>529.5</ele>
        <time>2022-04-22T09:25:51Z</time>
      </trkpt>
      <trkpt lat="43.5326" lon="6.64112">
        <ele>529.3</ele>
        <time>2022-04-22T09:25:52Z</time>
      </trkpt>
      <trkpt lat="43.53259" lon="6.64113">
        <ele>528.9</ele>
        <time>2022-04-22T09:25:53Z</time>
      </trkpt>
      <trkpt lat="43.53258" lon="6.64115">
        <ele>528.5</ele>
        <time>2022-04-22T09:25:54Z</time>
      </trkpt>
      <trkpt lat="43.53257" lon="6.64116">
        <ele>528.3</ele>
        <time>2022-04-22T09:25:55Z</time>
      </trkpt>
      <trkpt lat="43.53256" lon="6.64117">
        <ele>528</ele>
        <time>2022-04-22T09:25:56Z</time>
      </trkpt>
      <trkpt lat="43.53256" lon="6.64118">
        <ele>527.8</ele>
        <time>2022-04-22T09:25:57Z</time>
      </trkpt>
      <trkpt lat="43.53255" lon="6.64119">
        <ele>527.5</ele>
        <time>2022-04-22T09:25:59Z</time>
      </trkpt>
      <trkpt lat="43.53254" lon="6.6412">
        <ele>527.3</ele>
        <time>2022-04-22T09:26:00Z</time>
      </trkpt>
      <trkpt lat="43.53254" lon="6.6412">
        <ele>527.2</ele>
        <time>2022-04-22T09:26:01Z</time>
      </trkpt>
      <trkpt lat="43.53253" lon="6.64121">
        <ele>526.9</ele>
        <time>2022-04-22T09:26:02Z</time>
      </trkpt>
      <trkpt lat="43.53251" lon="6.64123">
        <ele>526.5</ele>
        <time>2022-04-22T09:26:03Z</time>
      </trkpt>
      <trkpt lat="43.5325" lon="6.64124">
        <ele>526.3</ele>
        <time>2022-04-22T09:26:04Z</time>
      </trkpt>
      <trkpt lat="43.5325" lon="6.64124">
        <ele>526</ele>
        <time>2022-04-22T09:26:05Z</time>
      </trkpt>
      <trkpt lat="43.53248" lon="6.64126">
        <ele>525.7</ele>
        <time>2022-04-22T09:26:06Z</time>
      </trkpt>
      <trkpt lat="43.53247" lon="6.64127">
        <ele>525.3</ele>
        <time>2022-04-22T09:26:07Z</time>
      </trkpt>
      <trkpt lat="43.53245" lon="6.64129">
        <ele>524.8</ele>
        <time>2022-04-22T09:26:08Z</time>
      </trkpt>
      <trkpt lat="43.53245" lon="6.64129">
        <ele>524.6</ele>
        <time>2022-04-22T09:26:09Z</time>
      </trkpt>
      <trkpt lat="43.53244" lon="6.6413">
        <ele>524.4</ele>
        <time>2022-04-22T09:26:10Z</time>
      </trkpt>
      <trkpt lat="43.53243" lon="6.64131">
        <ele>524.1</ele>
        <time>2022-04-22T09:26:11Z</time>
      </trkpt>
      <trkpt lat="43.53241" lon="6.64132">
        <ele>523.7</ele>
        <time>2022-04-22T09:26:13Z</time>
      </trkpt>
      <trkpt lat="43.5324" lon="6.64133">
        <ele>523.5</ele>
        <time>2022-04-22T09:26:14Z</time>
      </trkpt>
      <trkpt lat="43.53239" lon="6.64134">
        <ele>523.2</ele>
        <time>2022-04-22T09:26:15Z</time>
      </trkpt>
      <trkpt lat="43.53238" lon="6.64136">
        <ele>523</ele>
        <time>2022-04-22T09:26:16Z</time>
      </trkpt>
      <trkpt lat="43.53237" lon="6.64138">
        <ele>522.5</ele>
        <time>2022-04-22T09:26:18Z</time>
      </trkpt>
      <trkpt lat="43.53236" lon="6.64139">
        <ele>522.3</ele>
        <time>2022-04-22T09:26:19Z</time>
      </trkpt>
      <trkpt lat="43.53235" lon="6.6414">
        <ele>522.1</ele>
        <time>2022-04-22T09:26:20Z</time>
      </trkpt>
      <trkpt lat="43.53235" lon="6.6414">
        <ele>522</ele>
        <time>2022-04-22T09:26:21Z</time>
      </trkpt>
      <trkpt lat="43.53235" lon="6.64141">
        <ele>521.9</ele>
        <time>2022-04-22T09:26:22Z</time>
      </trkpt>
      <trkpt lat="43.53235" lon="6.64141">
        <ele>521.8</ele>
        <time>2022-04-22T09:26:23Z</time>
      </trkpt>
      <trkpt lat="43.53233" lon="6.64143">
        <ele>521.5</ele>
        <time>2022-04-22T09:26:25Z</time>
      </trkpt>
      <trkpt lat="43.53232" lon="6.64145">
        <ele>521.1</ele>
        <time>2022-04-22T09:26:26Z</time>
      </trkpt>
      <trkpt lat="43.53231" lon="6.64146">
        <ele>520.9</ele>
        <time>2022-04-22T09:26:27Z</time>
      </trkpt>
      <trkpt lat="43.53231" lon="6.64146">
        <ele>520.8</ele>
        <time>2022-04-22T09:26:28Z</time>
      </trkpt>
      <trkpt lat="43.5323" lon="6.64147">
        <ele>520.6</ele>
        <time>2022-04-22T09:26:29Z</time>
      </trkpt>
      <trkpt lat="43.53229" lon="6.64148">
        <ele>520.4</ele>
        <time>2022-04-22T09:26:30Z</time>
      </trkpt>
      <trkpt lat="43.53228" lon="6.64149">
        <ele>520.3</ele>
        <time>2022-04-22T09:26:31Z</time>
      </trkpt>
      <trkpt lat="43.53227" lon="6.64151">
        <ele>519.9</ele>
        <time>2022-04-22T09:26:32Z</time>
      </trkpt>
      <trkpt lat="43.53226" lon="6.64152">
        <ele>519.8</ele>
        <time>2022-04-22T09:26:33Z</time>
      </trkpt>
      <trkpt lat="43.53225" lon="6.64152">
        <ele>519.7</ele>
        <time>2022-04-22T09:26:34Z</time>
      </trkpt>
      <trkpt lat="43.53224" lon="6.64153">
        <ele>519.5</ele>
        <time>2022-04-22T09:26:35Z</time>
      </trkpt>
      <trkpt lat="43.53223" lon="6.64154">
        <ele>519.3</ele>
        <time>2022-04-22T09:26:36Z</time>
      </trkpt>
      <trkpt lat="43.5322" lon="6.64157">
        <ele>518.9</ele>
        <time>2022-04-22T09:26:38Z</time>
      </trkpt>
      <trkpt lat="43.5322" lon="6.64158">
        <ele>518.8</ele>
        <time>2022-04-22T09:26:39Z</time>
      </trkpt>
      <trkpt lat="43.53219" lon="6.64159">
        <ele>518.7</ele>
        <time>2022-04-22T09:26:40Z</time>
      </trkpt>
      <trkpt lat="43.53218" lon="6.6416">
        <ele>518.5</ele>
        <time>2022-04-22T09:26:41Z</time>
      </trkpt>
      <trkpt lat="43.53216" lon="6.64162">
        <ele>518.3</ele>
        <time>2022-04-22T09:26:42Z</time>
      </trkpt>
      <trkpt lat="43.53215" lon="6.64163">
        <ele>518.2</ele>
        <time>2022-04-22T09:26:43Z</time>
      </trkpt>
      <trkpt lat="43.53214" lon="6.64164">
        <ele>518.1</ele>
        <time>2022-04-22T09:26:44Z</time>
      </trkpt>
      <trkpt lat="43.53213" lon="6.64165">
        <ele>518</ele>
        <time>2022-04-22T09:26:45Z</time>
      </trkpt>
      <trkpt lat="43.53212" lon="6.64166">
        <ele>517.9</ele>
        <time>2022-04-22T09:26:46Z</time>
      </trkpt>
      <trkpt lat="43.53211" lon="6.64167">
        <ele>517.9</ele>
        <time>2022-04-22T09:26:47Z</time>
      </trkpt>
      <trkpt lat="43.53209" lon="6.64168">
        <ele>517.8</ele>
        <time>2022-04-22T09:26:48Z</time>
      </trkpt>
      <trkpt lat="43.53208" lon="6.64169">
        <ele>517.7</ele>
        <time>2022-04-22T09:26:49Z</time>
      </trkpt>
      <trkpt lat="43.53207" lon="6.64171">
        <ele>517.6</ele>
        <time>2022-04-22T09:26:50Z</time>
      </trkpt>
      <trkpt lat="43.53205" lon="6.64172">
        <ele>517.6</ele>
        <time>2022-04-22T09:26:51Z</time>
      </trkpt>
      <trkpt lat="43.53204" lon="6.64173">
        <ele>517.5</ele>
        <time>2022-04-22T09:26:52Z</time>
      </trkpt>
      <trkpt lat="43.53202" lon="6.64175">
        <ele>517.5</ele>
        <time>2022-04-22T09:26:54Z</time>
      </trkpt>
      <trkpt lat="43.53201" lon="6.64176">
        <ele>517.5</ele>
        <time>2022-04-22T09:26:55Z</time>
      </trkpt>
      <trkpt lat="43.532" lon="6.64177">
        <ele>517.5</ele>
        <time>2022-04-22T09:26:56Z</time>
      </trkpt>
      <trkpt lat="43.53199" lon="6.64178">
        <ele>517.4</ele>
        <time>2022-04-22T09:26:57Z</time>
      </trkpt>
      <trkpt lat="43.53197" lon="6.64179">
        <ele>517.4</ele>
        <time>2022-04-22T09:26:58Z</time>
      </trkpt>
      <trkpt lat="43.53193" lon="6.6418">
        <ele>517.5</ele>
        <time>2022-04-22T09:27:00Z</time>
      </trkpt>
      <trkpt lat="43.53192" lon="6.6418">
        <ele>517.5</ele>
        <time>2022-04-22T09:27:01Z</time>
      </trkpt>
      <trkpt lat="43.5319" lon="6.64179">
        <ele>517.5</ele>
        <time>2022-04-22T09:27:02Z</time>
      </trkpt>
      <trkpt lat="43.53189" lon="6.64179">
        <ele>517.6</ele>
        <time>2022-04-22T09:27:03Z</time>
      </trkpt>
      <trkpt lat="43.53189" lon="6.64178">
        <ele>517.6</ele>
        <time>2022-04-22T09:27:04Z</time>
      </trkpt>
      <trkpt lat="43.53187" lon="6.64177">
        <ele>517.6</ele>
        <time>2022-04-22T09:27:05Z</time>
      </trkpt>
      <trkpt lat="43.53186" lon="6.64176">
        <ele>517.6</ele>
        <time>2022-04-22T09:27:06Z</time>
      </trkpt>
      <trkpt lat="43.53185" lon="6.64176">
        <ele>517.7</ele>
        <time>2022-04-22T09:27:07Z</time>
      </trkpt>
      <trkpt lat="43.53184" lon="6.64174">
        <ele>517.7</ele>
        <time>2022-04-22T09:27:08Z</time>
      </trkpt>
      <trkpt lat="43.53184" lon="6.64172">
        <ele>517.5</ele>
        <time>2022-04-22T09:27:09Z</time>
      </trkpt>
      <trkpt lat="43.53183" lon="6.64171">
        <ele>517.5</ele>
        <time>2022-04-22T09:27:10Z</time>
      </trkpt>
      <trkpt lat="43.53182" lon="6.64171">
        <ele>517.4</ele>
        <time>2022-04-22T09:27:11Z</time>
      </trkpt>
      <trkpt lat="43.53181" lon="6.64172">
        <ele>517.3</ele>
        <time>2022-04-22T09:27:12Z</time>
      </trkpt>
      <trkpt lat="43.53179" lon="6.64172">
        <ele>517.2</ele>
        <time>2022-04-22T09:27:13Z</time>
      </trkpt>
      <trkpt lat="43.53178" lon="6.64173">
        <ele>517.2</ele>
        <time>2022-04-22T09:27:14Z</time>
      </trkpt>
      <trkpt lat="43.53177" lon="6.64173">
        <ele>517.1</ele>
        <time>2022-04-22T09:27:15Z</time>
      </trkpt>
      <trkpt lat="43.53176" lon="6.64174">
        <ele>517</ele>
        <time>2022-04-22T09:27:16Z</time>
      </trkpt>
      <trkpt lat="43.53174" lon="6.64176">
        <ele>516.9</ele>
        <time>2022-04-22T09:27:17Z</time>
      </trkpt>
      <trkpt lat="43.53174" lon="6.64177">
        <ele>516.9</ele>
        <time>2022-04-22T09:27:18Z</time>
      </trkpt>
      <trkpt lat="43.53173" lon="6.64177">
        <ele>516.8</ele>
        <time>2022-04-22T09:27:19Z</time>
      </trkpt>
      <trkpt lat="43.53172" lon="6.64177">
        <ele>516.7</ele>
        <time>2022-04-22T09:27:20Z</time>
      </trkpt>
      <trkpt lat="43.53169" lon="6.64177">
        <ele>516.6</ele>
        <time>2022-04-22T09:27:21Z</time>
      </trkpt>
      <trkpt lat="43.53169" lon="6.64177">
        <ele>516.6</ele>
        <time>2022-04-22T09:27:22Z</time>
      </trkpt>
      <trkpt lat="43.53168" lon="6.64178">
        <ele>516.5</ele>
        <time>2022-04-22T09:27:23Z</time>
      </trkpt>
      <trkpt lat="43.53167" lon="6.64178">
        <ele>516.4</ele>
        <time>2022-04-22T09:27:24Z</time>
      </trkpt>
      <trkpt lat="43.53166" lon="6.64179">
        <ele>516.4</ele>
        <time>2022-04-22T09:27:25Z</time>
      </trkpt>
      <trkpt lat="43.53165" lon="6.6418">
        <ele>516.3</ele>
        <time>2022-04-22T09:27:27Z</time>
      </trkpt>
      <trkpt lat="43.53164" lon="6.6418">
        <ele>516.2</ele>
        <time>2022-04-22T09:27:28Z</time>
      </trkpt>
      <trkpt lat="43.53164" lon="6.64181">
        <ele>516.2</ele>
        <time>2022-04-22T09:27:29Z</time>
      </trkpt>
      <trkpt lat="43.53163" lon="6.64182">
        <ele>516.1</ele>
        <time>2022-04-22T09:27:30Z</time>
      </trkpt>
      <trkpt lat="43.53161" lon="6.64184">
        <ele>516</ele>
        <time>2022-04-22T09:27:31Z</time>
      </trkpt>
      <trkpt lat="43.53161" lon="6.64185">
        <ele>515.9</ele>
        <time>2022-04-22T09:27:32Z</time>
      </trkpt>
      <trkpt lat="43.5316" lon="6.64186">
        <ele>515.8</ele>
        <time>2022-04-22T09:27:33Z</time>
      </trkpt>
      <trkpt lat="43.5316" lon="6.64188">
        <ele>515.7</ele>
        <time>2022-04-22T09:27:34Z</time>
      </trkpt>
      <trkpt lat="43.53159" lon="6.64189">
        <ele>515.6</ele>
        <time>2022-04-22T09:27:35Z</time>
      </trkpt>
      <trkpt lat="43.53158" lon="6.64191">
        <ele>515.5</ele>
        <time>2022-04-22T09:27:36Z</time>
      </trkpt>
      <trkpt lat="43.53157" lon="6.64193">
        <ele>515.4</ele>
        <time>2022-04-22T09:27:37Z</time>
      </trkpt>
      <trkpt lat="43.53156" lon="6.64195">
        <ele>515.3</ele>
        <time>2022-04-22T09:27:38Z</time>
      </trkpt>
      <trkpt lat="43.53155" lon="6.64197">
        <ele>515.1</ele>
        <time>2022-04-22T09:27:39Z</time>
      </trkpt>
      <trkpt lat="43.53154" lon="6.64199">
        <ele>515</ele>
        <time>2022-04-22T09:27:40Z</time>
      </trkpt>
      <trkpt lat="43.53154" lon="6.642">
        <ele>514.9</ele>
        <time>2022-04-22T09:27:41Z</time>
      </trkpt>
      <trkpt lat="43.53152" lon="6.64202">
        <ele>514.8</ele>
        <time>2022-04-22T09:27:42Z</time>
      </trkpt>
      <trkpt lat="43.53151" lon="6.64203">
        <ele>514.6</ele>
        <time>2022-04-22T09:27:43Z</time>
      </trkpt>
      <trkpt lat="43.53149" lon="6.64205">
        <ele>514.4</ele>
        <time>2022-04-22T09:27:44Z</time>
      </trkpt>
      <trkpt lat="43.53148" lon="6.64206">
        <ele>514.3</ele>
        <time>2022-04-22T09:27:45Z</time>
      </trkpt>
      <trkpt lat="43.53145" lon="6.64209">
        <ele>514</ele>
        <time>2022-04-22T09:27:46Z</time>
      </trkpt>
      <trkpt lat="43.53144" lon="6.64209">
        <ele>513.9</ele>
        <time>2022-04-22T09:27:47Z</time>
      </trkpt>
      <trkpt lat="43.53141" lon="6.64212">
        <ele>513.7</ele>
        <time>2022-04-22T09:27:48Z</time>
      </trkpt>
      <trkpt lat="43.53139" lon="6.64212">
        <ele>513.6</ele>
        <time>2022-04-22T09:27:49Z</time>
      </trkpt>
      <trkpt lat="43.53137" lon="6.64214">
        <ele>513.3</ele>
        <time>2022-04-22T09:27:50Z</time>
      </trkpt>
      <trkpt lat="43.53136" lon="6.64215">
        <ele>513.3</ele>
        <time>2022-04-22T09:27:51Z</time>
      </trkpt>
      <trkpt lat="43.53134" lon="6.64216">
        <ele>513.1</ele>
        <time>2022-04-22T09:27:53Z</time>
      </trkpt>
      <trkpt lat="43.53133" lon="6.64217">
        <ele>513</ele>
        <time>2022-04-22T09:27:54Z</time>
      </trkpt>
      <trkpt lat="43.53132" lon="6.64218">
        <ele>512.9</ele>
        <time>2022-04-22T09:27:55Z</time>
      </trkpt>
      <trkpt lat="43.5313" lon="6.64219">
        <ele>512.8</ele>
        <time>2022-04-22T09:27:56Z</time>
      </trkpt>
      <trkpt lat="43.53129" lon="6.64221">
        <ele>512.7</ele>
        <time>2022-04-22T09:27:57Z</time>
      </trkpt>
      <trkpt lat="43.53128" lon="6.64223">
        <ele>512.6</ele>
        <time>2022-04-22T09:27:58Z</time>
      </trkpt>
      <trkpt lat="43.53126" lon="6.64224">
        <ele>512.5</ele>
        <time>2022-04-22T09:27:59Z</time>
      </trkpt>
      <trkpt lat="43.53125" lon="6.64226">
        <ele>512.4</ele>
        <time>2022-04-22T09:28:00Z</time>
      </trkpt>
      <trkpt lat="43.53124" lon="6.64227">
        <ele>512.2</ele>
        <time>2022-04-22T09:28:01Z</time>
      </trkpt>
      <trkpt lat="43.53123" lon="6.64229">
        <ele>512.1</ele>
        <time>2022-04-22T09:28:02Z</time>
      </trkpt>
      <trkpt lat="43.53121" lon="6.6423">
        <ele>512</ele>
        <time>2022-04-22T09:28:03Z</time>
      </trkpt>
      <trkpt lat="43.5312" lon="6.64232">
        <ele>511.9</ele>
        <time>2022-04-22T09:28:04Z</time>
      </trkpt>
      <trkpt lat="43.53119" lon="6.64233">
        <ele>511.8</ele>
        <time>2022-04-22T09:28:05Z</time>
      </trkpt>
      <trkpt lat="43.53118" lon="6.64234">
        <ele>511.7</ele>
        <time>2022-04-22T09:28:06Z</time>
      </trkpt>
      <trkpt lat="43.53117" lon="6.64235">
        <ele>511.6</ele>
        <time>2022-04-22T09:28:07Z</time>
      </trkpt>
      <trkpt lat="43.53115" lon="6.64236">
        <ele>511.5</ele>
        <time>2022-04-22T09:28:08Z</time>
      </trkpt>
      <trkpt lat="43.53114" lon="6.64237">
        <ele>511.4</ele>
        <time>2022-04-22T09:28:09Z</time>
      </trkpt>
      <trkpt lat="43.53113" lon="6.64239">
        <ele>511.3</ele>
        <time>2022-04-22T09:28:10Z</time>
      </trkpt>
      <trkpt lat="43.53111" lon="6.6424">
        <ele>511.1</ele>
        <time>2022-04-22T09:28:11Z</time>
      </trkpt>
      <trkpt lat="43.5311" lon="6.64242">
        <ele>511</ele>
        <time>2022-04-22T09:28:12Z</time>
      </trkpt>
      <trkpt lat="43.53109" lon="6.64243">
        <ele>510.8</ele>
        <time>2022-04-22T09:28:13Z</time>
      </trkpt>
      <trkpt lat="43.53107" lon="6.64244">
        <ele>510.7</ele>
        <time>2022-04-22T09:28:14Z</time>
      </trkpt>
      <trkpt lat="43.53106" lon="6.64246">
        <ele>510.5</ele>
        <time>2022-04-22T09:28:15Z</time>
      </trkpt>
      <trkpt lat="43.53105" lon="6.64247">
        <ele>510.4</ele>
        <time>2022-04-22T09:28:16Z</time>
      </trkpt>
      <trkpt lat="43.53102" lon="6.6425">
        <ele>510.1</ele>
        <time>2022-04-22T09:28:18Z</time>
      </trkpt>
      <trkpt lat="43.53102" lon="6.6425">
        <ele>510</ele>
        <time>2022-04-22T09:28:19Z</time>
      </trkpt>
      <trkpt lat="43.53101" lon="6.64251">
        <ele>509.8</ele>
        <time>2022-04-22T09:28:20Z</time>
      </trkpt>
      <trkpt lat="43.53099" lon="6.64252">
        <ele>509.7</ele>
        <time>2022-04-22T09:28:21Z</time>
      </trkpt>
      <trkpt lat="43.53098" lon="6.64253">
        <ele>509.5</ele>
        <time>2022-04-22T09:28:22Z</time>
      </trkpt>
      <trkpt lat="43.53096" lon="6.64254">
        <ele>509.3</ele>
        <time>2022-04-22T09:28:23Z</time>
      </trkpt>
      <trkpt lat="43.53094" lon="6.64257">
        <ele>509</ele>
        <time>2022-04-22T09:28:25Z</time>
      </trkpt>
      <trkpt lat="43.53093" lon="6.64257">
        <ele>508.9</ele>
        <time>2022-04-22T09:28:26Z</time>
      </trkpt>
      <trkpt lat="43.53092" lon="6.64259">
        <ele>508.7</ele>
        <time>2022-04-22T09:28:27Z</time>
      </trkpt>
      <trkpt lat="43.53092" lon="6.64259">
        <ele>508.7</ele>
        <time>2022-04-22T09:28:28Z</time>
      </trkpt>
      <trkpt lat="43.53091" lon="6.6426">
        <ele>508.6</ele>
        <time>2022-04-22T09:28:29Z</time>
      </trkpt>
      <trkpt lat="43.53091" lon="6.64261">
        <ele>508.5</ele>
        <time>2022-04-22T09:28:30Z</time>
      </trkpt>
      <trkpt lat="43.53089" lon="6.64262">
        <ele>508.3</ele>
        <time>2022-04-22T09:28:31Z</time>
      </trkpt>
      <trkpt lat="43.53088" lon="6.64263">
        <ele>508.1</ele>
        <time>2022-04-22T09:28:32Z</time>
      </trkpt>
      <trkpt lat="43.53086" lon="6.64266">
        <ele>507.8</ele>
        <time>2022-04-22T09:28:34Z</time>
      </trkpt>
      <trkpt lat="43.53086" lon="6.64267">
        <ele>507.7</ele>
        <time>2022-04-22T09:28:35Z</time>
      </trkpt>
      <trkpt lat="43.53085" lon="6.6427">
        <ele>507.5</ele>
        <time>2022-04-22T09:28:36Z</time>
      </trkpt>
      <trkpt lat="43.53084" lon="6.64271">
        <ele>507.4</ele>
        <time>2022-04-22T09:28:37Z</time>
      </trkpt>
      <trkpt lat="43.53084" lon="6.64272">
        <ele>507.3</ele>
        <time>2022-04-22T09:28:38Z</time>
      </trkpt>
      <trkpt lat="43.53084" lon="6.64276">
        <ele>507</ele>
        <time>2022-04-22T09:28:39Z</time>
      </trkpt>
      <trkpt lat="43.53083" lon="6.64277">
        <ele>506.9</ele>
        <time>2022-04-22T09:28:40Z</time>
      </trkpt>
      <trkpt lat="43.53084" lon="6.6428">
        <ele>506.8</ele>
        <time>2022-04-22T09:28:41Z</time>
      </trkpt>
      <trkpt lat="43.53084" lon="6.64282">
        <ele>506.6</ele>
        <time>2022-04-22T09:28:42Z</time>
      </trkpt>
      <trkpt lat="43.53085" lon="6.64286">
        <ele>506.3</ele>
        <time>2022-04-22T09:28:43Z</time>
      </trkpt>
      <trkpt lat="43.53085" lon="6.64288">
        <ele>506.2</ele>
        <time>2022-04-22T09:28:44Z</time>
      </trkpt>
      <trkpt lat="43.53086" lon="6.64289">
        <ele>506.1</ele>
        <time>2022-04-22T09:28:45Z</time>
      </trkpt>
      <trkpt lat="43.53087" lon="6.64292">
        <ele>506</ele>
        <time>2022-04-22T09:28:47Z</time>
      </trkpt>
      <trkpt lat="43.53088" lon="6.64293">
        <ele>505.9</ele>
        <time>2022-04-22T09:28:48Z</time>
      </trkpt>
      <trkpt lat="43.53088" lon="6.64294">
        <ele>505.9</ele>
        <time>2022-04-22T09:28:49Z</time>
      </trkpt>
      <trkpt lat="43.53088" lon="6.64295">
        <ele>505.8</ele>
        <time>2022-04-22T09:28:50Z</time>
      </trkpt>
      <trkpt lat="43.53088" lon="6.64295">
        <ele>505.8</ele>
        <time>2022-04-22T09:28:51Z</time>
      </trkpt>
      <trkpt lat="43.53088" lon="6.64295">
        <ele>505.8</ele>
        <time>2022-04-22T09:28:52Z</time>
      </trkpt>
      <trkpt lat="43.53088" lon="6.64295">
        <ele>505.8</ele>
        <time>2022-04-22T09:28:53Z</time>
      </trkpt>
      <trkpt lat="43.53088" lon="6.64294">
        <ele>505.7</ele>
        <time>2022-04-22T09:28:54Z</time>
      </trkpt>
      <trkpt lat="43.53088" lon="6.64294">
        <ele>505.7</ele>
        <time>2022-04-22T09:28:55Z</time>
      </trkpt>
      <trkpt lat="43.53088" lon="6.64294">
        <ele>505.7</ele>
        <time>2022-04-22T09:28:56Z</time>
      </trkpt>
      <trkpt lat="43.53088" lon="6.64293">
        <ele>505.7</ele>
        <time>2022-04-22T09:28:57Z</time>
      </trkpt>
      <trkpt lat="43.53088" lon="6.64293">
        <ele>505.7</ele>
        <time>2022-04-22T09:28:58Z</time>
      </trkpt>
      <trkpt lat="43.53088" lon="6.64293">
        <ele>505.6</ele>
        <time>2022-04-22T09:28:59Z</time>
      </trkpt>
      <trkpt lat="43.53088" lon="6.64292">
        <ele>505.6</ele>
        <time>2022-04-22T09:29:00Z</time>
      </trkpt>
      <trkpt lat="43.53088" lon="6.64292">
        <ele>505.6</ele>
        <time>2022-04-22T09:29:01Z</time>
      </trkpt>
      <trkpt lat="43.53088" lon="6.64292">
        <ele>505.6</ele>
        <time>2022-04-22T09:29:02Z</time>
      </trkpt>
      <trkpt lat="43.53088" lon="6.64291">
        <ele>505.6</ele>
        <time>2022-04-22T09:29:03Z</time>
      </trkpt>
      <trkpt lat="43.53088" lon="6.64291">
        <ele>505.6</ele>
        <time>2022-04-22T09:29:05Z</time>
      </trkpt>
      <trkpt lat="43.53088" lon="6.64291">
        <ele>505.5</ele>
        <time>2022-04-22T09:29:06Z</time>
      </trkpt>
      <trkpt lat="43.53088" lon="6.6429">
        <ele>505.5</ele>
        <time>2022-04-22T09:29:07Z</time>
      </trkpt>
      <trkpt lat="43.53088" lon="6.6429">
        <ele>505.5</ele>
        <time>2022-04-22T09:29:08Z</time>
      </trkpt>
      <trkpt lat="43.53087" lon="6.64287">
        <ele>505.3</ele>
        <time>2022-04-22T09:29:09Z</time>
      </trkpt>
      <trkpt lat="43.53086" lon="6.64285">
        <ele>505.2</ele>
        <time>2022-04-22T09:29:10Z</time>
      </trkpt>
      <trkpt lat="43.53085" lon="6.64284">
        <ele>505.1</ele>
        <time>2022-04-22T09:29:11Z</time>
      </trkpt>
      <trkpt lat="43.53084" lon="6.64282">
        <ele>504.9</ele>
        <time>2022-04-22T09:29:12Z</time>
      </trkpt>
      <trkpt lat="43.53083" lon="6.6428">
        <ele>504.8</ele>
        <time>2022-04-22T09:29:13Z</time>
      </trkpt>
      <trkpt lat="43.53083" lon="6.64278">
        <ele>504.7</ele>
        <time>2022-04-22T09:29:14Z</time>
      </trkpt>
      <trkpt lat="43.53081" lon="6.64274">
        <ele>504.3</ele>
        <time>2022-04-22T09:29:16Z</time>
      </trkpt>
      <trkpt lat="43.5308" lon="6.64273">
        <ele>504.3</ele>
        <time>2022-04-22T09:29:17Z</time>
      </trkpt>
      <trkpt lat="43.53079" lon="6.64271">
        <ele>504</ele>
        <time>2022-04-22T09:29:18Z</time>
      </trkpt>
      <trkpt lat="43.53078" lon="6.6427">
        <ele>503.9</ele>
        <time>2022-04-22T09:29:19Z</time>
      </trkpt>
      <trkpt lat="43.53077" lon="6.64269">
        <ele>503.8</ele>
        <time>2022-04-22T09:29:20Z</time>
      </trkpt>
      <trkpt lat="43.53076" lon="6.64269">
        <ele>503.7</ele>
        <time>2022-04-22T09:29:21Z</time>
      </trkpt>
      <trkpt lat="43.53075" lon="6.64268">
        <ele>503.6</ele>
        <time>2022-04-22T09:29:22Z</time>
      </trkpt>
      <trkpt lat="43.53074" lon="6.64267">
        <ele>503.4</ele>
        <time>2022-04-22T09:29:24Z</time>
      </trkpt>
      <trkpt lat="43.53071" lon="6.64266">
        <ele>503.1</ele>
        <time>2022-04-22T09:29:25Z</time>
      </trkpt>
      <trkpt lat="43.5307" lon="6.64265">
        <ele>502.9</ele>
        <time>2022-04-22T09:29:26Z</time>
      </trkpt>
      <trkpt lat="43.53066" lon="6.64265">
        <ele>502.5</ele>
        <time>2022-04-22T09:29:27Z</time>
      </trkpt>
      <trkpt lat="43.53064" lon="6.64264">
        <ele>502.2</ele>
        <time>2022-04-22T09:29:28Z</time>
      </trkpt>
      <trkpt lat="43.53063" lon="6.64264">
        <ele>502.1</ele>
        <time>2022-04-22T09:29:29Z</time>
      </trkpt>
      <trkpt lat="43.53062" lon="6.64264">
        <ele>502</ele>
        <time>2022-04-22T09:29:30Z</time>
      </trkpt>
      <trkpt lat="43.53061" lon="6.64265">
        <ele>501.8</ele>
        <time>2022-04-22T09:29:31Z</time>
      </trkpt>
      <trkpt lat="43.53059" lon="6.64265">
        <ele>501.7</ele>
        <time>2022-04-22T09:29:33Z</time>
      </trkpt>
      <trkpt lat="43.53058" lon="6.64265">
        <ele>501.6</ele>
        <time>2022-04-22T09:29:34Z</time>
      </trkpt>
      <trkpt lat="43.53058" lon="6.64265">
        <ele>501.5</ele>
        <time>2022-04-22T09:29:35Z</time>
      </trkpt>
      <trkpt lat="43.53057" lon="6.64265">
        <ele>501.4</ele>
        <time>2022-04-22T09:29:36Z</time>
      </trkpt>
      <trkpt lat="43.53056" lon="6.64265">
        <ele>501.3</ele>
        <time>2022-04-22T09:29:37Z</time>
      </trkpt>
      <trkpt lat="43.53054" lon="6.64266">
        <ele>501</ele>
        <time>2022-04-22T09:29:38Z</time>
      </trkpt>
      <trkpt lat="43.53053" lon="6.64267">
        <ele>500.9</ele>
        <time>2022-04-22T09:29:40Z</time>
      </trkpt>
      <trkpt lat="43.53052" lon="6.64267">
        <ele>500.8</ele>
        <time>2022-04-22T09:29:41Z</time>
      </trkpt>
      <trkpt lat="43.53051" lon="6.64268">
        <ele>500.6</ele>
        <time>2022-04-22T09:29:42Z</time>
      </trkpt>
      <trkpt lat="43.5305" lon="6.64268">
        <ele>500.5</ele>
        <time>2022-04-22T09:29:43Z</time>
      </trkpt>
      <trkpt lat="43.53048" lon="6.64269">
        <ele>500.3</ele>
        <time>2022-04-22T09:29:44Z</time>
      </trkpt>
      <trkpt lat="43.53047" lon="6.6427">
        <ele>500.1</ele>
        <time>2022-04-22T09:29:45Z</time>
      </trkpt>
      <trkpt lat="43.53044" lon="6.64271">
        <ele>499.7</ele>
        <time>2022-04-22T09:29:46Z</time>
      </trkpt>
      <trkpt lat="43.53043" lon="6.64272">
        <ele>499.6</ele>
        <time>2022-04-22T09:29:47Z</time>
      </trkpt>
      <trkpt lat="43.5304" lon="6.64273">
        <ele>499.2</ele>
        <time>2022-04-22T09:29:48Z</time>
      </trkpt>
      <trkpt lat="43.5304" lon="6.64274">
        <ele>499.1</ele>
        <time>2022-04-22T09:29:49Z</time>
      </trkpt>
      <trkpt lat="43.53037" lon="6.64276">
        <ele>498.7</ele>
        <time>2022-04-22T09:29:50Z</time>
      </trkpt>
      <trkpt lat="43.53036" lon="6.64276">
        <ele>498.6</ele>
        <time>2022-04-22T09:29:51Z</time>
      </trkpt>
      <trkpt lat="43.53034" lon="6.64277">
        <ele>498.3</ele>
        <time>2022-04-22T09:29:52Z</time>
      </trkpt>
      <trkpt lat="43.53033" lon="6.64278">
        <ele>498.1</ele>
        <time>2022-04-22T09:29:53Z</time>
      </trkpt>
      <trkpt lat="43.53031" lon="6.64278">
        <ele>497.8</ele>
        <time>2022-04-22T09:29:54Z</time>
      </trkpt>
      <trkpt lat="43.53029" lon="6.64279">
        <ele>497.4</ele>
        <time>2022-04-22T09:29:56Z</time>
      </trkpt>
      <trkpt lat="43.53026" lon="6.6428">
        <ele>496.9</ele>
        <time>2022-04-22T09:29:57Z</time>
      </trkpt>
      <trkpt lat="43.53025" lon="6.64281">
        <ele>496.8</ele>
        <time>2022-04-22T09:29:58Z</time>
      </trkpt>
      <trkpt lat="43.53022" lon="6.64282">
        <ele>496.4</ele>
        <time>2022-04-22T09:29:59Z</time>
      </trkpt>
      <trkpt lat="43.53022" lon="6.64283">
        <ele>496.2</ele>
        <time>2022-04-22T09:30:00Z</time>
      </trkpt>
      <trkpt lat="43.5302" lon="6.64284">
        <ele>495.9</ele>
        <time>2022-04-22T09:30:01Z</time>
      </trkpt>
      <trkpt lat="43.53018" lon="6.64285">
        <ele>495.6</ele>
        <time>2022-04-22T09:30:03Z</time>
      </trkpt>
      <trkpt lat="43.53017" lon="6.64286">
        <ele>495.3</ele>
        <time>2022-04-22T09:30:04Z</time>
      </trkpt>
      <trkpt lat="43.53015" lon="6.64287">
        <ele>495.1</ele>
        <time>2022-04-22T09:30:05Z</time>
      </trkpt>
      <trkpt lat="43.53013" lon="6.64288">
        <ele>494.7</ele>
        <time>2022-04-22T09:30:06Z</time>
      </trkpt>
      <trkpt lat="43.53012" lon="6.64289">
        <ele>494.5</ele>
        <time>2022-04-22T09:30:07Z</time>
      </trkpt>
      <trkpt lat="43.53012" lon="6.64289">
        <ele>494.4</ele>
        <time>2022-04-22T09:30:08Z</time>
      </trkpt>
      <trkpt lat="43.53012" lon="6.64291">
        <ele>494.1</ele>
        <time>2022-04-22T09:30:09Z</time>
      </trkpt>
      <trkpt lat="43.53012" lon="6.64293">
        <ele>493.9</ele>
        <time>2022-04-22T09:30:10Z</time>
      </trkpt>
      <trkpt lat="43.53013" lon="6.64294">
        <ele>493.7</ele>
        <time>2022-04-22T09:30:11Z</time>
      </trkpt>
      <trkpt lat="43.53014" lon="6.64295">
        <ele>493.5</ele>
        <time>2022-04-22T09:30:12Z</time>
      </trkpt>
      <trkpt lat="43.53013" lon="6.64297">
        <ele>493.3</ele>
        <time>2022-04-22T09:30:14Z</time>
      </trkpt>
      <trkpt lat="43.53012" lon="6.64299">
        <ele>492.9</ele>
        <time>2022-04-22T09:30:15Z</time>
      </trkpt>
      <trkpt lat="43.53011" lon="6.643">
        <ele>492.7</ele>
        <time>2022-04-22T09:30:16Z</time>
      </trkpt>
      <trkpt lat="43.5301" lon="6.64301">
        <ele>492.5</ele>
        <time>2022-04-22T09:30:17Z</time>
      </trkpt>
      <trkpt lat="43.53007" lon="6.64303">
        <ele>492</ele>
        <time>2022-04-22T09:30:19Z</time>
      </trkpt>
      <trkpt lat="43.53006" lon="6.64304">
        <ele>491.7</ele>
        <time>2022-04-22T09:30:20Z</time>
      </trkpt>
      <trkpt lat="43.53004" lon="6.64305">
        <ele>491.2</ele>
        <time>2022-04-22T09:30:21Z</time>
      </trkpt>
      <trkpt lat="43.53002" lon="6.64307">
        <ele>490.7</ele>
        <time>2022-04-22T09:30:22Z</time>
      </trkpt>
      <trkpt lat="43.53001" lon="6.64307">
        <ele>490.4</ele>
        <time>2022-04-22T09:30:23Z</time>
      </trkpt>
      <trkpt lat="43.52998" lon="6.64308">
        <ele>489.9</ele>
        <time>2022-04-22T09:30:24Z</time>
      </trkpt>
      <trkpt lat="43.52996" lon="6.6431">
        <ele>489.4</ele>
        <time>2022-04-22T09:30:26Z</time>
      </trkpt>
      <trkpt lat="43.52994" lon="6.64311">
        <ele>489</ele>
        <time>2022-04-22T09:30:27Z</time>
      </trkpt>
      <trkpt lat="43.52993" lon="6.64311">
        <ele>488.7</ele>
        <time>2022-04-22T09:30:28Z</time>
      </trkpt>
      <trkpt lat="43.52992" lon="6.64312">
        <ele>488.4</ele>
        <time>2022-04-22T09:30:29Z</time>
      </trkpt>
      <trkpt lat="43.52991" lon="6.64313">
        <ele>488.3</ele>
        <time>2022-04-22T09:30:30Z</time>
      </trkpt>
      <trkpt lat="43.5299" lon="6.64314">
        <ele>488.1</ele>
        <time>2022-04-22T09:30:31Z</time>
      </trkpt>
      <trkpt lat="43.52989" lon="6.64315">
        <ele>487.8</ele>
        <time>2022-04-22T09:30:32Z</time>
      </trkpt>
      <trkpt lat="43.52989" lon="6.64316">
        <ele>487.6</ele>
        <time>2022-04-22T09:30:33Z</time>
      </trkpt>
      <trkpt lat="43.52988" lon="6.64317">
        <ele>487.3</ele>
        <time>2022-04-22T09:30:34Z</time>
      </trkpt>
      <trkpt lat="43.52987" lon="6.64318">
        <ele>487.1</ele>
        <time>2022-04-22T09:30:35Z</time>
      </trkpt>
      <trkpt lat="43.52986" lon="6.64319">
        <ele>486.7</ele>
        <time>2022-04-22T09:30:36Z</time>
      </trkpt>
      <trkpt lat="43.52985" lon="6.64321">
        <ele>486.3</ele>
        <time>2022-04-22T09:30:38Z</time>
      </trkpt>
      <trkpt lat="43.52983" lon="6.64322">
        <ele>486</ele>
        <time>2022-04-22T09:30:39Z</time>
      </trkpt>
      <trkpt lat="43.52982" lon="6.64324">
        <ele>485.5</ele>
        <time>2022-04-22T09:30:40Z</time>
      </trkpt>
      <trkpt lat="43.52981" lon="6.64325">
        <ele>485.2</ele>
        <time>2022-04-22T09:30:41Z</time>
      </trkpt>
      <trkpt lat="43.5298" lon="6.64326">
        <ele>484.8</ele>
        <time>2022-04-22T09:30:42Z</time>
      </trkpt>
      <trkpt lat="43.52977" lon="6.64328">
        <ele>484.1</ele>
        <time>2022-04-22T09:30:43Z</time>
      </trkpt>
      <trkpt lat="43.52977" lon="6.6433">
        <ele>483.8</ele>
        <time>2022-04-22T09:30:44Z</time>
      </trkpt>
      <trkpt lat="43.52974" lon="6.64333">
        <ele>483</ele>
        <time>2022-04-22T09:30:45Z</time>
      </trkpt>
      <trkpt lat="43.52973" lon="6.64334">
        <ele>482.7</ele>
        <time>2022-04-22T09:30:46Z</time>
      </trkpt>
      <trkpt lat="43.52971" lon="6.64336">
        <ele>482</ele>
        <time>2022-04-22T09:30:47Z</time>
      </trkpt>
      <trkpt lat="43.5297" lon="6.64337">
        <ele>481.8</ele>
        <time>2022-04-22T09:30:48Z</time>
      </trkpt>
      <trkpt lat="43.52968" lon="6.64339">
        <ele>481.1</ele>
        <time>2022-04-22T09:30:49Z</time>
      </trkpt>
      <trkpt lat="43.52967" lon="6.6434">
        <ele>480.8</ele>
        <time>2022-04-22T09:30:50Z</time>
      </trkpt>
      <trkpt lat="43.52966" lon="6.64341">
        <ele>480.5</ele>
        <time>2022-04-22T09:30:51Z</time>
      </trkpt>
      <trkpt lat="43.52965" lon="6.64341">
        <ele>480.1</ele>
        <time>2022-04-22T09:30:52Z</time>
      </trkpt>
      <trkpt lat="43.52962" lon="6.64343">
        <ele>479.4</ele>
        <time>2022-04-22T09:30:54Z</time>
      </trkpt>
      <trkpt lat="43.52961" lon="6.64343">
        <ele>479.2</ele>
        <time>2022-04-22T09:30:55Z</time>
      </trkpt>
      <trkpt lat="43.52959" lon="6.64344">
        <ele>478.7</ele>
        <time>2022-04-22T09:30:56Z</time>
      </trkpt>
      <trkpt lat="43.52958" lon="6.64345">
        <ele>478.5</ele>
        <time>2022-04-22T09:30:57Z</time>
      </trkpt>
      <trkpt lat="43.52957" lon="6.64345">
        <ele>478.2</ele>
        <time>2022-04-22T09:30:58Z</time>
      </trkpt>
      <trkpt lat="43.52956" lon="6.64348">
        <ele>477.8</ele>
        <time>2022-04-22T09:30:59Z</time>
      </trkpt>
      <trkpt lat="43.52956" lon="6.64349">
        <ele>477.5</ele>
        <time>2022-04-22T09:31:00Z</time>
      </trkpt>
      <trkpt lat="43.52955" lon="6.6435">
        <ele>477.3</ele>
        <time>2022-04-22T09:31:01Z</time>
      </trkpt>
      <trkpt lat="43.52953" lon="6.64353">
        <ele>476.6</ele>
        <time>2022-04-22T09:31:03Z</time>
      </trkpt>
      <trkpt lat="43.52953" lon="6.64353">
        <ele>476.4</ele>
        <time>2022-04-22T09:31:04Z</time>
      </trkpt>
      <trkpt lat="43.52952" lon="6.64355">
        <ele>476</ele>
        <time>2022-04-22T09:31:05Z</time>
      </trkpt>
      <trkpt lat="43.52951" lon="6.64356">
        <ele>475.7</ele>
        <time>2022-04-22T09:31:06Z</time>
      </trkpt>
      <trkpt lat="43.5295" lon="6.64358">
        <ele>475.4</ele>
        <time>2022-04-22T09:31:07Z</time>
      </trkpt>
      <trkpt lat="43.52949" lon="6.64359">
        <ele>475</ele>
        <time>2022-04-22T09:31:08Z</time>
      </trkpt>
      <trkpt lat="43.52948" lon="6.64361">
        <ele>474.6</ele>
        <time>2022-04-22T09:31:09Z</time>
      </trkpt>
      <trkpt lat="43.52946" lon="6.64362">
        <ele>474.1</ele>
        <time>2022-04-22T09:31:10Z</time>
      </trkpt>
      <trkpt lat="43.52945" lon="6.64363">
        <ele>473.8</ele>
        <time>2022-04-22T09:31:11Z</time>
      </trkpt>
      <trkpt lat="43.52944" lon="6.64363">
        <ele>473.5</ele>
        <time>2022-04-22T09:31:12Z</time>
      </trkpt>
      <trkpt lat="43.52942" lon="6.64365">
        <ele>473</ele>
        <time>2022-04-22T09:31:14Z</time>
      </trkpt>
      <trkpt lat="43.5294" lon="6.64367">
        <ele>472.4</ele>
        <time>2022-04-22T09:31:15Z</time>
      </trkpt>
      <trkpt lat="43.52939" lon="6.64367">
        <ele>472.1</ele>
        <time>2022-04-22T09:31:16Z</time>
      </trkpt>
      <trkpt lat="43.52937" lon="6.64368">
        <ele>471.8</ele>
        <time>2022-04-22T09:31:17Z</time>
      </trkpt>
      <trkpt lat="43.52936" lon="6.64369">
        <ele>471.3</ele>
        <time>2022-04-22T09:31:19Z</time>
      </trkpt>
      <trkpt lat="43.52935" lon="6.64369">
        <ele>471.1</ele>
        <time>2022-04-22T09:31:20Z</time>
      </trkpt>
      <trkpt lat="43.52933" lon="6.6437">
        <ele>470.7</ele>
        <time>2022-04-22T09:31:21Z</time>
      </trkpt>
      <trkpt lat="43.52932" lon="6.64371">
        <ele>470.3</ele>
        <time>2022-04-22T09:31:22Z</time>
      </trkpt>
      <trkpt lat="43.5293" lon="6.64372">
        <ele>470</ele>
        <time>2022-04-22T09:31:23Z</time>
      </trkpt>
      <trkpt lat="43.52929" lon="6.64373">
        <ele>469.7</ele>
        <time>2022-04-22T09:31:24Z</time>
      </trkpt>
      <trkpt lat="43.52928" lon="6.64374">
        <ele>469.4</ele>
        <time>2022-04-22T09:31:25Z</time>
      </trkpt>
      <trkpt lat="43.52926" lon="6.64375">
        <ele>468.9</ele>
        <time>2022-04-22T09:31:26Z</time>
      </trkpt>
      <trkpt lat="43.52925" lon="6.64375">
        <ele>468.7</ele>
        <time>2022-04-22T09:31:27Z</time>
      </trkpt>
      <trkpt lat="43.52924" lon="6.64376">
        <ele>468.5</ele>
        <time>2022-04-22T09:31:28Z</time>
      </trkpt>
      <trkpt lat="43.52922" lon="6.64377">
        <ele>468.1</ele>
        <time>2022-04-22T09:31:29Z</time>
      </trkpt>
      <trkpt lat="43.5292" lon="6.64379">
        <ele>467.7</ele>
        <time>2022-04-22T09:31:31Z</time>
      </trkpt>
      <trkpt lat="43.52919" lon="6.64381">
        <ele>467.2</ele>
        <time>2022-04-22T09:31:32Z</time>
      </trkpt>
      <trkpt lat="43.52918" lon="6.64382">
        <ele>467</ele>
        <time>2022-04-22T09:31:33Z</time>
      </trkpt>
      <trkpt lat="43.52917" lon="6.64383">
        <ele>466.7</ele>
        <time>2022-04-22T09:31:34Z</time>
      </trkpt>
      <trkpt lat="43.52915" lon="6.64384">
        <ele>466.3</ele>
        <time>2022-04-22T09:31:36Z</time>
      </trkpt>
      <trkpt lat="43.52914" lon="6.64385">
        <ele>466.1</ele>
        <time>2022-04-22T09:31:37Z</time>
      </trkpt>
      <trkpt lat="43.52913" lon="6.64385">
        <ele>465.7</ele>
        <time>2022-04-22T09:31:38Z</time>
      </trkpt>
      <trkpt lat="43.52911" lon="6.64385">
        <ele>465.5</ele>
        <time>2022-04-22T09:31:39Z</time>
      </trkpt>
      <trkpt lat="43.5291" lon="6.64386">
        <ele>465.3</ele>
        <time>2022-04-22T09:31:40Z</time>
      </trkpt>
      <trkpt lat="43.52909" lon="6.64385">
        <ele>465</ele>
        <time>2022-04-22T09:31:41Z</time>
      </trkpt>
      <trkpt lat="43.52908" lon="6.64385">
        <ele>464.7</ele>
        <time>2022-04-22T09:31:43Z</time>
      </trkpt>
      <trkpt lat="43.52905" lon="6.64386">
        <ele>464.3</ele>
        <time>2022-04-22T09:31:44Z</time>
      </trkpt>
      <trkpt lat="43.52905" lon="6.64387">
        <ele>464.1</ele>
        <time>2022-04-22T09:31:45Z</time>
      </trkpt>
      <trkpt lat="43.52904" lon="6.64388">
        <ele>464</ele>
        <time>2022-04-22T09:31:46Z</time>
      </trkpt>
      <trkpt lat="43.52903" lon="6.64389">
        <ele>463.7</ele>
        <time>2022-04-22T09:31:47Z</time>
      </trkpt>
      <trkpt lat="43.52901" lon="6.6439">
        <ele>463.3</ele>
        <time>2022-04-22T09:31:48Z</time>
      </trkpt>
      <trkpt lat="43.529" lon="6.64391">
        <ele>463</ele>
        <time>2022-04-22T09:31:49Z</time>
      </trkpt>
      <trkpt lat="43.52899" lon="6.64392">
        <ele>462.8</ele>
        <time>2022-04-22T09:31:50Z</time>
      </trkpt>
      <trkpt lat="43.52896" lon="6.64394">
        <ele>462.4</ele>
        <time>2022-04-22T09:31:51Z</time>
      </trkpt>
      <trkpt lat="43.52896" lon="6.64394">
        <ele>462.2</ele>
        <time>2022-04-22T09:31:52Z</time>
      </trkpt>
      <trkpt lat="43.52895" lon="6.64395">
        <ele>462.1</ele>
        <time>2022-04-22T09:31:53Z</time>
      </trkpt>
      <trkpt lat="43.52894" lon="6.64395">
        <ele>461.9</ele>
        <time>2022-04-22T09:31:54Z</time>
      </trkpt>
      <trkpt lat="43.52894" lon="6.64396">
        <ele>461.8</ele>
        <time>2022-04-22T09:31:55Z</time>
      </trkpt>
      <trkpt lat="43.52892" lon="6.64397">
        <ele>461.5</ele>
        <time>2022-04-22T09:31:56Z</time>
      </trkpt>
      <trkpt lat="43.52892" lon="6.64398">
        <ele>461.4</ele>
        <time>2022-04-22T09:31:57Z</time>
      </trkpt>
      <trkpt lat="43.52891" lon="6.64399">
        <ele>461.2</ele>
        <time>2022-04-22T09:31:58Z</time>
      </trkpt>
      <trkpt lat="43.5289" lon="6.64399">
        <ele>461</ele>
        <time>2022-04-22T09:31:59Z</time>
      </trkpt>
      <trkpt lat="43.52888" lon="6.64401">
        <ele>460.7</ele>
        <time>2022-04-22T09:32:00Z</time>
      </trkpt>
      <trkpt lat="43.52887" lon="6.64401">
        <ele>460.6</ele>
        <time>2022-04-22T09:32:01Z</time>
      </trkpt>
      <trkpt lat="43.52887" lon="6.64402">
        <ele>460.4</ele>
        <time>2022-04-22T09:32:02Z</time>
      </trkpt>
      <trkpt lat="43.52885" lon="6.64404">
        <ele>460.1</ele>
        <time>2022-04-22T09:32:03Z</time>
      </trkpt>
      <trkpt lat="43.52884" lon="6.64404">
        <ele>460</ele>
        <time>2022-04-22T09:32:04Z</time>
      </trkpt>
      <trkpt lat="43.52884" lon="6.64405">
        <ele>459.9</ele>
        <time>2022-04-22T09:32:05Z</time>
      </trkpt>
      <trkpt lat="43.52883" lon="6.64405">
        <ele>459.8</ele>
        <time>2022-04-22T09:32:06Z</time>
      </trkpt>
      <trkpt lat="43.52881" lon="6.64407">
        <ele>459.5</ele>
        <time>2022-04-22T09:32:08Z</time>
      </trkpt>
      <trkpt lat="43.52879" lon="6.64408">
        <ele>459.2</ele>
        <time>2022-04-22T09:32:09Z</time>
      </trkpt>
      <trkpt lat="43.52879" lon="6.64409">
        <ele>459.1</ele>
        <time>2022-04-22T09:32:10Z</time>
      </trkpt>
      <trkpt lat="43.52878" lon="6.64409">
        <ele>458.9</ele>
        <time>2022-04-22T09:32:11Z</time>
      </trkpt>
      <trkpt lat="43.52876" lon="6.64411">
        <ele>458.7</ele>
        <time>2022-04-22T09:32:13Z</time>
      </trkpt>
      <trkpt lat="43.52875" lon="6.64411">
        <ele>458.5</ele>
        <time>2022-04-22T09:32:14Z</time>
      </trkpt>
      <trkpt lat="43.52873" lon="6.64412">
        <ele>458.3</ele>
        <time>2022-04-22T09:32:15Z</time>
      </trkpt>
      <trkpt lat="43.5287" lon="6.64414">
        <ele>457.9</ele>
        <time>2022-04-22T09:32:16Z</time>
      </trkpt>
      <trkpt lat="43.52869" lon="6.64415">
        <ele>457.7</ele>
        <time>2022-04-22T09:32:17Z</time>
      </trkpt>
      <trkpt lat="43.52867" lon="6.64416">
        <ele>457.6</ele>
        <time>2022-04-22T09:32:18Z</time>
      </trkpt>
      <trkpt lat="43.52866" lon="6.64417">
        <ele>457.4</ele>
        <time>2022-04-22T09:32:19Z</time>
      </trkpt>
      <trkpt lat="43.52864" lon="6.64418">
        <ele>457.2</ele>
        <time>2022-04-22T09:32:20Z</time>
      </trkpt>
      <trkpt lat="43.52863" lon="6.64419">
        <ele>457</ele>
        <time>2022-04-22T09:32:21Z</time>
      </trkpt>
      <trkpt lat="43.52861" lon="6.64422">
        <ele>456.6</ele>
        <time>2022-04-22T09:32:22Z</time>
      </trkpt>
      <trkpt lat="43.5286" lon="6.64422">
        <ele>456.5</ele>
        <time>2022-04-22T09:32:23Z</time>
      </trkpt>
      <trkpt lat="43.52858" lon="6.64425">
        <ele>456.2</ele>
        <time>2022-04-22T09:32:24Z</time>
      </trkpt>
      <trkpt lat="43.52856" lon="6.64426">
        <ele>455.9</ele>
        <time>2022-04-22T09:32:26Z</time>
      </trkpt>
      <trkpt lat="43.52855" lon="6.64427">
        <ele>455.7</ele>
        <time>2022-04-22T09:32:27Z</time>
      </trkpt>
      <trkpt lat="43.52854" lon="6.64429">
        <ele>455.5</ele>
        <time>2022-04-22T09:32:28Z</time>
      </trkpt>
      <trkpt lat="43.52852" lon="6.6443">
        <ele>455.3</ele>
        <time>2022-04-22T09:32:29Z</time>
      </trkpt>
      <trkpt lat="43.52851" lon="6.64431">
        <ele>455</ele>
        <time>2022-04-22T09:32:30Z</time>
      </trkpt>
      <trkpt lat="43.5285" lon="6.64432">
        <ele>454.9</ele>
        <time>2022-04-22T09:32:31Z</time>
      </trkpt>
      <trkpt lat="43.52849" lon="6.64432">
        <ele>454.8</ele>
        <time>2022-04-22T09:32:32Z</time>
      </trkpt>
      <trkpt lat="43.52847" lon="6.64434">
        <ele>454.4</ele>
        <time>2022-04-22T09:32:33Z</time>
      </trkpt>
      <trkpt lat="43.52847" lon="6.64435">
        <ele>454.2</ele>
        <time>2022-04-22T09:32:34Z</time>
      </trkpt>
      <trkpt lat="43.52846" lon="6.64436">
        <ele>454.1</ele>
        <time>2022-04-22T09:32:35Z</time>
      </trkpt>
      <trkpt lat="43.52845" lon="6.64437">
        <ele>453.9</ele>
        <time>2022-04-22T09:32:36Z</time>
      </trkpt>
      <trkpt lat="43.52844" lon="6.64438">
        <ele>453.7</ele>
        <time>2022-04-22T09:32:37Z</time>
      </trkpt>
      <trkpt lat="43.52844" lon="6.64438">
        <ele>453.6</ele>
        <time>2022-04-22T09:32:38Z</time>
      </trkpt>
      <trkpt lat="43.52843" lon="6.64439">
        <ele>453.4</ele>
        <time>2022-04-22T09:32:39Z</time>
      </trkpt>
      <trkpt lat="43.52841" lon="6.6444">
        <ele>453.1</ele>
        <time>2022-04-22T09:32:40Z</time>
      </trkpt>
      <trkpt lat="43.5284" lon="6.6444">
        <ele>453</ele>
        <time>2022-04-22T09:32:41Z</time>
      </trkpt>
      <trkpt lat="43.52839" lon="6.64441">
        <ele>452.8</ele>
        <time>2022-04-22T09:32:42Z</time>
      </trkpt>
      <trkpt lat="43.52838" lon="6.64441">
        <ele>452.6</ele>
        <time>2022-04-22T09:32:43Z</time>
      </trkpt>
      <trkpt lat="43.52837" lon="6.64443">
        <ele>452.3</ele>
        <time>2022-04-22T09:32:45Z</time>
      </trkpt>
      <trkpt lat="43.52836" lon="6.64444">
        <ele>452.1</ele>
        <time>2022-04-22T09:32:46Z</time>
      </trkpt>
      <trkpt lat="43.52835" lon="6.64444">
        <ele>451.9</ele>
        <time>2022-04-22T09:32:47Z</time>
      </trkpt>
      <trkpt lat="43.52834" lon="6.64445">
        <ele>451.7</ele>
        <time>2022-04-22T09:32:48Z</time>
      </trkpt>
      <trkpt lat="43.52832" lon="6.64445">
        <ele>451.5</ele>
        <time>2022-04-22T09:32:49Z</time>
      </trkpt>
      <trkpt lat="43.52829" lon="6.64447">
        <ele>450.9</ele>
        <time>2022-04-22T09:32:51Z</time>
      </trkpt>
      <trkpt lat="43.52829" lon="6.64447">
        <ele>450.8</ele>
        <time>2022-04-22T09:32:52Z</time>
      </trkpt>
      <trkpt lat="43.52827" lon="6.64447">
        <ele>450.5</ele>
        <time>2022-04-22T09:32:53Z</time>
      </trkpt>
      <trkpt lat="43.52826" lon="6.64447">
        <ele>450.3</ele>
        <time>2022-04-22T09:32:54Z</time>
      </trkpt>
      <trkpt lat="43.52825" lon="6.64447">
        <ele>450.2</ele>
        <time>2022-04-22T09:32:55Z</time>
      </trkpt>
      <trkpt lat="43.52823" lon="6.64446">
        <ele>449.9</ele>
        <time>2022-04-22T09:32:56Z</time>
      </trkpt>
      <trkpt lat="43.52822" lon="6.64446">
        <ele>449.7</ele>
        <time>2022-04-22T09:32:57Z</time>
      </trkpt>
      <trkpt lat="43.52822" lon="6.64446">
        <ele>449.5</ele>
        <time>2022-04-22T09:32:58Z</time>
      </trkpt>
      <trkpt lat="43.5282" lon="6.64445">
        <ele>449.3</ele>
        <time>2022-04-22T09:32:59Z</time>
      </trkpt>
      <trkpt lat="43.52819" lon="6.64445">
        <ele>449</ele>
        <time>2022-04-22T09:33:00Z</time>
      </trkpt>
      <trkpt lat="43.52817" lon="6.64444">
        <ele>448.8</ele>
        <time>2022-04-22T09:33:01Z</time>
      </trkpt>
      <trkpt lat="43.52816" lon="6.64443">
        <ele>448.5</ele>
        <time>2022-04-22T09:33:02Z</time>
      </trkpt>
      <trkpt lat="43.52814" lon="6.64442">
        <ele>448.2</ele>
        <time>2022-04-22T09:33:03Z</time>
      </trkpt>
      <trkpt lat="43.52813" lon="6.64442">
        <ele>447.9</ele>
        <time>2022-04-22T09:33:04Z</time>
      </trkpt>
      <trkpt lat="43.52811" lon="6.64441">
        <ele>447.7</ele>
        <time>2022-04-22T09:33:05Z</time>
      </trkpt>
      <trkpt lat="43.5281" lon="6.64441">
        <ele>447.4</ele>
        <time>2022-04-22T09:33:06Z</time>
      </trkpt>
      <trkpt lat="43.52807" lon="6.64439">
        <ele>446.9</ele>
        <time>2022-04-22T09:33:07Z</time>
      </trkpt>
      <trkpt lat="43.52806" lon="6.64439">
        <ele>446.7</ele>
        <time>2022-04-22T09:33:08Z</time>
      </trkpt>
      <trkpt lat="43.52803" lon="6.64438">
        <ele>446.2</ele>
        <time>2022-04-22T09:33:09Z</time>
      </trkpt>
      <trkpt lat="43.52802" lon="6.64438">
        <ele>445.9</ele>
        <time>2022-04-22T09:33:10Z</time>
      </trkpt>
      <trkpt lat="43.528" lon="6.64437">
        <ele>445.6</ele>
        <time>2022-04-22T09:33:11Z</time>
      </trkpt>
      <trkpt lat="43.52797" lon="6.64436">
        <ele>445.1</ele>
        <time>2022-04-22T09:33:13Z</time>
      </trkpt>
      <trkpt lat="43.52794" lon="6.64435">
        <ele>444.5</ele>
        <time>2022-04-22T09:33:14Z</time>
      </trkpt>
      <trkpt lat="43.52793" lon="6.64434">
        <ele>444.3</ele>
        <time>2022-04-22T09:33:15Z</time>
      </trkpt>
      <trkpt lat="43.5279" lon="6.64433">
        <ele>443.8</ele>
        <time>2022-04-22T09:33:16Z</time>
      </trkpt>
      <trkpt lat="43.52789" lon="6.64432">
        <ele>443.6</ele>
        <time>2022-04-22T09:33:17Z</time>
      </trkpt>
      <trkpt lat="43.52788" lon="6.64431">
        <ele>443.3</ele>
        <time>2022-04-22T09:33:18Z</time>
      </trkpt>
      <trkpt lat="43.52787" lon="6.64431">
        <ele>443</ele>
        <time>2022-04-22T09:33:19Z</time>
      </trkpt>
      <trkpt lat="43.52785" lon="6.6443">
        <ele>442.7</ele>
        <time>2022-04-22T09:33:20Z</time>
      </trkpt>
      <trkpt lat="43.52783" lon="6.6443">
        <ele>442.3</ele>
        <time>2022-04-22T09:33:22Z</time>
      </trkpt>
      <trkpt lat="43.5278" lon="6.6443">
        <ele>441.9</ele>
        <time>2022-04-22T09:33:23Z</time>
      </trkpt>
      <trkpt lat="43.5278" lon="6.6443">
        <ele>441.7</ele>
        <time>2022-04-22T09:33:24Z</time>
      </trkpt>
      <trkpt lat="43.52779" lon="6.6443">
        <ele>441.5</ele>
        <time>2022-04-22T09:33:25Z</time>
      </trkpt>
      <trkpt lat="43.52777" lon="6.64429">
        <ele>441.2</ele>
        <time>2022-04-22T09:33:26Z</time>
      </trkpt>
      <trkpt lat="43.52776" lon="6.64428">
        <ele>441</ele>
        <time>2022-04-22T09:33:27Z</time>
      </trkpt>
      <trkpt lat="43.52773" lon="6.64426">
        <ele>440.5</ele>
        <time>2022-04-22T09:33:29Z</time>
      </trkpt>
      <trkpt lat="43.52773" lon="6.64425">
        <ele>440.4</ele>
        <time>2022-04-22T09:33:30Z</time>
      </trkpt>
      <trkpt lat="43.52771" lon="6.64423">
        <ele>440</ele>
        <time>2022-04-22T09:33:31Z</time>
      </trkpt>
      <trkpt lat="43.5277" lon="6.64422">
        <ele>439.9</ele>
        <time>2022-04-22T09:33:32Z</time>
      </trkpt>
      <trkpt lat="43.52769" lon="6.64421">
        <ele>439.7</ele>
        <time>2022-04-22T09:33:33Z</time>
      </trkpt>
      <trkpt lat="43.52768" lon="6.6442">
        <ele>439.5</ele>
        <time>2022-04-22T09:33:34Z</time>
      </trkpt>
      <trkpt lat="43.52767" lon="6.64419">
        <ele>439.4</ele>
        <time>2022-04-22T09:33:35Z</time>
      </trkpt>
      <trkpt lat="43.52766" lon="6.64418">
        <ele>439.2</ele>
        <time>2022-04-22T09:33:36Z</time>
      </trkpt>
      <trkpt lat="43.52764" lon="6.64418">
        <ele>439</ele>
        <time>2022-04-22T09:33:37Z</time>
      </trkpt>
      <trkpt lat="43.52764" lon="6.64417">
        <ele>438.9</ele>
        <time>2022-04-22T09:33:38Z</time>
      </trkpt>
      <trkpt lat="43.52763" lon="6.64417">
        <ele>438.8</ele>
        <time>2022-04-22T09:33:39Z</time>
      </trkpt>
      <trkpt lat="43.52761" lon="6.64416">
        <ele>438.6</ele>
        <time>2022-04-22T09:33:40Z</time>
      </trkpt>
      <trkpt lat="43.5276" lon="6.64416">
        <ele>438.5</ele>
        <time>2022-04-22T09:33:41Z</time>
      </trkpt>
      <trkpt lat="43.52758" lon="6.64416">
        <ele>438.3</ele>
        <time>2022-04-22T09:33:43Z</time>
      </trkpt>
      <trkpt lat="43.52758" lon="6.64417">
        <ele>438.2</ele>
        <time>2022-04-22T09:33:44Z</time>
      </trkpt>
      <trkpt lat="43.52757" lon="6.64417">
        <ele>438.1</ele>
        <time>2022-04-22T09:33:45Z</time>
      </trkpt>
      <trkpt lat="43.52756" lon="6.64418">
        <ele>438</ele>
        <time>2022-04-22T09:33:46Z</time>
      </trkpt>
      <trkpt lat="43.52755" lon="6.64419">
        <ele>437.9</ele>
        <time>2022-04-22T09:33:47Z</time>
      </trkpt>
      <trkpt lat="43.52754" lon="6.6442">
        <ele>437.7</ele>
        <time>2022-04-22T09:33:48Z</time>
      </trkpt>
      <trkpt lat="43.52752" lon="6.64421">
        <ele>437.5</ele>
        <time>2022-04-22T09:33:50Z</time>
      </trkpt>
      <trkpt lat="43.52751" lon="6.64421">
        <ele>437.3</ele>
        <time>2022-04-22T09:33:51Z</time>
      </trkpt>
      <trkpt lat="43.52749" lon="6.64422">
        <ele>437.2</ele>
        <time>2022-04-22T09:33:52Z</time>
      </trkpt>
      <trkpt lat="43.52748" lon="6.64423">
        <ele>437</ele>
        <time>2022-04-22T09:33:53Z</time>
      </trkpt>
      <trkpt lat="43.52745" lon="6.64424">
        <ele>436.8</ele>
        <time>2022-04-22T09:33:55Z</time>
      </trkpt>
      <trkpt lat="43.52744" lon="6.64425">
        <ele>436.6</ele>
        <time>2022-04-22T09:33:56Z</time>
      </trkpt>
      <trkpt lat="43.52742" lon="6.64426">
        <ele>436.4</ele>
        <time>2022-04-22T09:33:57Z</time>
      </trkpt>
      <trkpt lat="43.52741" lon="6.64427">
        <ele>436.3</ele>
        <time>2022-04-22T09:33:58Z</time>
      </trkpt>
      <trkpt lat="43.52739" lon="6.64428">
        <ele>436.1</ele>
        <time>2022-04-22T09:33:59Z</time>
      </trkpt>
      <trkpt lat="43.52737" lon="6.64429">
        <ele>435.9</ele>
        <time>2022-04-22T09:34:00Z</time>
      </trkpt>
      <trkpt lat="43.52736" lon="6.6443">
        <ele>435.8</ele>
        <time>2022-04-22T09:34:01Z</time>
      </trkpt>
      <trkpt lat="43.52733" lon="6.64432">
        <ele>435.4</ele>
        <time>2022-04-22T09:34:03Z</time>
      </trkpt>
      <trkpt lat="43.52732" lon="6.64433">
        <ele>435.3</ele>
        <time>2022-04-22T09:34:04Z</time>
      </trkpt>
      <trkpt lat="43.52729" lon="6.64434">
        <ele>435</ele>
        <time>2022-04-22T09:34:05Z</time>
      </trkpt>
      <trkpt lat="43.52728" lon="6.64435">
        <ele>434.8</ele>
        <time>2022-04-22T09:34:06Z</time>
      </trkpt>
      <trkpt lat="43.52725" lon="6.64436">
        <ele>434.4</ele>
        <time>2022-04-22T09:34:07Z</time>
      </trkpt>
      <trkpt lat="43.52724" lon="6.64437">
        <ele>434.3</ele>
        <time>2022-04-22T09:34:08Z</time>
      </trkpt>
      <trkpt lat="43.5272" lon="6.64439">
        <ele>433.8</ele>
        <time>2022-04-22T09:34:09Z</time>
      </trkpt>
      <trkpt lat="43.52718" lon="6.6444">
        <ele>433.6</ele>
        <time>2022-04-22T09:34:10Z</time>
      </trkpt>
      <trkpt lat="43.52716" lon="6.64441">
        <ele>433.3</ele>
        <time>2022-04-22T09:34:11Z</time>
      </trkpt>
      <trkpt lat="43.52713" lon="6.64443">
        <ele>432.8</ele>
        <time>2022-04-22T09:34:13Z</time>
      </trkpt>
      <trkpt lat="43.52711" lon="6.64444">
        <ele>432.6</ele>
        <time>2022-04-22T09:34:14Z</time>
      </trkpt>
      <trkpt lat="43.5271" lon="6.64445">
        <ele>432.5</ele>
        <time>2022-04-22T09:34:15Z</time>
      </trkpt>
      <trkpt lat="43.52708" lon="6.64447">
        <ele>432.1</ele>
        <time>2022-04-22T09:34:16Z</time>
      </trkpt>
      <trkpt lat="43.52707" lon="6.64448">
        <ele>432</ele>
        <time>2022-04-22T09:34:17Z</time>
      </trkpt>
      <trkpt lat="43.52706" lon="6.64449">
        <ele>431.8</ele>
        <time>2022-04-22T09:34:18Z</time>
      </trkpt>
      <trkpt lat="43.52704" lon="6.64451">
        <ele>431.6</ele>
        <time>2022-04-22T09:34:19Z</time>
      </trkpt>
      <trkpt lat="43.52703" lon="6.64452">
        <ele>431.4</ele>
        <time>2022-04-22T09:34:20Z</time>
      </trkpt>
      <trkpt lat="43.52702" lon="6.64454">
        <ele>431.2</ele>
        <time>2022-04-22T09:34:21Z</time>
      </trkpt>
      <trkpt lat="43.52701" lon="6.64455">
        <ele>431</ele>
        <time>2022-04-22T09:34:22Z</time>
      </trkpt>
      <trkpt lat="43.527" lon="6.64457">
        <ele>430.8</ele>
        <time>2022-04-22T09:34:23Z</time>
      </trkpt>
      <trkpt lat="43.52699" lon="6.64458">
        <ele>430.6</ele>
        <time>2022-04-22T09:34:24Z</time>
      </trkpt>
      <trkpt lat="43.52698" lon="6.6446">
        <ele>430.4</ele>
        <time>2022-04-22T09:34:25Z</time>
      </trkpt>
      <trkpt lat="43.52697" lon="6.64461">
        <ele>430.2</ele>
        <time>2022-04-22T09:34:26Z</time>
      </trkpt>
      <trkpt lat="43.52696" lon="6.64462">
        <ele>430</ele>
        <time>2022-04-22T09:34:27Z</time>
      </trkpt>
      <trkpt lat="43.52694" lon="6.64464">
        <ele>429.8</ele>
        <time>2022-04-22T09:34:28Z</time>
      </trkpt>
      <trkpt lat="43.52693" lon="6.64465">
        <ele>429.7</ele>
        <time>2022-04-22T09:34:29Z</time>
      </trkpt>
      <trkpt lat="43.52692" lon="6.64466">
        <ele>429.5</ele>
        <time>2022-04-22T09:34:30Z</time>
      </trkpt>
      <trkpt lat="43.52691" lon="6.64467">
        <ele>429.3</ele>
        <time>2022-04-22T09:34:31Z</time>
      </trkpt>
      <trkpt lat="43.5269" lon="6.64469">
        <ele>429</ele>
        <time>2022-04-22T09:34:32Z</time>
      </trkpt>
      <trkpt lat="43.52689" lon="6.64471">
        <ele>428.8</ele>
        <time>2022-04-22T09:34:33Z</time>
      </trkpt>
      <trkpt lat="43.52688" lon="6.64472">
        <ele>428.6</ele>
        <time>2022-04-22T09:34:34Z</time>
      </trkpt>
      <trkpt lat="43.52687" lon="6.64474">
        <ele>428.4</ele>
        <time>2022-04-22T09:34:35Z</time>
      </trkpt>
      <trkpt lat="43.52686" lon="6.64475">
        <ele>428.2</ele>
        <time>2022-04-22T09:34:36Z</time>
      </trkpt>
      <trkpt lat="43.52685" lon="6.64476">
        <ele>428</ele>
        <time>2022-04-22T09:34:37Z</time>
      </trkpt>
      <trkpt lat="43.52683" lon="6.64478">
        <ele>427.7</ele>
        <time>2022-04-22T09:34:39Z</time>
      </trkpt>
      <trkpt lat="43.52681" lon="6.6448">
        <ele>427.3</ele>
        <time>2022-04-22T09:34:40Z</time>
      </trkpt>
      <trkpt lat="43.5268" lon="6.64481">
        <ele>427.2</ele>
        <time>2022-04-22T09:34:41Z</time>
      </trkpt>
      <trkpt lat="43.52679" lon="6.64482">
        <ele>426.9</ele>
        <time>2022-04-22T09:34:42Z</time>
      </trkpt>
      <trkpt lat="43.52677" lon="6.64483">
        <ele>426.7</ele>
        <time>2022-04-22T09:34:43Z</time>
      </trkpt>
      <trkpt lat="43.52674" lon="6.64485">
        <ele>426.2</ele>
        <time>2022-04-22T09:34:45Z</time>
      </trkpt>
      <trkpt lat="43.52673" lon="6.64485">
        <ele>426.1</ele>
        <time>2022-04-22T09:34:46Z</time>
      </trkpt>
      <trkpt lat="43.52672" lon="6.64486">
        <ele>425.8</ele>
        <time>2022-04-22T09:34:47Z</time>
      </trkpt>
      <trkpt lat="43.5267" lon="6.64486">
        <ele>425.5</ele>
        <time>2022-04-22T09:34:48Z</time>
      </trkpt>
      <trkpt lat="43.52669" lon="6.64487">
        <ele>425.3</ele>
        <time>2022-04-22T09:34:49Z</time>
      </trkpt>
      <trkpt lat="43.52667" lon="6.64488">
        <ele>425.1</ele>
        <time>2022-04-22T09:34:50Z</time>
      </trkpt>
      <trkpt lat="43.52665" lon="6.64489">
        <ele>424.7</ele>
        <time>2022-04-22T09:34:52Z</time>
      </trkpt>
      <trkpt lat="43.52662" lon="6.6449">
        <ele>424.3</ele>
        <time>2022-04-22T09:34:54Z</time>
      </trkpt>
      <trkpt lat="43.52661" lon="6.64491">
        <ele>424.1</ele>
        <time>2022-04-22T09:34:55Z</time>
      </trkpt>
      <trkpt lat="43.5266" lon="6.64491">
        <ele>423.9</ele>
        <time>2022-04-22T09:34:56Z</time>
      </trkpt>
      <trkpt lat="43.52659" lon="6.64492">
        <ele>423.7</ele>
        <time>2022-04-22T09:34:57Z</time>
      </trkpt>
      <trkpt lat="43.52658" lon="6.64492">
        <ele>423.6</ele>
        <time>2022-04-22T09:34:58Z</time>
      </trkpt>
      <trkpt lat="43.52656" lon="6.64493">
        <ele>423.3</ele>
        <time>2022-04-22T09:34:59Z</time>
      </trkpt>
      <trkpt lat="43.52655" lon="6.64494">
        <ele>423.1</ele>
        <time>2022-04-22T09:35:00Z</time>
      </trkpt>
      <trkpt lat="43.52653" lon="6.64495">
        <ele>422.8</ele>
        <time>2022-04-22T09:35:01Z</time>
      </trkpt>
      <trkpt lat="43.52651" lon="6.64496">
        <ele>422.6</ele>
        <time>2022-04-22T09:35:02Z</time>
      </trkpt>
      <trkpt lat="43.5265" lon="6.64496">
        <ele>422.4</ele>
        <time>2022-04-22T09:35:03Z</time>
      </trkpt>
      <trkpt lat="43.52648" lon="6.64497">
        <ele>422.1</ele>
        <time>2022-04-22T09:35:04Z</time>
      </trkpt>
      <trkpt lat="43.52646" lon="6.64497">
        <ele>421.9</ele>
        <time>2022-04-22T09:35:05Z</time>
      </trkpt>
      <trkpt lat="43.52645" lon="6.64498">
        <ele>421.7</ele>
        <time>2022-04-22T09:35:06Z</time>
      </trkpt>
      <trkpt lat="43.52643" lon="6.64498">
        <ele>421.5</ele>
        <time>2022-04-22T09:35:08Z</time>
      </trkpt>
      <trkpt lat="43.52642" lon="6.64499">
        <ele>421.3</ele>
        <time>2022-04-22T09:35:09Z</time>
      </trkpt>
      <trkpt lat="43.5264" lon="6.64499">
        <ele>421.2</ele>
        <time>2022-04-22T09:35:10Z</time>
      </trkpt>
      <trkpt lat="43.52639" lon="6.645">
        <ele>421</ele>
        <time>2022-04-22T09:35:11Z</time>
      </trkpt>
      <trkpt lat="43.52638" lon="6.64501">
        <ele>420.9</ele>
        <time>2022-04-22T09:35:12Z</time>
      </trkpt>
      <trkpt lat="43.52636" lon="6.64503">
        <ele>420.7</ele>
        <time>2022-04-22T09:35:13Z</time>
      </trkpt>
      <trkpt lat="43.52635" lon="6.64503">
        <ele>420.6</ele>
        <time>2022-04-22T09:35:14Z</time>
      </trkpt>
      <trkpt lat="43.52634" lon="6.64504">
        <ele>420.5</ele>
        <time>2022-04-22T09:35:15Z</time>
      </trkpt>
      <trkpt lat="43.52633" lon="6.64504">
        <ele>420.4</ele>
        <time>2022-04-22T09:35:16Z</time>
      </trkpt>
      <trkpt lat="43.52632" lon="6.64504">
        <ele>420.3</ele>
        <time>2022-04-22T09:35:17Z</time>
      </trkpt>
      <trkpt lat="43.52631" lon="6.64505">
        <ele>420.1</ele>
        <time>2022-04-22T09:35:18Z</time>
      </trkpt>
      <trkpt lat="43.5263" lon="6.64505">
        <ele>420</ele>
        <time>2022-04-22T09:35:19Z</time>
      </trkpt>
      <trkpt lat="43.52629" lon="6.64506">
        <ele>419.9</ele>
        <time>2022-04-22T09:35:20Z</time>
      </trkpt>
      <trkpt lat="43.52628" lon="6.64506">
        <ele>419.8</ele>
        <time>2022-04-22T09:35:21Z</time>
      </trkpt>
      <trkpt lat="43.52628" lon="6.64504">
        <ele>419.7</ele>
        <time>2022-04-22T09:35:22Z</time>
      </trkpt>
      <trkpt lat="43.52627" lon="6.64504">
        <ele>419.6</ele>
        <time>2022-04-22T09:35:23Z</time>
      </trkpt>
      <trkpt lat="43.52626" lon="6.64504">
        <ele>419.5</ele>
        <time>2022-04-22T09:35:24Z</time>
      </trkpt>
      <trkpt lat="43.52625" lon="6.64504">
        <ele>419.4</ele>
        <time>2022-04-22T09:35:25Z</time>
      </trkpt>
      <trkpt lat="43.52623" lon="6.64504">
        <ele>419.2</ele>
        <time>2022-04-22T09:35:26Z</time>
      </trkpt>
      <trkpt lat="43.52622" lon="6.64505">
        <ele>419.1</ele>
        <time>2022-04-22T09:35:27Z</time>
      </trkpt>
      <trkpt lat="43.5262" lon="6.64505">
        <ele>418.8</ele>
        <time>2022-04-22T09:35:28Z</time>
      </trkpt>
      <trkpt lat="43.52619" lon="6.64505">
        <ele>418.7</ele>
        <time>2022-04-22T09:35:29Z</time>
      </trkpt>
      <trkpt lat="43.52618" lon="6.64505">
        <ele>418.6</ele>
        <time>2022-04-22T09:35:30Z</time>
      </trkpt>
      <trkpt lat="43.52615" lon="6.64505">
        <ele>418.3</ele>
        <time>2022-04-22T09:35:31Z</time>
      </trkpt>
      <trkpt lat="43.52614" lon="6.64505">
        <ele>418.2</ele>
        <time>2022-04-22T09:35:32Z</time>
      </trkpt>
      <trkpt lat="43.52611" lon="6.64504">
        <ele>417.8</ele>
        <time>2022-04-22T09:35:34Z</time>
      </trkpt>
      <trkpt lat="43.52609" lon="6.64504">
        <ele>417.6</ele>
        <time>2022-04-22T09:35:35Z</time>
      </trkpt>
      <trkpt lat="43.52608" lon="6.64503">
        <ele>417.4</ele>
        <time>2022-04-22T09:35:36Z</time>
      </trkpt>
      <trkpt lat="43.52606" lon="6.64503">
        <ele>417.1</ele>
        <time>2022-04-22T09:35:37Z</time>
      </trkpt>
      <trkpt lat="43.52604" lon="6.64502">
        <ele>416.9</ele>
        <time>2022-04-22T09:35:38Z</time>
      </trkpt>
      <trkpt lat="43.52602" lon="6.645">
        <ele>416.4</ele>
        <time>2022-04-22T09:35:39Z</time>
      </trkpt>
      <trkpt lat="43.52601" lon="6.645">
        <ele>416.3</ele>
        <time>2022-04-22T09:35:40Z</time>
      </trkpt>
      <trkpt lat="43.526" lon="6.64499">
        <ele>416</ele>
        <time>2022-04-22T09:35:41Z</time>
      </trkpt>
      <trkpt lat="43.52598" lon="6.64498">
        <ele>415.7</ele>
        <time>2022-04-22T09:35:42Z</time>
      </trkpt>
      <trkpt lat="43.52595" lon="6.64496">
        <ele>415.2</ele>
        <time>2022-04-22T09:35:43Z</time>
      </trkpt>
      <trkpt lat="43.52593" lon="6.64495">
        <ele>414.9</ele>
        <time>2022-04-22T09:35:44Z</time>
      </trkpt>
      <trkpt lat="43.52592" lon="6.64494">
        <ele>414.6</ele>
        <time>2022-04-22T09:35:45Z</time>
      </trkpt>
      <trkpt lat="43.5259" lon="6.64492">
        <ele>414.2</ele>
        <time>2022-04-22T09:35:46Z</time>
      </trkpt>
      <trkpt lat="43.52589" lon="6.64491">
        <ele>414</ele>
        <time>2022-04-22T09:35:47Z</time>
      </trkpt>
      <trkpt lat="43.52586" lon="6.6449">
        <ele>413.5</ele>
        <time>2022-04-22T09:35:49Z</time>
      </trkpt>
      <trkpt lat="43.52585" lon="6.64489">
        <ele>413.4</ele>
        <time>2022-04-22T09:35:50Z</time>
      </trkpt>
      <trkpt lat="43.52582" lon="6.64488">
        <ele>412.9</ele>
        <time>2022-04-22T09:35:51Z</time>
      </trkpt>
      <trkpt lat="43.52581" lon="6.64488">
        <ele>412.7</ele>
        <time>2022-04-22T09:35:52Z</time>
      </trkpt>
      <trkpt lat="43.52578" lon="6.64487">
        <ele>412.2</ele>
        <time>2022-04-22T09:35:53Z</time>
      </trkpt>
      <trkpt lat="43.52577" lon="6.64487">
        <ele>412</ele>
        <time>2022-04-22T09:35:54Z</time>
      </trkpt>
      <trkpt lat="43.52576" lon="6.64487">
        <ele>411.8</ele>
        <time>2022-04-22T09:35:55Z</time>
      </trkpt>
      <trkpt lat="43.52574" lon="6.64486">
        <ele>411.5</ele>
        <time>2022-04-22T09:35:56Z</time>
      </trkpt>
      <trkpt lat="43.52572" lon="6.64486">
        <ele>411.2</ele>
        <time>2022-04-22T09:35:57Z</time>
      </trkpt>
      <trkpt lat="43.52571" lon="6.64485">
        <ele>411</ele>
        <time>2022-04-22T09:35:58Z</time>
      </trkpt>
      <trkpt lat="43.52569" lon="6.64485">
        <ele>410.7</ele>
        <time>2022-04-22T09:35:59Z</time>
      </trkpt>
      <trkpt lat="43.52567" lon="6.64484">
        <ele>410.3</ele>
        <time>2022-04-22T09:36:01Z</time>
      </trkpt>
      <trkpt lat="43.52566" lon="6.64484">
        <ele>410.1</ele>
        <time>2022-04-22T09:36:02Z</time>
      </trkpt>
      <trkpt lat="43.52564" lon="6.64484">
        <ele>409.8</ele>
        <time>2022-04-22T09:36:03Z</time>
      </trkpt>
      <trkpt lat="43.52563" lon="6.64483">
        <ele>409.6</ele>
        <time>2022-04-22T09:36:04Z</time>
      </trkpt>
      <trkpt lat="43.52561" lon="6.64483">
        <ele>409.3</ele>
        <time>2022-04-22T09:36:05Z</time>
      </trkpt>
      <trkpt lat="43.5256" lon="6.64483">
        <ele>409.1</ele>
        <time>2022-04-22T09:36:06Z</time>
      </trkpt>
      <trkpt lat="43.52558" lon="6.64483">
        <ele>408.8</ele>
        <time>2022-04-22T09:36:07Z</time>
      </trkpt>
      <trkpt lat="43.52556" lon="6.64483">
        <ele>408.4</ele>
        <time>2022-04-22T09:36:08Z</time>
      </trkpt>
      <trkpt lat="43.52555" lon="6.64482">
        <ele>408.2</ele>
        <time>2022-04-22T09:36:09Z</time>
      </trkpt>
      <trkpt lat="43.52554" lon="6.64482">
        <ele>407.9</ele>
        <time>2022-04-22T09:36:10Z</time>
      </trkpt>
      <trkpt lat="43.52552" lon="6.64482">
        <ele>407.6</ele>
        <time>2022-04-22T09:36:11Z</time>
      </trkpt>
      <trkpt lat="43.5255" lon="6.64482">
        <ele>407.1</ele>
        <time>2022-04-22T09:36:12Z</time>
      </trkpt>
      <trkpt lat="43.52548" lon="6.64482">
        <ele>406.9</ele>
        <time>2022-04-22T09:36:14Z</time>
      </trkpt>
      <trkpt lat="43.52547" lon="6.64482">
        <ele>406.6</ele>
        <time>2022-04-22T09:36:15Z</time>
      </trkpt>
      <trkpt lat="43.52546" lon="6.64482">
        <ele>406.4</ele>
        <time>2022-04-22T09:36:16Z</time>
      </trkpt>
      <trkpt lat="43.52545" lon="6.64481">
        <ele>406.1</ele>
        <time>2022-04-22T09:36:17Z</time>
      </trkpt>
      <trkpt lat="43.52543" lon="6.64481">
        <ele>405.8</ele>
        <time>2022-04-22T09:36:18Z</time>
      </trkpt>
      <trkpt lat="43.52542" lon="6.64481">
        <ele>405.5</ele>
        <time>2022-04-22T09:36:19Z</time>
      </trkpt>
      <trkpt lat="43.5254" lon="6.64481">
        <ele>405.2</ele>
        <time>2022-04-22T09:36:20Z</time>
      </trkpt>
      <trkpt lat="43.52539" lon="6.64481">
        <ele>405.1</ele>
        <time>2022-04-22T09:36:21Z</time>
      </trkpt>
      <trkpt lat="43.52538" lon="6.64481">
        <ele>404.8</ele>
        <time>2022-04-22T09:36:22Z</time>
      </trkpt>
      <trkpt lat="43.52537" lon="6.64481">
        <ele>404.6</ele>
        <time>2022-04-22T09:36:23Z</time>
      </trkpt>
      <trkpt lat="43.52535" lon="6.64481">
        <ele>404.3</ele>
        <time>2022-04-22T09:36:24Z</time>
      </trkpt>
      <trkpt lat="43.52535" lon="6.64481">
        <ele>404.1</ele>
        <time>2022-04-22T09:36:25Z</time>
      </trkpt>
      <trkpt lat="43.52534" lon="6.6448">
        <ele>404</ele>
        <time>2022-04-22T09:36:26Z</time>
      </trkpt>
      <trkpt lat="43.52534" lon="6.6448">
        <ele>403.9</ele>
        <time>2022-04-22T09:36:27Z</time>
      </trkpt>
      <trkpt lat="43.52534" lon="6.64479">
        <ele>403.8</ele>
        <time>2022-04-22T09:36:28Z</time>
      </trkpt>
      <trkpt lat="43.52535" lon="6.64479">
        <ele>403.8</ele>
        <time>2022-04-22T09:36:29Z</time>
      </trkpt>
      <trkpt lat="43.52535" lon="6.64479">
        <ele>403.7</ele>
        <time>2022-04-22T09:36:30Z</time>
      </trkpt>
      <trkpt lat="43.52535" lon="6.64479">
        <ele>403.7</ele>
        <time>2022-04-22T09:36:31Z</time>
      </trkpt>
      <trkpt lat="43.52535" lon="6.64479">
        <ele>403.6</ele>
        <time>2022-04-22T09:36:32Z</time>
      </trkpt>
      <trkpt lat="43.52536" lon="6.64479">
        <ele>403.6</ele>
        <time>2022-04-22T09:36:33Z</time>
      </trkpt>
      <trkpt lat="43.52534" lon="6.64479">
        <ele>403.3</ele>
        <time>2022-04-22T09:36:35Z</time>
      </trkpt>
      <trkpt lat="43.52534" lon="6.64478">
        <ele>403.2</ele>
        <time>2022-04-22T09:36:36Z</time>
      </trkpt>
      <trkpt lat="43.52532" lon="6.64479">
        <ele>402.8</ele>
        <time>2022-04-22T09:36:37Z</time>
      </trkpt>
      <trkpt lat="43.5253" lon="6.64479">
        <ele>402.4</ele>
        <time>2022-04-22T09:36:38Z</time>
      </trkpt>
      <trkpt lat="43.52529" lon="6.64479">
        <ele>402.2</ele>
        <time>2022-04-22T09:36:39Z</time>
      </trkpt>
      <trkpt lat="43.52528" lon="6.64479">
        <ele>402</ele>
        <time>2022-04-22T09:36:40Z</time>
      </trkpt>
      <trkpt lat="43.52527" lon="6.64479">
        <ele>401.7</ele>
        <time>2022-04-22T09:36:41Z</time>
      </trkpt>
      <trkpt lat="43.52524" lon="6.64479">
        <ele>401.1</ele>
        <time>2022-04-22T09:36:42Z</time>
      </trkpt>
      <trkpt lat="43.52523" lon="6.64479">
        <ele>401</ele>
        <time>2022-04-22T09:36:44Z</time>
      </trkpt>
      <trkpt lat="43.52522" lon="6.64478">
        <ele>400.8</ele>
        <time>2022-04-22T09:36:45Z</time>
      </trkpt>
      <trkpt lat="43.52522" lon="6.64478">
        <ele>400.6</ele>
        <time>2022-04-22T09:36:46Z</time>
      </trkpt>
      <trkpt lat="43.52521" lon="6.64477">
        <ele>400.4</ele>
        <time>2022-04-22T09:36:47Z</time>
      </trkpt>
      <trkpt lat="43.5252" lon="6.64477">
        <ele>400.2</ele>
        <time>2022-04-22T09:36:48Z</time>
      </trkpt>
      <trkpt lat="43.52519" lon="6.64476">
        <ele>399.9</ele>
        <time>2022-04-22T09:36:49Z</time>
      </trkpt>
      <trkpt lat="43.52517" lon="6.64475">
        <ele>399.6</ele>
        <time>2022-04-22T09:36:50Z</time>
      </trkpt>
      <trkpt lat="43.52516" lon="6.64475">
        <ele>399.2</ele>
        <time>2022-04-22T09:36:51Z</time>
      </trkpt>
      <trkpt lat="43.52514" lon="6.64474">
        <ele>398.8</ele>
        <time>2022-04-22T09:36:52Z</time>
      </trkpt>
      <trkpt lat="43.52513" lon="6.64473">
        <ele>398.4</ele>
        <time>2022-04-22T09:36:53Z</time>
      </trkpt>
      <trkpt lat="43.52511" lon="6.64472">
        <ele>397.9</ele>
        <time>2022-04-22T09:36:54Z</time>
      </trkpt>
      <trkpt lat="43.5251" lon="6.64472">
        <ele>397.7</ele>
        <time>2022-04-22T09:36:55Z</time>
      </trkpt>
      <trkpt lat="43.52509" lon="6.64471">
        <ele>397.5</ele>
        <time>2022-04-22T09:36:56Z</time>
      </trkpt>
      <trkpt lat="43.52506" lon="6.64471">
        <ele>396.8</ele>
        <time>2022-04-22T09:36:57Z</time>
      </trkpt>
      <trkpt lat="43.52505" lon="6.64471">
        <ele>396.6</ele>
        <time>2022-04-22T09:36:58Z</time>
      </trkpt>
      <trkpt lat="43.52502" lon="6.6447">
        <ele>395.8</ele>
        <time>2022-04-22T09:36:59Z</time>
      </trkpt>
      <trkpt lat="43.52501" lon="6.6447">
        <ele>395.6</ele>
        <time>2022-04-22T09:37:00Z</time>
      </trkpt>
      <trkpt lat="43.52498" lon="6.6447">
        <ele>394.9</ele>
        <time>2022-04-22T09:37:01Z</time>
      </trkpt>
      <trkpt lat="43.52497" lon="6.6447">
        <ele>394.6</ele>
        <time>2022-04-22T09:37:02Z</time>
      </trkpt>
      <trkpt lat="43.52494" lon="6.6447">
        <ele>393.9</ele>
        <time>2022-04-22T09:37:03Z</time>
      </trkpt>
      <trkpt lat="43.52493" lon="6.6447">
        <ele>393.7</ele>
        <time>2022-04-22T09:37:04Z</time>
      </trkpt>
      <trkpt lat="43.52492" lon="6.6447">
        <ele>393.3</ele>
        <time>2022-04-22T09:37:05Z</time>
      </trkpt>
      <trkpt lat="43.5249" lon="6.6447">
        <ele>392.9</ele>
        <time>2022-04-22T09:37:06Z</time>
      </trkpt>
      <trkpt lat="43.52488" lon="6.6447">
        <ele>392.6</ele>
        <time>2022-04-22T09:37:07Z</time>
      </trkpt>
      <trkpt lat="43.52487" lon="6.6447">
        <ele>392.2</ele>
        <time>2022-04-22T09:37:08Z</time>
      </trkpt>
      <trkpt lat="43.52486" lon="6.6447">
        <ele>391.8</ele>
        <time>2022-04-22T09:37:09Z</time>
      </trkpt>
      <trkpt lat="43.52484" lon="6.64469">
        <ele>391.5</ele>
        <time>2022-04-22T09:37:10Z</time>
      </trkpt>
      <trkpt lat="43.52482" lon="6.64469">
        <ele>391.1</ele>
        <time>2022-04-22T09:37:11Z</time>
      </trkpt>
      <trkpt lat="43.52481" lon="6.64469">
        <ele>390.8</ele>
        <time>2022-04-22T09:37:12Z</time>
      </trkpt>
      <trkpt lat="43.52478" lon="6.64469">
        <ele>390.2</ele>
        <time>2022-04-22T09:37:14Z</time>
      </trkpt>
      <trkpt lat="43.52477" lon="6.64469">
        <ele>389.8</ele>
        <time>2022-04-22T09:37:15Z</time>
      </trkpt>
      <trkpt lat="43.52475" lon="6.64469">
        <ele>389.4</ele>
        <time>2022-04-22T09:37:16Z</time>
      </trkpt>
      <trkpt lat="43.52473" lon="6.64469">
        <ele>389</ele>
        <time>2022-04-22T09:37:17Z</time>
      </trkpt>
      <trkpt lat="43.52472" lon="6.64468">
        <ele>388.5</ele>
        <time>2022-04-22T09:37:19Z</time>
      </trkpt>
      <trkpt lat="43.5247" lon="6.64468">
        <ele>388.1</ele>
        <time>2022-04-22T09:37:20Z</time>
      </trkpt>
      <trkpt lat="43.52468" lon="6.64468">
        <ele>387.8</ele>
        <time>2022-04-22T09:37:21Z</time>
      </trkpt>
      <trkpt lat="43.52467" lon="6.64468">
        <ele>387.4</ele>
        <time>2022-04-22T09:37:22Z</time>
      </trkpt>
      <trkpt lat="43.52466" lon="6.64467">
        <ele>387.2</ele>
        <time>2022-04-22T09:37:23Z</time>
      </trkpt>
      <trkpt lat="43.52465" lon="6.64467">
        <ele>386.9</ele>
        <time>2022-04-22T09:37:24Z</time>
      </trkpt>
      <trkpt lat="43.52462" lon="6.64466">
        <ele>386.2</ele>
        <time>2022-04-22T09:37:26Z</time>
      </trkpt>
      <trkpt lat="43.52461" lon="6.64466">
        <ele>386</ele>
        <time>2022-04-22T09:37:27Z</time>
      </trkpt>
      <trkpt lat="43.52459" lon="6.64466">
        <ele>385.4</ele>
        <time>2022-04-22T09:37:28Z</time>
      </trkpt>
      <trkpt lat="43.52458" lon="6.64466">
        <ele>385.2</ele>
        <time>2022-04-22T09:37:29Z</time>
      </trkpt>
      <trkpt lat="43.52457" lon="6.64466">
        <ele>385</ele>
        <time>2022-04-22T09:37:30Z</time>
      </trkpt>
      <trkpt lat="43.52456" lon="6.64465">
        <ele>384.6</ele>
        <time>2022-04-22T09:37:31Z</time>
      </trkpt>
      <trkpt lat="43.52455" lon="6.64465">
        <ele>384.3</ele>
        <time>2022-04-22T09:37:32Z</time>
      </trkpt>
      <trkpt lat="43.52453" lon="6.64464">
        <ele>383.9</ele>
        <time>2022-04-22T09:37:34Z</time>
      </trkpt>
      <trkpt lat="43.52451" lon="6.64464">
        <ele>383.5</ele>
        <time>2022-04-22T09:37:35Z</time>
      </trkpt>
      <trkpt lat="43.5245" lon="6.64464">
        <ele>383.2</ele>
        <time>2022-04-22T09:37:36Z</time>
      </trkpt>
      <trkpt lat="43.52448" lon="6.64465">
        <ele>382.8</ele>
        <time>2022-04-22T09:37:37Z</time>
      </trkpt>
      <trkpt lat="43.52446" lon="6.64465">
        <ele>382.4</ele>
        <time>2022-04-22T09:37:39Z</time>
      </trkpt>
      <trkpt lat="43.52446" lon="6.64465">
        <ele>382.3</ele>
        <time>2022-04-22T09:37:40Z</time>
      </trkpt>
      <trkpt lat="43.52445" lon="6.64465">
        <ele>382.1</ele>
        <time>2022-04-22T09:37:41Z</time>
      </trkpt>
      <trkpt lat="43.52444" lon="6.64465">
        <ele>381.8</ele>
        <time>2022-04-22T09:37:43Z</time>
      </trkpt>
      <trkpt lat="43.52443" lon="6.64465">
        <ele>381.6</ele>
        <time>2022-04-22T09:37:44Z</time>
      </trkpt>
      <trkpt lat="43.52442" lon="6.64465">
        <ele>381.3</ele>
        <time>2022-04-22T09:37:45Z</time>
      </trkpt>
      <trkpt lat="43.52441" lon="6.64466">
        <ele>381.1</ele>
        <time>2022-04-22T09:37:46Z</time>
      </trkpt>
      <trkpt lat="43.5244" lon="6.64466">
        <ele>380.9</ele>
        <time>2022-04-22T09:37:48Z</time>
      </trkpt>
      <trkpt lat="43.52438" lon="6.64466">
        <ele>380.5</ele>
        <time>2022-04-22T09:37:49Z</time>
      </trkpt>
      <trkpt lat="43.52436" lon="6.64467">
        <ele>380</ele>
        <time>2022-04-22T09:37:50Z</time>
      </trkpt>
      <trkpt lat="43.52435" lon="6.64467">
        <ele>379.8</ele>
        <time>2022-04-22T09:37:51Z</time>
      </trkpt>
      <trkpt lat="43.52434" lon="6.64467">
        <ele>379.6</ele>
        <time>2022-04-22T09:37:52Z</time>
      </trkpt>
      <trkpt lat="43.52432" lon="6.64468">
        <ele>379.1</ele>
        <time>2022-04-22T09:37:54Z</time>
      </trkpt>
      <trkpt lat="43.52431" lon="6.64468">
        <ele>378.8</ele>
        <time>2022-04-22T09:37:55Z</time>
      </trkpt>
      <trkpt lat="43.5243" lon="6.64468">
        <ele>378.5</ele>
        <time>2022-04-22T09:37:56Z</time>
      </trkpt>
      <trkpt lat="43.52428" lon="6.64469">
        <ele>378.2</ele>
        <time>2022-04-22T09:37:57Z</time>
      </trkpt>
      <trkpt lat="43.52427" lon="6.6447">
        <ele>377.8</ele>
        <time>2022-04-22T09:37:58Z</time>
      </trkpt>
      <trkpt lat="43.52426" lon="6.6447">
        <ele>377.5</ele>
        <time>2022-04-22T09:37:59Z</time>
      </trkpt>
      <trkpt lat="43.52423" lon="6.64471">
        <ele>377</ele>
        <time>2022-04-22T09:38:01Z</time>
      </trkpt>
      <trkpt lat="43.52422" lon="6.64471">
        <ele>376.7</ele>
        <time>2022-04-22T09:38:02Z</time>
      </trkpt>
      <trkpt lat="43.52421" lon="6.64471">
        <ele>376.4</ele>
        <time>2022-04-22T09:38:03Z</time>
      </trkpt>
      <trkpt lat="43.5242" lon="6.64471">
        <ele>376.1</ele>
        <time>2022-04-22T09:38:04Z</time>
      </trkpt>
      <trkpt lat="43.52419" lon="6.6447">
        <ele>375.9</ele>
        <time>2022-04-22T09:38:05Z</time>
      </trkpt>
      <trkpt lat="43.52417" lon="6.6447">
        <ele>375.5</ele>
        <time>2022-04-22T09:38:06Z</time>
      </trkpt>
      <trkpt lat="43.52415" lon="6.64469">
        <ele>375</ele>
        <time>2022-04-22T09:38:08Z</time>
      </trkpt>
      <trkpt lat="43.52414" lon="6.64469">
        <ele>374.6</ele>
        <time>2022-04-22T09:38:09Z</time>
      </trkpt>
      <trkpt lat="43.52412" lon="6.64469">
        <ele>374.3</ele>
        <time>2022-04-22T09:38:10Z</time>
      </trkpt>
      <trkpt lat="43.52411" lon="6.64468">
        <ele>374</ele>
        <time>2022-04-22T09:38:11Z</time>
      </trkpt>
      <trkpt lat="43.5241" lon="6.64468">
        <ele>373.8</ele>
        <time>2022-04-22T09:38:12Z</time>
      </trkpt>
      <trkpt lat="43.52409" lon="6.64468">
        <ele>373.5</ele>
        <time>2022-04-22T09:38:13Z</time>
      </trkpt>
      <trkpt lat="43.52408" lon="6.64468">
        <ele>373.3</ele>
        <time>2022-04-22T09:38:14Z</time>
      </trkpt>
      <trkpt lat="43.52407" lon="6.64467">
        <ele>373</ele>
        <time>2022-04-22T09:38:15Z</time>
      </trkpt>
      <trkpt lat="43.52406" lon="6.64467">
        <ele>372.8</ele>
        <time>2022-04-22T09:38:16Z</time>
      </trkpt>
      <trkpt lat="43.52404" lon="6.64467">
        <ele>372.4</ele>
        <time>2022-04-22T09:38:17Z</time>
      </trkpt>
      <trkpt lat="43.52403" lon="6.64468">
        <ele>372.1</ele>
        <time>2022-04-22T09:38:18Z</time>
      </trkpt>
      <trkpt lat="43.52401" lon="6.64468">
        <ele>371.7</ele>
        <time>2022-04-22T09:38:19Z</time>
      </trkpt>
      <trkpt lat="43.524" lon="6.64469">
        <ele>371.4</ele>
        <time>2022-04-22T09:38:20Z</time>
      </trkpt>
      <trkpt lat="43.52398" lon="6.6447">
        <ele>371.1</ele>
        <time>2022-04-22T09:38:21Z</time>
      </trkpt>
      <trkpt lat="43.52397" lon="6.64471">
        <ele>370.7</ele>
        <time>2022-04-22T09:38:22Z</time>
      </trkpt>
      <trkpt lat="43.52394" lon="6.64472">
        <ele>370.2</ele>
        <time>2022-04-22T09:38:23Z</time>
      </trkpt>
      <trkpt lat="43.52393" lon="6.64472">
        <ele>370</ele>
        <time>2022-04-22T09:38:24Z</time>
      </trkpt>
      <trkpt lat="43.52392" lon="6.64473">
        <ele>369.7</ele>
        <time>2022-04-22T09:38:25Z</time>
      </trkpt>
      <trkpt lat="43.5239" lon="6.64475">
        <ele>369.3</ele>
        <time>2022-04-22T09:38:27Z</time>
      </trkpt>
      <trkpt lat="43.52388" lon="6.64475">
        <ele>369</ele>
        <time>2022-04-22T09:38:28Z</time>
      </trkpt>
      <trkpt lat="43.52386" lon="6.64476">
        <ele>368.7</ele>
        <time>2022-04-22T09:38:29Z</time>
      </trkpt>
      <trkpt lat="43.52383" lon="6.64478">
        <ele>368.2</ele>
        <time>2022-04-22T09:38:30Z</time>
      </trkpt>
      <trkpt lat="43.52382" lon="6.64479">
        <ele>367.9</ele>
        <time>2022-04-22T09:38:31Z</time>
      </trkpt>
      <trkpt lat="43.52379" lon="6.64481">
        <ele>367.5</ele>
        <time>2022-04-22T09:38:32Z</time>
      </trkpt>
      <trkpt lat="43.52378" lon="6.64481">
        <ele>367.3</ele>
        <time>2022-04-22T09:38:33Z</time>
      </trkpt>
      <trkpt lat="43.52376" lon="6.64482">
        <ele>367.1</ele>
        <time>2022-04-22T09:38:34Z</time>
      </trkpt>
      <trkpt lat="43.52375" lon="6.64482">
        <ele>367</ele>
        <time>2022-04-22T09:38:35Z</time>
      </trkpt>
      <trkpt lat="43.52374" lon="6.64483">
        <ele>366.8</ele>
        <time>2022-04-22T09:38:36Z</time>
      </trkpt>
      <trkpt lat="43.52373" lon="6.64483">
        <ele>366.7</ele>
        <time>2022-04-22T09:38:37Z</time>
      </trkpt>
      <trkpt lat="43.52373" lon="6.64483">
        <ele>366.7</ele>
        <time>2022-04-22T09:38:39Z</time>
      </trkpt>
      <trkpt lat="43.52372" lon="6.64483">
        <ele>366.6</ele>
        <time>2022-04-22T09:38:40Z</time>
      </trkpt>
      <trkpt lat="43.52371" lon="6.64483">
        <ele>366.5</ele>
        <time>2022-04-22T09:38:41Z</time>
      </trkpt>
      <trkpt lat="43.5237" lon="6.64483">
        <ele>366.3</ele>
        <time>2022-04-22T09:38:42Z</time>
      </trkpt>
      <trkpt lat="43.52369" lon="6.64483">
        <ele>366.2</ele>
        <time>2022-04-22T09:38:43Z</time>
      </trkpt>
      <trkpt lat="43.52367" lon="6.64484">
        <ele>366</ele>
        <time>2022-04-22T09:38:44Z</time>
      </trkpt>
      <trkpt lat="43.52366" lon="6.64484">
        <ele>365.9</ele>
        <time>2022-04-22T09:38:45Z</time>
      </trkpt>
      <trkpt lat="43.52365" lon="6.64484">
        <ele>365.7</ele>
        <time>2022-04-22T09:38:46Z</time>
      </trkpt>
      <trkpt lat="43.52364" lon="6.64484">
        <ele>365.6</ele>
        <time>2022-04-22T09:38:47Z</time>
      </trkpt>
      <trkpt lat="43.52363" lon="6.64485">
        <ele>365.5</ele>
        <time>2022-04-22T09:38:48Z</time>
      </trkpt>
      <trkpt lat="43.5236" lon="6.64485">
        <ele>365.1</ele>
        <time>2022-04-22T09:38:50Z</time>
      </trkpt>
      <trkpt lat="43.5236" lon="6.64486">
        <ele>365</ele>
        <time>2022-04-22T09:38:51Z</time>
      </trkpt>
      <trkpt lat="43.52358" lon="6.64486">
        <ele>364.8</ele>
        <time>2022-04-22T09:38:52Z</time>
      </trkpt>
      <trkpt lat="43.52356" lon="6.64486">
        <ele>364.6</ele>
        <time>2022-04-22T09:38:53Z</time>
      </trkpt>
      <trkpt lat="43.52355" lon="6.64486">
        <ele>364.4</ele>
        <time>2022-04-22T09:38:54Z</time>
      </trkpt>
      <trkpt lat="43.52352" lon="6.64487">
        <ele>363.9</ele>
        <time>2022-04-22T09:38:56Z</time>
      </trkpt>
      <trkpt lat="43.52349" lon="6.64487">
        <ele>363.6</ele>
        <time>2022-04-22T09:38:57Z</time>
      </trkpt>
      <trkpt lat="43.52348" lon="6.64487">
        <ele>363.4</ele>
        <time>2022-04-22T09:38:58Z</time>
      </trkpt>
      <trkpt lat="43.52347" lon="6.64487">
        <ele>363.3</ele>
        <time>2022-04-22T09:38:59Z</time>
      </trkpt>
      <trkpt lat="43.52345" lon="6.64486">
        <ele>362.9</ele>
        <time>2022-04-22T09:39:00Z</time>
      </trkpt>
      <trkpt lat="43.52344" lon="6.64486">
        <ele>362.7</ele>
        <time>2022-04-22T09:39:01Z</time>
      </trkpt>
      <trkpt lat="43.52343" lon="6.64486">
        <ele>362.6</ele>
        <time>2022-04-22T09:39:02Z</time>
      </trkpt>
      <trkpt lat="43.52341" lon="6.64485">
        <ele>362.3</ele>
        <time>2022-04-22T09:39:03Z</time>
      </trkpt>
      <trkpt lat="43.5234" lon="6.64485">
        <ele>362.1</ele>
        <time>2022-04-22T09:39:04Z</time>
      </trkpt>
      <trkpt lat="43.52339" lon="6.64485">
        <ele>361.9</ele>
        <time>2022-04-22T09:39:05Z</time>
      </trkpt>
      <trkpt lat="43.52338" lon="6.64485">
        <ele>361.7</ele>
        <time>2022-04-22T09:39:06Z</time>
      </trkpt>
      <trkpt lat="43.52336" lon="6.64484">
        <ele>361.4</ele>
        <time>2022-04-22T09:39:08Z</time>
      </trkpt>
      <trkpt lat="43.52335" lon="6.64484">
        <ele>361.2</ele>
        <time>2022-04-22T09:39:09Z</time>
      </trkpt>
      <trkpt lat="43.52333" lon="6.64484">
        <ele>360.9</ele>
        <time>2022-04-22T09:39:10Z</time>
      </trkpt>
      <trkpt lat="43.52332" lon="6.64483">
        <ele>360.7</ele>
        <time>2022-04-22T09:39:11Z</time>
      </trkpt>
      <trkpt lat="43.52331" lon="6.64483">
        <ele>360.6</ele>
        <time>2022-04-22T09:39:12Z</time>
      </trkpt>
      <trkpt lat="43.5233" lon="6.64483">
        <ele>360.2</ele>
        <time>2022-04-22T09:39:13Z</time>
      </trkpt>
      <trkpt lat="43.52328" lon="6.64482">
        <ele>359.9</ele>
        <time>2022-04-22T09:39:15Z</time>
      </trkpt>
      <trkpt lat="43.52326" lon="6.64482">
        <ele>359.6</ele>
        <time>2022-04-22T09:39:16Z</time>
      </trkpt>
      <trkpt lat="43.52324" lon="6.64481">
        <ele>359.1</ele>
        <time>2022-04-22T09:39:17Z</time>
      </trkpt>
      <trkpt lat="43.52323" lon="6.64481">
        <ele>359</ele>
        <time>2022-04-22T09:39:18Z</time>
      </trkpt>
      <trkpt lat="43.52323" lon="6.6448">
        <ele>358.8</ele>
        <time>2022-04-22T09:39:19Z</time>
      </trkpt>
      <trkpt lat="43.52321" lon="6.6448">
        <ele>358.6</ele>
        <time>2022-04-22T09:39:20Z</time>
      </trkpt>
      <trkpt lat="43.5232" lon="6.64479">
        <ele>358.2</ele>
        <time>2022-04-22T09:39:21Z</time>
      </trkpt>
      <trkpt lat="43.52319" lon="6.64478">
        <ele>357.9</ele>
        <time>2022-04-22T09:39:22Z</time>
      </trkpt>
      <trkpt lat="43.52317" lon="6.64477">
        <ele>357.5</ele>
        <time>2022-04-22T09:39:24Z</time>
      </trkpt>
      <trkpt lat="43.52314" lon="6.64475">
        <ele>356.9</ele>
        <time>2022-04-22T09:39:25Z</time>
      </trkpt>
      <trkpt lat="43.52312" lon="6.64475">
        <ele>356.6</ele>
        <time>2022-04-22T09:39:26Z</time>
      </trkpt>
      <trkpt lat="43.5231" lon="6.64474">
        <ele>356.3</ele>
        <time>2022-04-22T09:39:27Z</time>
      </trkpt>
      <trkpt lat="43.52309" lon="6.64473">
        <ele>356</ele>
        <time>2022-04-22T09:39:28Z</time>
      </trkpt>
      <trkpt lat="43.52305" lon="6.64472">
        <ele>355.3</ele>
        <time>2022-04-22T09:39:30Z</time>
      </trkpt>
      <trkpt lat="43.52304" lon="6.64472">
        <ele>355.1</ele>
        <time>2022-04-22T09:39:31Z</time>
      </trkpt>
      <trkpt lat="43.52302" lon="6.64472">
        <ele>354.8</ele>
        <time>2022-04-22T09:39:32Z</time>
      </trkpt>
      <trkpt lat="43.52299" lon="6.64472">
        <ele>354.4</ele>
        <time>2022-04-22T09:39:33Z</time>
      </trkpt>
      <trkpt lat="43.52299" lon="6.64472">
        <ele>354.2</ele>
        <time>2022-04-22T09:39:34Z</time>
      </trkpt>
      <trkpt lat="43.52297" lon="6.64473">
        <ele>354</ele>
        <time>2022-04-22T09:39:35Z</time>
      </trkpt>
      <trkpt lat="43.52296" lon="6.64473">
        <ele>353.7</ele>
        <time>2022-04-22T09:39:36Z</time>
      </trkpt>
      <trkpt lat="43.52294" lon="6.64473">
        <ele>353.5</ele>
        <time>2022-04-22T09:39:37Z</time>
      </trkpt>
      <trkpt lat="43.52293" lon="6.64473">
        <ele>353.3</ele>
        <time>2022-04-22T09:39:38Z</time>
      </trkpt>
      <trkpt lat="43.52292" lon="6.64473">
        <ele>353.1</ele>
        <time>2022-04-22T09:39:39Z</time>
      </trkpt>
      <trkpt lat="43.52291" lon="6.64472">
        <ele>352.9</ele>
        <time>2022-04-22T09:39:40Z</time>
      </trkpt>
      <trkpt lat="43.52289" lon="6.64472">
        <ele>352.5</ele>
        <time>2022-04-22T09:39:42Z</time>
      </trkpt>
      <trkpt lat="43.52287" lon="6.64472">
        <ele>352.3</ele>
        <time>2022-04-22T09:39:43Z</time>
      </trkpt>
      <trkpt lat="43.52286" lon="6.64472">
        <ele>352</ele>
        <time>2022-04-22T09:39:45Z</time>
      </trkpt>
      <trkpt lat="43.52285" lon="6.64472">
        <ele>351.8</ele>
        <time>2022-04-22T09:39:46Z</time>
      </trkpt>
      <trkpt lat="43.52284" lon="6.64472">
        <ele>351.6</ele>
        <time>2022-04-22T09:39:47Z</time>
      </trkpt>
      <trkpt lat="43.52283" lon="6.64471">
        <ele>351.4</ele>
        <time>2022-04-22T09:39:48Z</time>
      </trkpt>
      <trkpt lat="43.52282" lon="6.64471">
        <ele>351.2</ele>
        <time>2022-04-22T09:39:49Z</time>
      </trkpt>
      <trkpt lat="43.52281" lon="6.6447">
        <ele>350.9</ele>
        <time>2022-04-22T09:39:50Z</time>
      </trkpt>
      <trkpt lat="43.5228" lon="6.6447">
        <ele>350.6</ele>
        <time>2022-04-22T09:39:51Z</time>
      </trkpt>
      <trkpt lat="43.52277" lon="6.64469">
        <ele>350.1</ele>
        <time>2022-04-22T09:39:53Z</time>
      </trkpt>
      <trkpt lat="43.52274" lon="6.64469">
        <ele>349.3</ele>
        <time>2022-04-22T09:39:54Z</time>
      </trkpt>
      <trkpt lat="43.52273" lon="6.64468">
        <ele>349.1</ele>
        <time>2022-04-22T09:39:55Z</time>
      </trkpt>
      <trkpt lat="43.5227" lon="6.64467">
        <ele>348.3</ele>
        <time>2022-04-22T09:39:56Z</time>
      </trkpt>
      <trkpt lat="43.52269" lon="6.64467">
        <ele>348.1</ele>
        <time>2022-04-22T09:39:57Z</time>
      </trkpt>
      <trkpt lat="43.52265" lon="6.64467">
        <ele>347.3</ele>
        <time>2022-04-22T09:39:58Z</time>
      </trkpt>
      <trkpt lat="43.52264" lon="6.64467">
        <ele>346.9</ele>
        <time>2022-04-22T09:39:59Z</time>
      </trkpt>
      <trkpt lat="43.52261" lon="6.64467">
        <ele>346.2</ele>
        <time>2022-04-22T09:40:01Z</time>
      </trkpt>
      <trkpt lat="43.52259" lon="6.64466">
        <ele>345.9</ele>
        <time>2022-04-22T09:40:02Z</time>
      </trkpt>
      <trkpt lat="43.52258" lon="6.64466">
        <ele>345.6</ele>
        <time>2022-04-22T09:40:03Z</time>
      </trkpt>
      <trkpt lat="43.52257" lon="6.64466">
        <ele>345.4</ele>
        <time>2022-04-22T09:40:04Z</time>
      </trkpt>
      <trkpt lat="43.52254" lon="6.64466">
        <ele>344.8</ele>
        <time>2022-04-22T09:40:06Z</time>
      </trkpt>
      <trkpt lat="43.52251" lon="6.64467">
        <ele>344.3</ele>
        <time>2022-04-22T09:40:07Z</time>
      </trkpt>
      <trkpt lat="43.52251" lon="6.64467">
        <ele>344.2</ele>
        <time>2022-04-22T09:40:08Z</time>
      </trkpt>
      <trkpt lat="43.5225" lon="6.64467">
        <ele>344</ele>
        <time>2022-04-22T09:40:09Z</time>
      </trkpt>
      <trkpt lat="43.52248" lon="6.64467">
        <ele>343.7</ele>
        <time>2022-04-22T09:40:10Z</time>
      </trkpt>
      <trkpt lat="43.52246" lon="6.64468">
        <ele>343.3</ele>
        <time>2022-04-22T09:40:12Z</time>
      </trkpt>
      <trkpt lat="43.52244" lon="6.64468">
        <ele>343</ele>
        <time>2022-04-22T09:40:13Z</time>
      </trkpt>
      <trkpt lat="43.52242" lon="6.64469">
        <ele>342.6</ele>
        <time>2022-04-22T09:40:14Z</time>
      </trkpt>
      <trkpt lat="43.52241" lon="6.64469">
        <ele>342.2</ele>
        <time>2022-04-22T09:40:15Z</time>
      </trkpt>
      <trkpt lat="43.52239" lon="6.6447">
        <ele>341.9</ele>
        <time>2022-04-22T09:40:16Z</time>
      </trkpt>
      <trkpt lat="43.52236" lon="6.64472">
        <ele>341.4</ele>
        <time>2022-04-22T09:40:17Z</time>
      </trkpt>
      <trkpt lat="43.52235" lon="6.64473">
        <ele>341.2</ele>
        <time>2022-04-22T09:40:18Z</time>
      </trkpt>
      <trkpt lat="43.52233" lon="6.64476">
        <ele>340.7</ele>
        <time>2022-04-22T09:40:19Z</time>
      </trkpt>
      <trkpt lat="43.52232" lon="6.64476">
        <ele>340.5</ele>
        <time>2022-04-22T09:40:20Z</time>
      </trkpt>
      <trkpt lat="43.52229" lon="6.64478">
        <ele>340</ele>
        <time>2022-04-22T09:40:21Z</time>
      </trkpt>
      <trkpt lat="43.52228" lon="6.64478">
        <ele>339.8</ele>
        <time>2022-04-22T09:40:22Z</time>
      </trkpt>
      <trkpt lat="43.52225" lon="6.64479">
        <ele>339.4</ele>
        <time>2022-04-22T09:40:23Z</time>
      </trkpt>
      <trkpt lat="43.52223" lon="6.64478">
        <ele>339.1</ele>
        <time>2022-04-22T09:40:24Z</time>
      </trkpt>
      <trkpt lat="43.52222" lon="6.64478">
        <ele>338.8</ele>
        <time>2022-04-22T09:40:25Z</time>
      </trkpt>
      <trkpt lat="43.52219" lon="6.64476">
        <ele>338.3</ele>
        <time>2022-04-22T09:40:27Z</time>
      </trkpt>
      <trkpt lat="43.52218" lon="6.64476">
        <ele>338.1</ele>
        <time>2022-04-22T09:40:28Z</time>
      </trkpt>
      <trkpt lat="43.52216" lon="6.64475">
        <ele>337.8</ele>
        <time>2022-04-22T09:40:29Z</time>
      </trkpt>
      <trkpt lat="43.52215" lon="6.64474">
        <ele>337.4</ele>
        <time>2022-04-22T09:40:30Z</time>
      </trkpt>
      <trkpt lat="43.52211" lon="6.64472">
        <ele>336.6</ele>
        <time>2022-04-22T09:40:32Z</time>
      </trkpt>
      <trkpt lat="43.52209" lon="6.64472">
        <ele>336.2</ele>
        <time>2022-04-22T09:40:34Z</time>
      </trkpt>
      <trkpt lat="43.52208" lon="6.64472">
        <ele>335.9</ele>
        <time>2022-04-22T09:40:35Z</time>
      </trkpt>
      <trkpt lat="43.52207" lon="6.64472">
        <ele>335.7</ele>
        <time>2022-04-22T09:40:36Z</time>
      </trkpt>
      <trkpt lat="43.52204" lon="6.6447">
        <ele>335.1</ele>
        <time>2022-04-22T09:40:38Z</time>
      </trkpt>
      <trkpt lat="43.52201" lon="6.6447">
        <ele>334.3</ele>
        <time>2022-04-22T09:40:39Z</time>
      </trkpt>
      <trkpt lat="43.522" lon="6.6447">
        <ele>334.2</ele>
        <time>2022-04-22T09:40:40Z</time>
      </trkpt>
      <trkpt lat="43.52198" lon="6.6447">
        <ele>333.8</ele>
        <time>2022-04-22T09:40:41Z</time>
      </trkpt>
      <trkpt lat="43.52195" lon="6.64471">
        <ele>333.2</ele>
        <time>2022-04-22T09:40:43Z</time>
      </trkpt>
      <trkpt lat="43.52194" lon="6.64472">
        <ele>332.9</ele>
        <time>2022-04-22T09:40:44Z</time>
      </trkpt>
      <trkpt lat="43.52193" lon="6.64473">
        <ele>332.6</ele>
        <time>2022-04-22T09:40:45Z</time>
      </trkpt>
      <trkpt lat="43.52192" lon="6.64474">
        <ele>332.4</ele>
        <time>2022-04-22T09:40:46Z</time>
      </trkpt>
      <trkpt lat="43.52192" lon="6.64474">
        <ele>332.3</ele>
        <time>2022-04-22T09:40:47Z</time>
      </trkpt>
      <trkpt lat="43.52191" lon="6.64473">
        <ele>332.1</ele>
        <time>2022-04-22T09:40:48Z</time>
      </trkpt>
      <trkpt lat="43.5219" lon="6.64473">
        <ele>331.8</ele>
        <time>2022-04-22T09:40:49Z</time>
      </trkpt>
      <trkpt lat="43.52188" lon="6.64472">
        <ele>331.5</ele>
        <time>2022-04-22T09:40:50Z</time>
      </trkpt>
      <trkpt lat="43.52186" lon="6.64472">
        <ele>331.1</ele>
        <time>2022-04-22T09:40:52Z</time>
      </trkpt>
      <trkpt lat="43.52185" lon="6.64471">
        <ele>330.8</ele>
        <time>2022-04-22T09:40:53Z</time>
      </trkpt>
      <trkpt lat="43.52184" lon="6.64471">
        <ele>330.4</ele>
        <time>2022-04-22T09:40:54Z</time>
      </trkpt>
      <trkpt lat="43.52182" lon="6.64473">
        <ele>330</ele>
        <time>2022-04-22T09:40:56Z</time>
      </trkpt>
      <trkpt lat="43.52181" lon="6.64475">
        <ele>329.6</ele>
        <time>2022-04-22T09:40:57Z</time>
      </trkpt>
      <trkpt lat="43.52179" lon="6.64475">
        <ele>329.2</ele>
        <time>2022-04-22T09:40:59Z</time>
      </trkpt>
      <trkpt lat="43.52176" lon="6.64475">
        <ele>328.6</ele>
        <time>2022-04-22T09:41:00Z</time>
      </trkpt>
      <trkpt lat="43.52175" lon="6.64475">
        <ele>328.4</ele>
        <time>2022-04-22T09:41:01Z</time>
      </trkpt>
      <trkpt lat="43.52172" lon="6.64475">
        <ele>327.7</ele>
        <time>2022-04-22T09:41:02Z</time>
      </trkpt>
      <trkpt lat="43.52171" lon="6.64476">
        <ele>327.4</ele>
        <time>2022-04-22T09:41:03Z</time>
      </trkpt>
      <trkpt lat="43.52169" lon="6.64476">
        <ele>326.9</ele>
        <time>2022-04-22T09:41:05Z</time>
      </trkpt>
      <trkpt lat="43.52166" lon="6.64476">
        <ele>326.5</ele>
        <time>2022-04-22T09:41:06Z</time>
      </trkpt>
      <trkpt lat="43.52166" lon="6.64476">
        <ele>326.3</ele>
        <time>2022-04-22T09:41:07Z</time>
      </trkpt>
      <trkpt lat="43.52165" lon="6.64476">
        <ele>326.1</ele>
        <time>2022-04-22T09:41:08Z</time>
      </trkpt>
      <trkpt lat="43.52163" lon="6.64477">
        <ele>325.7</ele>
        <time>2022-04-22T09:41:09Z</time>
      </trkpt>
      <trkpt lat="43.52162" lon="6.64477">
        <ele>325.5</ele>
        <time>2022-04-22T09:41:10Z</time>
      </trkpt>
      <trkpt lat="43.52159" lon="6.64478">
        <ele>324.8</ele>
        <time>2022-04-22T09:41:12Z</time>
      </trkpt>
      <trkpt lat="43.52158" lon="6.64478">
        <ele>324.7</ele>
        <time>2022-04-22T09:41:13Z</time>
      </trkpt>
      <trkpt lat="43.52157" lon="6.64478">
        <ele>324.3</ele>
        <time>2022-04-22T09:41:14Z</time>
      </trkpt>
      <trkpt lat="43.52155" lon="6.64478">
        <ele>324</ele>
        <time>2022-04-22T09:41:15Z</time>
      </trkpt>
      <trkpt lat="43.52153" lon="6.64478">
        <ele>323.6</ele>
        <time>2022-04-22T09:41:16Z</time>
      </trkpt>
      <trkpt lat="43.52151" lon="6.64478">
        <ele>323.3</ele>
        <time>2022-04-22T09:41:17Z</time>
      </trkpt>
      <trkpt lat="43.52148" lon="6.64478">
        <ele>322.6</ele>
        <time>2022-04-22T09:41:18Z</time>
      </trkpt>
      <trkpt lat="43.52147" lon="6.64478">
        <ele>322.3</ele>
        <time>2022-04-22T09:41:19Z</time>
      </trkpt>
      <trkpt lat="43.52144" lon="6.64478">
        <ele>321.8</ele>
        <time>2022-04-22T09:41:21Z</time>
      </trkpt>
      <trkpt lat="43.52143" lon="6.64479">
        <ele>321.5</ele>
        <time>2022-04-22T09:41:22Z</time>
      </trkpt>
      <trkpt lat="43.52142" lon="6.64479">
        <ele>321.2</ele>
        <time>2022-04-22T09:41:23Z</time>
      </trkpt>
      <trkpt lat="43.5214" lon="6.64479">
        <ele>320.9</ele>
        <time>2022-04-22T09:41:24Z</time>
      </trkpt>
      <trkpt lat="43.52137" lon="6.6448">
        <ele>320.1</ele>
        <time>2022-04-22T09:41:26Z</time>
      </trkpt>
      <trkpt lat="43.52135" lon="6.64481">
        <ele>319.7</ele>
        <time>2022-04-22T09:41:27Z</time>
      </trkpt>
      <trkpt lat="43.52131" lon="6.64481">
        <ele>318.8</ele>
        <time>2022-04-22T09:41:29Z</time>
      </trkpt>
      <trkpt lat="43.5213" lon="6.64481">
        <ele>318.5</ele>
        <time>2022-04-22T09:41:30Z</time>
      </trkpt>
      <trkpt lat="43.52127" lon="6.64482">
        <ele>317.8</ele>
        <time>2022-04-22T09:41:31Z</time>
      </trkpt>
      <trkpt lat="43.52126" lon="6.64482">
        <ele>317.6</ele>
        <time>2022-04-22T09:41:32Z</time>
      </trkpt>
      <trkpt lat="43.52124" lon="6.64481">
        <ele>317.1</ele>
        <time>2022-04-22T09:41:33Z</time>
      </trkpt>
      <trkpt lat="43.52123" lon="6.64481">
        <ele>316.8</ele>
        <time>2022-04-22T09:41:34Z</time>
      </trkpt>
      <trkpt lat="43.52122" lon="6.64482">
        <ele>316.5</ele>
        <time>2022-04-22T09:41:35Z</time>
      </trkpt>
      <trkpt lat="43.52121" lon="6.64482">
        <ele>316.3</ele>
        <time>2022-04-22T09:41:36Z</time>
      </trkpt>
      <trkpt lat="43.5212" lon="6.64482">
        <ele>316.1</ele>
        <time>2022-04-22T09:41:37Z</time>
      </trkpt>
      <trkpt lat="43.52119" lon="6.64482">
        <ele>315.9</ele>
        <time>2022-04-22T09:41:38Z</time>
      </trkpt>
      <trkpt lat="43.52118" lon="6.64483">
        <ele>315.7</ele>
        <time>2022-04-22T09:41:39Z</time>
      </trkpt>
      <trkpt lat="43.52117" lon="6.64483">
        <ele>315.5</ele>
        <time>2022-04-22T09:41:40Z</time>
      </trkpt>
      <trkpt lat="43.52116" lon="6.64483">
        <ele>315.2</ele>
        <time>2022-04-22T09:41:42Z</time>
      </trkpt>
      <trkpt lat="43.52114" lon="6.64483">
        <ele>314.9</ele>
        <time>2022-04-22T09:41:43Z</time>
      </trkpt>
      <trkpt lat="43.52113" lon="6.64483">
        <ele>314.6</ele>
        <time>2022-04-22T09:41:44Z</time>
      </trkpt>
      <trkpt lat="43.52111" lon="6.64483">
        <ele>314.1</ele>
        <time>2022-04-22T09:41:45Z</time>
      </trkpt>
      <trkpt lat="43.52109" lon="6.64483">
        <ele>313.5</ele>
        <time>2022-04-22T09:41:47Z</time>
      </trkpt>
      <trkpt lat="43.52106" lon="6.64482">
        <ele>312.8</ele>
        <time>2022-04-22T09:41:48Z</time>
      </trkpt>
      <trkpt lat="43.52105" lon="6.64482">
        <ele>312.6</ele>
        <time>2022-04-22T09:41:49Z</time>
      </trkpt>
      <trkpt lat="43.52101" lon="6.64483">
        <ele>311.8</ele>
        <time>2022-04-22T09:41:50Z</time>
      </trkpt>
      <trkpt lat="43.521" lon="6.64484">
        <ele>311.5</ele>
        <time>2022-04-22T09:41:51Z</time>
      </trkpt>
      <trkpt lat="43.52095" lon="6.64486">
        <ele>310.3</ele>
        <time>2022-04-22T09:41:53Z</time>
      </trkpt>
      <trkpt lat="43.52092" lon="6.64486">
        <ele>309.8</ele>
        <time>2022-04-22T09:41:54Z</time>
      </trkpt>
      <trkpt lat="43.52089" lon="6.64487">
        <ele>309.1</ele>
        <time>2022-04-22T09:41:56Z</time>
      </trkpt>
      <trkpt lat="43.52084" lon="6.64487">
        <ele>308.1</ele>
        <time>2022-04-22T09:41:58Z</time>
      </trkpt>
      <trkpt lat="43.52083" lon="6.64487">
        <ele>307.9</ele>
        <time>2022-04-22T09:41:59Z</time>
      </trkpt>
      <trkpt lat="43.52081" lon="6.64488">
        <ele>307.6</ele>
        <time>2022-04-22T09:42:00Z</time>
      </trkpt>
      <trkpt lat="43.52079" lon="6.64488">
        <ele>307.3</ele>
        <time>2022-04-22T09:42:01Z</time>
      </trkpt>
      <trkpt lat="43.52078" lon="6.64488">
        <ele>306.9</ele>
        <time>2022-04-22T09:42:02Z</time>
      </trkpt>
      <trkpt lat="43.52078" lon="6.64488">
        <ele>306.9</ele>
        <time>2022-04-22T09:42:03Z</time>
      </trkpt>
      <trkpt lat="43.52078" lon="6.64489">
        <ele>306.8</ele>
        <time>2022-04-22T09:42:05Z</time>
      </trkpt>
      <trkpt lat="43.52078" lon="6.64489">
        <ele>306.7</ele>
        <time>2022-04-22T09:42:06Z</time>
      </trkpt>
      <trkpt lat="43.52078" lon="6.64489">
        <ele>306.7</ele>
        <time>2022-04-22T09:42:07Z</time>
      </trkpt>
      <trkpt lat="43.52078" lon="6.64489">
        <ele>306.7</ele>
        <time>2022-04-22T09:42:08Z</time>
      </trkpt>
      <trkpt lat="43.52078" lon="6.64489">
        <ele>306.6</ele>
        <time>2022-04-22T09:42:09Z</time>
      </trkpt>
      <trkpt lat="43.52079" lon="6.64489">
        <ele>306.5</ele>
        <time>2022-04-22T09:42:10Z</time>
      </trkpt>
      <trkpt lat="43.52079" lon="6.64489">
        <ele>306.5</ele>
        <time>2022-04-22T09:42:11Z</time>
      </trkpt>
      <trkpt lat="43.52079" lon="6.64489">
        <ele>306.4</ele>
        <time>2022-04-22T09:42:12Z</time>
      </trkpt>
      <trkpt lat="43.52079" lon="6.6449">
        <ele>306.3</ele>
        <time>2022-04-22T09:42:13Z</time>
      </trkpt>
      <trkpt lat="43.5208" lon="6.6449">
        <ele>306.2</ele>
        <time>2022-04-22T09:42:14Z</time>
      </trkpt>
      <trkpt lat="43.5208" lon="6.6449">
        <ele>306.1</ele>
        <time>2022-04-22T09:42:15Z</time>
      </trkpt>
      <trkpt lat="43.5208" lon="6.6449">
        <ele>306.1</ele>
        <time>2022-04-22T09:42:16Z</time>
      </trkpt>
      <trkpt lat="43.52081" lon="6.6449">
        <ele>306.1</ele>
        <time>2022-04-22T09:42:17Z</time>
      </trkpt>
      <trkpt lat="43.52081" lon="6.64489">
        <ele>305.9</ele>
        <time>2022-04-22T09:42:18Z</time>
      </trkpt>
      <trkpt lat="43.52081" lon="6.64489">
        <ele>305.8</ele>
        <time>2022-04-22T09:42:19Z</time>
      </trkpt>
      <trkpt lat="43.52082" lon="6.64489">
        <ele>305.8</ele>
        <time>2022-04-22T09:42:20Z</time>
      </trkpt>
      <trkpt lat="43.52082" lon="6.64489">
        <ele>305.8</ele>
        <time>2022-04-22T09:42:21Z</time>
      </trkpt>
      <trkpt lat="43.52082" lon="6.64489">
        <ele>305.7</ele>
        <time>2022-04-22T09:42:22Z</time>
      </trkpt>
      <trkpt lat="43.52082" lon="6.64489">
        <ele>305.7</ele>
        <time>2022-04-22T09:42:23Z</time>
      </trkpt>
      <trkpt lat="43.5208" lon="6.64489">
        <ele>305.3</ele>
        <time>2022-04-22T09:42:25Z</time>
      </trkpt>
      <trkpt lat="43.52079" lon="6.64489">
        <ele>305</ele>
        <time>2022-04-22T09:42:26Z</time>
      </trkpt>
      <trkpt lat="43.52078" lon="6.64489">
        <ele>304.7</ele>
        <time>2022-04-22T09:42:27Z</time>
      </trkpt>
      <trkpt lat="43.52076" lon="6.64489">
        <ele>304.3</ele>
        <time>2022-04-22T09:42:28Z</time>
      </trkpt>
      <trkpt lat="43.52074" lon="6.64489">
        <ele>303.9</ele>
        <time>2022-04-22T09:42:29Z</time>
      </trkpt>
      <trkpt lat="43.52071" lon="6.64489">
        <ele>303.1</ele>
        <time>2022-04-22T09:42:31Z</time>
      </trkpt>
      <trkpt lat="43.5207" lon="6.64489">
        <ele>302.9</ele>
        <time>2022-04-22T09:42:32Z</time>
      </trkpt>
      <trkpt lat="43.52069" lon="6.64489">
        <ele>302.5</ele>
        <time>2022-04-22T09:42:33Z</time>
      </trkpt>
      <trkpt lat="43.52066" lon="6.64489">
        <ele>301.8</ele>
        <time>2022-04-22T09:42:35Z</time>
      </trkpt>
      <trkpt lat="43.52063" lon="6.64488">
        <ele>301.1</ele>
        <time>2022-04-22T09:42:36Z</time>
      </trkpt>
      <trkpt lat="43.52061" lon="6.64487">
        <ele>300.5</ele>
        <time>2022-04-22T09:42:37Z</time>
      </trkpt>
      <trkpt lat="43.5206" lon="6.64487">
        <ele>300.3</ele>
        <time>2022-04-22T09:42:38Z</time>
      </trkpt>
      <trkpt lat="43.52059" lon="6.64487">
        <ele>300</ele>
        <time>2022-04-22T09:42:39Z</time>
      </trkpt>
      <trkpt lat="43.52055" lon="6.64486">
        <ele>299.3</ele>
        <time>2022-04-22T09:42:41Z</time>
      </trkpt>
      <trkpt lat="43.52054" lon="6.64486">
        <ele>299</ele>
        <time>2022-04-22T09:42:42Z</time>
      </trkpt>
      <trkpt lat="43.52053" lon="6.64486">
        <ele>298.8</ele>
        <time>2022-04-22T09:42:43Z</time>
      </trkpt>
      <trkpt lat="43.52052" lon="6.64485">
        <ele>298.4</ele>
        <time>2022-04-22T09:42:44Z</time>
      </trkpt>
      <trkpt lat="43.52049" lon="6.64485">
        <ele>297.8</ele>
        <time>2022-04-22T09:42:46Z</time>
      </trkpt>
      <trkpt lat="43.52048" lon="6.64485">
        <ele>297.6</ele>
        <time>2022-04-22T09:42:47Z</time>
      </trkpt>
      <trkpt lat="43.52045" lon="6.64485">
        <ele>297</ele>
        <time>2022-04-22T09:42:48Z</time>
      </trkpt>
      <trkpt lat="43.52044" lon="6.64485">
        <ele>296.8</ele>
        <time>2022-04-22T09:42:49Z</time>
      </trkpt>
      <trkpt lat="43.5204" lon="6.64484">
        <ele>296</ele>
        <time>2022-04-22T09:42:51Z</time>
      </trkpt>
      <trkpt lat="43.52037" lon="6.64484">
        <ele>295.3</ele>
        <time>2022-04-22T09:42:52Z</time>
      </trkpt>
      <trkpt lat="43.52036" lon="6.64484">
        <ele>295</ele>
        <time>2022-04-22T09:42:53Z</time>
      </trkpt>
      <trkpt lat="43.52034" lon="6.64484">
        <ele>294.7</ele>
        <time>2022-04-22T09:42:54Z</time>
      </trkpt>
      <trkpt lat="43.52033" lon="6.64484">
        <ele>294.3</ele>
        <time>2022-04-22T09:42:55Z</time>
      </trkpt>
      <trkpt lat="43.5203" lon="6.64484">
        <ele>293.8</ele>
        <time>2022-04-22T09:42:56Z</time>
      </trkpt>
      <trkpt lat="43.52029" lon="6.64484">
        <ele>293.5</ele>
        <time>2022-04-22T09:42:57Z</time>
      </trkpt>
      <trkpt lat="43.52028" lon="6.64484">
        <ele>293.2</ele>
        <time>2022-04-22T09:42:58Z</time>
      </trkpt>
      <trkpt lat="43.52027" lon="6.64484">
        <ele>292.9</ele>
        <time>2022-04-22T09:42:59Z</time>
      </trkpt>
      <trkpt lat="43.52025" lon="6.64484">
        <ele>292.5</ele>
        <time>2022-04-22T09:43:00Z</time>
      </trkpt>
      <trkpt lat="43.52023" lon="6.64484">
        <ele>292.1</ele>
        <time>2022-04-22T09:43:01Z</time>
      </trkpt>
      <trkpt lat="43.52022" lon="6.64485">
        <ele>291.6</ele>
        <time>2022-04-22T09:43:02Z</time>
      </trkpt>
      <trkpt lat="43.52018" lon="6.64486">
        <ele>290.8</ele>
        <time>2022-04-22T09:43:04Z</time>
      </trkpt>
      <trkpt lat="43.52017" lon="6.64486">
        <ele>290.6</ele>
        <time>2022-04-22T09:43:05Z</time>
      </trkpt>
      <trkpt lat="43.52016" lon="6.64487">
        <ele>290.2</ele>
        <time>2022-04-22T09:43:06Z</time>
      </trkpt>
      <trkpt lat="43.52015" lon="6.64487">
        <ele>289.9</ele>
        <time>2022-04-22T09:43:07Z</time>
      </trkpt>
      <trkpt lat="43.52012" lon="6.64488">
        <ele>289.4</ele>
        <time>2022-04-22T09:43:08Z</time>
      </trkpt>
      <trkpt lat="43.52011" lon="6.64488">
        <ele>289.1</ele>
        <time>2022-04-22T09:43:09Z</time>
      </trkpt>
      <trkpt lat="43.52009" lon="6.64488">
        <ele>288.8</ele>
        <time>2022-04-22T09:43:10Z</time>
      </trkpt>
      <trkpt lat="43.52008" lon="6.64489">
        <ele>288.5</ele>
        <time>2022-04-22T09:43:11Z</time>
      </trkpt>
      <trkpt lat="43.52007" lon="6.64489">
        <ele>288.3</ele>
        <time>2022-04-22T09:43:12Z</time>
      </trkpt>
      <trkpt lat="43.52004" lon="6.6449">
        <ele>287.9</ele>
        <time>2022-04-22T09:43:14Z</time>
      </trkpt>
      <trkpt lat="43.52003" lon="6.64491">
        <ele>287.6</ele>
        <time>2022-04-22T09:43:15Z</time>
      </trkpt>
      <trkpt lat="43.52002" lon="6.64492">
        <ele>287.4</ele>
        <time>2022-04-22T09:43:16Z</time>
      </trkpt>
      <trkpt lat="43.52" lon="6.64493">
        <ele>287.1</ele>
        <time>2022-04-22T09:43:17Z</time>
      </trkpt>
      <trkpt lat="43.51999" lon="6.64493">
        <ele>286.9</ele>
        <time>2022-04-22T09:43:18Z</time>
      </trkpt>
      <trkpt lat="43.51997" lon="6.64494">
        <ele>286.6</ele>
        <time>2022-04-22T09:43:19Z</time>
      </trkpt>
      <trkpt lat="43.51996" lon="6.64495">
        <ele>286.4</ele>
        <time>2022-04-22T09:43:21Z</time>
      </trkpt>
      <trkpt lat="43.51994" lon="6.64496">
        <ele>286.2</ele>
        <time>2022-04-22T09:43:22Z</time>
      </trkpt>
      <trkpt lat="43.51993" lon="6.64498">
        <ele>286</ele>
        <time>2022-04-22T09:43:23Z</time>
      </trkpt>
      <trkpt lat="43.51992" lon="6.64499">
        <ele>285.8</ele>
        <time>2022-04-22T09:43:24Z</time>
      </trkpt>
      <trkpt lat="43.51991" lon="6.64501">
        <ele>285.5</ele>
        <time>2022-04-22T09:43:25Z</time>
      </trkpt>
      <trkpt lat="43.51989" lon="6.64504">
        <ele>285.2</ele>
        <time>2022-04-22T09:43:26Z</time>
      </trkpt>
      <trkpt lat="43.51988" lon="6.64505">
        <ele>285</ele>
        <time>2022-04-22T09:43:27Z</time>
      </trkpt>
      <trkpt lat="43.51987" lon="6.64507">
        <ele>284.7</ele>
        <time>2022-04-22T09:43:28Z</time>
      </trkpt>
      <trkpt lat="43.51986" lon="6.64508">
        <ele>284.6</ele>
        <time>2022-04-22T09:43:29Z</time>
      </trkpt>
      <trkpt lat="43.51986" lon="6.64509">
        <ele>284.5</ele>
        <time>2022-04-22T09:43:30Z</time>
      </trkpt>
      <trkpt lat="43.51985" lon="6.64511">
        <ele>284.2</ele>
        <time>2022-04-22T09:43:31Z</time>
      </trkpt>
      <trkpt lat="43.51984" lon="6.64512">
        <ele>284.1</ele>
        <time>2022-04-22T09:43:32Z</time>
      </trkpt>
      <trkpt lat="43.51984" lon="6.64513">
        <ele>284</ele>
        <time>2022-04-22T09:43:33Z</time>
      </trkpt>
      <trkpt lat="43.51983" lon="6.64515">
        <ele>283.8</ele>
        <time>2022-04-22T09:43:34Z</time>
      </trkpt>
      <trkpt lat="43.51982" lon="6.64516">
        <ele>283.6</ele>
        <time>2022-04-22T09:43:35Z</time>
      </trkpt>
      <trkpt lat="43.51981" lon="6.64519">
        <ele>283.4</ele>
        <time>2022-04-22T09:43:36Z</time>
      </trkpt>
      <trkpt lat="43.5198" lon="6.64521">
        <ele>283.2</ele>
        <time>2022-04-22T09:43:37Z</time>
      </trkpt>
      <trkpt lat="43.51979" lon="6.64523">
        <ele>283</ele>
        <time>2022-04-22T09:43:38Z</time>
      </trkpt>
      <trkpt lat="43.51978" lon="6.64524">
        <ele>282.9</ele>
        <time>2022-04-22T09:43:39Z</time>
      </trkpt>
      <trkpt lat="43.51978" lon="6.64525">
        <ele>282.9</ele>
        <time>2022-04-22T09:43:40Z</time>
      </trkpt>
      <trkpt lat="43.51977" lon="6.64528">
        <ele>282.7</ele>
        <time>2022-04-22T09:43:41Z</time>
      </trkpt>
      <trkpt lat="43.51976" lon="6.64529">
        <ele>282.6</ele>
        <time>2022-04-22T09:43:42Z</time>
      </trkpt>
      <trkpt lat="43.51976" lon="6.64531">
        <ele>282.5</ele>
        <time>2022-04-22T09:43:43Z</time>
      </trkpt>
      <trkpt lat="43.51975" lon="6.64534">
        <ele>282.4</ele>
        <time>2022-04-22T09:43:44Z</time>
      </trkpt>
      <trkpt lat="43.51974" lon="6.64535">
        <ele>282.3</ele>
        <time>2022-04-22T09:43:45Z</time>
      </trkpt>
      <trkpt lat="43.51974" lon="6.64536">
        <ele>282.3</ele>
        <time>2022-04-22T09:43:46Z</time>
      </trkpt>
      <trkpt lat="43.51973" lon="6.64538">
        <ele>282.2</ele>
        <time>2022-04-22T09:43:47Z</time>
      </trkpt>
      <trkpt lat="43.51973" lon="6.6454">
        <ele>282.1</ele>
        <time>2022-04-22T09:43:48Z</time>
      </trkpt>
      <trkpt lat="43.51973" lon="6.64543">
        <ele>282</ele>
        <time>2022-04-22T09:43:49Z</time>
      </trkpt>
      <trkpt lat="43.51973" lon="6.64545">
        <ele>282</ele>
        <time>2022-04-22T09:43:50Z</time>
      </trkpt>
      <trkpt lat="43.51972" lon="6.64547">
        <ele>282</ele>
        <time>2022-04-22T09:43:51Z</time>
      </trkpt>
      <trkpt lat="43.51972" lon="6.64548">
        <ele>281.9</ele>
        <time>2022-04-22T09:43:52Z</time>
      </trkpt>
      <trkpt lat="43.51973" lon="6.64552">
        <ele>281.8</ele>
        <time>2022-04-22T09:43:54Z</time>
      </trkpt>
      <trkpt lat="43.51973" lon="6.64553">
        <ele>281.7</ele>
        <time>2022-04-22T09:43:55Z</time>
      </trkpt>
      <trkpt lat="43.51973" lon="6.64555">
        <ele>281.7</ele>
        <time>2022-04-22T09:43:56Z</time>
      </trkpt>
      <trkpt lat="43.51973" lon="6.64557">
        <ele>281.6</ele>
        <time>2022-04-22T09:43:57Z</time>
      </trkpt>
      <trkpt lat="43.51973" lon="6.64559">
        <ele>281.6</ele>
        <time>2022-04-22T09:43:58Z</time>
      </trkpt>
      <trkpt lat="43.51973" lon="6.64561">
        <ele>281.5</ele>
        <time>2022-04-22T09:43:59Z</time>
      </trkpt>
      <trkpt lat="43.51973" lon="6.64563">
        <ele>281.5</ele>
        <time>2022-04-22T09:44:01Z</time>
      </trkpt>
      <trkpt lat="43.51973" lon="6.64564">
        <ele>281.4</ele>
        <time>2022-04-22T09:44:02Z</time>
      </trkpt>
      <trkpt lat="43.51974" lon="6.64566">
        <ele>281.4</ele>
        <time>2022-04-22T09:44:03Z</time>
      </trkpt>
      <trkpt lat="43.51974" lon="6.64568">
        <ele>281.3</ele>
        <time>2022-04-22T09:44:04Z</time>
      </trkpt>
      <trkpt lat="43.51974" lon="6.6457">
        <ele>281.3</ele>
        <time>2022-04-22T09:44:05Z</time>
      </trkpt>
      <trkpt lat="43.51976" lon="6.64575">
        <ele>281.1</ele>
        <time>2022-04-22T09:44:07Z</time>
      </trkpt>
      <trkpt lat="43.51977" lon="6.64577">
        <ele>281</ele>
        <time>2022-04-22T09:44:08Z</time>
      </trkpt>
      <trkpt lat="43.51977" lon="6.64579">
        <ele>281</ele>
        <time>2022-04-22T09:44:09Z</time>
      </trkpt>
      <trkpt lat="43.51978" lon="6.64581">
        <ele>280.9</ele>
        <time>2022-04-22T09:44:10Z</time>
      </trkpt>
      <trkpt lat="43.5198" lon="6.64584">
        <ele>280.8</ele>
        <time>2022-04-22T09:44:12Z</time>
      </trkpt>
      <trkpt lat="43.51981" lon="6.64586">
        <ele>280.7</ele>
        <time>2022-04-22T09:44:13Z</time>
      </trkpt>
      <trkpt lat="43.51982" lon="6.64588">
        <ele>280.6</ele>
        <time>2022-04-22T09:44:14Z</time>
      </trkpt>
      <trkpt lat="43.51984" lon="6.64592">
        <ele>280.4</ele>
        <time>2022-04-22T09:44:15Z</time>
      </trkpt>
      <trkpt lat="43.51984" lon="6.64592">
        <ele>280.4</ele>
        <time>2022-04-22T09:44:16Z</time>
      </trkpt>
      <trkpt lat="43.51986" lon="6.64595">
        <ele>280.3</ele>
        <time>2022-04-22T09:44:17Z</time>
      </trkpt>
      <trkpt lat="43.51987" lon="6.64596">
        <ele>280.2</ele>
        <time>2022-04-22T09:44:18Z</time>
      </trkpt>
      <trkpt lat="43.5199" lon="6.64599">
        <ele>280</ele>
        <time>2022-04-22T09:44:19Z</time>
      </trkpt>
      <trkpt lat="43.5199" lon="6.646">
        <ele>280</ele>
        <time>2022-04-22T09:44:20Z</time>
      </trkpt>
      <trkpt lat="43.51992" lon="6.64602">
        <ele>279.8</ele>
        <time>2022-04-22T09:44:22Z</time>
      </trkpt>
      <trkpt lat="43.51993" lon="6.64604">
        <ele>279.8</ele>
        <time>2022-04-22T09:44:23Z</time>
      </trkpt>
      <trkpt lat="43.51995" lon="6.64605">
        <ele>279.7</ele>
        <time>2022-04-22T09:44:24Z</time>
      </trkpt>
      <trkpt lat="43.51997" lon="6.64608">
        <ele>279.5</ele>
        <time>2022-04-22T09:44:25Z</time>
      </trkpt>
      <trkpt lat="43.51997" lon="6.64609">
        <ele>279.5</ele>
        <time>2022-04-22T09:44:26Z</time>
      </trkpt>
      <trkpt lat="43.52" lon="6.64612">
        <ele>279.3</ele>
        <time>2022-04-22T09:44:27Z</time>
      </trkpt>
      <trkpt lat="43.52" lon="6.64612">
        <ele>279.3</ele>
        <time>2022-04-22T09:44:28Z</time>
      </trkpt>
      <trkpt lat="43.52003" lon="6.64615">
        <ele>279.1</ele>
        <time>2022-04-22T09:44:29Z</time>
      </trkpt>
      <trkpt lat="43.52003" lon="6.64616">
        <ele>279.1</ele>
        <time>2022-04-22T09:44:30Z</time>
      </trkpt>
      <trkpt lat="43.52006" lon="6.64619">
        <ele>278.9</ele>
        <time>2022-04-22T09:44:32Z</time>
      </trkpt>
      <trkpt lat="43.52007" lon="6.6462">
        <ele>278.8</ele>
        <time>2022-04-22T09:44:33Z</time>
      </trkpt>
      <trkpt lat="43.52009" lon="6.64621">
        <ele>278.8</ele>
        <time>2022-04-22T09:44:34Z</time>
      </trkpt>
      <trkpt lat="43.5201" lon="6.64621">
        <ele>278.7</ele>
        <time>2022-04-22T09:44:35Z</time>
      </trkpt>
      <trkpt lat="43.52011" lon="6.64622">
        <ele>278.7</ele>
        <time>2022-04-22T09:44:36Z</time>
      </trkpt>
      <trkpt lat="43.52011" lon="6.64623">
        <ele>278.6</ele>
        <time>2022-04-22T09:44:37Z</time>
      </trkpt>
      <trkpt lat="43.52012" lon="6.64624">
        <ele>278.6</ele>
        <time>2022-04-22T09:44:38Z</time>
      </trkpt>
      <trkpt lat="43.52012" lon="6.64625">
        <ele>278.6</ele>
        <time>2022-04-22T09:44:39Z</time>
      </trkpt>
      <trkpt lat="43.52013" lon="6.64627">
        <ele>278.5</ele>
        <time>2022-04-22T09:44:40Z</time>
      </trkpt>
      <trkpt lat="43.52014" lon="6.64628">
        <ele>278.4</ele>
        <time>2022-04-22T09:44:41Z</time>
      </trkpt>
      <trkpt lat="43.52014" lon="6.6463">
        <ele>278.4</ele>
        <time>2022-04-22T09:44:42Z</time>
      </trkpt>
      <trkpt lat="43.52015" lon="6.64631">
        <ele>278.3</ele>
        <time>2022-04-22T09:44:43Z</time>
      </trkpt>
      <trkpt lat="43.52015" lon="6.64633">
        <ele>278.3</ele>
        <time>2022-04-22T09:44:44Z</time>
      </trkpt>
      <trkpt lat="43.52016" lon="6.64635">
        <ele>278.2</ele>
        <time>2022-04-22T09:44:45Z</time>
      </trkpt>
      <trkpt lat="43.52016" lon="6.64636">
        <ele>278.2</ele>
        <time>2022-04-22T09:44:46Z</time>
      </trkpt>
      <trkpt lat="43.52016" lon="6.64638">
        <ele>278.1</ele>
        <time>2022-04-22T09:44:47Z</time>
      </trkpt>
      <trkpt lat="43.52017" lon="6.64639">
        <ele>278.1</ele>
        <time>2022-04-22T09:44:48Z</time>
      </trkpt>
      <trkpt lat="43.52017" lon="6.64641">
        <ele>278</ele>
        <time>2022-04-22T09:44:49Z</time>
      </trkpt>
      <trkpt lat="43.52016" lon="6.64642">
        <ele>278</ele>
        <time>2022-04-22T09:44:50Z</time>
      </trkpt>
      <trkpt lat="43.52017" lon="6.64645">
        <ele>277.9</ele>
        <time>2022-04-22T09:44:51Z</time>
      </trkpt>
      <trkpt lat="43.52017" lon="6.64648">
        <ele>277.7</ele>
        <time>2022-04-22T09:44:53Z</time>
      </trkpt>
      <trkpt lat="43.52018" lon="6.64652">
        <ele>277.6</ele>
        <time>2022-04-22T09:44:54Z</time>
      </trkpt>
      <trkpt lat="43.52019" lon="6.64654">
        <ele>277.5</ele>
        <time>2022-04-22T09:44:55Z</time>
      </trkpt>
      <trkpt lat="43.52019" lon="6.64656">
        <ele>277.4</ele>
        <time>2022-04-22T09:44:56Z</time>
      </trkpt>
      <trkpt lat="43.52019" lon="6.64658">
        <ele>277.3</ele>
        <time>2022-04-22T09:44:57Z</time>
      </trkpt>
      <trkpt lat="43.52019" lon="6.6466">
        <ele>277.2</ele>
        <time>2022-04-22T09:44:58Z</time>
      </trkpt>
      <trkpt lat="43.52019" lon="6.64665">
        <ele>277</ele>
        <time>2022-04-22T09:45:00Z</time>
      </trkpt>
      <trkpt lat="43.5202" lon="6.64668">
        <ele>276.9</ele>
        <time>2022-04-22T09:45:01Z</time>
      </trkpt>
      <trkpt lat="43.5202" lon="6.64671">
        <ele>276.8</ele>
        <time>2022-04-22T09:45:02Z</time>
      </trkpt>
      <trkpt lat="43.5202" lon="6.64673">
        <ele>276.6</ele>
        <time>2022-04-22T09:45:03Z</time>
      </trkpt>
      <trkpt lat="43.52021" lon="6.64679">
        <ele>276.4</ele>
        <time>2022-04-22T09:45:05Z</time>
      </trkpt>
      <trkpt lat="43.52021" lon="6.64681">
        <ele>276.3</ele>
        <time>2022-04-22T09:45:06Z</time>
      </trkpt>
      <trkpt lat="43.52021" lon="6.64685">
        <ele>276.1</ele>
        <time>2022-04-22T09:45:08Z</time>
      </trkpt>
      <trkpt lat="43.52021" lon="6.64687">
        <ele>276.1</ele>
        <time>2022-04-22T09:45:09Z</time>
      </trkpt>
      <trkpt lat="43.52021" lon="6.64689">
        <ele>276</ele>
        <time>2022-04-22T09:45:10Z</time>
      </trkpt>
      <trkpt lat="43.52021" lon="6.64691">
        <ele>275.8</ele>
        <time>2022-04-22T09:45:11Z</time>
      </trkpt>
      <trkpt lat="43.52022" lon="6.64693">
        <ele>275.8</ele>
        <time>2022-04-22T09:45:12Z</time>
      </trkpt>
      <trkpt lat="43.52022" lon="6.64695">
        <ele>275.7</ele>
        <time>2022-04-22T09:45:13Z</time>
      </trkpt>
      <trkpt lat="43.52022" lon="6.64699">
        <ele>275.5</ele>
        <time>2022-04-22T09:45:14Z</time>
      </trkpt>
      <trkpt lat="43.52023" lon="6.647">
        <ele>275.4</ele>
        <time>2022-04-22T09:45:15Z</time>
      </trkpt>
      <trkpt lat="43.52023" lon="6.64704">
        <ele>275.3</ele>
        <time>2022-04-22T09:45:16Z</time>
      </trkpt>
      <trkpt lat="43.52023" lon="6.64706">
        <ele>275.2</ele>
        <time>2022-04-22T09:45:17Z</time>
      </trkpt>
      <trkpt lat="43.52024" lon="6.6471">
        <ele>275</ele>
        <time>2022-04-22T09:45:18Z</time>
      </trkpt>
      <trkpt lat="43.52024" lon="6.64712">
        <ele>275</ele>
        <time>2022-04-22T09:45:19Z</time>
      </trkpt>
      <trkpt lat="43.52025" lon="6.64716">
        <ele>274.8</ele>
        <time>2022-04-22T09:45:20Z</time>
      </trkpt>
      <trkpt lat="43.52025" lon="6.64717">
        <ele>274.8</ele>
        <time>2022-04-22T09:45:21Z</time>
      </trkpt>
      <trkpt lat="43.52026" lon="6.64721">
        <ele>274.6</ele>
        <time>2022-04-22T09:45:22Z</time>
      </trkpt>
      <trkpt lat="43.52026" lon="6.64723">
        <ele>274.6</ele>
        <time>2022-04-22T09:45:23Z</time>
      </trkpt>
      <trkpt lat="43.52026" lon="6.64725">
        <ele>274.5</ele>
        <time>2022-04-22T09:45:24Z</time>
      </trkpt>
      <trkpt lat="43.52026" lon="6.64728">
        <ele>274.4</ele>
        <time>2022-04-22T09:45:25Z</time>
      </trkpt>
      <trkpt lat="43.52027" lon="6.6473">
        <ele>274.3</ele>
        <time>2022-04-22T09:45:26Z</time>
      </trkpt>
      <trkpt lat="43.52027" lon="6.64732">
        <ele>274.2</ele>
        <time>2022-04-22T09:45:27Z</time>
      </trkpt>
      <trkpt lat="43.52027" lon="6.64735">
        <ele>274.1</ele>
        <time>2022-04-22T09:45:28Z</time>
      </trkpt>
      <trkpt lat="43.52027" lon="6.64737">
        <ele>274</ele>
        <time>2022-04-22T09:45:29Z</time>
      </trkpt>
      <trkpt lat="43.52028" lon="6.64739">
        <ele>274</ele>
        <time>2022-04-22T09:45:30Z</time>
      </trkpt>
      <trkpt lat="43.52028" lon="6.64742">
        <ele>273.9</ele>
        <time>2022-04-22T09:45:31Z</time>
      </trkpt>
      <trkpt lat="43.52028" lon="6.64744">
        <ele>273.8</ele>
        <time>2022-04-22T09:45:32Z</time>
      </trkpt>
      <trkpt lat="43.52029" lon="6.64746">
        <ele>273.7</ele>
        <time>2022-04-22T09:45:33Z</time>
      </trkpt>
      <trkpt lat="43.5203" lon="6.6475">
        <ele>273.6</ele>
        <time>2022-04-22T09:45:35Z</time>
      </trkpt>
      <trkpt lat="43.52031" lon="6.64752">
        <ele>273.5</ele>
        <time>2022-04-22T09:45:36Z</time>
      </trkpt>
      <trkpt lat="43.52031" lon="6.64754">
        <ele>273.4</ele>
        <time>2022-04-22T09:45:37Z</time>
      </trkpt>
      <trkpt lat="43.52032" lon="6.64755">
        <ele>273.4</ele>
        <time>2022-04-22T09:45:38Z</time>
      </trkpt>
      <trkpt lat="43.52032" lon="6.64757">
        <ele>273.3</ele>
        <time>2022-04-22T09:45:39Z</time>
      </trkpt>
      <trkpt lat="43.52033" lon="6.64761">
        <ele>273.2</ele>
        <time>2022-04-22T09:45:41Z</time>
      </trkpt>
      <trkpt lat="43.52034" lon="6.64762">
        <ele>273.1</ele>
        <time>2022-04-22T09:45:42Z</time>
      </trkpt>
      <trkpt lat="43.52034" lon="6.64763">
        <ele>273.1</ele>
        <time>2022-04-22T09:45:43Z</time>
      </trkpt>
      <trkpt lat="43.52035" lon="6.64765">
        <ele>273</ele>
        <time>2022-04-22T09:45:44Z</time>
      </trkpt>
      <trkpt lat="43.52036" lon="6.64767">
        <ele>272.9</ele>
        <time>2022-04-22T09:45:45Z</time>
      </trkpt>
      <trkpt lat="43.52036" lon="6.64769">
        <ele>272.9</ele>
        <time>2022-04-22T09:45:46Z</time>
      </trkpt>
      <trkpt lat="43.52037" lon="6.6477">
        <ele>272.8</ele>
        <time>2022-04-22T09:45:47Z</time>
      </trkpt>
      <trkpt lat="43.52037" lon="6.64771">
        <ele>272.8</ele>
        <time>2022-04-22T09:45:48Z</time>
      </trkpt>
      <trkpt lat="43.52038" lon="6.64774">
        <ele>272.7</ele>
        <time>2022-04-22T09:45:49Z</time>
      </trkpt>
      <trkpt lat="43.52039" lon="6.64776">
        <ele>272.6</ele>
        <time>2022-04-22T09:45:50Z</time>
      </trkpt>
      <trkpt lat="43.5204" lon="6.64777">
        <ele>272.5</ele>
        <time>2022-04-22T09:45:51Z</time>
      </trkpt>
      <trkpt lat="43.5204" lon="6.64778">
        <ele>272.5</ele>
        <time>2022-04-22T09:45:52Z</time>
      </trkpt>
      <trkpt lat="43.52041" lon="6.6478">
        <ele>272.4</ele>
        <time>2022-04-22T09:45:53Z</time>
      </trkpt>
      <trkpt lat="43.52041" lon="6.64782">
        <ele>272.3</ele>
        <time>2022-04-22T09:45:54Z</time>
      </trkpt>
      <trkpt lat="43.52042" lon="6.64784">
        <ele>272.3</ele>
        <time>2022-04-22T09:45:55Z</time>
      </trkpt>
      <trkpt lat="43.52043" lon="6.64786">
        <ele>272.2</ele>
        <time>2022-04-22T09:45:56Z</time>
      </trkpt>
      <trkpt lat="43.52044" lon="6.6479">
        <ele>272</ele>
        <time>2022-04-22T09:45:57Z</time>
      </trkpt>
      <trkpt lat="43.52045" lon="6.64791">
        <ele>272</ele>
        <time>2022-04-22T09:45:58Z</time>
      </trkpt>
      <trkpt lat="43.52046" lon="6.64795">
        <ele>271.8</ele>
        <time>2022-04-22T09:45:59Z</time>
      </trkpt>
      <trkpt lat="43.52047" lon="6.64797">
        <ele>271.7</ele>
        <time>2022-04-22T09:46:00Z</time>
      </trkpt>
      <trkpt lat="43.52048" lon="6.64799">
        <ele>271.6</ele>
        <time>2022-04-22T09:46:01Z</time>
      </trkpt>
      <trkpt lat="43.52049" lon="6.64801">
        <ele>271.5</ele>
        <time>2022-04-22T09:46:02Z</time>
      </trkpt>
      <trkpt lat="43.5205" lon="6.64803">
        <ele>271.4</ele>
        <time>2022-04-22T09:46:03Z</time>
      </trkpt>
      <trkpt lat="43.5205" lon="6.64805">
        <ele>271.3</ele>
        <time>2022-04-22T09:46:04Z</time>
      </trkpt>
      <trkpt lat="43.52052" lon="6.64808">
        <ele>271.1</ele>
        <time>2022-04-22T09:46:05Z</time>
      </trkpt>
      <trkpt lat="43.52052" lon="6.64809">
        <ele>271.1</ele>
        <time>2022-04-22T09:46:06Z</time>
      </trkpt>
      <trkpt lat="43.52053" lon="6.64813">
        <ele>270.9</ele>
        <time>2022-04-22T09:46:07Z</time>
      </trkpt>
      <trkpt lat="43.52054" lon="6.64815">
        <ele>270.8</ele>
        <time>2022-04-22T09:46:08Z</time>
      </trkpt>
      <trkpt lat="43.52055" lon="6.64817">
        <ele>270.7</ele>
        <time>2022-04-22T09:46:09Z</time>
      </trkpt>
      <trkpt lat="43.52055" lon="6.64819">
        <ele>270.6</ele>
        <time>2022-04-22T09:46:10Z</time>
      </trkpt>
      <trkpt lat="43.52056" lon="6.64821">
        <ele>270.4</ele>
        <time>2022-04-22T09:46:11Z</time>
      </trkpt>
      <trkpt lat="43.52057" lon="6.64823">
        <ele>270.3</ele>
        <time>2022-04-22T09:46:12Z</time>
      </trkpt>
      <trkpt lat="43.52058" lon="6.64825">
        <ele>270.2</ele>
        <time>2022-04-22T09:46:13Z</time>
      </trkpt>
      <trkpt lat="43.52059" lon="6.64828">
        <ele>270.1</ele>
        <time>2022-04-22T09:46:14Z</time>
      </trkpt>
      <trkpt lat="43.5206" lon="6.64829">
        <ele>270</ele>
        <time>2022-04-22T09:46:15Z</time>
      </trkpt>
      <trkpt lat="43.5206" lon="6.64831">
        <ele>269.9</ele>
        <time>2022-04-22T09:46:16Z</time>
      </trkpt>
      <trkpt lat="43.5206" lon="6.64832">
        <ele>269.8</ele>
        <time>2022-04-22T09:46:17Z</time>
      </trkpt>
      <trkpt lat="43.52061" lon="6.64833">
        <ele>269.8</ele>
        <time>2022-04-22T09:46:18Z</time>
      </trkpt>
      <trkpt lat="43.52061" lon="6.64834">
        <ele>269.8</ele>
        <time>2022-04-22T09:46:19Z</time>
      </trkpt>
      <trkpt lat="43.52061" lon="6.64835">
        <ele>269.7</ele>
        <time>2022-04-22T09:46:20Z</time>
      </trkpt>
      <trkpt lat="43.52062" lon="6.64836">
        <ele>269.7</ele>
        <time>2022-04-22T09:46:21Z</time>
      </trkpt>
      <trkpt lat="43.52062" lon="6.64837">
        <ele>269.6</ele>
        <time>2022-04-22T09:46:22Z</time>
      </trkpt>
      <trkpt lat="43.52062" lon="6.64838">
        <ele>269.5</ele>
        <time>2022-04-22T09:46:23Z</time>
      </trkpt>
      <trkpt lat="43.52063" lon="6.64839">
        <ele>269.4</ele>
        <time>2022-04-22T09:46:24Z</time>
      </trkpt>
      <trkpt lat="43.52064" lon="6.64841">
        <ele>269.3</ele>
        <time>2022-04-22T09:46:25Z</time>
      </trkpt>
      <trkpt lat="43.52064" lon="6.64842">
        <ele>269.3</ele>
        <time>2022-04-22T09:46:26Z</time>
      </trkpt>
      <trkpt lat="43.52065" lon="6.64843">
        <ele>269.2</ele>
        <time>2022-04-22T09:46:27Z</time>
      </trkpt>
      <trkpt lat="43.52065" lon="6.64844">
        <ele>269.2</ele>
        <time>2022-04-22T09:46:28Z</time>
      </trkpt>
      <trkpt lat="43.52066" lon="6.64845">
        <ele>269.1</ele>
        <time>2022-04-22T09:46:29Z</time>
      </trkpt>
      <trkpt lat="43.52067" lon="6.64847">
        <ele>269</ele>
        <time>2022-04-22T09:46:30Z</time>
      </trkpt>
      <trkpt lat="43.52067" lon="6.64849">
        <ele>268.9</ele>
        <time>2022-04-22T09:46:31Z</time>
      </trkpt>
      <trkpt lat="43.52068" lon="6.64851">
        <ele>268.8</ele>
        <time>2022-04-22T09:46:32Z</time>
      </trkpt>
      <trkpt lat="43.52069" lon="6.64853">
        <ele>268.7</ele>
        <time>2022-04-22T09:46:33Z</time>
      </trkpt>
      <trkpt lat="43.5207" lon="6.64857">
        <ele>268.5</ele>
        <time>2022-04-22T09:46:35Z</time>
      </trkpt>
      <trkpt lat="43.52071" lon="6.6486">
        <ele>268.3</ele>
        <time>2022-04-22T09:46:36Z</time>
      </trkpt>
      <trkpt lat="43.52072" lon="6.64862">
        <ele>268.3</ele>
        <time>2022-04-22T09:46:37Z</time>
      </trkpt>
      <trkpt lat="43.52072" lon="6.64863">
        <ele>268.2</ele>
        <time>2022-04-22T09:46:38Z</time>
      </trkpt>
      <trkpt lat="43.52073" lon="6.64865">
        <ele>268.1</ele>
        <time>2022-04-22T09:46:39Z</time>
      </trkpt>
      <trkpt lat="43.52074" lon="6.64868">
        <ele>268</ele>
        <time>2022-04-22T09:46:40Z</time>
      </trkpt>
      <trkpt lat="43.52075" lon="6.64872">
        <ele>267.8</ele>
        <time>2022-04-22T09:46:42Z</time>
      </trkpt>
      <trkpt lat="43.52076" lon="6.64874">
        <ele>267.7</ele>
        <time>2022-04-22T09:46:43Z</time>
      </trkpt>
      <trkpt lat="43.52077" lon="6.64876">
        <ele>267.6</ele>
        <time>2022-04-22T09:46:44Z</time>
      </trkpt>
      <trkpt lat="43.52078" lon="6.64881">
        <ele>267.3</ele>
        <time>2022-04-22T09:46:45Z</time>
      </trkpt>
      <trkpt lat="43.52079" lon="6.64882">
        <ele>267.3</ele>
        <time>2022-04-22T09:46:46Z</time>
      </trkpt>
      <trkpt lat="43.5208" lon="6.64887">
        <ele>267.1</ele>
        <time>2022-04-22T09:46:47Z</time>
      </trkpt>
      <trkpt lat="43.52081" lon="6.64889">
        <ele>267</ele>
        <time>2022-04-22T09:46:48Z</time>
      </trkpt>
      <trkpt lat="43.52081" lon="6.64891">
        <ele>266.9</ele>
        <time>2022-04-22T09:46:49Z</time>
      </trkpt>
      <trkpt lat="43.52081" lon="6.64893">
        <ele>266.8</ele>
        <time>2022-04-22T09:46:50Z</time>
      </trkpt>
      <trkpt lat="43.52082" lon="6.64895">
        <ele>266.7</ele>
        <time>2022-04-22T09:46:51Z</time>
      </trkpt>
      <trkpt lat="43.52083" lon="6.64897">
        <ele>266.6</ele>
        <time>2022-04-22T09:46:53Z</time>
      </trkpt>
      <trkpt lat="43.52084" lon="6.64899">
        <ele>266.5</ele>
        <time>2022-04-22T09:46:54Z</time>
      </trkpt>
      <trkpt lat="43.52084" lon="6.64901">
        <ele>266.4</ele>
        <time>2022-04-22T09:46:55Z</time>
      </trkpt>
      <trkpt lat="43.52084" lon="6.64902">
        <ele>266.4</ele>
        <time>2022-04-22T09:46:56Z</time>
      </trkpt>
      <trkpt lat="43.52084" lon="6.64906">
        <ele>266.2</ele>
        <time>2022-04-22T09:46:58Z</time>
      </trkpt>
      <trkpt lat="43.52084" lon="6.64908">
        <ele>266.1</ele>
        <time>2022-04-22T09:46:59Z</time>
      </trkpt>
      <trkpt lat="43.52085" lon="6.6491">
        <ele>266.1</ele>
        <time>2022-04-22T09:47:00Z</time>
      </trkpt>
      <trkpt lat="43.52085" lon="6.64911">
        <ele>266</ele>
        <time>2022-04-22T09:47:01Z</time>
      </trkpt>
      <trkpt lat="43.52086" lon="6.64913">
        <ele>265.9</ele>
        <time>2022-04-22T09:47:02Z</time>
      </trkpt>
      <trkpt lat="43.52086" lon="6.64914">
        <ele>265.9</ele>
        <time>2022-04-22T09:47:03Z</time>
      </trkpt>
      <trkpt lat="43.52086" lon="6.64916">
        <ele>265.8</ele>
        <time>2022-04-22T09:47:04Z</time>
      </trkpt>
      <trkpt lat="43.52088" lon="6.64919">
        <ele>265.7</ele>
        <time>2022-04-22T09:47:05Z</time>
      </trkpt>
      <trkpt lat="43.52089" lon="6.6492">
        <ele>265.6</ele>
        <time>2022-04-22T09:47:07Z</time>
      </trkpt>
      <trkpt lat="43.5209" lon="6.64921">
        <ele>265.5</ele>
        <time>2022-04-22T09:47:08Z</time>
      </trkpt>
      <trkpt lat="43.52092" lon="6.64923">
        <ele>265.4</ele>
        <time>2022-04-22T09:47:09Z</time>
      </trkpt>
      <trkpt lat="43.52094" lon="6.64924">
        <ele>265.2</ele>
        <time>2022-04-22T09:47:10Z</time>
      </trkpt>
      <trkpt lat="43.52095" lon="6.64924">
        <ele>265.2</ele>
        <time>2022-04-22T09:47:11Z</time>
      </trkpt>
      <trkpt lat="43.52098" lon="6.64925">
        <ele>265</ele>
        <time>2022-04-22T09:47:12Z</time>
      </trkpt>
      <trkpt lat="43.52099" lon="6.64925">
        <ele>264.9</ele>
        <time>2022-04-22T09:47:13Z</time>
      </trkpt>
      <trkpt lat="43.521" lon="6.64926">
        <ele>264.8</ele>
        <time>2022-04-22T09:47:14Z</time>
      </trkpt>
      <trkpt lat="43.52102" lon="6.64926">
        <ele>264.7</ele>
        <time>2022-04-22T09:47:15Z</time>
      </trkpt>
      <trkpt lat="43.52104" lon="6.64927">
        <ele>264.6</ele>
        <time>2022-04-22T09:47:16Z</time>
      </trkpt>
      <trkpt lat="43.52106" lon="6.64927">
        <ele>264.5</ele>
        <time>2022-04-22T09:47:17Z</time>
      </trkpt>
      <trkpt lat="43.52107" lon="6.64926">
        <ele>264.4</ele>
        <time>2022-04-22T09:47:18Z</time>
      </trkpt>
      <trkpt lat="43.52109" lon="6.64926">
        <ele>264.3</ele>
        <time>2022-04-22T09:47:19Z</time>
      </trkpt>
      <trkpt lat="43.5211" lon="6.64924">
        <ele>264.2</ele>
        <time>2022-04-22T09:47:20Z</time>
      </trkpt>
      <trkpt lat="43.52112" lon="6.64924">
        <ele>264.1</ele>
        <time>2022-04-22T09:47:21Z</time>
      </trkpt>
      <trkpt lat="43.52114" lon="6.64922">
        <ele>263.9</ele>
        <time>2022-04-22T09:47:22Z</time>
      </trkpt>
      <trkpt lat="43.52115" lon="6.64921">
        <ele>263.8</ele>
        <time>2022-04-22T09:47:23Z</time>
      </trkpt>
      <trkpt lat="43.52116" lon="6.6492">
        <ele>263.7</ele>
        <time>2022-04-22T09:47:24Z</time>
      </trkpt>
      <trkpt lat="43.52119" lon="6.64918">
        <ele>263.5</ele>
        <time>2022-04-22T09:47:26Z</time>
      </trkpt>
      <trkpt lat="43.5212" lon="6.64917">
        <ele>263.4</ele>
        <time>2022-04-22T09:47:27Z</time>
      </trkpt>
      <trkpt lat="43.52121" lon="6.64916">
        <ele>263.3</ele>
        <time>2022-04-22T09:47:28Z</time>
      </trkpt>
      <trkpt lat="43.52123" lon="6.64916">
        <ele>263.3</ele>
        <time>2022-04-22T09:47:29Z</time>
      </trkpt>
      <trkpt lat="43.52125" lon="6.64915">
        <ele>263.1</ele>
        <time>2022-04-22T09:47:30Z</time>
      </trkpt>
      <trkpt lat="43.52126" lon="6.64913">
        <ele>263</ele>
        <time>2022-04-22T09:47:32Z</time>
      </trkpt>
      <trkpt lat="43.52127" lon="6.64912">
        <ele>262.9</ele>
        <time>2022-04-22T09:47:33Z</time>
      </trkpt>
      <trkpt lat="43.52129" lon="6.64909">
        <ele>262.8</ele>
        <time>2022-04-22T09:47:34Z</time>
      </trkpt>
      <trkpt lat="43.5213" lon="6.64908">
        <ele>262.7</ele>
        <time>2022-04-22T09:47:35Z</time>
      </trkpt>
      <trkpt lat="43.52132" lon="6.64905">
        <ele>262.5</ele>
        <time>2022-04-22T09:47:37Z</time>
      </trkpt>
      <trkpt lat="43.52132" lon="6.64904">
        <ele>262.5</ele>
        <time>2022-04-22T09:47:38Z</time>
      </trkpt>
      <trkpt lat="43.52133" lon="6.64904">
        <ele>262.5</ele>
        <time>2022-04-22T09:47:39Z</time>
      </trkpt>
      <trkpt lat="43.52134" lon="6.64901">
        <ele>262.3</ele>
        <time>2022-04-22T09:47:40Z</time>
      </trkpt>
      <trkpt lat="43.52135" lon="6.64901">
        <ele>262.3</ele>
        <time>2022-04-22T09:47:41Z</time>
      </trkpt>
      <trkpt lat="43.52135" lon="6.649">
        <ele>262.2</ele>
        <time>2022-04-22T09:47:42Z</time>
      </trkpt>
      <trkpt lat="43.52137" lon="6.64898">
        <ele>262.1</ele>
        <time>2022-04-22T09:47:43Z</time>
      </trkpt>
      <trkpt lat="43.52138" lon="6.64897">
        <ele>262</ele>
        <time>2022-04-22T09:47:44Z</time>
      </trkpt>
      <trkpt lat="43.52139" lon="6.64896">
        <ele>261.9</ele>
        <time>2022-04-22T09:47:45Z</time>
      </trkpt>
      <trkpt lat="43.5214" lon="6.64894">
        <ele>261.8</ele>
        <time>2022-04-22T09:47:46Z</time>
      </trkpt>
      <trkpt lat="43.52141" lon="6.64894">
        <ele>261.7</ele>
        <time>2022-04-22T09:47:47Z</time>
      </trkpt>
      <trkpt lat="43.52143" lon="6.64893">
        <ele>261.6</ele>
        <time>2022-04-22T09:47:48Z</time>
      </trkpt>
      <trkpt lat="43.52144" lon="6.64892">
        <ele>261.5</ele>
        <time>2022-04-22T09:47:49Z</time>
      </trkpt>
      <trkpt lat="43.52146" lon="6.64891">
        <ele>261.3</ele>
        <time>2022-04-22T09:47:50Z</time>
      </trkpt>
      <trkpt lat="43.52148" lon="6.64891">
        <ele>261.2</ele>
        <time>2022-04-22T09:47:51Z</time>
      </trkpt>
      <trkpt lat="43.52149" lon="6.64891">
        <ele>261.1</ele>
        <time>2022-04-22T09:47:52Z</time>
      </trkpt>
      <trkpt lat="43.52152" lon="6.64892">
        <ele>260.9</ele>
        <time>2022-04-22T09:47:54Z</time>
      </trkpt>
      <trkpt lat="43.52154" lon="6.64894">
        <ele>260.6</ele>
        <time>2022-04-22T09:47:55Z</time>
      </trkpt>
      <trkpt lat="43.52155" lon="6.64895">
        <ele>260.5</ele>
        <time>2022-04-22T09:47:56Z</time>
      </trkpt>
      <trkpt lat="43.52157" lon="6.64897">
        <ele>260.4</ele>
        <time>2022-04-22T09:47:57Z</time>
      </trkpt>
      <trkpt lat="43.52157" lon="6.64899">
        <ele>260.3</ele>
        <time>2022-04-22T09:47:58Z</time>
      </trkpt>
      <trkpt lat="43.52157" lon="6.64901">
        <ele>260.2</ele>
        <time>2022-04-22T09:47:59Z</time>
      </trkpt>
      <trkpt lat="43.52158" lon="6.64903">
        <ele>260</ele>
        <time>2022-04-22T09:48:00Z</time>
      </trkpt>
      <trkpt lat="43.52158" lon="6.64908">
        <ele>259.6</ele>
        <time>2022-04-22T09:48:02Z</time>
      </trkpt>
      <trkpt lat="43.52157" lon="6.64909">
        <ele>259.5</ele>
        <time>2022-04-22T09:48:03Z</time>
      </trkpt>
      <trkpt lat="43.52157" lon="6.64911">
        <ele>259.3</ele>
        <time>2022-04-22T09:48:04Z</time>
      </trkpt>
      <trkpt lat="43.52156" lon="6.64914">
        <ele>259.1</ele>
        <time>2022-04-22T09:48:05Z</time>
      </trkpt>
      <trkpt lat="43.52156" lon="6.64915">
        <ele>258.9</ele>
        <time>2022-04-22T09:48:06Z</time>
      </trkpt>
      <trkpt lat="43.52155" lon="6.64917">
        <ele>258.8</ele>
        <time>2022-04-22T09:48:07Z</time>
      </trkpt>
      <trkpt lat="43.52153" lon="6.64921">
        <ele>258.3</ele>
        <time>2022-04-22T09:48:08Z</time>
      </trkpt>
      <trkpt lat="43.52152" lon="6.64922">
        <ele>258.2</ele>
        <time>2022-04-22T09:48:09Z</time>
      </trkpt>
      <trkpt lat="43.52151" lon="6.64923">
        <ele>258.1</ele>
        <time>2022-04-22T09:48:10Z</time>
      </trkpt>
      <trkpt lat="43.5215" lon="6.64925">
        <ele>257.9</ele>
        <time>2022-04-22T09:48:11Z</time>
      </trkpt>
      <trkpt lat="43.52149" lon="6.64927">
        <ele>257.7</ele>
        <time>2022-04-22T09:48:12Z</time>
      </trkpt>
      <trkpt lat="43.52148" lon="6.64928">
        <ele>257.5</ele>
        <time>2022-04-22T09:48:13Z</time>
      </trkpt>
      <trkpt lat="43.52146" lon="6.64929">
        <ele>257.3</ele>
        <time>2022-04-22T09:48:14Z</time>
      </trkpt>
      <trkpt lat="43.52145" lon="6.6493">
        <ele>257.2</ele>
        <time>2022-04-22T09:48:15Z</time>
      </trkpt>
      <trkpt lat="43.52144" lon="6.64931">
        <ele>257</ele>
        <time>2022-04-22T09:48:16Z</time>
      </trkpt>
      <trkpt lat="43.52143" lon="6.64933">
        <ele>256.9</ele>
        <time>2022-04-22T09:48:17Z</time>
      </trkpt>
      <trkpt lat="43.52141" lon="6.64936">
        <ele>256.5</ele>
        <time>2022-04-22T09:48:19Z</time>
      </trkpt>
      <trkpt lat="43.5214" lon="6.64938">
        <ele>256.3</ele>
        <time>2022-04-22T09:48:20Z</time>
      </trkpt>
      <trkpt lat="43.52139" lon="6.64939">
        <ele>256.2</ele>
        <time>2022-04-22T09:48:21Z</time>
      </trkpt>
      <trkpt lat="43.52138" lon="6.64941">
        <ele>256</ele>
        <time>2022-04-22T09:48:23Z</time>
      </trkpt>
      <trkpt lat="43.52136" lon="6.64943">
        <ele>255.7</ele>
        <time>2022-04-22T09:48:24Z</time>
      </trkpt>
      <trkpt lat="43.52136" lon="6.64944">
        <ele>255.7</ele>
        <time>2022-04-22T09:48:25Z</time>
      </trkpt>
      <trkpt lat="43.52135" lon="6.64945">
        <ele>255.6</ele>
        <time>2022-04-22T09:48:26Z</time>
      </trkpt>
      <trkpt lat="43.52134" lon="6.64946">
        <ele>255.5</ele>
        <time>2022-04-22T09:48:27Z</time>
      </trkpt>
      <trkpt lat="43.52133" lon="6.64947">
        <ele>255.3</ele>
        <time>2022-04-22T09:48:28Z</time>
      </trkpt>
      <trkpt lat="43.5213" lon="6.6495">
        <ele>254.9</ele>
        <time>2022-04-22T09:48:30Z</time>
      </trkpt>
      <trkpt lat="43.52128" lon="6.64953">
        <ele>254.6</ele>
        <time>2022-04-22T09:48:31Z</time>
      </trkpt>
      <trkpt lat="43.52126" lon="6.64955">
        <ele>254.4</ele>
        <time>2022-04-22T09:48:32Z</time>
      </trkpt>
      <trkpt lat="43.52125" lon="6.64956">
        <ele>254.3</ele>
        <time>2022-04-22T09:48:33Z</time>
      </trkpt>
      <trkpt lat="43.52123" lon="6.64959">
        <ele>254</ele>
        <time>2022-04-22T09:48:34Z</time>
      </trkpt>
      <trkpt lat="43.52122" lon="6.6496">
        <ele>253.9</ele>
        <time>2022-04-22T09:48:35Z</time>
      </trkpt>
      <trkpt lat="43.52121" lon="6.64961">
        <ele>253.8</ele>
        <time>2022-04-22T09:48:36Z</time>
      </trkpt>
      <trkpt lat="43.5212" lon="6.64963">
        <ele>253.6</ele>
        <time>2022-04-22T09:48:37Z</time>
      </trkpt>
      <trkpt lat="43.52119" lon="6.64965">
        <ele>253.4</ele>
        <time>2022-04-22T09:48:38Z</time>
      </trkpt>
      <trkpt lat="43.52118" lon="6.64966">
        <ele>253.3</ele>
        <time>2022-04-22T09:48:40Z</time>
      </trkpt>
      <trkpt lat="43.52117" lon="6.64967">
        <ele>253.2</ele>
        <time>2022-04-22T09:48:41Z</time>
      </trkpt>
      <trkpt lat="43.52116" lon="6.64968">
        <ele>253.1</ele>
        <time>2022-04-22T09:48:42Z</time>
      </trkpt>
      <trkpt lat="43.52116" lon="6.64969">
        <ele>253</ele>
        <time>2022-04-22T09:48:43Z</time>
      </trkpt>
      <trkpt lat="43.52115" lon="6.64969">
        <ele>253</ele>
        <time>2022-04-22T09:48:44Z</time>
      </trkpt>
      <trkpt lat="43.52114" lon="6.64969">
        <ele>252.9</ele>
        <time>2022-04-22T09:48:45Z</time>
      </trkpt>
      <trkpt lat="43.52113" lon="6.64969">
        <ele>252.8</ele>
        <time>2022-04-22T09:48:46Z</time>
      </trkpt>
      <trkpt lat="43.52112" lon="6.64969">
        <ele>252.7</ele>
        <time>2022-04-22T09:48:47Z</time>
      </trkpt>
      <trkpt lat="43.5211" lon="6.6497">
        <ele>252.5</ele>
        <time>2022-04-22T09:48:48Z</time>
      </trkpt>
      <trkpt lat="43.52109" lon="6.64971">
        <ele>252.3</ele>
        <time>2022-04-22T09:48:49Z</time>
      </trkpt>
      <trkpt lat="43.52108" lon="6.64972">
        <ele>252.2</ele>
        <time>2022-04-22T09:48:50Z</time>
      </trkpt>
      <trkpt lat="43.52106" lon="6.64973">
        <ele>252</ele>
        <time>2022-04-22T09:48:51Z</time>
      </trkpt>
      <trkpt lat="43.52105" lon="6.64973">
        <ele>251.9</ele>
        <time>2022-04-22T09:48:53Z</time>
      </trkpt>
      <trkpt lat="43.52104" lon="6.64974">
        <ele>251.8</ele>
        <time>2022-04-22T09:48:54Z</time>
      </trkpt>
      <trkpt lat="43.52103" lon="6.64974">
        <ele>251.6</ele>
        <time>2022-04-22T09:48:55Z</time>
      </trkpt>
      <trkpt lat="43.52101" lon="6.64975">
        <ele>251.4</ele>
        <time>2022-04-22T09:48:56Z</time>
      </trkpt>
      <trkpt lat="43.52097" lon="6.64977">
        <ele>251</ele>
        <time>2022-04-22T09:48:57Z</time>
      </trkpt>
      <trkpt lat="43.52095" lon="6.64978">
        <ele>250.7</ele>
        <time>2022-04-22T09:48:58Z</time>
      </trkpt>
      <trkpt lat="43.52094" lon="6.64978">
        <ele>250.6</ele>
        <time>2022-04-22T09:48:59Z</time>
      </trkpt>
      <trkpt lat="43.52091" lon="6.64979">
        <ele>250.3</ele>
        <time>2022-04-22T09:49:00Z</time>
      </trkpt>
      <trkpt lat="43.5209" lon="6.64979">
        <ele>250.2</ele>
        <time>2022-04-22T09:49:01Z</time>
      </trkpt>
      <trkpt lat="43.52088" lon="6.64979">
        <ele>250</ele>
        <time>2022-04-22T09:49:02Z</time>
      </trkpt>
      <trkpt lat="43.52086" lon="6.6498">
        <ele>249.8</ele>
        <time>2022-04-22T09:49:04Z</time>
      </trkpt>
      <trkpt lat="43.52083" lon="6.64981">
        <ele>249.6</ele>
        <time>2022-04-22T09:49:05Z</time>
      </trkpt>
      <trkpt lat="43.5208" lon="6.64982">
        <ele>249.3</ele>
        <time>2022-04-22T09:49:07Z</time>
      </trkpt>
      <trkpt lat="43.52079" lon="6.64983">
        <ele>249.1</ele>
        <time>2022-04-22T09:49:08Z</time>
      </trkpt>
      <trkpt lat="43.52077" lon="6.64983">
        <ele>248.9</ele>
        <time>2022-04-22T09:49:09Z</time>
      </trkpt>
      <trkpt lat="43.52075" lon="6.64983">
        <ele>248.8</ele>
        <time>2022-04-22T09:49:10Z</time>
      </trkpt>
      <trkpt lat="43.52074" lon="6.64983">
        <ele>248.6</ele>
        <time>2022-04-22T09:49:11Z</time>
      </trkpt>
      <trkpt lat="43.52072" lon="6.64984">
        <ele>248.5</ele>
        <time>2022-04-22T09:49:12Z</time>
      </trkpt>
      <trkpt lat="43.52071" lon="6.64984">
        <ele>248.3</ele>
        <time>2022-04-22T09:49:13Z</time>
      </trkpt>
      <trkpt lat="43.52069" lon="6.64984">
        <ele>248.2</ele>
        <time>2022-04-22T09:49:14Z</time>
      </trkpt>
      <trkpt lat="43.52068" lon="6.64985">
        <ele>248.1</ele>
        <time>2022-04-22T09:49:15Z</time>
      </trkpt>
      <trkpt lat="43.52066" lon="6.64985">
        <ele>247.9</ele>
        <time>2022-04-22T09:49:16Z</time>
      </trkpt>
      <trkpt lat="43.52063" lon="6.64985">
        <ele>247.6</ele>
        <time>2022-04-22T09:49:18Z</time>
      </trkpt>
      <trkpt lat="43.52062" lon="6.64986">
        <ele>247.5</ele>
        <time>2022-04-22T09:49:19Z</time>
      </trkpt>
      <trkpt lat="43.52061" lon="6.64986">
        <ele>247.4</ele>
        <time>2022-04-22T09:49:20Z</time>
      </trkpt>
      <trkpt lat="43.5206" lon="6.64987">
        <ele>247.4</ele>
        <time>2022-04-22T09:49:21Z</time>
      </trkpt>
      <trkpt lat="43.52059" lon="6.64988">
        <ele>247.3</ele>
        <time>2022-04-22T09:49:23Z</time>
      </trkpt>
      <trkpt lat="43.52058" lon="6.64989">
        <ele>247.2</ele>
        <time>2022-04-22T09:49:24Z</time>
      </trkpt>
      <trkpt lat="43.52056" lon="6.6499">
        <ele>247</ele>
        <time>2022-04-22T09:49:25Z</time>
      </trkpt>
      <trkpt lat="43.52055" lon="6.64991">
        <ele>247</ele>
        <time>2022-04-22T09:49:26Z</time>
      </trkpt>
      <trkpt lat="43.52054" lon="6.64991">
        <ele>246.9</ele>
        <time>2022-04-22T09:49:27Z</time>
      </trkpt>
      <trkpt lat="43.52053" lon="6.64992">
        <ele>246.9</ele>
        <time>2022-04-22T09:49:28Z</time>
      </trkpt>
      <trkpt lat="43.52051" lon="6.64993">
        <ele>246.8</ele>
        <time>2022-04-22T09:49:29Z</time>
      </trkpt>
      <trkpt lat="43.52048" lon="6.64994">
        <ele>246.6</ele>
        <time>2022-04-22T09:49:30Z</time>
      </trkpt>
      <trkpt lat="43.52047" lon="6.64995">
        <ele>246.5</ele>
        <time>2022-04-22T09:49:31Z</time>
      </trkpt>
      <trkpt lat="43.52046" lon="6.64996">
        <ele>246.4</ele>
        <time>2022-04-22T09:49:32Z</time>
      </trkpt>
      <trkpt lat="43.52044" lon="6.64996">
        <ele>246.3</ele>
        <time>2022-04-22T09:49:33Z</time>
      </trkpt>
      <trkpt lat="43.52042" lon="6.64997">
        <ele>246.2</ele>
        <time>2022-04-22T09:49:34Z</time>
      </trkpt>
      <trkpt lat="43.52041" lon="6.64997">
        <ele>246.1</ele>
        <time>2022-04-22T09:49:35Z</time>
      </trkpt>
      <trkpt lat="43.52038" lon="6.64999">
        <ele>245.9</ele>
        <time>2022-04-22T09:49:37Z</time>
      </trkpt>
      <trkpt lat="43.52036" lon="6.65">
        <ele>245.8</ele>
        <time>2022-04-22T09:49:38Z</time>
      </trkpt>
      <trkpt lat="43.52035" lon="6.65002">
        <ele>245.7</ele>
        <time>2022-04-22T09:49:39Z</time>
      </trkpt>
      <trkpt lat="43.52033" lon="6.65004">
        <ele>245.5</ele>
        <time>2022-04-22T09:49:41Z</time>
      </trkpt>
      <trkpt lat="43.52032" lon="6.65004">
        <ele>245.5</ele>
        <time>2022-04-22T09:49:42Z</time>
      </trkpt>
      <trkpt lat="43.52031" lon="6.65006">
        <ele>245.4</ele>
        <time>2022-04-22T09:49:43Z</time>
      </trkpt>
      <trkpt lat="43.52028" lon="6.65009">
        <ele>245.2</ele>
        <time>2022-04-22T09:49:45Z</time>
      </trkpt>
      <trkpt lat="43.52028" lon="6.6501">
        <ele>245.1</ele>
        <time>2022-04-22T09:49:46Z</time>
      </trkpt>
      <trkpt lat="43.52026" lon="6.65012">
        <ele>245</ele>
        <time>2022-04-22T09:49:48Z</time>
      </trkpt>
      <trkpt lat="43.52025" lon="6.65013">
        <ele>244.9</ele>
        <time>2022-04-22T09:49:49Z</time>
      </trkpt>
      <trkpt lat="43.52024" lon="6.65015">
        <ele>244.8</ele>
        <time>2022-04-22T09:49:50Z</time>
      </trkpt>
      <trkpt lat="43.52022" lon="6.65018">
        <ele>244.7</ele>
        <time>2022-04-22T09:49:51Z</time>
      </trkpt>
      <trkpt lat="43.52019" lon="6.65021">
        <ele>244.5</ele>
        <time>2022-04-22T09:49:53Z</time>
      </trkpt>
      <trkpt lat="43.52018" lon="6.65024">
        <ele>244.3</ele>
        <time>2022-04-22T09:49:54Z</time>
      </trkpt>
      <trkpt lat="43.52017" lon="6.65025">
        <ele>244.2</ele>
        <time>2022-04-22T09:49:55Z</time>
      </trkpt>
      <trkpt lat="43.52016" lon="6.65026">
        <ele>244.2</ele>
        <time>2022-04-22T09:49:56Z</time>
      </trkpt>
      <trkpt lat="43.52015" lon="6.65027">
        <ele>244.1</ele>
        <time>2022-04-22T09:49:57Z</time>
      </trkpt>
      <trkpt lat="43.52014" lon="6.65029">
        <ele>244</ele>
        <time>2022-04-22T09:49:58Z</time>
      </trkpt>
      <trkpt lat="43.52012" lon="6.6503">
        <ele>243.9</ele>
        <time>2022-04-22T09:49:59Z</time>
      </trkpt>
      <trkpt lat="43.5201" lon="6.65033">
        <ele>243.7</ele>
        <time>2022-04-22T09:50:01Z</time>
      </trkpt>
      <trkpt lat="43.52009" lon="6.65034">
        <ele>243.6</ele>
        <time>2022-04-22T09:50:02Z</time>
      </trkpt>
      <trkpt lat="43.52008" lon="6.65035">
        <ele>243.5</ele>
        <time>2022-04-22T09:50:03Z</time>
      </trkpt>
      <trkpt lat="43.52007" lon="6.65037">
        <ele>243.4</ele>
        <time>2022-04-22T09:50:04Z</time>
      </trkpt>
      <trkpt lat="43.52007" lon="6.65039">
        <ele>243.3</ele>
        <time>2022-04-22T09:50:05Z</time>
      </trkpt>
      <trkpt lat="43.52005" lon="6.6504">
        <ele>243.2</ele>
        <time>2022-04-22T09:50:06Z</time>
      </trkpt>
      <trkpt lat="43.52004" lon="6.65041">
        <ele>243.1</ele>
        <time>2022-04-22T09:50:07Z</time>
      </trkpt>
      <trkpt lat="43.52003" lon="6.65041">
        <ele>243</ele>
        <time>2022-04-22T09:50:08Z</time>
      </trkpt>
      <trkpt lat="43.52001" lon="6.65041">
        <ele>242.9</ele>
        <time>2022-04-22T09:50:09Z</time>
      </trkpt>
      <trkpt lat="43.51998" lon="6.65043">
        <ele>242.7</ele>
        <time>2022-04-22T09:50:10Z</time>
      </trkpt>
      <trkpt lat="43.51997" lon="6.65043">
        <ele>242.7</ele>
        <time>2022-04-22T09:50:11Z</time>
      </trkpt>
      <trkpt lat="43.51995" lon="6.65045">
        <ele>242.5</ele>
        <time>2022-04-22T09:50:12Z</time>
      </trkpt>
      <trkpt lat="43.51994" lon="6.65046">
        <ele>242.4</ele>
        <time>2022-04-22T09:50:13Z</time>
      </trkpt>
      <trkpt lat="43.51991" lon="6.65047">
        <ele>242.2</ele>
        <time>2022-04-22T09:50:14Z</time>
      </trkpt>
      <trkpt lat="43.5199" lon="6.65048">
        <ele>242.1</ele>
        <time>2022-04-22T09:50:15Z</time>
      </trkpt>
      <trkpt lat="43.51987" lon="6.6505">
        <ele>241.9</ele>
        <time>2022-04-22T09:50:16Z</time>
      </trkpt>
      <trkpt lat="43.51987" lon="6.6505">
        <ele>241.8</ele>
        <time>2022-04-22T09:50:17Z</time>
      </trkpt>
      <trkpt lat="43.51984" lon="6.65052">
        <ele>241.6</ele>
        <time>2022-04-22T09:50:18Z</time>
      </trkpt>
      <trkpt lat="43.51983" lon="6.65052">
        <ele>241.5</ele>
        <time>2022-04-22T09:50:19Z</time>
      </trkpt>
      <trkpt lat="43.5198" lon="6.65054">
        <ele>241.3</ele>
        <time>2022-04-22T09:50:20Z</time>
      </trkpt>
      <trkpt lat="43.51979" lon="6.65054">
        <ele>241.2</ele>
        <time>2022-04-22T09:50:21Z</time>
      </trkpt>
      <trkpt lat="43.51976" lon="6.65055">
        <ele>241</ele>
        <time>2022-04-22T09:50:22Z</time>
      </trkpt>
      <trkpt lat="43.51975" lon="6.65055">
        <ele>240.9</ele>
        <time>2022-04-22T09:50:23Z</time>
      </trkpt>
      <trkpt lat="43.51972" lon="6.65055">
        <ele>240.7</ele>
        <time>2022-04-22T09:50:24Z</time>
      </trkpt>
      <trkpt lat="43.51971" lon="6.65055">
        <ele>240.7</ele>
        <time>2022-04-22T09:50:25Z</time>
      </trkpt>
      <trkpt lat="43.51968" lon="6.65055">
        <ele>240.4</ele>
        <time>2022-04-22T09:50:26Z</time>
      </trkpt>
      <trkpt lat="43.51967" lon="6.65055">
        <ele>240.4</ele>
        <time>2022-04-22T09:50:27Z</time>
      </trkpt>
      <trkpt lat="43.51966" lon="6.65055">
        <ele>240.2</ele>
        <time>2022-04-22T09:50:28Z</time>
      </trkpt>
      <trkpt lat="43.51963" lon="6.65056">
        <ele>240</ele>
        <time>2022-04-22T09:50:30Z</time>
      </trkpt>
      <trkpt lat="43.51961" lon="6.65057">
        <ele>239.9</ele>
        <time>2022-04-22T09:50:31Z</time>
      </trkpt>
      <trkpt lat="43.5196" lon="6.65057">
        <ele>239.8</ele>
        <time>2022-04-22T09:50:32Z</time>
      </trkpt>
      <trkpt lat="43.51958" lon="6.65057">
        <ele>239.6</ele>
        <time>2022-04-22T09:50:33Z</time>
      </trkpt>
      <trkpt lat="43.51957" lon="6.65057">
        <ele>239.5</ele>
        <time>2022-04-22T09:50:34Z</time>
      </trkpt>
      <trkpt lat="43.51955" lon="6.65057">
        <ele>239.4</ele>
        <time>2022-04-22T09:50:35Z</time>
      </trkpt>
      <trkpt lat="43.51954" lon="6.65057">
        <ele>239.3</ele>
        <time>2022-04-22T09:50:36Z</time>
      </trkpt>
      <trkpt lat="43.51952" lon="6.65058">
        <ele>239.2</ele>
        <time>2022-04-22T09:50:37Z</time>
      </trkpt>
      <trkpt lat="43.51951" lon="6.65058">
        <ele>239.1</ele>
        <time>2022-04-22T09:50:38Z</time>
      </trkpt>
      <trkpt lat="43.51951" lon="6.65059">
        <ele>239</ele>
        <time>2022-04-22T09:50:39Z</time>
      </trkpt>
      <trkpt lat="43.51949" lon="6.65059">
        <ele>239</ele>
        <time>2022-04-22T09:50:40Z</time>
      </trkpt>
      <trkpt lat="43.51948" lon="6.65059">
        <ele>238.9</ele>
        <time>2022-04-22T09:50:41Z</time>
      </trkpt>
      <trkpt lat="43.51947" lon="6.65059">
        <ele>238.7</ele>
        <time>2022-04-22T09:50:43Z</time>
      </trkpt>
      <trkpt lat="43.51945" lon="6.65058">
        <ele>238.6</ele>
        <time>2022-04-22T09:50:44Z</time>
      </trkpt>
      <trkpt lat="43.51944" lon="6.65058">
        <ele>238.5</ele>
        <time>2022-04-22T09:50:45Z</time>
      </trkpt>
      <trkpt lat="43.51943" lon="6.65058">
        <ele>238.5</ele>
        <time>2022-04-22T09:50:46Z</time>
      </trkpt>
      <trkpt lat="43.51941" lon="6.65058">
        <ele>238.3</ele>
        <time>2022-04-22T09:50:47Z</time>
      </trkpt>
      <trkpt lat="43.5194" lon="6.65058">
        <ele>238.2</ele>
        <time>2022-04-22T09:50:48Z</time>
      </trkpt>
      <trkpt lat="43.51939" lon="6.65058">
        <ele>238.2</ele>
        <time>2022-04-22T09:50:49Z</time>
      </trkpt>
      <trkpt lat="43.51938" lon="6.65058">
        <ele>238.1</ele>
        <time>2022-04-22T09:50:50Z</time>
      </trkpt>
      <trkpt lat="43.51936" lon="6.65059">
        <ele>237.9</ele>
        <time>2022-04-22T09:50:51Z</time>
      </trkpt>
      <trkpt lat="43.51933" lon="6.65059">
        <ele>237.7</ele>
        <time>2022-04-22T09:50:52Z</time>
      </trkpt>
      <trkpt lat="43.51932" lon="6.6506">
        <ele>237.6</ele>
        <time>2022-04-22T09:50:53Z</time>
      </trkpt>
      <trkpt lat="43.51928" lon="6.65061">
        <ele>237.3</ele>
        <time>2022-04-22T09:50:54Z</time>
      </trkpt>
      <trkpt lat="43.51927" lon="6.65061">
        <ele>237.3</ele>
        <time>2022-04-22T09:50:55Z</time>
      </trkpt>
      <trkpt lat="43.51924" lon="6.65062">
        <ele>237</ele>
        <time>2022-04-22T09:50:56Z</time>
      </trkpt>
      <trkpt lat="43.51923" lon="6.65062">
        <ele>236.9</ele>
        <time>2022-04-22T09:50:57Z</time>
      </trkpt>
      <trkpt lat="43.5192" lon="6.65062">
        <ele>236.7</ele>
        <time>2022-04-22T09:50:58Z</time>
      </trkpt>
      <trkpt lat="43.51919" lon="6.65062">
        <ele>236.7</ele>
        <time>2022-04-22T09:50:59Z</time>
      </trkpt>
      <trkpt lat="43.51916" lon="6.65063">
        <ele>236.5</ele>
        <time>2022-04-22T09:51:00Z</time>
      </trkpt>
      <trkpt lat="43.51915" lon="6.65063">
        <ele>236.4</ele>
        <time>2022-04-22T09:51:01Z</time>
      </trkpt>
      <trkpt lat="43.51914" lon="6.65063">
        <ele>236.3</ele>
        <time>2022-04-22T09:51:02Z</time>
      </trkpt>
      <trkpt lat="43.51912" lon="6.65064">
        <ele>236.2</ele>
        <time>2022-04-22T09:51:03Z</time>
      </trkpt>
      <trkpt lat="43.51911" lon="6.65064">
        <ele>236.1</ele>
        <time>2022-04-22T09:51:04Z</time>
      </trkpt>
      <trkpt lat="43.51909" lon="6.65065">
        <ele>236</ele>
        <time>2022-04-22T09:51:05Z</time>
      </trkpt>
      <trkpt lat="43.51907" lon="6.65065">
        <ele>235.8</ele>
        <time>2022-04-22T09:51:06Z</time>
      </trkpt>
      <trkpt lat="43.51905" lon="6.65065">
        <ele>235.7</ele>
        <time>2022-04-22T09:51:07Z</time>
      </trkpt>
      <trkpt lat="43.51904" lon="6.65065">
        <ele>235.6</ele>
        <time>2022-04-22T09:51:08Z</time>
      </trkpt>
      <trkpt lat="43.51902" lon="6.65066">
        <ele>235.5</ele>
        <time>2022-04-22T09:51:09Z</time>
      </trkpt>
      <trkpt lat="43.51901" lon="6.65066">
        <ele>235.4</ele>
        <time>2022-04-22T09:51:10Z</time>
      </trkpt>
      <trkpt lat="43.51899" lon="6.65066">
        <ele>235.3</ele>
        <time>2022-04-22T09:51:11Z</time>
      </trkpt>
      <trkpt lat="43.51898" lon="6.65067">
        <ele>235.2</ele>
        <time>2022-04-22T09:51:12Z</time>
      </trkpt>
      <trkpt lat="43.51896" lon="6.65067">
        <ele>235.1</ele>
        <time>2022-04-22T09:51:13Z</time>
      </trkpt>
      <trkpt lat="43.51895" lon="6.65066">
        <ele>235</ele>
        <time>2022-04-22T09:51:14Z</time>
      </trkpt>
      <trkpt lat="43.51893" lon="6.65066">
        <ele>234.9</ele>
        <time>2022-04-22T09:51:15Z</time>
      </trkpt>
      <trkpt lat="43.51892" lon="6.65066">
        <ele>234.8</ele>
        <time>2022-04-22T09:51:16Z</time>
      </trkpt>
      <trkpt lat="43.5189" lon="6.65066">
        <ele>234.6</ele>
        <time>2022-04-22T09:51:17Z</time>
      </trkpt>
      <trkpt lat="43.51888" lon="6.65066">
        <ele>234.5</ele>
        <time>2022-04-22T09:51:18Z</time>
      </trkpt>
      <trkpt lat="43.51887" lon="6.65066">
        <ele>234.4</ele>
        <time>2022-04-22T09:51:19Z</time>
      </trkpt>
      <trkpt lat="43.51884" lon="6.65066">
        <ele>234.3</ele>
        <time>2022-04-22T09:51:21Z</time>
      </trkpt>
      <trkpt lat="43.51883" lon="6.65066">
        <ele>234.2</ele>
        <time>2022-04-22T09:51:22Z</time>
      </trkpt>
      <trkpt lat="43.51881" lon="6.65066">
        <ele>234.1</ele>
        <time>2022-04-22T09:51:23Z</time>
      </trkpt>
      <trkpt lat="43.5188" lon="6.65066">
        <ele>234</ele>
        <time>2022-04-22T09:51:24Z</time>
      </trkpt>
      <trkpt lat="43.51878" lon="6.65067">
        <ele>233.9</ele>
        <time>2022-04-22T09:51:25Z</time>
      </trkpt>
      <trkpt lat="43.51876" lon="6.65067">
        <ele>233.8</ele>
        <time>2022-04-22T09:51:26Z</time>
      </trkpt>
      <trkpt lat="43.51875" lon="6.65068">
        <ele>233.7</ele>
        <time>2022-04-22T09:51:27Z</time>
      </trkpt>
      <trkpt lat="43.51873" lon="6.65068">
        <ele>233.6</ele>
        <time>2022-04-22T09:51:28Z</time>
      </trkpt>
      <trkpt lat="43.5187" lon="6.6507">
        <ele>233.4</ele>
        <time>2022-04-22T09:51:29Z</time>
      </trkpt>
      <trkpt lat="43.51867" lon="6.65071">
        <ele>233.2</ele>
        <time>2022-04-22T09:51:31Z</time>
      </trkpt>
      <trkpt lat="43.51866" lon="6.65071">
        <ele>233.1</ele>
        <time>2022-04-22T09:51:32Z</time>
      </trkpt>
      <trkpt lat="43.51865" lon="6.65072">
        <ele>233</ele>
        <time>2022-04-22T09:51:33Z</time>
      </trkpt>
      <trkpt lat="43.51863" lon="6.65072">
        <ele>232.9</ele>
        <time>2022-04-22T09:51:34Z</time>
      </trkpt>
      <trkpt lat="43.51862" lon="6.65073">
        <ele>232.8</ele>
        <time>2022-04-22T09:51:35Z</time>
      </trkpt>
      <trkpt lat="43.5186" lon="6.65073">
        <ele>232.7</ele>
        <time>2022-04-22T09:51:36Z</time>
      </trkpt>
      <trkpt lat="43.51858" lon="6.65074">
        <ele>232.6</ele>
        <time>2022-04-22T09:51:37Z</time>
      </trkpt>
      <trkpt lat="43.51856" lon="6.65075">
        <ele>232.5</ele>
        <time>2022-04-22T09:51:38Z</time>
      </trkpt>
      <trkpt lat="43.51855" lon="6.65075">
        <ele>232.4</ele>
        <time>2022-04-22T09:51:39Z</time>
      </trkpt>
      <trkpt lat="43.51854" lon="6.65076">
        <ele>232.3</ele>
        <time>2022-04-22T09:51:40Z</time>
      </trkpt>
      <trkpt lat="43.51852" lon="6.65076">
        <ele>232.2</ele>
        <time>2022-04-22T09:51:41Z</time>
      </trkpt>
      <trkpt lat="43.51851" lon="6.65077">
        <ele>232.1</ele>
        <time>2022-04-22T09:51:42Z</time>
      </trkpt>
      <trkpt lat="43.51848" lon="6.65078">
        <ele>231.9</ele>
        <time>2022-04-22T09:51:43Z</time>
      </trkpt>
      <trkpt lat="43.51847" lon="6.65078">
        <ele>231.9</ele>
        <time>2022-04-22T09:51:44Z</time>
      </trkpt>
      <trkpt lat="43.51846" lon="6.65079">
        <ele>231.8</ele>
        <time>2022-04-22T09:51:45Z</time>
      </trkpt>
      <trkpt lat="43.51845" lon="6.6508">
        <ele>231.7</ele>
        <time>2022-04-22T09:51:46Z</time>
      </trkpt>
      <trkpt lat="43.51844" lon="6.65081">
        <ele>231.6</ele>
        <time>2022-04-22T09:51:47Z</time>
      </trkpt>
      <trkpt lat="43.51843" lon="6.65082">
        <ele>231.5</ele>
        <time>2022-04-22T09:51:48Z</time>
      </trkpt>
      <trkpt lat="43.51842" lon="6.65084">
        <ele>231.4</ele>
        <time>2022-04-22T09:51:49Z</time>
      </trkpt>
      <trkpt lat="43.5184" lon="6.65085">
        <ele>231.3</ele>
        <time>2022-04-22T09:51:50Z</time>
      </trkpt>
      <trkpt lat="43.51839" lon="6.65086">
        <ele>231.3</ele>
        <time>2022-04-22T09:51:51Z</time>
      </trkpt>
      <trkpt lat="43.51837" lon="6.65087">
        <ele>231.1</ele>
        <time>2022-04-22T09:51:53Z</time>
      </trkpt>
      <trkpt lat="43.51835" lon="6.65088">
        <ele>231</ele>
        <time>2022-04-22T09:51:54Z</time>
      </trkpt>
      <trkpt lat="43.51834" lon="6.65089">
        <ele>230.9</ele>
        <time>2022-04-22T09:51:55Z</time>
      </trkpt>
      <trkpt lat="43.51832" lon="6.6509">
        <ele>230.8</ele>
        <time>2022-04-22T09:51:56Z</time>
      </trkpt>
      <trkpt lat="43.51831" lon="6.65091">
        <ele>230.7</ele>
        <time>2022-04-22T09:51:57Z</time>
      </trkpt>
      <trkpt lat="43.5183" lon="6.65092">
        <ele>230.6</ele>
        <time>2022-04-22T09:51:58Z</time>
      </trkpt>
      <trkpt lat="43.51828" lon="6.65093">
        <ele>230.5</ele>
        <time>2022-04-22T09:51:59Z</time>
      </trkpt>
      <trkpt lat="43.51826" lon="6.65094">
        <ele>230.4</ele>
        <time>2022-04-22T09:52:00Z</time>
      </trkpt>
      <trkpt lat="43.51825" lon="6.65094">
        <ele>230.3</ele>
        <time>2022-04-22T09:52:01Z</time>
      </trkpt>
      <trkpt lat="43.51824" lon="6.65094">
        <ele>230.3</ele>
        <time>2022-04-22T09:52:02Z</time>
      </trkpt>
      <trkpt lat="43.51822" lon="6.65095">
        <ele>230.1</ele>
        <time>2022-04-22T09:52:03Z</time>
      </trkpt>
      <trkpt lat="43.51821" lon="6.65095">
        <ele>230.1</ele>
        <time>2022-04-22T09:52:04Z</time>
      </trkpt>
      <trkpt lat="43.51819" lon="6.65096">
        <ele>230</ele>
        <time>2022-04-22T09:52:05Z</time>
      </trkpt>
      <trkpt lat="43.51818" lon="6.65097">
        <ele>229.9</ele>
        <time>2022-04-22T09:52:06Z</time>
      </trkpt>
      <trkpt lat="43.51817" lon="6.65099">
        <ele>229.8</ele>
        <time>2022-04-22T09:52:07Z</time>
      </trkpt>
      <trkpt lat="43.51816" lon="6.651">
        <ele>229.7</ele>
        <time>2022-04-22T09:52:08Z</time>
      </trkpt>
      <trkpt lat="43.51815" lon="6.65102">
        <ele>229.6</ele>
        <time>2022-04-22T09:52:09Z</time>
      </trkpt>
      <trkpt lat="43.51813" lon="6.65103">
        <ele>229.5</ele>
        <time>2022-04-22T09:52:10Z</time>
      </trkpt>
      <trkpt lat="43.51811" lon="6.65106">
        <ele>229.3</ele>
        <time>2022-04-22T09:52:11Z</time>
      </trkpt>
      <trkpt lat="43.5181" lon="6.65107">
        <ele>229.3</ele>
        <time>2022-04-22T09:52:12Z</time>
      </trkpt>
      <trkpt lat="43.51808" lon="6.65108">
        <ele>229.1</ele>
        <time>2022-04-22T09:52:14Z</time>
      </trkpt>
      <trkpt lat="43.51807" lon="6.65109">
        <ele>229.1</ele>
        <time>2022-04-22T09:52:15Z</time>
      </trkpt>
      <trkpt lat="43.51806" lon="6.6511">
        <ele>229</ele>
        <time>2022-04-22T09:52:16Z</time>
      </trkpt>
      <trkpt lat="43.51804" lon="6.65111">
        <ele>228.9</ele>
        <time>2022-04-22T09:52:17Z</time>
      </trkpt>
      <trkpt lat="43.51801" lon="6.65113">
        <ele>228.7</ele>
        <time>2022-04-22T09:52:18Z</time>
      </trkpt>
      <trkpt lat="43.518" lon="6.65113">
        <ele>228.6</ele>
        <time>2022-04-22T09:52:19Z</time>
      </trkpt>
      <trkpt lat="43.51799" lon="6.65114">
        <ele>228.5</ele>
        <time>2022-04-22T09:52:20Z</time>
      </trkpt>
      <trkpt lat="43.51797" lon="6.65115">
        <ele>228.4</ele>
        <time>2022-04-22T09:52:21Z</time>
      </trkpt>
      <trkpt lat="43.51795" lon="6.65115">
        <ele>228.3</ele>
        <time>2022-04-22T09:52:22Z</time>
      </trkpt>
      <trkpt lat="43.51793" lon="6.65115">
        <ele>228.2</ele>
        <time>2022-04-22T09:52:23Z</time>
      </trkpt>
      <trkpt lat="43.51792" lon="6.65115">
        <ele>228.1</ele>
        <time>2022-04-22T09:52:24Z</time>
      </trkpt>
      <trkpt lat="43.5179" lon="6.65115">
        <ele>228</ele>
        <time>2022-04-22T09:52:25Z</time>
      </trkpt>
      <trkpt lat="43.51789" lon="6.65115">
        <ele>228</ele>
        <time>2022-04-22T09:52:26Z</time>
      </trkpt>
      <trkpt lat="43.51787" lon="6.65115">
        <ele>227.9</ele>
        <time>2022-04-22T09:52:27Z</time>
      </trkpt>
      <trkpt lat="43.51784" lon="6.65114">
        <ele>227.7</ele>
        <time>2022-04-22T09:52:28Z</time>
      </trkpt>
      <trkpt lat="43.51783" lon="6.65114">
        <ele>227.6</ele>
        <time>2022-04-22T09:52:29Z</time>
      </trkpt>
      <trkpt lat="43.5178" lon="6.65113">
        <ele>227.5</ele>
        <time>2022-04-22T09:52:30Z</time>
      </trkpt>
      <trkpt lat="43.51779" lon="6.65113">
        <ele>227.4</ele>
        <time>2022-04-22T09:52:31Z</time>
      </trkpt>
      <trkpt lat="43.51776" lon="6.65112">
        <ele>227.2</ele>
        <time>2022-04-22T09:52:33Z</time>
      </trkpt>
      <trkpt lat="43.51775" lon="6.65112">
        <ele>227.2</ele>
        <time>2022-04-22T09:52:34Z</time>
      </trkpt>
      <trkpt lat="43.51773" lon="6.65112">
        <ele>227</ele>
        <time>2022-04-22T09:52:36Z</time>
      </trkpt>
      <trkpt lat="43.51771" lon="6.65112">
        <ele>226.9</ele>
        <time>2022-04-22T09:52:37Z</time>
      </trkpt>
      <trkpt lat="43.51769" lon="6.65113">
        <ele>226.8</ele>
        <time>2022-04-22T09:52:38Z</time>
      </trkpt>
      <trkpt lat="43.51768" lon="6.65115">
        <ele>226.6</ele>
        <time>2022-04-22T09:52:39Z</time>
      </trkpt>
      <trkpt lat="43.51767" lon="6.65116">
        <ele>226.6</ele>
        <time>2022-04-22T09:52:40Z</time>
      </trkpt>
      <trkpt lat="43.51767" lon="6.65117">
        <ele>226.6</ele>
        <time>2022-04-22T09:52:41Z</time>
      </trkpt>
      <trkpt lat="43.51766" lon="6.65118">
        <ele>226.5</ele>
        <time>2022-04-22T09:52:42Z</time>
      </trkpt>
      <trkpt lat="43.51765" lon="6.65119">
        <ele>226.4</ele>
        <time>2022-04-22T09:52:43Z</time>
      </trkpt>
      <trkpt lat="43.51764" lon="6.6512">
        <ele>226.3</ele>
        <time>2022-04-22T09:52:44Z</time>
      </trkpt>
      <trkpt lat="43.51763" lon="6.65121">
        <ele>226.3</ele>
        <time>2022-04-22T09:52:45Z</time>
      </trkpt>
      <trkpt lat="43.51763" lon="6.65121">
        <ele>226.3</ele>
        <time>2022-04-22T09:52:46Z</time>
      </trkpt>
      <trkpt lat="43.51762" lon="6.65121">
        <ele>226.2</ele>
        <time>2022-04-22T09:52:47Z</time>
      </trkpt>
      <trkpt lat="43.5176" lon="6.65122">
        <ele>226.1</ele>
        <time>2022-04-22T09:52:49Z</time>
      </trkpt>
      <trkpt lat="43.51759" lon="6.65122">
        <ele>226</ele>
        <time>2022-04-22T09:52:50Z</time>
      </trkpt>
      <trkpt lat="43.51758" lon="6.65123">
        <ele>226</ele>
        <time>2022-04-22T09:52:51Z</time>
      </trkpt>
      <trkpt lat="43.51757" lon="6.65125">
        <ele>225.9</ele>
        <time>2022-04-22T09:52:52Z</time>
      </trkpt>
      <trkpt lat="43.51755" lon="6.65128">
        <ele>225.7</ele>
        <time>2022-04-22T09:52:53Z</time>
      </trkpt>
      <trkpt lat="43.51754" lon="6.65129">
        <ele>225.6</ele>
        <time>2022-04-22T09:52:54Z</time>
      </trkpt>
      <trkpt lat="43.51753" lon="6.65131">
        <ele>225.5</ele>
        <time>2022-04-22T09:52:55Z</time>
      </trkpt>
      <trkpt lat="43.5175" lon="6.65134">
        <ele>225.3</ele>
        <time>2022-04-22T09:52:56Z</time>
      </trkpt>
      <trkpt lat="43.51749" lon="6.65135">
        <ele>225.2</ele>
        <time>2022-04-22T09:52:57Z</time>
      </trkpt>
      <trkpt lat="43.51747" lon="6.65138">
        <ele>225</ele>
        <time>2022-04-22T09:52:58Z</time>
      </trkpt>
      <trkpt lat="43.51744" lon="6.65141">
        <ele>224.8</ele>
        <time>2022-04-22T09:52:59Z</time>
      </trkpt>
      <trkpt lat="43.51743" lon="6.65142">
        <ele>224.8</ele>
        <time>2022-04-22T09:53:00Z</time>
      </trkpt>
      <trkpt lat="43.51741" lon="6.65144">
        <ele>224.6</ele>
        <time>2022-04-22T09:53:01Z</time>
      </trkpt>
      <trkpt lat="43.51739" lon="6.65146">
        <ele>224.4</ele>
        <time>2022-04-22T09:53:03Z</time>
      </trkpt>
      <trkpt lat="43.51737" lon="6.65148">
        <ele>224.3</ele>
        <time>2022-04-22T09:53:04Z</time>
      </trkpt>
      <trkpt lat="43.51736" lon="6.65149">
        <ele>224.2</ele>
        <time>2022-04-22T09:53:05Z</time>
      </trkpt>
      <trkpt lat="43.51733" lon="6.65151">
        <ele>224</ele>
        <time>2022-04-22T09:53:06Z</time>
      </trkpt>
      <trkpt lat="43.51732" lon="6.65151">
        <ele>224</ele>
        <time>2022-04-22T09:53:07Z</time>
      </trkpt>
      <trkpt lat="43.5173" lon="6.65154">
        <ele>223.8</ele>
        <time>2022-04-22T09:53:09Z</time>
      </trkpt>
      <trkpt lat="43.51729" lon="6.65155">
        <ele>223.7</ele>
        <time>2022-04-22T09:53:10Z</time>
      </trkpt>
      <trkpt lat="43.51727" lon="6.65156">
        <ele>223.6</ele>
        <time>2022-04-22T09:53:11Z</time>
      </trkpt>
      <trkpt lat="43.51725" lon="6.65157">
        <ele>223.5</ele>
        <time>2022-04-22T09:53:12Z</time>
      </trkpt>
      <trkpt lat="43.51724" lon="6.65158">
        <ele>223.4</ele>
        <time>2022-04-22T09:53:13Z</time>
      </trkpt>
      <trkpt lat="43.51723" lon="6.6516">
        <ele>223.3</ele>
        <time>2022-04-22T09:53:14Z</time>
      </trkpt>
      <trkpt lat="43.51721" lon="6.6516">
        <ele>223.2</ele>
        <time>2022-04-22T09:53:15Z</time>
      </trkpt>
      <trkpt lat="43.5172" lon="6.65161">
        <ele>223.1</ele>
        <time>2022-04-22T09:53:16Z</time>
      </trkpt>
      <trkpt lat="43.51719" lon="6.65162">
        <ele>223</ele>
        <time>2022-04-22T09:53:17Z</time>
      </trkpt>
      <trkpt lat="43.51717" lon="6.65163">
        <ele>223</ele>
        <time>2022-04-22T09:53:18Z</time>
      </trkpt>
      <trkpt lat="43.51716" lon="6.65164">
        <ele>222.9</ele>
        <time>2022-04-22T09:53:19Z</time>
      </trkpt>
      <trkpt lat="43.51715" lon="6.65165">
        <ele>222.8</ele>
        <time>2022-04-22T09:53:20Z</time>
      </trkpt>
      <trkpt lat="43.51713" lon="6.65165">
        <ele>222.7</ele>
        <time>2022-04-22T09:53:21Z</time>
      </trkpt>
      <trkpt lat="43.5171" lon="6.65168">
        <ele>222.5</ele>
        <time>2022-04-22T09:53:23Z</time>
      </trkpt>
      <trkpt lat="43.51709" lon="6.65168">
        <ele>222.4</ele>
        <time>2022-04-22T09:53:24Z</time>
      </trkpt>
      <trkpt lat="43.51708" lon="6.65169">
        <ele>222.4</ele>
        <time>2022-04-22T09:53:25Z</time>
      </trkpt>
      <trkpt lat="43.51707" lon="6.65169">
        <ele>222.3</ele>
        <time>2022-04-22T09:53:26Z</time>
      </trkpt>
      <trkpt lat="43.51705" lon="6.65171">
        <ele>222.2</ele>
        <time>2022-04-22T09:53:27Z</time>
      </trkpt>
      <trkpt lat="43.51704" lon="6.65171">
        <ele>222.1</ele>
        <time>2022-04-22T09:53:28Z</time>
      </trkpt>
      <trkpt lat="43.51704" lon="6.65172">
        <ele>222.1</ele>
        <time>2022-04-22T09:53:29Z</time>
      </trkpt>
      <trkpt lat="43.51703" lon="6.65174">
        <ele>222</ele>
        <time>2022-04-22T09:53:31Z</time>
      </trkpt>
      <trkpt lat="43.51702" lon="6.65175">
        <ele>221.9</ele>
        <time>2022-04-22T09:53:32Z</time>
      </trkpt>
      <trkpt lat="43.51702" lon="6.65175">
        <ele>221.9</ele>
        <time>2022-04-22T09:53:33Z</time>
      </trkpt>
      <trkpt lat="43.51701" lon="6.65176">
        <ele>221.8</ele>
        <time>2022-04-22T09:53:34Z</time>
      </trkpt>
      <trkpt lat="43.517" lon="6.65177">
        <ele>221.8</ele>
        <time>2022-04-22T09:53:35Z</time>
      </trkpt>
      <trkpt lat="43.517" lon="6.65178">
        <ele>221.7</ele>
        <time>2022-04-22T09:53:36Z</time>
      </trkpt>
      <trkpt lat="43.51699" lon="6.65179">
        <ele>221.7</ele>
        <time>2022-04-22T09:53:37Z</time>
      </trkpt>
      <trkpt lat="43.51698" lon="6.6518">
        <ele>221.6</ele>
        <time>2022-04-22T09:53:38Z</time>
      </trkpt>
      <trkpt lat="43.51697" lon="6.65181">
        <ele>221.6</ele>
        <time>2022-04-22T09:53:39Z</time>
      </trkpt>
      <trkpt lat="43.51697" lon="6.65182">
        <ele>221.5</ele>
        <time>2022-04-22T09:53:40Z</time>
      </trkpt>
      <trkpt lat="43.51696" lon="6.65183">
        <ele>221.4</ele>
        <time>2022-04-22T09:53:41Z</time>
      </trkpt>
      <trkpt lat="43.51695" lon="6.65184">
        <ele>221.4</ele>
        <time>2022-04-22T09:53:42Z</time>
      </trkpt>
      <trkpt lat="43.51694" lon="6.65185">
        <ele>221.3</ele>
        <time>2022-04-22T09:53:43Z</time>
      </trkpt>
      <trkpt lat="43.51693" lon="6.65186">
        <ele>221.3</ele>
        <time>2022-04-22T09:53:44Z</time>
      </trkpt>
      <trkpt lat="43.51692" lon="6.65187">
        <ele>221.2</ele>
        <time>2022-04-22T09:53:45Z</time>
      </trkpt>
      <trkpt lat="43.51691" lon="6.65189">
        <ele>221.1</ele>
        <time>2022-04-22T09:53:46Z</time>
      </trkpt>
      <trkpt lat="43.5169" lon="6.65191">
        <ele>221</ele>
        <time>2022-04-22T09:53:47Z</time>
      </trkpt>
      <trkpt lat="43.51688" lon="6.65193">
        <ele>220.9</ele>
        <time>2022-04-22T09:53:48Z</time>
      </trkpt>
      <trkpt lat="43.51687" lon="6.65194">
        <ele>220.8</ele>
        <time>2022-04-22T09:53:49Z</time>
      </trkpt>
      <trkpt lat="43.51685" lon="6.65197">
        <ele>220.7</ele>
        <time>2022-04-22T09:53:50Z</time>
      </trkpt>
      <trkpt lat="43.51685" lon="6.65198">
        <ele>220.6</ele>
        <time>2022-04-22T09:53:51Z</time>
      </trkpt>
      <trkpt lat="43.51683" lon="6.652">
        <ele>220.5</ele>
        <time>2022-04-22T09:53:52Z</time>
      </trkpt>
      <trkpt lat="43.51682" lon="6.65202">
        <ele>220.4</ele>
        <time>2022-04-22T09:53:53Z</time>
      </trkpt>
      <trkpt lat="43.5168" lon="6.65205">
        <ele>220.2</ele>
        <time>2022-04-22T09:53:54Z</time>
      </trkpt>
      <trkpt lat="43.5168" lon="6.65206">
        <ele>220.2</ele>
        <time>2022-04-22T09:53:55Z</time>
      </trkpt>
      <trkpt lat="43.51678" lon="6.65209">
        <ele>220</ele>
        <time>2022-04-22T09:53:56Z</time>
      </trkpt>
      <trkpt lat="43.51678" lon="6.65211">
        <ele>220</ele>
        <time>2022-04-22T09:53:57Z</time>
      </trkpt>
      <trkpt lat="43.51677" lon="6.65213">
        <ele>219.9</ele>
        <time>2022-04-22T09:53:58Z</time>
      </trkpt>
      <trkpt lat="43.51676" lon="6.65215">
        <ele>219.8</ele>
        <time>2022-04-22T09:53:59Z</time>
      </trkpt>
      <trkpt lat="43.51675" lon="6.65217">
        <ele>219.7</ele>
        <time>2022-04-22T09:54:00Z</time>
      </trkpt>
      <trkpt lat="43.51675" lon="6.65218">
        <ele>219.6</ele>
        <time>2022-04-22T09:54:01Z</time>
      </trkpt>
      <trkpt lat="43.51674" lon="6.6522">
        <ele>219.5</ele>
        <time>2022-04-22T09:54:02Z</time>
      </trkpt>
      <trkpt lat="43.51673" lon="6.65222">
        <ele>219.4</ele>
        <time>2022-04-22T09:54:03Z</time>
      </trkpt>
      <trkpt lat="43.51672" lon="6.65224">
        <ele>219.3</ele>
        <time>2022-04-22T09:54:04Z</time>
      </trkpt>
      <trkpt lat="43.51671" lon="6.65226">
        <ele>219.2</ele>
        <time>2022-04-22T09:54:05Z</time>
      </trkpt>
      <trkpt lat="43.51669" lon="6.65228">
        <ele>219.1</ele>
        <time>2022-04-22T09:54:06Z</time>
      </trkpt>
      <trkpt lat="43.51669" lon="6.65228">
        <ele>219.1</ele>
        <time>2022-04-22T09:54:07Z</time>
      </trkpt>
      <trkpt lat="43.51668" lon="6.65228">
        <ele>219</ele>
        <time>2022-04-22T09:54:08Z</time>
      </trkpt>
      <trkpt lat="43.51666" lon="6.65228">
        <ele>218.9</ele>
        <time>2022-04-22T09:54:09Z</time>
      </trkpt>
      <trkpt lat="43.51665" lon="6.65228">
        <ele>218.9</ele>
        <time>2022-04-22T09:54:10Z</time>
      </trkpt>
      <trkpt lat="43.51664" lon="6.65228">
        <ele>218.8</ele>
        <time>2022-04-22T09:54:11Z</time>
      </trkpt>
      <trkpt lat="43.51662" lon="6.65228">
        <ele>218.8</ele>
        <time>2022-04-22T09:54:12Z</time>
      </trkpt>
      <trkpt lat="43.51661" lon="6.65228">
        <ele>218.6</ele>
        <time>2022-04-22T09:54:13Z</time>
      </trkpt>
      <trkpt lat="43.51659" lon="6.65228">
        <ele>218.6</ele>
        <time>2022-04-22T09:54:14Z</time>
      </trkpt>
      <trkpt lat="43.51658" lon="6.65229">
        <ele>218.5</ele>
        <time>2022-04-22T09:54:15Z</time>
      </trkpt>
      <trkpt lat="43.51655" lon="6.6523">
        <ele>218.5</ele>
        <time>2022-04-22T09:54:16Z</time>
      </trkpt>
      <trkpt lat="43.51654" lon="6.6523">
        <ele>218.5</ele>
        <time>2022-04-22T09:54:17Z</time>
      </trkpt>
      <trkpt lat="43.51651" lon="6.65231">
        <ele>218.4</ele>
        <time>2022-04-22T09:54:18Z</time>
      </trkpt>
      <trkpt lat="43.5165" lon="6.65231">
        <ele>218.4</ele>
        <time>2022-04-22T09:54:19Z</time>
      </trkpt>
      <trkpt lat="43.51649" lon="6.65232">
        <ele>218.4</ele>
        <time>2022-04-22T09:54:20Z</time>
      </trkpt>
      <trkpt lat="43.51647" lon="6.65232">
        <ele>218.4</ele>
        <time>2022-04-22T09:54:21Z</time>
      </trkpt>
      <trkpt lat="43.51645" lon="6.65232">
        <ele>218.4</ele>
        <time>2022-04-22T09:54:22Z</time>
      </trkpt>
      <trkpt lat="43.51644" lon="6.65233">
        <ele>218.4</ele>
        <time>2022-04-22T09:54:23Z</time>
      </trkpt>
      <trkpt lat="43.51643" lon="6.65232">
        <ele>218.4</ele>
        <time>2022-04-22T09:54:24Z</time>
      </trkpt>
      <trkpt lat="43.51641" lon="6.65232">
        <ele>218.4</ele>
        <time>2022-04-22T09:54:25Z</time>
      </trkpt>
      <trkpt lat="43.5164" lon="6.65233">
        <ele>218.4</ele>
        <time>2022-04-22T09:54:27Z</time>
      </trkpt>
      <trkpt lat="43.5164" lon="6.65235">
        <ele>218.3</ele>
        <time>2022-04-22T09:54:29Z</time>
      </trkpt>
      <trkpt lat="43.5164" lon="6.65235">
        <ele>218.3</ele>
        <time>2022-04-22T09:54:30Z</time>
      </trkpt>
      <trkpt lat="43.51641" lon="6.65235">
        <ele>218.3</ele>
        <time>2022-04-22T09:54:31Z</time>
      </trkpt>
      <trkpt lat="43.51641" lon="6.65235">
        <ele>218.3</ele>
        <time>2022-04-22T09:54:32Z</time>
      </trkpt>
      <trkpt lat="43.51642" lon="6.65234">
        <ele>218.3</ele>
        <time>2022-04-22T09:54:34Z</time>
      </trkpt>
      <trkpt lat="43.51642" lon="6.65234">
        <ele>218.3</ele>
        <time>2022-04-22T09:54:35Z</time>
      </trkpt>
      <trkpt lat="43.51642" lon="6.65234">
        <ele>218.3</ele>
        <time>2022-04-22T09:54:36Z</time>
      </trkpt>
      <trkpt lat="43.51643" lon="6.65234">
        <ele>218.3</ele>
        <time>2022-04-22T09:54:37Z</time>
      </trkpt>
      <trkpt lat="43.51643" lon="6.65234">
        <ele>218.3</ele>
        <time>2022-04-22T09:54:39Z</time>
      </trkpt>
      <trkpt lat="43.51643" lon="6.65234">
        <ele>218.3</ele>
        <time>2022-04-22T09:54:40Z</time>
      </trkpt>
      <trkpt lat="43.51643" lon="6.65233">
        <ele>218.3</ele>
        <time>2022-04-22T09:54:41Z</time>
      </trkpt>
      <trkpt lat="43.51643" lon="6.65233">
        <ele>218.3</ele>
        <time>2022-04-22T09:54:42Z</time>
      </trkpt>
      <trkpt lat="43.51643" lon="6.65233">
        <ele>218.3</ele>
        <time>2022-04-22T09:54:43Z</time>
      </trkpt>
      <trkpt lat="43.51643" lon="6.65233">
        <ele>218.3</ele>
        <time>2022-04-22T09:54:44Z</time>
      </trkpt>
      <trkpt lat="43.51643" lon="6.65233">
        <ele>218.3</ele>
        <time>2022-04-22T09:54:45Z</time>
      </trkpt>
      <trkpt lat="43.51643" lon="6.65233">
        <ele>218.3</ele>
        <time>2022-04-22T09:54:46Z</time>
      </trkpt>
      <trkpt lat="43.51643" lon="6.65233">
        <ele>218.3</ele>
        <time>2022-04-22T09:54:47Z</time>
      </trkpt>
      <trkpt lat="43.51643" lon="6.65233">
        <ele>218.3</ele>
        <time>2022-04-22T09:54:48Z</time>
      </trkpt>
      <trkpt lat="43.51643" lon="6.65233">
        <ele>218.3</ele>
        <time>2022-04-22T09:54:49Z</time>
      </trkpt>
      <trkpt lat="43.51643" lon="6.65233">
        <ele>218.3</ele>
        <time>2022-04-22T09:54:50Z</time>
      </trkpt>
      <trkpt lat="43.51643" lon="6.65233">
        <ele>218.3</ele>
        <time>2022-04-22T09:54:51Z</time>
      </trkpt>
      <trkpt lat="43.51643" lon="6.65233">
        <ele>218.3</ele>
        <time>2022-04-22T09:54:52Z</time>
      </trkpt>
      <trkpt lat="43.51643" lon="6.65233">
        <ele>218.3</ele>
        <time>2022-04-22T09:54:53Z</time>
      </trkpt>
      <trkpt lat="43.51643" lon="6.65233">
        <ele>218.3</ele>
        <time>2022-04-22T09:54:54Z</time>
      </trkpt>
      <trkpt lat="43.51643" lon="6.65233">
        <ele>218.3</ele>
        <time>2022-04-22T09:54:55Z</time>
      </trkpt>
      <trkpt lat="43.51643" lon="6.65233">
        <ele>218.3</ele>
        <time>2022-04-22T09:54:56Z</time>
      </trkpt>
      <trkpt lat="43.51643" lon="6.65233">
        <ele>218.3</ele>
        <time>2022-04-22T09:54:57Z</time>
      </trkpt>
      <trkpt lat="43.51643" lon="6.65233">
        <ele>218.3</ele>
        <time>2022-04-22T09:54:58Z</time>
      </trkpt>
      <trkpt lat="43.51643" lon="6.65233">
        <ele>218.3</ele>
        <time>2022-04-22T09:54:59Z</time>
      </trkpt>
      <trkpt lat="43.51642" lon="6.65233">
        <ele>218.3</ele>
        <time>2022-04-22T09:55:00Z</time>
      </trkpt>
      <trkpt lat="43.51642" lon="6.65233">
        <ele>218.3</ele>
        <time>2022-04-22T09:55:01Z</time>
      </trkpt>
      <trkpt lat="43.51642" lon="6.65233">
        <ele>218.3</ele>
        <time>2022-04-22T09:55:02Z</time>
      </trkpt>
      <trkpt lat="43.51642" lon="6.65233">
        <ele>218.3</ele>
        <time>2022-04-22T09:55:03Z</time>
      </trkpt>
      <trkpt lat="43.51642" lon="6.65233">
        <ele>218.3</ele>
        <time>2022-04-22T09:55:04Z</time>
      </trkpt>
      <trkpt lat="43.51642" lon="6.65233">
        <ele>218.3</ele>
        <time>2022-04-22T09:55:05Z</time>
      </trkpt>
      <trkpt lat="43.51642" lon="6.65235">
        <ele>218.3</ele>
        <time>2022-04-22T09:55:06Z</time>
      </trkpt>
      <trkpt lat="43.51642" lon="6.65236">
        <ele>218.3</ele>
        <time>2022-04-22T09:55:07Z</time>
      </trkpt>
      <trkpt lat="43.51643" lon="6.65239">
        <ele>218.3</ele>
        <time>2022-04-22T09:55:08Z</time>
      </trkpt>
      <trkpt lat="43.51644" lon="6.65241">
        <ele>218.3</ele>
        <time>2022-04-22T09:55:10Z</time>
      </trkpt>
      <trkpt lat="43.51644" lon="6.65242">
        <ele>218.3</ele>
        <time>2022-04-22T09:55:11Z</time>
      </trkpt>
      <trkpt lat="43.51645" lon="6.65243">
        <ele>218.3</ele>
        <time>2022-04-22T09:55:12Z</time>
      </trkpt>
      <trkpt lat="43.51648" lon="6.65245">
        <ele>218.2</ele>
        <time>2022-04-22T09:55:13Z</time>
      </trkpt>
      <trkpt lat="43.51649" lon="6.65246">
        <ele>218.2</ele>
        <time>2022-04-22T09:55:14Z</time>
      </trkpt>
      <trkpt lat="43.51652" lon="6.65248">
        <ele>218.2</ele>
        <time>2022-04-22T09:55:15Z</time>
      </trkpt>
      <trkpt lat="43.51653" lon="6.65249">
        <ele>218.2</ele>
        <time>2022-04-22T09:55:16Z</time>
      </trkpt>
      <trkpt lat="43.51654" lon="6.6525">
        <ele>218.2</ele>
        <time>2022-04-22T09:55:17Z</time>
      </trkpt>
      <trkpt lat="43.51655" lon="6.65252">
        <ele>218.2</ele>
        <time>2022-04-22T09:55:18Z</time>
      </trkpt>
      <trkpt lat="43.51656" lon="6.65256">
        <ele>218.2</ele>
        <time>2022-04-22T09:55:20Z</time>
      </trkpt>
      <trkpt lat="43.51657" lon="6.65258">
        <ele>218.1</ele>
        <time>2022-04-22T09:55:21Z</time>
      </trkpt>
      <trkpt lat="43.51658" lon="6.6526">
        <ele>218.1</ele>
        <time>2022-04-22T09:55:22Z</time>
      </trkpt>
      <trkpt lat="43.51658" lon="6.65264">
        <ele>218</ele>
        <time>2022-04-22T09:55:23Z</time>
      </trkpt>
      <trkpt lat="43.51659" lon="6.65265">
        <ele>218</ele>
        <time>2022-04-22T09:55:24Z</time>
      </trkpt>
      <trkpt lat="43.5166" lon="6.6527">
        <ele>217.8</ele>
        <time>2022-04-22T09:55:25Z</time>
      </trkpt>
      <trkpt lat="43.51661" lon="6.65271">
        <ele>217.8</ele>
        <time>2022-04-22T09:55:26Z</time>
      </trkpt>
      <trkpt lat="43.51662" lon="6.65274">
        <ele>217.6</ele>
        <time>2022-04-22T09:55:27Z</time>
      </trkpt>
      <trkpt lat="43.51662" lon="6.65275">
        <ele>217.6</ele>
        <time>2022-04-22T09:55:28Z</time>
      </trkpt>
      <trkpt lat="43.51664" lon="6.6528">
        <ele>217.4</ele>
        <time>2022-04-22T09:55:30Z</time>
      </trkpt>
      <trkpt lat="43.51665" lon="6.65284">
        <ele>217.3</ele>
        <time>2022-04-22T09:55:31Z</time>
      </trkpt>
      <trkpt lat="43.51665" lon="6.65285">
        <ele>217.2</ele>
        <time>2022-04-22T09:55:32Z</time>
      </trkpt>
      <trkpt lat="43.51666" lon="6.65287">
        <ele>217.2</ele>
        <time>2022-04-22T09:55:33Z</time>
      </trkpt>
      <trkpt lat="43.51666" lon="6.65289">
        <ele>217.1</ele>
        <time>2022-04-22T09:55:34Z</time>
      </trkpt>
      <trkpt lat="43.51666" lon="6.65293">
        <ele>216.9</ele>
        <time>2022-04-22T09:55:35Z</time>
      </trkpt>
      <trkpt lat="43.51666" lon="6.65295">
        <ele>216.9</ele>
        <time>2022-04-22T09:55:36Z</time>
      </trkpt>
      <trkpt lat="43.51666" lon="6.65298">
        <ele>216.7</ele>
        <time>2022-04-22T09:55:37Z</time>
      </trkpt>
      <trkpt lat="43.51666" lon="6.653">
        <ele>216.7</ele>
        <time>2022-04-22T09:55:38Z</time>
      </trkpt>
      <trkpt lat="43.51665" lon="6.65304">
        <ele>216.5</ele>
        <time>2022-04-22T09:55:39Z</time>
      </trkpt>
      <trkpt lat="43.51665" lon="6.65305">
        <ele>216.5</ele>
        <time>2022-04-22T09:55:40Z</time>
      </trkpt>
      <trkpt lat="43.51664" lon="6.65307">
        <ele>216.4</ele>
        <time>2022-04-22T09:55:41Z</time>
      </trkpt>
      <trkpt lat="43.51663" lon="6.65308">
        <ele>216.3</ele>
        <time>2022-04-22T09:55:42Z</time>
      </trkpt>
      <trkpt lat="43.51662" lon="6.6531">
        <ele>216.3</ele>
        <time>2022-04-22T09:55:43Z</time>
      </trkpt>
      <trkpt lat="43.51662" lon="6.65312">
        <ele>216.2</ele>
        <time>2022-04-22T09:55:44Z</time>
      </trkpt>
      <trkpt lat="43.51661" lon="6.65314">
        <ele>216.1</ele>
        <time>2022-04-22T09:55:45Z</time>
      </trkpt>
      <trkpt lat="43.5166" lon="6.65316">
        <ele>216</ele>
        <time>2022-04-22T09:55:46Z</time>
      </trkpt>
      <trkpt lat="43.51659" lon="6.65317">
        <ele>216</ele>
        <time>2022-04-22T09:55:47Z</time>
      </trkpt>
      <trkpt lat="43.51658" lon="6.65319">
        <ele>215.9</ele>
        <time>2022-04-22T09:55:48Z</time>
      </trkpt>
      <trkpt lat="43.51657" lon="6.6532">
        <ele>215.8</ele>
        <time>2022-04-22T09:55:49Z</time>
      </trkpt>
      <trkpt lat="43.51657" lon="6.65322">
        <ele>215.7</ele>
        <time>2022-04-22T09:55:50Z</time>
      </trkpt>
      <trkpt lat="43.51657" lon="6.65323">
        <ele>215.7</ele>
        <time>2022-04-22T09:55:51Z</time>
      </trkpt>
      <trkpt lat="43.51656" lon="6.65324">
        <ele>215.6</ele>
        <time>2022-04-22T09:55:52Z</time>
      </trkpt>
      <trkpt lat="43.51655" lon="6.65323">
        <ele>215.6</ele>
        <time>2022-04-22T09:55:53Z</time>
      </trkpt>
      <trkpt lat="43.51654" lon="6.65323">
        <ele>215.5</ele>
        <time>2022-04-22T09:55:54Z</time>
      </trkpt>
      <trkpt lat="43.51653" lon="6.65321">
        <ele>215.5</ele>
        <time>2022-04-22T09:55:55Z</time>
      </trkpt>
    </trkseg>
  </trk>
</gpx>